<?xml version='1.0' encoding='UTF-8'?><gpx version="1.1" creator="JPX - https://github.com/jenetics/jpx" xmlns="http://www.topografix.com/GPX/1/1"><trk><trkseg><trkpt lat="45.70803265721327" lon="9.192276343144277"><ele>269.0</ele><time>2026-04-18T08:50:07.975Z</time></trkpt><trkpt lat="45.70796779630521" lon="9.192321380279479"><ele>269.0</ele><time>2026-04-18T08:52:41Z</time></trkpt><trkpt lat="45.707868254331814" lon="9.192460705681334"><ele>269.0</ele><time>2026-04-18T08:52:43Z</time></trkpt><trkpt lat="45.707832854719285" lon="9.192540443627367"><ele>269.0</ele><time>2026-04-18T08:52:44Z</time></trkpt><trkpt lat="45.70779211042355" lon="9.192613033384518"><ele>269.0</ele><time>2026-04-18T08:52:45Z</time></trkpt><trkpt lat="45.70768883437112" lon="9.192616397832154"><ele>269.0</ele><time>2026-04-18T08:52:46Z</time></trkpt><trkpt lat="45.70767838949519" lon="9.192737697204585"><ele>269.0</ele><time>2026-04-18T08:52:47Z</time></trkpt><trkpt lat="45.70762379520167" lon="9.19280569309071"><ele>269.0</ele><time>2026-04-18T08:52:48Z</time></trkpt><trkpt lat="45.707568080922485" lon="9.192882137925311"><ele>269.0</ele><time>2026-04-18T08:52:49Z</time></trkpt><trkpt lat="45.7075140506521" lon="9.192965645580111"><ele>269.0</ele><time>2026-04-18T08:52:50Z</time></trkpt><trkpt lat="45.70745531993402" lon="9.19304858509285"><ele>269.0</ele><time>2026-04-18T08:52:51Z</time></trkpt><trkpt lat="45.70739995622167" lon="9.193130329834233"><ele>269.0</ele><time>2026-04-18T08:52:52Z</time></trkpt><trkpt lat="45.70735481213219" lon="9.193198771792641"><ele>269.4</ele><time>2026-04-18T08:52:53Z</time></trkpt><trkpt lat="45.70728827355673" lon="9.193317811547136"><ele>269.79999999999995</ele><time>2026-04-18T08:52:55Z</time></trkpt><trkpt lat="45.707234481801045" lon="9.193382656330378"><ele>270.20000000000005</ele><time>2026-04-18T08:53:03Z</time></trkpt><trkpt lat="45.70731647158375" lon="9.193487926703177"><ele>270.6</ele><time>2026-04-18T08:53:04Z</time></trkpt><trkpt lat="45.70739223697911" lon="9.193570503898789"><ele>271.0</ele><time>2026-04-18T08:53:06Z</time></trkpt><trkpt lat="45.7074626463455" lon="9.193649916092445"><ele>271.0</ele><time>2026-04-18T08:53:08Z</time></trkpt><trkpt lat="45.70754505701181" lon="9.193752350068847"><ele>271.0</ele><time>2026-04-18T08:53:10Z</time></trkpt><trkpt lat="45.70763388564126" lon="9.193858636951061"><ele>271.0</ele><time>2026-04-18T08:53:12Z</time></trkpt><trkpt lat="45.707733341606605" lon="9.193955364861328"><ele>271.0</ele><time>2026-04-18T08:53:14Z</time></trkpt><trkpt lat="45.70778457390739" lon="9.194009253453729"><ele>271.0</ele><time>2026-04-18T08:53:15Z</time></trkpt><trkpt lat="45.70783559855545" lon="9.194067181757795"><ele>271.16666666666663</ele><time>2026-04-18T08:53:16Z</time></trkpt><trkpt lat="45.707888566885245" lon="9.194125008928026"><ele>271.3333333333333</ele><time>2026-04-18T08:53:17Z</time></trkpt><trkpt lat="45.70794591022866" lon="9.194189061416111"><ele>271.5</ele><time>2026-04-18T08:53:18Z</time></trkpt><trkpt lat="45.70800465769058" lon="9.194252453927094"><ele>271.6666666666667</ele><time>2026-04-18T08:53:19Z</time></trkpt><trkpt lat="45.70807276254399" lon="9.19432099422092"><ele>271.83333333333337</ele><time>2026-04-18T08:53:20Z</time></trkpt><trkpt lat="45.70815110557996" lon="9.19439875786603"><ele>272.0</ele><time>2026-04-18T08:53:21Z</time></trkpt><trkpt lat="45.70823634467882" lon="9.194477719199261"><ele>272.0</ele><time>2026-04-18T08:53:22Z</time></trkpt><trkpt lat="45.70830420274109" lon="9.194561160016724"><ele>272.0</ele><time>2026-04-18T08:53:23Z</time></trkpt><trkpt lat="45.70836117563787" lon="9.19464599062163"><ele>272.0</ele><time>2026-04-18T08:53:24Z</time></trkpt><trkpt lat="45.70841661568004" lon="9.194708782680975"><ele>272.0</ele><time>2026-04-18T08:53:25Z</time></trkpt><trkpt lat="45.70848545796019" lon="9.194749495811685"><ele>272.0</ele><time>2026-04-18T08:53:26Z</time></trkpt><trkpt lat="45.708560170223166" lon="9.194825146812422"><ele>272.0</ele><time>2026-04-18T08:53:28Z</time></trkpt><trkpt lat="45.7086285913625" lon="9.194892651077073"><ele>272.1666666666667</ele><time>2026-04-18T08:53:30Z</time></trkpt><trkpt lat="45.70868849910484" lon="9.194950834012134"><ele>272.33333333333337</ele><time>2026-04-18T08:53:32Z</time></trkpt><trkpt lat="45.708738507773674" lon="9.195073629528997"><ele>272.5</ele><time>2026-04-18T08:53:37Z</time></trkpt><trkpt lat="45.70881253044536" lon="9.195132395520929"><ele>272.6666666666667</ele><time>2026-04-18T08:53:39Z</time></trkpt><trkpt lat="45.70890880391118" lon="9.195150447540192"><ele>272.8333333333333</ele><time>2026-04-18T08:53:41Z</time></trkpt><trkpt lat="45.708991617721885" lon="9.195133567330988"><ele>273.0</ele><time>2026-04-18T08:53:42Z</time></trkpt><trkpt lat="45.70905880659313" lon="9.195121048141504"><ele>273.0</ele><time>2026-04-18T08:53:43Z</time></trkpt><trkpt lat="45.709124844288326" lon="9.195111751064797"><ele>273.0</ele><time>2026-04-18T08:53:44Z</time></trkpt><trkpt lat="45.70920022384112" lon="9.195108532047986"><ele>273.0</ele><time>2026-04-18T08:53:45Z</time></trkpt><trkpt lat="45.7092811021859" lon="9.195102392218772"><ele>273.0</ele><time>2026-04-18T08:53:46Z</time></trkpt><trkpt lat="45.709371867184814" lon="9.195094286929974"><ele>273.0</ele><time>2026-04-18T08:53:47Z</time></trkpt><trkpt lat="45.70948155393226" lon="9.19508260250808"><ele>273.0</ele><time>2026-04-18T08:53:48Z</time></trkpt><trkpt lat="45.70958949475321" lon="9.195063941976326"><ele>273.0</ele><time>2026-04-18T08:53:49Z</time></trkpt><trkpt lat="45.7096760133729" lon="9.195046338365875"><ele>273.0</ele><time>2026-04-18T08:53:50Z</time></trkpt><trkpt lat="45.70974238657354" lon="9.195030777310645"><ele>273.0</ele><time>2026-04-18T08:53:51Z</time></trkpt><trkpt lat="45.70985557077507" lon="9.195048767208348"><ele>273.0</ele><time>2026-04-18T08:53:53Z</time></trkpt><trkpt lat="45.70991711449094" lon="9.195195558897716"><ele>273.0</ele><time>2026-04-18T08:53:55Z</time></trkpt><trkpt lat="45.709994914540644" lon="9.195350509513297"><ele>273.0</ele><time>2026-04-18T08:53:57Z</time></trkpt><trkpt lat="45.710037246846355" lon="9.195434820783582"><ele>273.0</ele><time>2026-04-18T08:53:58Z</time></trkpt><trkpt lat="45.71007386842237" lon="9.19550867814856"><ele>273.0</ele><time>2026-04-18T08:53:59Z</time></trkpt><trkpt lat="45.710113951544066" lon="9.19559537359148"><ele>273.0</ele><time>2026-04-18T08:54:00Z</time></trkpt><trkpt lat="45.71014758710736" lon="9.195693376924867"><ele>273.0</ele><time>2026-04-18T08:54:01Z</time></trkpt><trkpt lat="45.71017445690722" lon="9.195815536112306"><ele>273.0</ele><time>2026-04-18T08:54:02Z</time></trkpt><trkpt lat="45.71020715986392" lon="9.19595659338492"><ele>273.5</ele><time>2026-04-18T08:54:03Z</time></trkpt><trkpt lat="45.71021650537986" lon="9.196126685589805"><ele>274.0</ele><time>2026-04-18T08:54:04Z</time></trkpt><trkpt lat="45.71025010554333" lon="9.196335400863552"><ele>274.5</ele><time>2026-04-18T08:54:05Z</time></trkpt><trkpt lat="45.71026004911658" lon="9.1965727339283"><ele>275.0</ele><time>2026-04-18T08:54:06Z</time></trkpt><trkpt lat="45.7102797773411" lon="9.196778480268724"><ele>275.6666666666667</ele><time>2026-04-18T08:54:07Z</time></trkpt><trkpt lat="45.71031468437155" lon="9.19700695145149"><ele>276.3333333333333</ele><time>2026-04-18T08:54:08Z</time></trkpt><trkpt lat="45.71033998929925" lon="9.19724982085661"><ele>277.0</ele><time>2026-04-18T08:54:09Z</time></trkpt><trkpt lat="45.71036248854106" lon="9.197456191743276"><ele>277.5</ele><time>2026-04-18T08:54:10Z</time></trkpt><trkpt lat="45.71038471520247" lon="9.197635228921628"><ele>278.0</ele><time>2026-04-18T08:54:11Z</time></trkpt><trkpt lat="45.71040621776742" lon="9.19779727626599"><ele>278.5</ele><time>2026-04-18T08:54:12Z</time></trkpt><trkpt lat="45.71045209457526" lon="9.197952790257949"><ele>279.0</ele><time>2026-04-18T08:54:13Z</time></trkpt><trkpt lat="45.71050712414435" lon="9.198131278129877"><ele>278.59999999999997</ele><time>2026-04-18T08:54:14Z</time></trkpt><trkpt lat="45.71056779962486" lon="9.198306197846588"><ele>278.2</ele><time>2026-04-18T08:54:15Z</time></trkpt><trkpt lat="45.710621170801126" lon="9.198440642360447"><ele>277.79999999999995</ele><time>2026-04-18T08:54:16Z</time></trkpt><trkpt lat="45.71066839415091" lon="9.198552693472086"><ele>277.4</ele><time>2026-04-18T08:54:17Z</time></trkpt><trkpt lat="45.7107144044712" lon="9.198654023297786"><ele>277.0</ele><time>2026-04-18T08:54:18Z</time></trkpt><trkpt lat="45.71075820820197" lon="9.19874784040196"><ele>277.0</ele><time>2026-04-18T08:54:19Z</time></trkpt><trkpt lat="45.710786750401105" lon="9.198861965589407"><ele>277.0</ele><time>2026-04-18T08:54:20Z</time></trkpt><trkpt lat="45.71082950219138" lon="9.198984920814695"><ele>277.0</ele><time>2026-04-18T08:54:21Z</time></trkpt><trkpt lat="45.71088911007229" lon="9.199117635925605"><ele>277.0</ele><time>2026-04-18T08:54:22Z</time></trkpt><trkpt lat="45.71094437280862" lon="9.199235558382417"><ele>277.0</ele><time>2026-04-18T08:54:23Z</time></trkpt><trkpt lat="45.71097691300067" lon="9.199331514160553"><ele>277.3333333333333</ele><time>2026-04-18T08:54:24Z</time></trkpt><trkpt lat="45.7110398420183" lon="9.199466873338258"><ele>277.66666666666663</ele><time>2026-04-18T08:54:26Z</time></trkpt><trkpt lat="45.71106459477482" lon="9.19955079753752"><ele>278.0</ele><time>2026-04-18T08:54:27Z</time></trkpt><trkpt lat="45.71109565232753" lon="9.199634184406351"><ele>278.3333333333333</ele><time>2026-04-18T08:54:28Z</time></trkpt><trkpt lat="45.71112986451055" lon="9.199724743505554"><ele>278.6666666666667</ele><time>2026-04-18T08:54:29Z</time></trkpt><trkpt lat="45.71116590844634" lon="9.199814559349964"><ele>279.0</ele><time>2026-04-18T08:54:30Z</time></trkpt><trkpt lat="45.711212020230484" lon="9.199924023549578"><ele>280.0</ele><time>2026-04-18T08:54:31Z</time></trkpt><trkpt lat="45.711253256586964" lon="9.200030466413311"><ele>281.0</ele><time>2026-04-18T08:54:32Z</time></trkpt><trkpt lat="45.711301948640156" lon="9.20014064064339"><ele>282.0</ele><time>2026-04-18T08:54:33Z</time></trkpt><trkpt lat="45.711346801153475" lon="9.20024041795492"><ele>283.0</ele><time>2026-04-18T08:54:34Z</time></trkpt><trkpt lat="45.71138849792607" lon="9.200348266554709"><ele>284.0</ele><time>2026-04-18T08:54:35Z</time></trkpt><trkpt lat="45.71143349618669" lon="9.200464290673917"><ele>285.0</ele><time>2026-04-18T08:54:36Z</time></trkpt><trkpt lat="45.711486026800266" lon="9.200593938929543"><ele>284.25</ele><time>2026-04-18T08:54:37Z</time></trkpt><trkpt lat="45.71154010556126" lon="9.20073631573994"><ele>283.5</ele><time>2026-04-18T08:54:38Z</time></trkpt><trkpt lat="45.711600026606064" lon="9.20088946738592"><ele>282.75</ele><time>2026-04-18T08:54:39Z</time></trkpt><trkpt lat="45.71166680171487" lon="9.201046644756303"><ele>282.0</ele><time>2026-04-18T08:54:40Z</time></trkpt><trkpt lat="45.71173806407133" lon="9.2012023575564"><ele>282.0</ele><time>2026-04-18T08:54:41Z</time></trkpt><trkpt lat="45.71181620325964" lon="9.201350041817978"><ele>282.0</ele><time>2026-04-18T08:54:41.999Z</time></trkpt><trkpt lat="45.71189873073669" lon="9.201494765038353"><ele>282.0</ele><time>2026-04-18T08:54:42.999Z</time></trkpt><trkpt lat="45.71198342235441" lon="9.20162537283885"><ele>282.0</ele><time>2026-04-18T08:54:43.999Z</time></trkpt><trkpt lat="45.71205513158157" lon="9.201725544599974"><ele>282.6666666666667</ele><time>2026-04-18T08:54:44.999Z</time></trkpt><trkpt lat="45.71212895405461" lon="9.201793159417402"><ele>283.3333333333333</ele><time>2026-04-18T08:54:45.999Z</time></trkpt><trkpt lat="45.71218644897014" lon="9.201850219385447"><ele>284.0</ele><time>2026-04-18T08:54:46.999Z</time></trkpt><trkpt lat="45.712230941113724" lon="9.201963815412968"><ele>284.66666666666663</ele><time>2026-04-18T08:54:48.999Z</time></trkpt><trkpt lat="45.712211488630146" lon="9.202050161092455"><ele>285.3333333333333</ele><time>2026-04-18T08:54:51.999Z</time></trkpt><trkpt lat="45.71227983398888" lon="9.202058361538421"><ele>286.0</ele><time>2026-04-18T08:59:18Z</time></trkpt><trkpt lat="45.71237844782874" lon="9.202084703411057"><ele>286.0</ele><time>2026-04-18T08:59:22Z</time></trkpt><trkpt lat="45.71247022281627" lon="9.202095858931427"><ele>286.0</ele><time>2026-04-18T09:00:14.001Z</time></trkpt><trkpt lat="45.7125998693291" lon="9.202237827707638"><ele>286.0</ele><time>2026-04-18T09:00:19.001Z</time></trkpt><trkpt lat="45.71273952528692" lon="9.20226820102491"><ele>286.0</ele><time>2026-04-18T09:00:20.001Z</time></trkpt><trkpt lat="45.712888067625975" lon="9.202391352577557"><ele>285.0</ele><time>2026-04-18T09:00:21.001Z</time></trkpt><trkpt lat="45.713058448276605" lon="9.202560047260823"><ele>284.0</ele><time>2026-04-18T09:00:22.001Z</time></trkpt><trkpt lat="45.71323196463665" lon="9.202703184982427"><ele>283.0</ele><time>2026-04-18T09:00:23.001Z</time></trkpt><trkpt lat="45.71340449164785" lon="9.202845495761029"><ele>283.3333333333333</ele><time>2026-04-18T09:00:24.001Z</time></trkpt><trkpt lat="45.7135949434217" lon="9.203002910825772"><ele>283.6666666666667</ele><time>2026-04-18T09:00:25.001Z</time></trkpt><trkpt lat="45.71379713491101" lon="9.2031466108601"><ele>284.0</ele><time>2026-04-18T09:00:26.001Z</time></trkpt><trkpt lat="45.71395904848392" lon="9.203279254642423"><ele>284.0</ele><time>2026-04-18T09:00:27.001Z</time></trkpt><trkpt lat="45.71406412881092" lon="9.203369576014511"><ele>284.0</ele><time>2026-04-18T09:00:28.001Z</time></trkpt><trkpt lat="45.71411866599759" lon="9.203446603450672"><ele>284.0</ele><time>2026-04-18T09:00:29.001Z</time></trkpt><trkpt lat="45.714113426990195" lon="9.203544359102594"><ele>284.0</ele><time>2026-04-18T09:00:30.001Z</time></trkpt><trkpt lat="45.71410445167956" lon="9.203733525946467"><ele>284.0</ele><time>2026-04-18T09:00:31.001Z</time></trkpt><trkpt lat="45.714105988221476" lon="9.203898779382406"><ele>284.0</ele><time>2026-04-18T09:00:32.001Z</time></trkpt><trkpt lat="45.71411132877192" lon="9.204138050268915"><ele>284.0</ele><time>2026-04-18T09:00:33.001Z</time></trkpt><trkpt lat="45.7141505391998" lon="9.20442531232914"><ele>284.0</ele><time>2026-04-18T09:00:34.001Z</time></trkpt><trkpt lat="45.714190668358626" lon="9.204716780897916"><ele>284.0</ele><time>2026-04-18T09:00:35.001Z</time></trkpt><trkpt lat="45.71422700120346" lon="9.204990743140922"><ele>284.0</ele><time>2026-04-18T09:00:36.001Z</time></trkpt><trkpt lat="45.71426573332329" lon="9.205274652045318"><ele>284.0</ele><time>2026-04-18T09:00:37.001Z</time></trkpt><trkpt lat="45.71430439595067" lon="9.205558049337709"><ele>284.33333333333337</ele><time>2026-04-18T09:00:38.001Z</time></trkpt><trkpt lat="45.71434330252912" lon="9.205827846198133"><ele>284.6666666666667</ele><time>2026-04-18T09:00:39.001Z</time></trkpt><trkpt lat="45.71437778340152" lon="9.20606414444759"><ele>285.0</ele><time>2026-04-18T09:00:40.001Z</time></trkpt><trkpt lat="45.714406003545506" lon="9.20625443541775"><ele>285.0</ele><time>2026-04-18T09:00:41.001Z</time></trkpt><trkpt lat="45.71442713555149" lon="9.206394953397108"><ele>285.0</ele><time>2026-04-18T09:00:42.001Z</time></trkpt><trkpt lat="45.71444602660873" lon="9.206489944209215"><ele>285.0</ele><time>2026-04-18T09:00:43.001Z</time></trkpt><trkpt lat="45.71449306674557" lon="9.20656949485731"><ele>285.0</ele><time>2026-04-18T09:00:44.001Z</time></trkpt><trkpt lat="45.71457503027594" lon="9.206653254591854"><ele>285.0</ele><time>2026-04-18T09:00:45.001Z</time></trkpt><trkpt lat="45.71467834722569" lon="9.206616655811453"><ele>285.0</ele><time>2026-04-18T09:00:46.001Z</time></trkpt><trkpt lat="45.71472503869303" lon="9.206725703826052"><ele>285.5</ele><time>2026-04-18T09:00:48.001Z</time></trkpt><trkpt lat="45.71476213915642" lon="9.206912914707539"><ele>286.0</ele><time>2026-04-18T09:00:50.001Z</time></trkpt><trkpt lat="45.71472742259013" lon="9.207076982104793"><ele>286.5</ele><time>2026-04-18T09:00:51.001Z</time></trkpt><trkpt lat="45.714692830851874" lon="9.207260008357416"><ele>287.0</ele><time>2026-04-18T09:00:52.001Z</time></trkpt><trkpt lat="45.71465959012013" lon="9.207470205596211"><ele>287.25</ele><time>2026-04-18T09:00:53.001Z</time></trkpt><trkpt lat="45.714623360212556" lon="9.207669668141175"><ele>287.5</ele><time>2026-04-18T09:00:54.001Z</time></trkpt><trkpt lat="45.714585140082015" lon="9.207833614681576"><ele>287.75</ele><time>2026-04-18T09:00:55.001Z</time></trkpt><trkpt lat="45.71454520701562" lon="9.207981674278525"><ele>288.0</ele><time>2026-04-18T09:00:56.001Z</time></trkpt><trkpt lat="45.71452432428772" lon="9.208083549412036"><ele>288.2</ele><time>2026-04-18T09:00:57.001Z</time></trkpt><trkpt lat="45.7145070240618" lon="9.2081863001649"><ele>288.4</ele><time>2026-04-18T09:01:00.001Z</time></trkpt><trkpt lat="45.71456316207906" lon="9.208262948884553"><ele>288.59999999999997</ele><time>2026-04-18T09:01:07.001Z</time></trkpt><trkpt lat="45.71466797750393" lon="9.208352553997374"><ele>288.8</ele><time>2026-04-18T09:01:08.001Z</time></trkpt><trkpt lat="45.71481844885636" lon="9.208344241694919"><ele>289.0</ele><time>2026-04-18T09:01:09.001Z</time></trkpt><trkpt lat="45.71496906624675" lon="9.20830977902155"><ele>289.0</ele><time>2026-04-18T09:01:10.001Z</time></trkpt><trkpt lat="45.71514316781027" lon="9.208306746864656"><ele>289.0</ele><time>2026-04-18T09:01:11.001Z</time></trkpt><trkpt lat="45.715335979610934" lon="9.208281433859856"><ele>289.0</ele><time>2026-04-18T09:01:12.001Z</time></trkpt><trkpt lat="45.71553005298112" lon="9.208268425373124"><ele>289.3333333333333</ele><time>2026-04-18T09:01:13.001Z</time></trkpt><trkpt lat="45.715737699770614" lon="9.208236160821981"><ele>289.6666666666667</ele><time>2026-04-18T09:01:14.001Z</time></trkpt><trkpt lat="45.71590789815578" lon="9.208209436736832"><ele>290.0</ele><time>2026-04-18T09:01:15.001Z</time></trkpt><trkpt lat="45.71610619943411" lon="9.20811357455567"><ele>291.0</ele><time>2026-04-18T09:01:16.001Z</time></trkpt><trkpt lat="45.716214300073496" lon="9.20809747861243"><ele>292.0</ele><time>2026-04-18T09:01:17.001Z</time></trkpt><trkpt lat="45.71631421166685" lon="9.208090413354766"><ele>293.0</ele><time>2026-04-18T09:01:18Z</time></trkpt><trkpt lat="45.71642564627001" lon="9.208087936843022"><ele>294.0</ele><time>2026-04-18T09:01:19Z</time></trkpt><trkpt lat="45.71650641703891" lon="9.20806913046384"><ele>295.0</ele><time>2026-04-18T09:01:20Z</time></trkpt><trkpt lat="45.71658761591204" lon="9.208046520341645"><ele>295.0</ele><time>2026-04-18T09:01:21Z</time></trkpt><trkpt lat="45.71665639753249" lon="9.2080222388314"><ele>295.0</ele><time>2026-04-18T09:01:22Z</time></trkpt><trkpt lat="45.716726845090804" lon="9.20802094604015"><ele>295.0</ele><time>2026-04-18T09:01:23Z</time></trkpt><trkpt lat="45.71680408967916" lon="9.207977093593064"><ele>295.0</ele><time>2026-04-18T09:01:24Z</time></trkpt><trkpt lat="45.71687687621332" lon="9.207952034117717"><ele>295.0</ele><time>2026-04-18T09:01:25Z</time></trkpt><trkpt lat="45.716955299384274" lon="9.207949603088826"><ele>295.0</ele><time>2026-04-18T09:01:26Z</time></trkpt><trkpt lat="45.717040385509925" lon="9.207921040530213"><ele>294.8</ele><time>2026-04-18T09:01:27Z</time></trkpt><trkpt lat="45.71711999379696" lon="9.207892898964307"><ele>294.6</ele><time>2026-04-18T09:01:28Z</time></trkpt><trkpt lat="45.71719529832267" lon="9.20786627878996"><ele>294.4</ele><time>2026-04-18T09:01:29Z</time></trkpt><trkpt lat="45.71730561030773" lon="9.207827803929662"><ele>294.2</ele><time>2026-04-18T09:01:31Z</time></trkpt><trkpt lat="45.717431068403954" lon="9.207807685120626"><ele>294.0</ele><time>2026-04-18T09:01:33Z</time></trkpt><trkpt lat="45.717523105263496" lon="9.207748896869006"><ele>294.0</ele><time>2026-04-18T09:01:34Z</time></trkpt><trkpt lat="45.717624347355745" lon="9.20775112562027"><ele>294.0</ele><time>2026-04-18T09:01:35Z</time></trkpt><trkpt lat="45.71772098606862" lon="9.207745609246624"><ele>294.0</ele><time>2026-04-18T09:01:36Z</time></trkpt><trkpt lat="45.717793044958476" lon="9.207747132907961"><ele>294.0</ele><time>2026-04-18T09:01:37Z</time></trkpt><trkpt lat="45.71785780585031" lon="9.207732929629902"><ele>294.0</ele><time>2026-04-18T09:01:38Z</time></trkpt><trkpt lat="45.71793146492898" lon="9.207753045744488"><ele>294.0</ele><time>2026-04-18T09:01:39Z</time></trkpt><trkpt lat="45.71802730772663" lon="9.207775311791726"><ele>295.2</ele><time>2026-04-18T09:01:40Z</time></trkpt><trkpt lat="45.71812389785049" lon="9.207807682523514"><ele>296.4</ele><time>2026-04-18T09:01:41Z</time></trkpt><trkpt lat="45.71822046977435" lon="9.207871195679079"><ele>297.6</ele><time>2026-04-18T09:01:42Z</time></trkpt><trkpt lat="45.718303312402135" lon="9.20790926838145"><ele>298.8</ele><time>2026-04-18T09:01:43Z</time></trkpt><trkpt lat="45.71838240086918" lon="9.207945615730083"><ele>300.0</ele><time>2026-04-18T09:01:44Z</time></trkpt><trkpt lat="45.71845908484076" lon="9.207981692489946"><ele>300.0</ele><time>2026-04-18T09:01:45Z</time></trkpt><trkpt lat="45.7185468306232" lon="9.20802320043517"><ele>300.0</ele><time>2026-04-18T09:01:46Z</time></trkpt><trkpt lat="45.718640435625936" lon="9.208066476517441"><ele>300.0</ele><time>2026-04-18T09:01:47Z</time></trkpt><trkpt lat="45.718733920453204" lon="9.20810860327516"><ele>300.0</ele><time>2026-04-18T09:01:48Z</time></trkpt><trkpt lat="45.71883594116675" lon="9.208134514843797"><ele>300.0</ele><time>2026-04-18T09:01:49Z</time></trkpt><trkpt lat="45.71893934216601" lon="9.208180074538763"><ele>299.75</ele><time>2026-04-18T09:01:50Z</time></trkpt><trkpt lat="45.719045388097854" lon="9.208231752391846"><ele>299.5</ele><time>2026-04-18T09:01:51Z</time></trkpt><trkpt lat="45.71914842244149" lon="9.208289192317809"><ele>299.25</ele><time>2026-04-18T09:01:52Z</time></trkpt><trkpt lat="45.71926028823618" lon="9.208335525487845"><ele>299.0</ele><time>2026-04-18T09:01:53Z</time></trkpt><trkpt lat="45.7193793430332" lon="9.208380739440019"><ele>299.0</ele><time>2026-04-18T09:01:54Z</time></trkpt><trkpt lat="45.719481675603454" lon="9.208428597708444"><ele>299.0</ele><time>2026-04-18T09:01:55Z</time></trkpt><trkpt lat="45.71956856385288" lon="9.208465965098005"><ele>299.0</ele><time>2026-04-18T09:01:56Z</time></trkpt><trkpt lat="45.719641776738015" lon="9.208522110595128"><ele>299.0</ele><time>2026-04-18T09:01:57Z</time></trkpt><trkpt lat="45.719726639242616" lon="9.208538196748734"><ele>299.0</ele><time>2026-04-18T09:01:58Z</time></trkpt><trkpt lat="45.71979867109952" lon="9.208574526401959"><ele>299.0</ele><time>2026-04-18T09:01:59Z</time></trkpt><trkpt lat="45.719870796960834" lon="9.20860293633739"><ele>299.0</ele><time>2026-04-18T09:02:00Z</time></trkpt><trkpt lat="45.719944164306625" lon="9.208639069628703"><ele>299.0</ele><time>2026-04-18T09:02:01Z</time></trkpt><trkpt lat="45.72001785439758" lon="9.208678538250114"><ele>299.0</ele><time>2026-04-18T09:02:02Z</time></trkpt><trkpt lat="45.720093046588595" lon="9.208727706990548"><ele>299.0</ele><time>2026-04-18T09:02:03Z</time></trkpt><trkpt lat="45.720171628567485" lon="9.208739248011781"><ele>299.0</ele><time>2026-04-18T09:02:04Z</time></trkpt><trkpt lat="45.7202406052664" lon="9.208796234356651"><ele>299.0</ele><time>2026-04-18T09:02:05Z</time></trkpt><trkpt lat="45.72031519987762" lon="9.20880726004161"><ele>298.8</ele><time>2026-04-18T09:02:06Z</time></trkpt><trkpt lat="45.72038735829038" lon="9.20886438758749"><ele>298.59999999999997</ele><time>2026-04-18T09:02:07Z</time></trkpt><trkpt lat="45.72047987421372" lon="9.2088845322021"><ele>298.4</ele><time>2026-04-18T09:02:08Z</time></trkpt><trkpt lat="45.720567856448696" lon="9.208931782467833"><ele>298.2</ele><time>2026-04-18T09:02:09Z</time></trkpt><trkpt lat="45.72066996668658" lon="9.208993274958233"><ele>298.0</ele><time>2026-04-18T09:02:10Z</time></trkpt><trkpt lat="45.720783475757436" lon="9.20902397381064"><ele>298.4</ele><time>2026-04-18T09:02:11Z</time></trkpt><trkpt lat="45.720874872049336" lon="9.209071196931378"><ele>298.8</ele><time>2026-04-18T09:02:12Z</time></trkpt><trkpt lat="45.72094926322842" lon="9.209102375269827"><ele>299.2</ele><time>2026-04-18T09:02:13Z</time></trkpt><trkpt lat="45.72102554866287" lon="9.209142938642607"><ele>299.6</ele><time>2026-04-18T09:02:15Z</time></trkpt><trkpt lat="45.721089092874955" lon="9.209168223915047"><ele>300.0</ele><time>2026-04-18T09:02:20Z</time></trkpt><trkpt lat="45.72112387799021" lon="9.20892743222842"><ele>300.25</ele><time>2026-04-18T09:02:21Z</time></trkpt><trkpt lat="45.721099685631984" lon="9.208751254101706"><ele>300.5</ele><time>2026-04-18T09:02:22Z</time></trkpt><trkpt lat="45.72104979048786" lon="9.208574717947897"><ele>300.75</ele><time>2026-04-18T09:02:23Z</time></trkpt><trkpt lat="45.72097531064662" lon="9.208379940468136"><ele>301.0</ele><time>2026-04-18T09:02:24Z</time></trkpt><trkpt lat="45.72090770671552" lon="9.208184899674398"><ele>300.40000000000003</ele><time>2026-04-18T09:02:25Z</time></trkpt><trkpt lat="45.72085571497049" lon="9.208006296822036"><ele>299.8</ele><time>2026-04-18T09:02:26Z</time></trkpt><trkpt lat="45.72080875360413" lon="9.207854268917277"><ele>299.20000000000005</ele><time>2026-04-18T09:02:27Z</time></trkpt><trkpt lat="45.720772416373805" lon="9.207744824829103"><ele>298.6</ele><time>2026-04-18T09:02:28Z</time></trkpt><trkpt lat="45.720807055483604" lon="9.207615716802852"><ele>298.0</ele><time>2026-04-18T09:02:30Z</time></trkpt><trkpt lat="45.72081930479654" lon="9.20752413163669"><ele>298.0</ele><time>2026-04-18T09:02:31Z</time></trkpt><trkpt lat="45.72104650661684" lon="9.207537369320661"><ele>298.0</ele><time>2026-04-18T09:02:32Z</time></trkpt><trkpt lat="45.72111761199841" lon="9.207551499932237"><ele>298.0</ele><time>2026-04-18T09:02:33Z</time></trkpt><trkpt lat="45.721176114302274" lon="9.207323284550515"><ele>298.0</ele><time>2026-04-18T09:02:35Z</time></trkpt><trkpt lat="45.7211718830914" lon="9.2071550017578"><ele>298.0</ele><time>2026-04-18T09:02:36Z</time></trkpt><trkpt lat="45.72115939076563" lon="9.20696357702809"><ele>298.0</ele><time>2026-04-18T09:02:37Z</time></trkpt><trkpt lat="45.72116297054944" lon="9.206783064721227"><ele>298.0</ele><time>2026-04-18T09:02:38Z</time></trkpt><trkpt lat="45.72118528662836" lon="9.206618981121496"><ele>298.0</ele><time>2026-04-18T09:02:39Z</time></trkpt><trkpt lat="45.721224692788965" lon="9.206495532220005"><ele>298.0</ele><time>2026-04-18T09:02:40Z</time></trkpt><trkpt lat="45.721271503462454" lon="9.206353160459441"><ele>298.0</ele><time>2026-04-18T09:02:41Z</time></trkpt><trkpt lat="45.72135280322995" lon="9.206169165408062"><ele>298.0</ele><time>2026-04-18T09:02:42Z</time></trkpt><trkpt lat="45.7214113215943" lon="9.205952284715407"><ele>297.75</ele><time>2026-04-18T09:02:43Z</time></trkpt><trkpt lat="45.721429909235525" lon="9.205796192547233"><ele>297.5</ele><time>2026-04-18T09:02:44Z</time></trkpt><trkpt lat="45.72148063512814" lon="9.205602047645932"><ele>297.25</ele><time>2026-04-18T09:02:45Z</time></trkpt><trkpt lat="45.72153621445329" lon="9.205371463428358"><ele>297.0</ele><time>2026-04-18T09:02:46Z</time></trkpt><trkpt lat="45.721596845041645" lon="9.205127681077286"><ele>297.0</ele><time>2026-04-18T09:02:47Z</time></trkpt><trkpt lat="45.72163700500686" lon="9.204884878490185"><ele>297.0</ele><time>2026-04-18T09:02:48Z</time></trkpt><trkpt lat="45.72169330260217" lon="9.204695006096536"><ele>297.0</ele><time>2026-04-18T09:02:49.001Z</time></trkpt><trkpt lat="45.72173528159821" lon="9.204531132567901"><ele>297.0</ele><time>2026-04-18T09:02:50.001Z</time></trkpt><trkpt lat="45.72176691083622" lon="9.204391872267744"><ele>296.8333333333333</ele><time>2026-04-18T09:02:51.001Z</time></trkpt><trkpt lat="45.72179007341911" lon="9.20428308107266"><ele>296.6666666666667</ele><time>2026-04-18T09:02:52.001Z</time></trkpt><trkpt lat="45.721815518330736" lon="9.204192203253514"><ele>296.5</ele><time>2026-04-18T09:02:53.001Z</time></trkpt><trkpt lat="45.72185675646196" lon="9.204076824892331"><ele>296.33333333333337</ele><time>2026-04-18T09:02:55.001Z</time></trkpt><trkpt lat="45.721899448674705" lon="9.204009407899523"><ele>296.1666666666667</ele><time>2026-04-18T09:02:58.001Z</time></trkpt><trkpt lat="45.722042400577095" lon="9.203968954889007"><ele>296.0</ele><time>2026-04-18T09:03:00.001Z</time></trkpt><trkpt lat="45.72214572047489" lon="9.203949161941326"><ele>296.0</ele><time>2026-04-18T09:03:01.001Z</time></trkpt><trkpt lat="45.722270430984665" lon="9.203930099499813"><ele>296.0</ele><time>2026-04-18T09:03:02.001Z</time></trkpt><trkpt lat="45.722394981078814" lon="9.203911893602763"><ele>296.0</ele><time>2026-04-18T09:03:03.001Z</time></trkpt><trkpt lat="45.72252596505501" lon="9.203888439564427"><ele>296.0</ele><time>2026-04-18T09:03:04.001Z</time></trkpt><trkpt lat="45.72266758844157" lon="9.203860273304798"><ele>296.25</ele><time>2026-04-18T09:03:05.001Z</time></trkpt><trkpt lat="45.72282355433674" lon="9.20383567321587"><ele>296.5</ele><time>2026-04-18T09:03:06.001Z</time></trkpt><trkpt lat="45.722971686539864" lon="9.20381738394621"><ele>296.75</ele><time>2026-04-18T09:03:07.001Z</time></trkpt><trkpt lat="45.72311361588534" lon="9.203792467445343"><ele>297.0</ele><time>2026-04-18T09:03:08.001Z</time></trkpt><trkpt lat="45.72325874341311" lon="9.20376832632948"><ele>297.0</ele><time>2026-04-18T09:03:09.001Z</time></trkpt><trkpt lat="45.72340424202193" lon="9.203743247973339"><ele>297.0</ele><time>2026-04-18T09:03:10.001Z</time></trkpt><trkpt lat="45.72354425008851" lon="9.203723406428852"><ele>297.0</ele><time>2026-04-18T09:03:11.001Z</time></trkpt><trkpt lat="45.72368138857866" lon="9.20370073084874"><ele>297.0</ele><time>2026-04-18T09:03:12.001Z</time></trkpt><trkpt lat="45.72381369793579" lon="9.203682439094782"><ele>297.0</ele><time>2026-04-18T09:03:13.001Z</time></trkpt><trkpt lat="45.723947661668596" lon="9.203661698431171"><ele>297.0</ele><time>2026-04-18T09:03:14.001Z</time></trkpt><trkpt lat="45.72407233611527" lon="9.203641907174223"><ele>297.0</ele><time>2026-04-18T09:03:15.001Z</time></trkpt><trkpt lat="45.72419570552194" lon="9.203621668471154"><ele>297.0</ele><time>2026-04-18T09:03:16.001Z</time></trkpt><trkpt lat="45.724323203507936" lon="9.20359815575618"><ele>297.25</ele><time>2026-04-18T09:03:17.001Z</time></trkpt><trkpt lat="45.72444673013884" lon="9.203575648297988"><ele>297.5</ele><time>2026-04-18T09:03:18.001Z</time></trkpt><trkpt lat="45.724573455968475" lon="9.203550845818743"><ele>297.75</ele><time>2026-04-18T09:03:19.001Z</time></trkpt><trkpt lat="45.72469552790177" lon="9.203534080759416"><ele>298.0</ele><time>2026-04-18T09:03:20.001Z</time></trkpt><trkpt lat="45.7248237165399" lon="9.203509994526055"><ele>298.0</ele><time>2026-04-18T09:03:21.001Z</time></trkpt><trkpt lat="45.72494907088172" lon="9.20348823027276"><ele>298.0</ele><time>2026-04-18T09:03:22.001Z</time></trkpt><trkpt lat="45.72507560046456" lon="9.203464723943938"><ele>298.0</ele><time>2026-04-18T09:03:23.001Z</time></trkpt><trkpt lat="45.72520309894082" lon="9.20347019216001"><ele>298.0</ele><time>2026-04-18T09:03:24Z</time></trkpt><trkpt lat="45.725328808061725" lon="9.203427116327692"><ele>298.5</ele><time>2026-04-18T09:03:25Z</time></trkpt><trkpt lat="45.72545718657823" lon="9.203429292517313"><ele>299.0</ele><time>2026-04-18T09:03:26Z</time></trkpt><trkpt lat="45.72557814115253" lon="9.203386538979936"><ele>299.5</ele><time>2026-04-18T09:03:27Z</time></trkpt><trkpt lat="45.725705807945424" lon="9.2033896920917"><ele>300.0</ele><time>2026-04-18T09:03:28Z</time></trkpt><trkpt lat="45.72583391945562" lon="9.20334618579526"><ele>300.0</ele><time>2026-04-18T09:03:29Z</time></trkpt><trkpt lat="45.72596585930275" lon="9.203327131497778"><ele>300.0</ele><time>2026-04-18T09:03:30Z</time></trkpt><trkpt lat="45.72609051202626" lon="9.203308137878672"><ele>300.0</ele><time>2026-04-18T09:03:31Z</time></trkpt><trkpt lat="45.726203916245936" lon="9.203288615849766"><ele>300.0</ele><time>2026-04-18T09:03:32Z</time></trkpt><trkpt lat="45.72631171204573" lon="9.20327075651998"><ele>300.1666666666667</ele><time>2026-04-18T09:03:33Z</time></trkpt><trkpt lat="45.726414143798834" lon="9.203261367098197"><ele>300.3333333333333</ele><time>2026-04-18T09:03:34Z</time></trkpt><trkpt lat="45.72649903874505" lon="9.203243200562033"><ele>300.5</ele><time>2026-04-18T09:03:35Z</time></trkpt><trkpt lat="45.726596443277806" lon="9.20325132890793"><ele>300.66666666666663</ele><time>2026-04-18T09:03:36Z</time></trkpt><trkpt lat="45.72667429921949" lon="9.203242636277887"><ele>300.8333333333333</ele><time>2026-04-18T09:03:37Z</time></trkpt><trkpt lat="45.72674179279942" lon="9.203214832196718"><ele>301.0</ele><time>2026-04-18T09:03:38Z</time></trkpt><trkpt lat="45.72680646137212" lon="9.203209665130927"><ele>301.0</ele><time>2026-04-18T09:03:39Z</time></trkpt><trkpt lat="45.726903201619585" lon="9.203217438686712"><ele>301.0</ele><time>2026-04-18T09:03:41Z</time></trkpt><trkpt lat="45.72696828881975" lon="9.203238467321555"><ele>301.0</ele><time>2026-04-18T09:03:42Z</time></trkpt><trkpt lat="45.72707373498136" lon="9.203222926782223"><ele>301.0</ele><time>2026-04-18T09:03:44Z</time></trkpt><trkpt lat="45.727103907857305" lon="9.203142174510068"><ele>301.0</ele><time>2026-04-18T09:03:45Z</time></trkpt><trkpt lat="45.727147455117276" lon="9.203036079000865"><ele>301.0</ele><time>2026-04-18T09:03:46Z</time></trkpt><trkpt lat="45.72721765320451" lon="9.202961437329774"><ele>301.0</ele><time>2026-04-18T09:03:47Z</time></trkpt><trkpt lat="45.72728225321071" lon="9.202875951025588"><ele>301.0</ele><time>2026-04-18T09:03:48Z</time></trkpt><trkpt lat="45.727345398421065" lon="9.202766135585447"><ele>301.0</ele><time>2026-04-18T09:03:49Z</time></trkpt><trkpt lat="45.727427485986" lon="9.202666739203412"><ele>301.0</ele><time>2026-04-18T09:03:50Z</time></trkpt><trkpt lat="45.727506700397136" lon="9.202564481502208"><ele>301.0</ele><time>2026-04-18T09:03:51Z</time></trkpt><trkpt lat="45.727585017974704" lon="9.202452384515851"><ele>301.0</ele><time>2026-04-18T09:03:52Z</time></trkpt><trkpt lat="45.72767992698" lon="9.202343045940001"><ele>301.0</ele><time>2026-04-18T09:03:53Z</time></trkpt><trkpt lat="45.72777269614327" lon="9.202204783905696"><ele>301.0</ele><time>2026-04-18T09:03:54Z</time></trkpt><trkpt lat="45.72787611532429" lon="9.202069255174866"><ele>301.0</ele><time>2026-04-18T09:03:55Z</time></trkpt><trkpt lat="45.72798044685046" lon="9.201931749723732"><ele>300.0</ele><time>2026-04-18T09:03:56Z</time></trkpt><trkpt lat="45.72808487316201" lon="9.201790276995146"><ele>299.0</ele><time>2026-04-18T09:03:57Z</time></trkpt><trkpt lat="45.72819009165669" lon="9.201646980939843"><ele>298.0</ele><time>2026-04-18T09:03:58Z</time></trkpt><trkpt lat="45.72828831502178" lon="9.20150001597108"><ele>297.0</ele><time>2026-04-18T09:03:59Z</time></trkpt><trkpt lat="45.728379823659395" lon="9.201346569756042"><ele>297.0</ele><time>2026-04-18T09:04:00Z</time></trkpt><trkpt lat="45.72846047954297" lon="9.201180299707003"><ele>297.0</ele><time>2026-04-18T09:04:01Z</time></trkpt><trkpt lat="45.7285334611343" lon="9.200996911020503"><ele>297.0</ele><time>2026-04-18T09:04:02Z</time></trkpt><trkpt lat="45.7286016627701" lon="9.200817128944928"><ele>297.0</ele><time>2026-04-18T09:04:03Z</time></trkpt><trkpt lat="45.728671060464684" lon="9.200636659669968"><ele>295.0</ele><time>2026-04-18T09:04:04Z</time></trkpt><trkpt lat="45.72873796789485" lon="9.20045935974695"><ele>293.0</ele><time>2026-04-18T09:04:05Z</time></trkpt><trkpt lat="45.72881150474819" lon="9.200288103426102"><ele>291.0</ele><time>2026-04-18T09:04:06Z</time></trkpt><trkpt lat="45.72888870306628" lon="9.200132253987338"><ele>289.0</ele><time>2026-04-18T09:04:07Z</time></trkpt><trkpt lat="45.72896775151292" lon="9.19999753926941"><ele>289.0</ele><time>2026-04-18T09:04:08Z</time></trkpt><trkpt lat="45.72905594234462" lon="9.199876879583368"><ele>289.0</ele><time>2026-04-18T09:04:09Z</time></trkpt><trkpt lat="45.729152194512004" lon="9.199772210027929"><ele>289.0</ele><time>2026-04-18T09:04:10Z</time></trkpt><trkpt lat="45.72925753407342" lon="9.199680458043739"><ele>289.0</ele><time>2026-04-18T09:04:11Z</time></trkpt><trkpt lat="45.72936713412784" lon="9.199603483190664"><ele>288.25</ele><time>2026-04-18T09:04:12Z</time></trkpt><trkpt lat="45.729480257570295" lon="9.199540009439286"><ele>287.5</ele><time>2026-04-18T09:04:13Z</time></trkpt><trkpt lat="45.729598966653846" lon="9.199488488888157"><ele>286.75</ele><time>2026-04-18T09:04:14Z</time></trkpt><trkpt lat="45.729723064004816" lon="9.199455118829615"><ele>286.0</ele><time>2026-04-18T09:04:15Z</time></trkpt><trkpt lat="45.729856747826" lon="9.19945080054843"><ele>286.0</ele><time>2026-04-18T09:04:16Z</time></trkpt><trkpt lat="45.729989504405864" lon="9.19944704134336"><ele>286.0</ele><time>2026-04-18T09:04:17Z</time></trkpt><trkpt lat="45.730115384228576" lon="9.199438346345245"><ele>286.0</ele><time>2026-04-18T09:04:18Z</time></trkpt><trkpt lat="45.73022233990693" lon="9.199425833770306"><ele>286.0</ele><time>2026-04-18T09:04:19Z</time></trkpt><trkpt lat="45.73031063299191" lon="9.199409631840258"><ele>286.5</ele><time>2026-04-18T09:04:20Z</time></trkpt><trkpt lat="45.730382793982784" lon="9.199395372271566"><ele>287.0</ele><time>2026-04-18T09:04:21Z</time></trkpt><trkpt lat="45.73045253697642" lon="9.199376730967312"><ele>287.5</ele><time>2026-04-18T09:04:22Z</time></trkpt><trkpt lat="45.730543020481946" lon="9.199389867551526"><ele>288.0</ele><time>2026-04-18T09:04:23Z</time></trkpt><trkpt lat="45.73064744603724" lon="9.199374929577969"><ele>288.5</ele><time>2026-04-18T09:04:24Z</time></trkpt><trkpt lat="45.73075516964326" lon="9.19936697190736"><ele>289.0</ele><time>2026-04-18T09:04:25Z</time></trkpt><trkpt lat="45.730872437981716" lon="9.199359040071672"><ele>289.0</ele><time>2026-04-18T09:04:26Z</time></trkpt><trkpt lat="45.73099575797897" lon="9.199345610621288"><ele>289.0</ele><time>2026-04-18T09:04:27Z</time></trkpt><trkpt lat="45.73111701357702" lon="9.199331659177785"><ele>289.0</ele><time>2026-04-18T09:04:28Z</time></trkpt><trkpt lat="45.7312427805463" lon="9.199318316227757"><ele>289.0</ele><time>2026-04-18T09:04:29Z</time></trkpt><trkpt lat="45.731374702754195" lon="9.19930424089785"><ele>288.5</ele><time>2026-04-18T09:04:30Z</time></trkpt><trkpt lat="45.73150751718584" lon="9.19928334771458"><ele>288.0</ele><time>2026-04-18T09:04:31Z</time></trkpt><trkpt lat="45.731648871893846" lon="9.199258325764053"><ele>287.5</ele><time>2026-04-18T09:04:32Z</time></trkpt><trkpt lat="45.73179251150457" lon="9.199229670473782"><ele>287.0</ele><time>2026-04-18T09:04:33Z</time></trkpt><trkpt lat="45.73193932552968" lon="9.199201025404122"><ele>289.0</ele><time>2026-04-18T09:04:34Z</time></trkpt><trkpt lat="45.73208918719879" lon="9.199169198457081"><ele>291.0</ele><time>2026-04-18T09:04:35Z</time></trkpt><trkpt lat="45.7322400463224" lon="9.199132702056708"><ele>293.0</ele><time>2026-04-18T09:04:36Z</time></trkpt><trkpt lat="45.73239435621227" lon="9.199086844341997"><ele>293.0</ele><time>2026-04-18T09:04:37Z</time></trkpt><trkpt lat="45.73255107379464" lon="9.199048997992792"><ele>293.0</ele><time>2026-04-18T09:04:38Z</time></trkpt><trkpt lat="45.732707840690864" lon="9.199012843405255"><ele>293.0</ele><time>2026-04-18T09:04:39Z</time></trkpt><trkpt lat="45.732865271242254" lon="9.198974755542425"><ele>294.0</ele><time>2026-04-18T09:04:40Z</time></trkpt><trkpt lat="45.73302094196993" lon="9.1989361917607"><ele>295.0</ele><time>2026-04-18T09:04:41Z</time></trkpt><trkpt lat="45.73317670465018" lon="9.19889307035313"><ele>296.0</ele><time>2026-04-18T09:04:42Z</time></trkpt><trkpt lat="45.73333814574842" lon="9.198856525790422"><ele>296.0</ele><time>2026-04-18T09:04:43Z</time></trkpt><trkpt lat="45.73350102643058" lon="9.198820365471825"><ele>296.0</ele><time>2026-04-18T09:04:44Z</time></trkpt><trkpt lat="45.7336624977704" lon="9.198784715418519"><ele>296.0</ele><time>2026-04-18T09:04:45Z</time></trkpt><trkpt lat="45.733827225251346" lon="9.198754219852333"><ele>296.33333333333337</ele><time>2026-04-18T09:04:46Z</time></trkpt><trkpt lat="45.73398931859843" lon="9.198720849822857"><ele>296.6666666666667</ele><time>2026-04-18T09:04:47Z</time></trkpt><trkpt lat="45.73415311336387" lon="9.198689163046444"><ele>297.0</ele><time>2026-04-18T09:04:48Z</time></trkpt><trkpt lat="45.734312906026176" lon="9.198655629318322"><ele>297.0</ele><time>2026-04-18T09:04:49Z</time></trkpt><trkpt lat="45.73448098079795" lon="9.198631487180688"><ele>297.0</ele><time>2026-04-18T09:04:50Z</time></trkpt><trkpt lat="45.73464014038705" lon="9.198598966067378"><ele>297.0</ele><time>2026-04-18T09:04:51Z</time></trkpt><trkpt lat="45.734801620272016" lon="9.19857535704204"><ele>297.0</ele><time>2026-04-18T09:04:52Z</time></trkpt><trkpt lat="45.7349542032631" lon="9.198543818163182"><ele>297.0</ele><time>2026-04-18T09:04:53Z</time></trkpt><trkpt lat="45.735101372977915" lon="9.19851338154218"><ele>297.0</ele><time>2026-04-18T09:04:54Z</time></trkpt><trkpt lat="45.73524251899977" lon="9.198491770025377"><ele>297.0</ele><time>2026-04-18T09:04:55Z</time></trkpt><trkpt lat="45.73537117163894" lon="9.198466081004103"><ele>296.75</ele><time>2026-04-18T09:04:56Z</time></trkpt><trkpt lat="45.735491898439115" lon="9.198445404049071"><ele>296.5</ele><time>2026-04-18T09:04:57Z</time></trkpt><trkpt lat="45.73560854748732" lon="9.198426979756068"><ele>296.25</ele><time>2026-04-18T09:04:58Z</time></trkpt><trkpt lat="45.73572429570255" lon="9.198409550714741"><ele>296.0</ele><time>2026-04-18T09:04:59Z</time></trkpt><trkpt lat="45.73583368041821" lon="9.198391820671677"><ele>296.0</ele><time>2026-04-18T09:05:00Z</time></trkpt><trkpt lat="45.735934151715306" lon="9.198374865827038"><ele>296.0</ele><time>2026-04-18T09:05:01Z</time></trkpt><trkpt lat="45.736025695026555" lon="9.198361026117459"><ele>296.0</ele><time>2026-04-18T09:05:02Z</time></trkpt><trkpt lat="45.736109310143036" lon="9.1983470978333"><ele>296.0</ele><time>2026-04-18T09:05:03Z</time></trkpt><trkpt lat="45.73618599496664" lon="9.198337888112745"><ele>296.0</ele><time>2026-04-18T09:05:04Z</time></trkpt><trkpt lat="45.73625707624965" lon="9.198346037396476"><ele>296.0</ele><time>2026-04-18T09:05:05Z</time></trkpt><trkpt lat="45.736362316372336" lon="9.198353035058819"><ele>296.42857142857144</ele><time>2026-04-18T09:05:06Z</time></trkpt><trkpt lat="45.73643104819809" lon="9.198394300793916"><ele>296.85714285714283</ele><time>2026-04-18T09:05:07Z</time></trkpt><trkpt lat="45.73649140273415" lon="9.198438512758253"><ele>297.2857142857143</ele><time>2026-04-18T09:05:08Z</time></trkpt><trkpt lat="45.736554020973756" lon="9.198471478744482"><ele>297.7142857142857</ele><time>2026-04-18T09:05:09Z</time></trkpt><trkpt lat="45.736623250358015" lon="9.198477390872355"><ele>298.14285714285717</ele><time>2026-04-18T09:05:10Z</time></trkpt><trkpt lat="45.73668658868157" lon="9.198444366250111"><ele>298.57142857142856</ele><time>2026-04-18T09:05:11Z</time></trkpt><trkpt lat="45.736739886562106" lon="9.198376226400754"><ele>299.0</ele><time>2026-04-18T09:05:12Z</time></trkpt><trkpt lat="45.73680772557739" lon="9.198303197377088"><ele>298.75</ele><time>2026-04-18T09:05:13Z</time></trkpt><trkpt lat="45.73689320102526" lon="9.198229930522707"><ele>298.5</ele><time>2026-04-18T09:05:14Z</time></trkpt><trkpt lat="45.73700444878753" lon="9.198211120333362"><ele>298.25</ele><time>2026-04-18T09:05:15Z</time></trkpt><trkpt lat="45.7371233471712" lon="9.198167089203004"><ele>298.0</ele><time>2026-04-18T09:05:16Z</time></trkpt><trkpt lat="45.73725348267892" lon="9.198156046579689"><ele>297.25</ele><time>2026-04-18T09:05:17Z</time></trkpt><trkpt lat="45.737384942841295" lon="9.19813158629546"><ele>296.5</ele><time>2026-04-18T09:05:18Z</time></trkpt><trkpt lat="45.73752451277936" lon="9.19810517937037"><ele>295.75</ele><time>2026-04-18T09:05:19Z</time></trkpt><trkpt lat="45.73766644489233" lon="9.198076757898091"><ele>295.0</ele><time>2026-04-18T09:05:20Z</time></trkpt><trkpt lat="45.7378072022922" lon="9.198056025084998"><ele>295.0</ele><time>2026-04-18T09:05:21Z</time></trkpt><trkpt lat="45.73795318485257" lon="9.198034319290281"><ele>295.0</ele><time>2026-04-18T09:05:22Z</time></trkpt><trkpt lat="45.738101172639745" lon="9.198010883601352"><ele>295.0</ele><time>2026-04-18T09:05:23Z</time></trkpt><trkpt lat="45.73825294104057" lon="9.1979876168477"><ele>295.0</ele><time>2026-04-18T09:05:24Z</time></trkpt><trkpt lat="45.738402173912846" lon="9.1979671991372"><ele>295.66666666666663</ele><time>2026-04-18T09:05:25Z</time></trkpt><trkpt lat="45.738558202192664" lon="9.197942366915784"><ele>296.3333333333333</ele><time>2026-04-18T09:05:26Z</time></trkpt><trkpt lat="45.73871199114428" lon="9.197930498318561"><ele>297.0</ele><time>2026-04-18T09:05:27Z</time></trkpt><trkpt lat="45.7388562482737" lon="9.197918061690597"><ele>297.0</ele><time>2026-04-18T09:05:28Z</time></trkpt><trkpt lat="45.738998033644606" lon="9.197912247357207"><ele>297.0</ele><time>2026-04-18T09:05:29Z</time></trkpt><trkpt lat="45.73913350865237" lon="9.197912544099845"><ele>297.0</ele><time>2026-04-18T09:05:29.999Z</time></trkpt><trkpt lat="45.7392730134151" lon="9.197901540686027"><ele>297.0</ele><time>2026-04-18T09:05:30.999Z</time></trkpt><trkpt lat="45.73940691729891" lon="9.197881272113467"><ele>297.5</ele><time>2026-04-18T09:05:31.999Z</time></trkpt><trkpt lat="45.73952325322575" lon="9.197864190921017"><ele>298.0</ele><time>2026-04-18T09:05:32.999Z</time></trkpt><trkpt lat="45.73961189178837" lon="9.197874016380453"><ele>298.5</ele><time>2026-04-18T09:05:33.999Z</time></trkpt><trkpt lat="45.73967901022758" lon="9.197866973335783"><ele>299.0</ele><time>2026-04-18T09:05:34.999Z</time></trkpt><trkpt lat="45.73970890777102" lon="9.197589988322528"><ele>299.0</ele><time>2026-04-18T09:05:36.999Z</time></trkpt><trkpt lat="45.73973724464059" lon="9.197436993962471"><ele>299.0</ele><time>2026-04-18T09:05:37.999Z</time></trkpt><trkpt lat="45.739749606018954" lon="9.19728545800365"><ele>299.0</ele><time>2026-04-18T09:05:38.999Z</time></trkpt><trkpt lat="45.739785160165965" lon="9.197143189863763"><ele>299.0</ele><time>2026-04-18T09:05:39.999Z</time></trkpt><trkpt lat="45.739851068486246" lon="9.19696355280751"><ele>298.75</ele><time>2026-04-18T09:05:40.999Z</time></trkpt><trkpt lat="45.73989769224831" lon="9.196770834565687"><ele>298.5</ele><time>2026-04-18T09:05:41.999Z</time></trkpt><trkpt lat="45.73991147621118" lon="9.196557902622587"><ele>298.25</ele><time>2026-04-18T09:05:42.999Z</time></trkpt><trkpt lat="45.73990144046925" lon="9.196338258552734"><ele>298.0</ele><time>2026-04-18T09:05:43.999Z</time></trkpt><trkpt lat="45.739880513287176" lon="9.196109539854978"><ele>297.5</ele><time>2026-04-18T09:05:44.999Z</time></trkpt><trkpt lat="45.73986265962127" lon="9.195907593555804"><ele>297.0</ele><time>2026-04-18T09:05:45.999Z</time></trkpt><trkpt lat="45.73984953947237" lon="9.195722186307545"><ele>296.5</ele><time>2026-04-18T09:05:46.999Z</time></trkpt><trkpt lat="45.739837744643694" lon="9.195554621216916"><ele>296.0</ele><time>2026-04-18T09:05:47.999Z</time></trkpt><trkpt lat="45.73982345838725" lon="9.195392783292057"><ele>296.0</ele><time>2026-04-18T09:05:48.999Z</time></trkpt><trkpt lat="45.739809280283204" lon="9.195246057653016"><ele>296.0</ele><time>2026-04-18T09:05:49.999Z</time></trkpt><trkpt lat="45.73979521361597" lon="9.19511475667043"><ele>296.0</ele><time>2026-04-18T09:05:50.999Z</time></trkpt><trkpt lat="45.73979735058409" lon="9.194997938236806"><ele>296.0</ele><time>2026-04-18T09:05:52Z</time></trkpt><trkpt lat="45.739824470571314" lon="9.194840101325648"><ele>296.0</ele><time>2026-04-18T09:05:54Z</time></trkpt><trkpt lat="45.73980492226632" lon="9.194741515978391"><ele>296.0</ele><time>2026-04-18T09:05:56Z</time></trkpt><trkpt lat="45.73966752922473" lon="9.194756883986669"><ele>296.0</ele><time>2026-04-18T09:05:57Z</time></trkpt><trkpt lat="45.73961189897139" lon="9.194867145781432"><ele>296.0</ele><time>2026-04-18T09:05:58Z</time></trkpt><trkpt lat="45.739546532774206" lon="9.19494689644816"><ele>296.0</ele><time>2026-04-18T09:05:59Z</time></trkpt><trkpt lat="45.73947972161623" lon="9.194992711380905"><ele>296.0</ele><time>2026-04-18T09:06:00Z</time></trkpt><trkpt lat="45.73939942036022" lon="9.19503018324876"><ele>295.6</ele><time>2026-04-18T09:06:01Z</time></trkpt><trkpt lat="45.73930862493238" lon="9.195014266759905"><ele>295.20000000000005</ele><time>2026-04-18T09:06:02Z</time></trkpt><trkpt lat="45.73920680126997" lon="9.195037240900833"><ele>294.79999999999995</ele><time>2026-04-18T09:06:03Z</time></trkpt><trkpt lat="45.73909858813198" lon="9.195054805791411"><ele>294.4</ele><time>2026-04-18T09:06:04Z</time></trkpt><trkpt lat="45.7389792388907" lon="9.195071582086669"><ele>294.0</ele><time>2026-04-18T09:06:05Z</time></trkpt><trkpt lat="45.73886114736991" lon="9.195091786464872"><ele>294.0</ele><time>2026-04-18T09:06:06Z</time></trkpt><trkpt lat="45.73873514509616" lon="9.195081647580698"><ele>294.0</ele><time>2026-04-18T09:06:07Z</time></trkpt><trkpt lat="45.73860729005294" lon="9.195065371426338"><ele>294.0</ele><time>2026-04-18T09:06:08Z</time></trkpt><trkpt lat="45.73847762709562" lon="9.195043418906142"><ele>294.0</ele><time>2026-04-18T09:06:09Z</time></trkpt><trkpt lat="45.73834041378164" lon="9.195024846572947"><ele>294.0</ele><time>2026-04-18T09:06:10Z</time></trkpt><trkpt lat="45.73820577775227" lon="9.195021467668706"><ele>294.0</ele><time>2026-04-18T09:06:11Z</time></trkpt><trkpt lat="45.73805199984677" lon="9.195035693712438"><ele>294.0</ele><time>2026-04-18T09:06:12Z</time></trkpt><trkpt lat="45.73787827050405" lon="9.195069479051847"><ele>292.6666666666667</ele><time>2026-04-18T09:06:13Z</time></trkpt><trkpt lat="45.73769299344952" lon="9.195110311189286"><ele>291.33333333333337</ele><time>2026-04-18T09:06:14Z</time></trkpt><trkpt lat="45.73753893104559" lon="9.195131999316535"><ele>290.0</ele><time>2026-04-18T09:06:15Z</time></trkpt><trkpt lat="45.73741602051495" lon="9.195152094652062"><ele>290.0</ele><time>2026-04-18T09:06:16Z</time></trkpt><trkpt lat="45.73730782483023" lon="9.195180933426712"><ele>290.0</ele><time>2026-04-18T09:06:17Z</time></trkpt><trkpt lat="45.73720002003796" lon="9.195236848763994"><ele>290.0</ele><time>2026-04-18T09:06:18Z</time></trkpt><trkpt lat="45.737091289245456" lon="9.195336117722793"><ele>290.0</ele><time>2026-04-18T09:06:19Z</time></trkpt><trkpt lat="45.7369810599999" lon="9.195475121135054"><ele>290.6666666666667</ele><time>2026-04-18T09:06:20Z</time></trkpt><trkpt lat="45.73687709231807" lon="9.195631038441002"><ele>291.3333333333333</ele><time>2026-04-18T09:06:21Z</time></trkpt><trkpt lat="45.73677975042943" lon="9.195798379415576"><ele>292.0</ele><time>2026-04-18T09:06:22Z</time></trkpt><trkpt lat="45.73669332350778" lon="9.195973852205352"><ele>292.0</ele><time>2026-04-18T09:06:23Z</time></trkpt><trkpt lat="45.736622323976185" lon="9.196159348526486"><ele>292.0</ele><time>2026-04-18T09:06:24Z</time></trkpt><trkpt lat="45.736566364936635" lon="9.196360402036673"><ele>292.0</ele><time>2026-04-18T09:06:25Z</time></trkpt><trkpt lat="45.73653591577364" lon="9.196603065594456"><ele>291.66666666666663</ele><time>2026-04-18T09:06:26Z</time></trkpt><trkpt lat="45.736521213132335" lon="9.196882257049644"><ele>291.3333333333333</ele><time>2026-04-18T09:06:27Z</time></trkpt><trkpt lat="45.73649720699428" lon="9.197146446180733"><ele>291.0</ele><time>2026-04-18T09:06:28Z</time></trkpt><trkpt lat="45.736417945484526" lon="9.197368625372143"><ele>291.40000000000003</ele><time>2026-04-18T09:06:29Z</time></trkpt><trkpt lat="45.73638277425987" lon="9.19754391427083"><ele>291.8</ele><time>2026-04-18T09:06:30Z</time></trkpt><trkpt lat="45.736362703515816" lon="9.19767830914756"><ele>292.20000000000005</ele><time>2026-04-18T09:06:31Z</time></trkpt><trkpt lat="45.73635717964287" lon="9.197829784825643"><ele>292.6</ele><time>2026-04-18T09:06:32Z</time></trkpt><trkpt lat="45.7364248717467" lon="9.197948830528707"><ele>293.0</ele><time>2026-04-18T09:06:33Z</time></trkpt><trkpt lat="45.736470717325226" lon="9.19803434077539"><ele>293.0</ele><time>2026-04-18T09:06:34Z</time></trkpt><trkpt lat="45.736438013717205" lon="9.198144689318656"><ele>293.0</ele><time>2026-04-18T09:06:35Z</time></trkpt><trkpt lat="45.73636974030609" lon="9.198244280582616"><ele>293.0</ele><time>2026-04-18T09:06:36Z</time></trkpt><trkpt lat="45.73626805141452" lon="9.198317481743109"><ele>293.0</ele><time>2026-04-18T09:06:37Z</time></trkpt><trkpt lat="45.73614958942544" lon="9.198346316907127"><ele>293.0</ele><time>2026-04-18T09:06:38Z</time></trkpt><trkpt lat="45.73601959127991" lon="9.19834257604939"><ele>293.75</ele><time>2026-04-18T09:06:39Z</time></trkpt><trkpt lat="45.735883719208886" lon="9.198353566810052"><ele>294.5</ele><time>2026-04-18T09:06:40Z</time></trkpt><trkpt lat="45.735742841215" lon="9.198375067548517"><ele>295.25</ele><time>2026-04-18T09:06:41Z</time></trkpt><trkpt lat="45.73559335887205" lon="9.198401304788863"><ele>296.0</ele><time>2026-04-18T09:06:42Z</time></trkpt><trkpt lat="45.735442805432314" lon="9.198427557787443"><ele>296.0</ele><time>2026-04-18T09:06:43Z</time></trkpt><trkpt lat="45.73529407325186" lon="9.198464264051307"><ele>296.0</ele><time>2026-04-18T09:06:44Z</time></trkpt><trkpt lat="45.73514310383717" lon="9.198486052170795"><ele>296.0</ele><time>2026-04-18T09:06:45Z</time></trkpt><trkpt lat="45.734973205597555" lon="9.19851757429516"><ele>296.33333333333337</ele><time>2026-04-18T09:06:46Z</time></trkpt><trkpt lat="45.7348057318923" lon="9.198549141523522"><ele>296.6666666666667</ele><time>2026-04-18T09:06:47Z</time></trkpt><trkpt lat="45.73464298200116" lon="9.198580164274196"><ele>297.0</ele><time>2026-04-18T09:06:48Z</time></trkpt><trkpt lat="45.73448832855141" lon="9.198605917039574"><ele>297.0</ele><time>2026-04-18T09:06:49Z</time></trkpt><trkpt lat="45.734340833764335" lon="9.198628183173218"><ele>297.0</ele><time>2026-04-18T09:06:50Z</time></trkpt><trkpt lat="45.73419638641829" lon="9.198653301769648"><ele>297.0</ele><time>2026-04-18T09:06:51Z</time></trkpt><trkpt lat="45.73405876264868" lon="9.198674395985782"><ele>297.0</ele><time>2026-04-18T09:06:52Z</time></trkpt><trkpt lat="45.73392183189627" lon="9.198699529285737"><ele>297.0</ele><time>2026-04-18T09:06:53Z</time></trkpt><trkpt lat="45.73379084804895" lon="9.198718068945986"><ele>297.0</ele><time>2026-04-18T09:06:54Z</time></trkpt><trkpt lat="45.73366360822438" lon="9.198742786847145"><ele>297.0</ele><time>2026-04-18T09:06:55Z</time></trkpt><trkpt lat="45.73352911990535" lon="9.198778827345897"><ele>297.0</ele><time>2026-04-18T09:06:56Z</time></trkpt><trkpt lat="45.733394844247115" lon="9.198819026921068"><ele>296.75</ele><time>2026-04-18T09:06:57Z</time></trkpt><trkpt lat="45.73325476290476" lon="9.19885674341841"><ele>296.5</ele><time>2026-04-18T09:06:58Z</time></trkpt><trkpt lat="45.73311253755585" lon="9.19888531044361"><ele>296.25</ele><time>2026-04-18T09:06:59Z</time></trkpt><trkpt lat="45.732966624054" lon="9.198911442610804"><ele>296.0</ele><time>2026-04-18T09:07:00Z</time></trkpt><trkpt lat="45.73281642254921" lon="9.198946983377853"><ele>295.0</ele><time>2026-04-18T09:07:01Z</time></trkpt><trkpt lat="45.732659966753964" lon="9.198985488979039"><ele>294.0</ele><time>2026-04-18T09:07:02Z</time></trkpt><trkpt lat="45.73250092377672" lon="9.199018755946035"><ele>293.0</ele><time>2026-04-18T09:07:03Z</time></trkpt><trkpt lat="45.73233672004568" lon="9.199055643760639"><ele>293.0</ele><time>2026-04-18T09:07:04Z</time></trkpt><trkpt lat="45.73217405660481" lon="9.199100684624232"><ele>293.0</ele><time>2026-04-18T09:07:05Z</time></trkpt><trkpt lat="45.73200211612589" lon="9.199142300633662"><ele>293.0</ele><time>2026-04-18T09:07:06Z</time></trkpt><trkpt lat="45.73183429960786" lon="9.199176363916012"><ele>291.0</ele><time>2026-04-18T09:07:07Z</time></trkpt><trkpt lat="45.73166308167624" lon="9.199208372026751"><ele>289.0</ele><time>2026-04-18T09:07:08Z</time></trkpt><trkpt lat="45.73149168752647" lon="9.199241404558"><ele>287.0</ele><time>2026-04-18T09:07:09Z</time></trkpt><trkpt lat="45.73131732085162" lon="9.199267842894992"><ele>287.0</ele><time>2026-04-18T09:07:10Z</time></trkpt><trkpt lat="45.7311399432679" lon="9.199287179210542"><ele>287.0</ele><time>2026-04-18T09:07:11Z</time></trkpt><trkpt lat="45.73096386839413" lon="9.199305584805119"><ele>287.0</ele><time>2026-04-18T09:07:12Z</time></trkpt><trkpt lat="45.73078679209966" lon="9.199320413247792"><ele>287.6666666666667</ele><time>2026-04-18T09:07:13Z</time></trkpt><trkpt lat="45.73061226865874" lon="9.199338460562618"><ele>288.3333333333333</ele><time>2026-04-18T09:07:14Z</time></trkpt><trkpt lat="45.730439007401515" lon="9.199356779791929"><ele>289.0</ele><time>2026-04-18T09:07:15Z</time></trkpt><trkpt lat="45.730263967428954" lon="9.19937814160644"><ele>288.0</ele><time>2026-04-18T09:07:16Z</time></trkpt><trkpt lat="45.730090184714285" lon="9.199396554667919"><ele>287.0</ele><time>2026-04-18T09:07:17Z</time></trkpt><trkpt lat="45.72991658006732" lon="9.199410656044153"><ele>286.0</ele><time>2026-04-18T09:07:18Z</time></trkpt><trkpt lat="45.729749728932205" lon="9.199430981158532"><ele>286.0</ele><time>2026-04-18T09:07:19Z</time></trkpt><trkpt lat="45.72959965349894" lon="9.199459250883125"><ele>286.0</ele><time>2026-04-18T09:07:20Z</time></trkpt><trkpt lat="45.729442842701" lon="9.199509977840497"><ele>286.0</ele><time>2026-04-18T09:07:21Z</time></trkpt><trkpt lat="45.729303509668334" lon="9.199587227933915"><ele>285.3333333333333</ele><time>2026-04-18T09:07:22Z</time></trkpt><trkpt lat="45.72916987505747" lon="9.19970098660885"><ele>284.6666666666667</ele><time>2026-04-18T09:07:23Z</time></trkpt><trkpt lat="45.72904647469749" lon="9.199836905581323"><ele>284.0</ele><time>2026-04-18T09:07:24Z</time></trkpt><trkpt lat="45.72892596222194" lon="9.200000026895939"><ele>285.6666666666667</ele><time>2026-04-18T09:07:25Z</time></trkpt><trkpt lat="45.728823373188405" lon="9.200193475351222"><ele>287.3333333333333</ele><time>2026-04-18T09:07:26Z</time></trkpt><trkpt lat="45.72872809586904" lon="9.200408578049554"><ele>289.0</ele><time>2026-04-18T09:07:27Z</time></trkpt><trkpt lat="45.72864499995156" lon="9.20063739671772"><ele>291.3333333333333</ele><time>2026-04-18T09:07:28Z</time></trkpt><trkpt lat="45.7285619257528" lon="9.200872168738655"><ele>293.6666666666667</ele><time>2026-04-18T09:07:29Z</time></trkpt><trkpt lat="45.72847597602531" lon="9.201099236534771"><ele>296.0</ele><time>2026-04-18T09:07:30Z</time></trkpt><trkpt lat="45.72837885625973" lon="9.201306046114587"><ele>296.33333333333337</ele><time>2026-04-18T09:07:31Z</time></trkpt><trkpt lat="45.72826924725703" lon="9.201512976381915"><ele>296.6666666666667</ele><time>2026-04-18T09:07:32Z</time></trkpt><trkpt lat="45.72815114661249" lon="9.201686594100806"><ele>297.0</ele><time>2026-04-18T09:07:33Z</time></trkpt><trkpt lat="45.728022711021175" lon="9.201857998215916"><ele>297.0</ele><time>2026-04-18T09:07:34Z</time></trkpt><trkpt lat="45.72789286489333" lon="9.202031527480788"><ele>297.0</ele><time>2026-04-18T09:07:35Z</time></trkpt><trkpt lat="45.72777693830719" lon="9.202188964497097"><ele>297.0</ele><time>2026-04-18T09:07:35.999Z</time></trkpt><trkpt lat="45.727668712656474" lon="9.20233664162981"><ele>298.0</ele><time>2026-04-18T09:07:36.999Z</time></trkpt><trkpt lat="45.72755703419091" lon="9.202451056280854"><ele>299.0</ele><time>2026-04-18T09:07:37.999Z</time></trkpt><trkpt lat="45.727467249786464" lon="9.202567012872276"><ele>300.0</ele><time>2026-04-18T09:07:38.999Z</time></trkpt><trkpt lat="45.72739583434316" lon="9.202689542938758"><ele>301.0</ele><time>2026-04-18T09:07:39.999Z</time></trkpt><trkpt lat="45.727316556534156" lon="9.202787199088563"><ele>301.0</ele><time>2026-04-18T09:07:40.999Z</time></trkpt><trkpt lat="45.72724322768199" lon="9.20288521472078"><ele>301.0</ele><time>2026-04-18T09:07:41.999Z</time></trkpt><trkpt lat="45.72717778991062" lon="9.202971015600932"><ele>301.0</ele><time>2026-04-18T09:07:42.999Z</time></trkpt><trkpt lat="45.727127953508905" lon="9.203030852376878"><ele>301.0</ele><time>2026-04-18T09:07:43.999Z</time></trkpt><trkpt lat="45.72706788196074" lon="9.20309643923283"><ele>301.0</ele><time>2026-04-18T09:07:45.999Z</time></trkpt><trkpt lat="45.72698806521425" lon="9.203170664753102"><ele>301.0</ele><time>2026-04-18T09:07:49.999Z</time></trkpt><trkpt lat="45.72695803514095" lon="9.203297087748965"><ele>301.2</ele><time>2026-04-18T09:07:51.999Z</time></trkpt><trkpt lat="45.727087199345995" lon="9.20338635134275"><ele>301.40000000000003</ele><time>2026-04-18T09:07:53.999Z</time></trkpt><trkpt lat="45.72715392872412" lon="9.203470534412293"><ele>301.6</ele><time>2026-04-18T09:07:54.999Z</time></trkpt><trkpt lat="45.72724142152249" lon="9.203516222692363"><ele>301.8</ele><time>2026-04-18T09:07:55.999Z</time></trkpt><trkpt lat="45.72734476659173" lon="9.203586414764388"><ele>302.0</ele><time>2026-04-18T09:07:56.999Z</time></trkpt><trkpt lat="45.72744259857624" lon="9.20365961021443"><ele>302.0</ele><time>2026-04-18T09:07:57.999Z</time></trkpt><trkpt lat="45.72753301985274" lon="9.203715499151167"><ele>302.0</ele><time>2026-04-18T09:07:58.999Z</time></trkpt><trkpt lat="45.727627311776764" lon="9.203785323998268"><ele>302.0</ele><time>2026-04-18T09:08:00Z</time></trkpt><trkpt lat="45.727723096914815" lon="9.203854987580774"><ele>302.0</ele><time>2026-04-18T09:08:01Z</time></trkpt><trkpt lat="45.72782305428351" lon="9.203929103438004"><ele>302.0</ele><time>2026-04-18T09:08:02Z</time></trkpt><trkpt lat="45.727925139760245" lon="9.204003547351322"><ele>302.0</ele><time>2026-04-18T09:08:03Z</time></trkpt><trkpt lat="45.728025631914726" lon="9.204085661620132"><ele>302.0</ele><time>2026-04-18T09:08:04Z</time></trkpt><trkpt lat="45.728124166046605" lon="9.204167125062241"><ele>302.0</ele><time>2026-04-18T09:08:05Z</time></trkpt><trkpt lat="45.728227807774125" lon="9.204244871990054"><ele>302.0</ele><time>2026-04-18T09:08:06Z</time></trkpt><trkpt lat="45.728334858976986" lon="9.204326035504355"><ele>302.0</ele><time>2026-04-18T09:08:07Z</time></trkpt><trkpt lat="45.72844315080762" lon="9.204402810107018"><ele>302.0</ele><time>2026-04-18T09:08:08Z</time></trkpt><trkpt lat="45.728555927758336" lon="9.20449342923478"><ele>302.0</ele><time>2026-04-18T09:08:09Z</time></trkpt><trkpt lat="45.728681001989194" lon="9.204595329016838"><ele>302.0</ele><time>2026-04-18T09:08:10Z</time></trkpt><trkpt lat="45.728815974673594" lon="9.204712281352599"><ele>301.6666666666667</ele><time>2026-04-18T09:08:11Z</time></trkpt><trkpt lat="45.7289481245378" lon="9.204822230210786"><ele>301.3333333333333</ele><time>2026-04-18T09:08:12Z</time></trkpt><trkpt lat="45.72907956882891" lon="9.204929868096484"><ele>301.0</ele><time>2026-04-18T09:08:13Z</time></trkpt><trkpt lat="45.7292168637893" lon="9.20504471904245"><ele>301.66666666666663</ele><time>2026-04-18T09:08:14Z</time></trkpt><trkpt lat="45.72936098632907" lon="9.205160415710266"><ele>302.3333333333333</ele><time>2026-04-18T09:08:15Z</time></trkpt><trkpt lat="45.72951428670893" lon="9.20529137696953"><ele>303.0</ele><time>2026-04-18T09:08:16Z</time></trkpt><trkpt lat="45.72966925818766" lon="9.205416688135845"><ele>303.0</ele><time>2026-04-18T09:08:17Z</time></trkpt><trkpt lat="45.729822701752425" lon="9.205551356596336"><ele>303.0</ele><time>2026-04-18T09:08:18Z</time></trkpt><trkpt lat="45.729978931604165" lon="9.205682726981989"><ele>303.0</ele><time>2026-04-18T09:08:19Z</time></trkpt><trkpt lat="45.73013504635899" lon="9.205807753718435"><ele>304.6666666666667</ele><time>2026-04-18T09:08:20Z</time></trkpt><trkpt lat="45.73029729170317" lon="9.205942011611716"><ele>306.33333333333337</ele><time>2026-04-18T09:08:21Z</time></trkpt><trkpt lat="45.730442174891" lon="9.206062887233502"><ele>308.0</ele><time>2026-04-18T09:08:22Z</time></trkpt><trkpt lat="45.730588857563234" lon="9.20618623858338"><ele>308.0</ele><time>2026-04-18T09:08:23Z</time></trkpt><trkpt lat="45.73073620494108" lon="9.206339359819523"><ele>308.0</ele><time>2026-04-18T09:08:24Z</time></trkpt><trkpt lat="45.73089489828764" lon="9.206476432267827"><ele>308.0</ele><time>2026-04-18T09:08:25Z</time></trkpt><trkpt lat="45.731042575950326" lon="9.206609163727187"><ele>309.0</ele><time>2026-04-18T09:08:26Z</time></trkpt><trkpt lat="45.731184745901174" lon="9.206741039048095"><ele>310.0</ele><time>2026-04-18T09:08:27Z</time></trkpt><trkpt lat="45.731327149138146" lon="9.206869178564478"><ele>311.0</ele><time>2026-04-18T09:08:28Z</time></trkpt><trkpt lat="45.731472012538255" lon="9.206983531035577"><ele>311.0</ele><time>2026-04-18T09:08:29Z</time></trkpt><trkpt lat="45.73162519319778" lon="9.207082604644052"><ele>311.0</ele><time>2026-04-18T09:08:30Z</time></trkpt><trkpt lat="45.731785367851685" lon="9.207125585459282"><ele>311.0</ele><time>2026-04-18T09:08:31Z</time></trkpt><trkpt lat="45.73195335658943" lon="9.207146430651036"><ele>310.6666666666667</ele><time>2026-04-18T09:08:32Z</time></trkpt><trkpt lat="45.73213583296726" lon="9.207130794164712"><ele>310.3333333333333</ele><time>2026-04-18T09:08:33Z</time></trkpt><trkpt lat="45.73231843902412" lon="9.207112777451238"><ele>310.0</ele><time>2026-04-18T09:08:34Z</time></trkpt><trkpt lat="45.73250125941412" lon="9.207127440152412"><ele>310.0</ele><time>2026-04-18T09:08:35Z</time></trkpt><trkpt lat="45.73269371431167" lon="9.207117374902461"><ele>310.0</ele><time>2026-04-18T09:08:36Z</time></trkpt><trkpt lat="45.73287050070949" lon="9.207108118032554"><ele>310.0</ele><time>2026-04-18T09:08:37Z</time></trkpt><trkpt lat="45.73305232378452" lon="9.207076815116338"><ele>311.3333333333333</ele><time>2026-04-18T09:08:38Z</time></trkpt><trkpt lat="45.733238404914715" lon="9.20706803705745"><ele>312.6666666666667</ele><time>2026-04-18T09:08:39Z</time></trkpt><trkpt lat="45.73342222502499" lon="9.207061527781809"><ele>314.0</ele><time>2026-04-18T09:08:40Z</time></trkpt><trkpt lat="45.73360328396647" lon="9.207050010649263"><ele>314.33333333333337</ele><time>2026-04-18T09:08:41Z</time></trkpt><trkpt lat="45.733784469301675" lon="9.2070418088005"><ele>314.6666666666667</ele><time>2026-04-18T09:08:42Z</time></trkpt><trkpt lat="45.73396038202645" lon="9.207036494457997"><ele>315.0</ele><time>2026-04-18T09:08:43Z</time></trkpt><trkpt lat="45.73413358717425" lon="9.207023505661939"><ele>315.0</ele><time>2026-04-18T09:08:44Z</time></trkpt><trkpt lat="45.734311348276535" lon="9.207011529608113"><ele>315.0</ele><time>2026-04-18T09:08:45Z</time></trkpt><trkpt lat="45.7344855209898" lon="9.207001124830127"><ele>315.0</ele><time>2026-04-18T09:08:46Z</time></trkpt><trkpt lat="45.734660034227595" lon="9.207015197457965"><ele>317.3333333333333</ele><time>2026-04-18T09:08:47Z</time></trkpt><trkpt lat="45.73483189327504" lon="9.20698665588981"><ele>319.66666666666663</ele><time>2026-04-18T09:08:48Z</time></trkpt><trkpt lat="45.73499963868875" lon="9.20697478765525"><ele>322.0</ele><time>2026-04-18T09:08:49Z</time></trkpt><trkpt lat="45.73515927769783" lon="9.20696986763335"><ele>326.3333333333333</ele><time>2026-04-18T09:08:50Z</time></trkpt><trkpt lat="45.73532083202205" lon="9.206959603217648"><ele>330.6666666666667</ele><time>2026-04-18T09:08:51Z</time></trkpt><trkpt lat="45.73548303025722" lon="9.206949792516987"><ele>335.0</ele><time>2026-04-18T09:08:52Z</time></trkpt><trkpt lat="45.73563285363705" lon="9.206944409646448"><ele>335.0</ele><time>2026-04-18T09:08:53Z</time></trkpt><trkpt lat="45.73578444195065" lon="9.20694544208353"><ele>335.0</ele><time>2026-04-18T09:08:54Z</time></trkpt><trkpt lat="45.73592885591688" lon="9.206981430632787"><ele>335.0</ele><time>2026-04-18T09:08:55Z</time></trkpt><trkpt lat="45.736066503054474" lon="9.20697610262706"><ele>335.0</ele><time>2026-04-18T09:08:56Z</time></trkpt><trkpt lat="45.73620152727325" lon="9.206999114046745"><ele>336.25</ele><time>2026-04-18T09:08:57Z</time></trkpt><trkpt lat="45.73633973515649" lon="9.207025429193024"><ele>337.5</ele><time>2026-04-18T09:08:58Z</time></trkpt><trkpt lat="45.736473559830344" lon="9.207037325217502"><ele>338.75</ele><time>2026-04-18T09:08:59Z</time></trkpt><trkpt lat="45.73661217904717" lon="9.207051965512582"><ele>340.0</ele><time>2026-04-18T09:09:00Z</time></trkpt><trkpt lat="45.736744480662885" lon="9.207091322153941"><ele>340.0</ele><time>2026-04-18T09:09:01Z</time></trkpt><trkpt lat="45.7368799494031" lon="9.207094400303664"><ele>340.0</ele><time>2026-04-18T09:09:02Z</time></trkpt><trkpt lat="45.73701150685242" lon="9.207110299898691"><ele>340.0</ele><time>2026-04-18T09:09:03Z</time></trkpt><trkpt lat="45.737135423810344" lon="9.207129716396954"><ele>340.0</ele><time>2026-04-18T09:09:04Z</time></trkpt><trkpt lat="45.737243919470934" lon="9.207148030487193"><ele>340.0</ele><time>2026-04-18T09:09:05Z</time></trkpt><trkpt lat="45.737344698580756" lon="9.20717007043608"><ele>340.0</ele><time>2026-04-18T09:09:06Z</time></trkpt><trkpt lat="45.737429850723785" lon="9.20718318719846"><ele>340.0</ele><time>2026-04-18T09:09:07Z</time></trkpt><trkpt lat="45.737516884717486" lon="9.207192026681076"><ele>340.0</ele><time>2026-04-18T09:09:08Z</time></trkpt><trkpt lat="45.7376104748846" lon="9.207188260516988"><ele>340.0</ele><time>2026-04-18T09:09:09Z</time></trkpt><trkpt lat="45.73770239373644" lon="9.207168199135117"><ele>339.8</ele><time>2026-04-18T09:09:10Z</time></trkpt><trkpt lat="45.73778047341919" lon="9.207123087419253"><ele>339.6</ele><time>2026-04-18T09:09:11Z</time></trkpt><trkpt lat="45.73783380456564" lon="9.207067340857177"><ele>339.4</ele><time>2026-04-18T09:09:12Z</time></trkpt><trkpt lat="45.73793844936161" lon="9.206998588287046"><ele>339.2</ele><time>2026-04-18T09:09:14Z</time></trkpt><trkpt lat="45.73801708019806" lon="9.20716456256556"><ele>339.0</ele><time>2026-04-18T09:09:17Z</time></trkpt><trkpt lat="45.738045569951105" lon="9.207251856465225"><ele>338.4</ele><time>2026-04-18T09:09:18Z</time></trkpt><trkpt lat="45.738079994510635" lon="9.20735456817146"><ele>337.79999999999995</ele><time>2026-04-18T09:09:19Z</time></trkpt><trkpt lat="45.738117053331614" lon="9.207465139587708"><ele>337.20000000000005</ele><time>2026-04-18T09:09:20Z</time></trkpt><trkpt lat="45.73815736102423" lon="9.207585404843448"><ele>336.6</ele><time>2026-04-18T09:09:21Z</time></trkpt><trkpt lat="45.738212329894665" lon="9.207702619397043"><ele>336.0</ele><time>2026-04-18T09:09:22Z</time></trkpt><trkpt lat="45.73825499934434" lon="9.207841017436682"><ele>336.0</ele><time>2026-04-18T09:09:23Z</time></trkpt><trkpt lat="45.73830514320769" lon="9.207982465197714"><ele>336.0</ele><time>2026-04-18T09:09:24.001Z</time></trkpt><trkpt lat="45.73835426594897" lon="9.208139295138963"><ele>336.0</ele><time>2026-04-18T09:09:25.001Z</time></trkpt><trkpt lat="45.73840786602603" lon="9.208298906531287"><ele>336.0</ele><time>2026-04-18T09:09:26.001Z</time></trkpt><trkpt lat="45.73846183239183" lon="9.208462134942883"><ele>336.25</ele><time>2026-04-18T09:09:27.001Z</time></trkpt><trkpt lat="45.73851537666584" lon="9.208621331588397"><ele>336.5</ele><time>2026-04-18T09:09:28.001Z</time></trkpt><trkpt lat="45.73856867244448" lon="9.208787984878366"><ele>336.75</ele><time>2026-04-18T09:09:29.001Z</time></trkpt><trkpt lat="45.73862560879369" lon="9.208956124166772"><ele>337.0</ele><time>2026-04-18T09:09:30.001Z</time></trkpt><trkpt lat="45.73868264594464" lon="9.209129594700366"><ele>336.5</ele><time>2026-04-18T09:09:31.001Z</time></trkpt><trkpt lat="45.73874033681583" lon="9.209306450488413"><ele>336.0</ele><time>2026-04-18T09:09:32.001Z</time></trkpt><trkpt lat="45.738799397699275" lon="9.209486232663412"><ele>335.5</ele><time>2026-04-18T09:09:33.001Z</time></trkpt><trkpt lat="45.73886074960697" lon="9.20966807963754"><ele>335.0</ele><time>2026-04-18T09:09:34.001Z</time></trkpt><trkpt lat="45.73892126996566" lon="9.209853191955647"><ele>335.0</ele><time>2026-04-18T09:09:35.001Z</time></trkpt><trkpt lat="45.73898140328721" lon="9.210035096949209"><ele>335.0</ele><time>2026-04-18T09:09:36.001Z</time></trkpt><trkpt lat="45.73904076245711" lon="9.21022549552117"><ele>335.0</ele><time>2026-04-18T09:09:37.001Z</time></trkpt><trkpt lat="45.73910138681201" lon="9.210413281856505"><ele>335.0</ele><time>2026-04-18T09:09:38.001Z</time></trkpt><trkpt lat="45.739164730602454" lon="9.21060040021361"><ele>335.25</ele><time>2026-04-18T09:09:39.001Z</time></trkpt><trkpt lat="45.739228118734005" lon="9.210792759058306"><ele>335.5</ele><time>2026-04-18T09:09:40.001Z</time></trkpt><trkpt lat="45.73929216660114" lon="9.210977177067534"><ele>335.75</ele><time>2026-04-18T09:09:41.001Z</time></trkpt><trkpt lat="45.73934289463825" lon="9.211169153838634"><ele>336.0</ele><time>2026-04-18T09:09:41.999Z</time></trkpt><trkpt lat="45.73939491712491" lon="9.211349971845632"><ele>337.5</ele><time>2026-04-18T09:09:42.999Z</time></trkpt><trkpt lat="45.739443876457734" lon="9.211541591850041"><ele>339.0</ele><time>2026-04-18T09:09:43.999Z</time></trkpt><trkpt lat="45.739490759906175" lon="9.211727576134164"><ele>340.5</ele><time>2026-04-18T09:09:44.999Z</time></trkpt><trkpt lat="45.73953798089508" lon="9.211912804515116"><ele>342.0</ele><time>2026-04-18T09:09:45.999Z</time></trkpt><trkpt lat="45.73958663675646" lon="9.21210727209785"><ele>342.0</ele><time>2026-04-18T09:09:46.999Z</time></trkpt><trkpt lat="45.73961773824628" lon="9.212294602590374"><ele>342.0</ele><time>2026-04-18T09:09:47.999Z</time></trkpt><trkpt lat="45.739661675284786" lon="9.212472902321483"><ele>342.0</ele><time>2026-04-18T09:09:48.999Z</time></trkpt><trkpt lat="45.73971504667478" lon="9.212642631216154"><ele>342.0</ele><time>2026-04-18T09:09:49.999Z</time></trkpt><trkpt lat="45.73975414959273" lon="9.212809338707183"><ele>342.25</ele><time>2026-04-18T09:09:50.999Z</time></trkpt><trkpt lat="45.73979548792857" lon="9.212975533279138"><ele>342.5</ele><time>2026-04-18T09:09:51.999Z</time></trkpt><trkpt lat="45.739837254727824" lon="9.2131419366721"><ele>342.75</ele><time>2026-04-18T09:09:52.999Z</time></trkpt><trkpt lat="45.73987427758639" lon="9.213308330848824"><ele>343.0</ele><time>2026-04-18T09:09:53.999Z</time></trkpt><trkpt lat="45.73990973835955" lon="9.213467998629541"><ele>343.66666666666663</ele><time>2026-04-18T09:09:54.999Z</time></trkpt><trkpt lat="45.739952575400196" lon="9.21361589473177"><ele>344.3333333333333</ele><time>2026-04-18T09:09:55.999Z</time></trkpt><trkpt lat="45.73998995723858" lon="9.213747975498872"><ele>345.0</ele><time>2026-04-18T09:09:56.999Z</time></trkpt><trkpt lat="45.740022266195105" lon="9.21385571969647"><ele>345.6666666666667</ele><time>2026-04-18T09:09:57.999Z</time></trkpt><trkpt lat="45.74005312080666" lon="9.213944633346294"><ele>346.33333333333337</ele><time>2026-04-18T09:09:58.999Z</time></trkpt><trkpt lat="45.74008880750658" lon="9.214037148167598"><ele>347.0</ele><time>2026-04-18T09:09:59.999Z</time></trkpt><trkpt lat="45.7401128618921" lon="9.214136460294792"><ele>347.0</ele><time>2026-04-18T09:10:00.999Z</time></trkpt><trkpt lat="45.740161262835215" lon="9.21420467646398"><ele>347.0</ele><time>2026-04-18T09:10:01.999Z</time></trkpt><trkpt lat="45.74020879509454" lon="9.214331678853835"><ele>347.0</ele><time>2026-04-18T09:10:03.999Z</time></trkpt><trkpt lat="45.74028279763875" lon="9.214435025325535"><ele>347.0</ele><time>2026-04-18T09:10:05.999Z</time></trkpt><trkpt lat="45.74034570517841" lon="9.21455089635084"><ele>347.0</ele><time>2026-04-18T09:10:08Z</time></trkpt><trkpt lat="45.74039881350694" lon="9.21463654713678"><ele>348.6</ele><time>2026-04-18T09:10:10Z</time></trkpt><trkpt lat="45.74045021895402" lon="9.214737232018441"><ele>350.20000000000005</ele><time>2026-04-18T09:10:13Z</time></trkpt><trkpt lat="45.740463979391606" lon="9.214876206869887"><ele>351.8</ele><time>2026-04-18T09:10:15Z</time></trkpt><trkpt lat="45.74044930655431" lon="9.215038849285895"><ele>353.4</ele><time>2026-04-18T09:10:17Z</time></trkpt><trkpt lat="45.74046851312471" lon="9.21523897737011"><ele>355.0</ele><time>2026-04-18T09:10:19Z</time></trkpt><trkpt lat="45.740477642264146" lon="9.21532909162509"><ele>355.0</ele><time>2026-04-18T09:10:20Z</time></trkpt><trkpt lat="45.74048659668586" lon="9.215429367632668"><ele>355.0</ele><time>2026-04-18T09:10:21Z</time></trkpt><trkpt lat="45.740523088839865" lon="9.21556818523934"><ele>355.0</ele><time>2026-04-18T09:10:23Z</time></trkpt><trkpt lat="45.740679003702816" lon="9.215490132828606"><ele>355.0</ele><time>2026-04-18T09:10:25Z</time></trkpt><trkpt lat="45.74065367413317" lon="9.215335538411246"><ele>355.0</ele><time>2026-04-18T09:10:26Z</time></trkpt><trkpt lat="45.74065150570457" lon="9.215244805695855"><ele>355.0</ele><time>2026-04-18T09:10:27Z</time></trkpt><trkpt lat="45.74068311311548" lon="9.215144927761678"><ele>355.0</ele><time>2026-04-18T09:10:29Z</time></trkpt><trkpt lat="45.740853417929515" lon="9.215226204528664"><ele>355.0</ele><time>2026-04-18T09:10:30Z</time></trkpt><trkpt lat="45.740951293561565" lon="9.215251427204157"><ele>355.0</ele><time>2026-04-18T09:10:31Z</time></trkpt><trkpt lat="45.7410561720684" lon="9.215276347986117"><ele>355.75</ele><time>2026-04-18T09:10:32Z</time></trkpt><trkpt lat="45.74116637547961" lon="9.215313023725773"><ele>356.5</ele><time>2026-04-18T09:10:33Z</time></trkpt><trkpt lat="45.741286306258395" lon="9.215349093880734"><ele>357.25</ele><time>2026-04-18T09:10:34Z</time></trkpt><trkpt lat="45.74139980209059" lon="9.215378107962948"><ele>358.0</ele><time>2026-04-18T09:10:35Z</time></trkpt><trkpt lat="45.74152028044225" lon="9.21541464116585"><ele>358.0</ele><time>2026-04-18T09:10:36Z</time></trkpt><trkpt lat="45.74164762158444" lon="9.215460165954333"><ele>358.0</ele><time>2026-04-18T09:10:37Z</time></trkpt><trkpt lat="45.741788504305546" lon="9.215522066428425"><ele>358.0</ele><time>2026-04-18T09:10:38Z</time></trkpt><trkpt lat="45.74193257885972" lon="9.215608717041443"><ele>358.0</ele><time>2026-04-18T09:10:39Z</time></trkpt><trkpt lat="45.74206586592809" lon="9.215717749264607"><ele>357.3333333333333</ele><time>2026-04-18T09:10:40Z</time></trkpt><trkpt lat="45.742208875004025" lon="9.215855558273851"><ele>356.6666666666667</ele><time>2026-04-18T09:10:41Z</time></trkpt><trkpt lat="45.742362492827006" lon="9.216016038709393"><ele>356.0</ele><time>2026-04-18T09:10:42Z</time></trkpt><trkpt lat="45.74252254931789" lon="9.21618871151213"><ele>356.0</ele><time>2026-04-18T09:10:43Z</time></trkpt><trkpt lat="45.74268841109828" lon="9.21636702414919"><ele>356.0</ele><time>2026-04-18T09:10:44Z</time></trkpt><trkpt lat="45.742846264747996" lon="9.216536087569862"><ele>356.0</ele><time>2026-04-18T09:10:45Z</time></trkpt><trkpt lat="45.74300961615755" lon="9.216708484821405"><ele>355.0</ele><time>2026-04-18T09:10:46Z</time></trkpt><trkpt lat="45.74320847236923" lon="9.216907965846092"><ele>354.0</ele><time>2026-04-18T09:10:47Z</time></trkpt><trkpt lat="45.74339719874019" lon="9.217113256507542"><ele>351.5</ele><time>2026-04-18T09:10:48Z</time></trkpt><trkpt lat="45.743594819283445" lon="9.217321364997193"><ele>349.0</ele><time>2026-04-18T09:10:49Z</time></trkpt><trkpt lat="45.74379492000451" lon="9.217539667160592"><ele>349.0</ele><time>2026-04-18T09:10:50Z</time></trkpt><trkpt lat="45.743988691635614" lon="9.21775471570501"><ele>349.0</ele><time>2026-04-18T09:10:51Z</time></trkpt><trkpt lat="45.74419143157058" lon="9.217974261530724"><ele>346.0</ele><time>2026-04-18T09:10:52Z</time></trkpt><trkpt lat="45.74439304062472" lon="9.218189108984499"><ele>343.0</ele><time>2026-04-18T09:10:53Z</time></trkpt><trkpt lat="45.74457783361065" lon="9.218385141273455"><ele>343.0</ele><time>2026-04-18T09:10:54Z</time></trkpt><trkpt lat="45.7447509778043" lon="9.21857425548918"><ele>343.0</ele><time>2026-04-18T09:10:55Z</time></trkpt><trkpt lat="45.74491494137877" lon="9.218748860557959"><ele>343.0</ele><time>2026-04-18T09:10:56Z</time></trkpt><trkpt lat="45.745073393918176" lon="9.218925265344723"><ele>341.66666666666663</ele><time>2026-04-18T09:10:57Z</time></trkpt><trkpt lat="45.74522924163413" lon="9.219077937709061"><ele>340.3333333333333</ele><time>2026-04-18T09:10:58Z</time></trkpt><trkpt lat="45.745383276305546" lon="9.21923030655152"><ele>339.0</ele><time>2026-04-18T09:10:59Z</time></trkpt><trkpt lat="45.74553758337749" lon="9.219378907780614"><ele>339.0</ele><time>2026-04-18T09:11:00Z</time></trkpt><trkpt lat="45.74569664106378" lon="9.21949580371378"><ele>339.0</ele><time>2026-04-18T09:11:01Z</time></trkpt><trkpt lat="45.745867977599886" lon="9.21958583691316"><ele>339.0</ele><time>2026-04-18T09:11:02Z</time></trkpt><trkpt lat="45.74604858496626" lon="9.219653410981987"><ele>339.0</ele><time>2026-04-18T09:11:03Z</time></trkpt><trkpt lat="45.74622824554239" lon="9.21970802429982"><ele>339.0</ele><time>2026-04-18T09:11:04Z</time></trkpt><trkpt lat="45.74641046817138" lon="9.219753273213145"><ele>339.0</ele><time>2026-04-18T09:11:05Z</time></trkpt><trkpt lat="45.74659117819197" lon="9.219792186917912"><ele>338.6666666666667</ele><time>2026-04-18T09:11:06Z</time></trkpt><trkpt lat="45.74676674469173" lon="9.219832043979766"><ele>338.33333333333337</ele><time>2026-04-18T09:11:07Z</time></trkpt><trkpt lat="45.74694197621999" lon="9.219873787973356"><ele>338.0</ele><time>2026-04-18T09:11:08Z</time></trkpt><trkpt lat="45.747101580166685" lon="9.219912767676911"><ele>338.0</ele><time>2026-04-18T09:11:09Z</time></trkpt><trkpt lat="45.74726047000098" lon="9.21995555437878"><ele>338.0</ele><time>2026-04-18T09:11:10Z</time></trkpt><trkpt lat="45.74740455809215" lon="9.219993226785347"><ele>338.0</ele><time>2026-04-18T09:11:11Z</time></trkpt><trkpt lat="45.74754142311507" lon="9.22003016240624"><ele>338.0</ele><time>2026-04-18T09:11:12Z</time></trkpt><trkpt lat="45.74767736165118" lon="9.220072126343828"><ele>338.0</ele><time>2026-04-18T09:11:13.001Z</time></trkpt><trkpt lat="45.74780547358438" lon="9.220113042773889"><ele>338.0</ele><time>2026-04-18T09:11:14.001Z</time></trkpt><trkpt lat="45.74792603746258" lon="9.220144709057639"><ele>338.0</ele><time>2026-04-18T09:11:15.001Z</time></trkpt><trkpt lat="45.748036866421195" lon="9.220177875342381"><ele>338.0</ele><time>2026-04-18T09:11:16.001Z</time></trkpt><trkpt lat="45.74812246441939" lon="9.220198371657855"><ele>338.0</ele><time>2026-04-18T09:11:17.001Z</time></trkpt><trkpt lat="45.7481940774559" lon="9.220219391505683"><ele>338.0</ele><time>2026-04-18T09:11:18.001Z</time></trkpt><trkpt lat="45.74829420180844" lon="9.220311497795466"><ele>338.0</ele><time>2026-04-18T09:11:20.001Z</time></trkpt><trkpt lat="45.748340028988274" lon="9.220384301600562"><ele>338.0</ele><time>2026-04-18T09:11:21.001Z</time></trkpt><trkpt lat="45.74839550154667" lon="9.220440029362269"><ele>338.0</ele><time>2026-04-18T09:11:22.001Z</time></trkpt><trkpt lat="45.74846345199983" lon="9.220466768052638"><ele>338.0</ele><time>2026-04-18T09:11:23.001Z</time></trkpt><trkpt lat="45.74854699386619" lon="9.220458545744275"><ele>338.0</ele><time>2026-04-18T09:11:24.001Z</time></trkpt><trkpt lat="45.748643787548794" lon="9.220438180259661"><ele>338.0</ele><time>2026-04-18T09:11:25.001Z</time></trkpt><trkpt lat="45.748746274982906" lon="9.220422056577418"><ele>338.0</ele><time>2026-04-18T09:11:26.001Z</time></trkpt><trkpt lat="45.748858407392405" lon="9.22042036300321"><ele>338.0</ele><time>2026-04-18T09:11:27.001Z</time></trkpt><trkpt lat="45.74896811978053" lon="9.22042702079932"><ele>338.0</ele><time>2026-04-18T09:11:28.001Z</time></trkpt><trkpt lat="45.74906066589139" lon="9.220434645175233"><ele>338.0</ele><time>2026-04-18T09:11:29.001Z</time></trkpt><trkpt lat="45.74915051201472" lon="9.220444341378842"><ele>338.0</ele><time>2026-04-18T09:11:30.001Z</time></trkpt><trkpt lat="45.74923408248369" lon="9.220454194315808"><ele>338.0</ele><time>2026-04-18T09:11:31.001Z</time></trkpt><trkpt lat="45.74931340327574" lon="9.220476716500123"><ele>338.0</ele><time>2026-04-18T09:11:32.001Z</time></trkpt><trkpt lat="45.749386446394126" lon="9.220498378246342"><ele>338.0</ele><time>2026-04-18T09:11:33.001Z</time></trkpt><trkpt lat="45.749465326994624" lon="9.220519962282996"><ele>338.0</ele><time>2026-04-18T09:11:34.001Z</time></trkpt><trkpt lat="45.749550649109274" lon="9.220553545331542"><ele>338.1666666666667</ele><time>2026-04-18T09:11:35.001Z</time></trkpt><trkpt lat="45.74963597752593" lon="9.22059928362051"><ele>338.33333333333337</ele><time>2026-04-18T09:11:36.001Z</time></trkpt><trkpt lat="45.7497182763805" lon="9.220647201536766"><ele>338.5</ele><time>2026-04-18T09:11:37.001Z</time></trkpt><trkpt lat="45.74979512897429" lon="9.220699917958676"><ele>338.6666666666667</ele><time>2026-04-18T09:11:38.001Z</time></trkpt><trkpt lat="45.74987514982549" lon="9.220758909965154"><ele>338.8333333333333</ele><time>2026-04-18T09:11:39.001Z</time></trkpt><trkpt lat="45.74994900919055" lon="9.220818979505049"><ele>339.0</ele><time>2026-04-18T09:11:40.001Z</time></trkpt><trkpt lat="45.750027825959506" lon="9.220876891780177"><ele>338.8333333333333</ele><time>2026-04-18T09:11:41.001Z</time></trkpt><trkpt lat="45.75010570808796" lon="9.22093246772081"><ele>338.6666666666667</ele><time>2026-04-18T09:11:42.001Z</time></trkpt><trkpt lat="45.75017739938321" lon="9.220983948159445"><ele>338.5</ele><time>2026-04-18T09:11:43.001Z</time></trkpt><trkpt lat="45.75024690324434" lon="9.221034767525948"><ele>338.33333333333337</ele><time>2026-04-18T09:11:44.001Z</time></trkpt><trkpt lat="45.75031728734389" lon="9.221082715022215"><ele>338.1666666666667</ele><time>2026-04-18T09:11:45.001Z</time></trkpt><trkpt lat="45.75038665334689" lon="9.221132433532318"><ele>338.0</ele><time>2026-04-18T09:11:46.001Z</time></trkpt><trkpt lat="45.75044782201616" lon="9.22118506278086"><ele>338.0</ele><time>2026-04-18T09:11:47.001Z</time></trkpt><trkpt lat="45.750520000633685" lon="9.221234885732532"><ele>338.0</ele><time>2026-04-18T09:11:47.999Z</time></trkpt><trkpt lat="45.75058592915624" lon="9.221280373826158"><ele>338.0</ele><time>2026-04-18T09:11:48.999Z</time></trkpt><trkpt lat="45.75064590465239" lon="9.22131683126767"><ele>338.0</ele><time>2026-04-18T09:11:49.999Z</time></trkpt><trkpt lat="45.75076172002458" lon="9.221397951047129"><ele>338.0</ele><time>2026-04-18T09:11:51.999Z</time></trkpt><trkpt lat="45.75083525249074" lon="9.221448375714575"><ele>338.0</ele><time>2026-04-18T09:11:52.999Z</time></trkpt><trkpt lat="45.750929398471605" lon="9.22150257153458"><ele>337.75</ele><time>2026-04-18T09:11:53.999Z</time></trkpt><trkpt lat="45.751032986961306" lon="9.221568920670732"><ele>337.5</ele><time>2026-04-18T09:11:54.999Z</time></trkpt><trkpt lat="45.7511409591863" lon="9.221644373566646"><ele>337.25</ele><time>2026-04-18T09:11:55.999Z</time></trkpt><trkpt lat="45.751245774291924" lon="9.221719242751568"><ele>337.0</ele><time>2026-04-18T09:11:56.999Z</time></trkpt><trkpt lat="45.75134041089573" lon="9.22178591512286"><ele>337.0</ele><time>2026-04-18T09:11:57.999Z</time></trkpt><trkpt lat="45.7514242939649" lon="9.221848015103378"><ele>337.0</ele><time>2026-04-18T09:11:58.999Z</time></trkpt><trkpt lat="45.75150079899337" lon="9.221900102394843"><ele>337.0</ele><time>2026-04-18T09:11:59.999Z</time></trkpt><trkpt lat="45.75159353117772" lon="9.221965104318842"><ele>337.0</ele><time>2026-04-18T09:12:01.999Z</time></trkpt><trkpt lat="45.751677898820155" lon="9.22201986428426"><ele>337.0</ele><time>2026-04-18T09:12:04.999Z</time></trkpt><trkpt lat="45.751756760529446" lon="9.222056495963107"><ele>337.0</ele><time>2026-04-18T09:12:06.999Z</time></trkpt><trkpt lat="45.751816118579" lon="9.222091506950717"><ele>337.0</ele><time>2026-04-18T09:12:07.999Z</time></trkpt><trkpt lat="45.75188913165416" lon="9.222139592739467"><ele>337.0</ele><time>2026-04-18T09:12:08.999Z</time></trkpt><trkpt lat="45.75196240886446" lon="9.222217081780842"><ele>337.0</ele><time>2026-04-18T09:12:09.999Z</time></trkpt><trkpt lat="45.75204326237261" lon="9.222282583912667"><ele>337.0</ele><time>2026-04-18T09:12:10.999Z</time></trkpt><trkpt lat="45.75212903961716" lon="9.2223463645463"><ele>337.0</ele><time>2026-04-18T09:12:11.999Z</time></trkpt><trkpt lat="45.752220406045595" lon="9.222359191294164"><ele>337.3333333333333</ele><time>2026-04-18T09:12:12.999Z</time></trkpt><trkpt lat="45.75229279410035" lon="9.222391000653099"><ele>337.66666666666663</ele><time>2026-04-18T09:12:13.999Z</time></trkpt><trkpt lat="45.7523592281042" lon="9.22245032426023"><ele>338.0</ele><time>2026-04-18T09:12:14.999Z</time></trkpt><trkpt lat="45.75242621589407" lon="9.222494303088714"><ele>338.3333333333333</ele><time>2026-04-18T09:12:16Z</time></trkpt><trkpt lat="45.752495509362724" lon="9.222524795294893"><ele>338.6666666666667</ele><time>2026-04-18T09:12:17Z</time></trkpt><trkpt lat="45.752599565521336" lon="9.222600237588555"><ele>339.0</ele><time>2026-04-18T09:12:19Z</time></trkpt><trkpt lat="45.7526486548637" lon="9.222687132703841"><ele>338.6</ele><time>2026-04-18T09:12:20Z</time></trkpt><trkpt lat="45.752756728531246" lon="9.222756705574438"><ele>338.2</ele><time>2026-04-18T09:12:22Z</time></trkpt><trkpt lat="45.752881420170844" lon="9.222835356176299"><ele>337.8</ele><time>2026-04-18T09:12:24Z</time></trkpt><trkpt lat="45.752946476718634" lon="9.222877051627115"><ele>337.40000000000003</ele><time>2026-04-18T09:12:25Z</time></trkpt><trkpt lat="45.75303543254609" lon="9.222883616658994"><ele>337.0</ele><time>2026-04-18T09:12:26Z</time></trkpt><trkpt lat="45.75310295796477" lon="9.222939289891546"><ele>337.0</ele><time>2026-04-18T09:12:27Z</time></trkpt><trkpt lat="45.75316118898276" lon="9.222986552896279"><ele>337.0</ele><time>2026-04-18T09:12:28Z</time></trkpt><trkpt lat="45.75325447676553" lon="9.223111983400605"><ele>337.0</ele><time>2026-04-18T09:12:30Z</time></trkpt><trkpt lat="45.75330808895538" lon="9.223162622082862"><ele>337.0</ele><time>2026-04-18T09:12:31Z</time></trkpt><trkpt lat="45.75339215292459" lon="9.223214894338625"><ele>337.0</ele><time>2026-04-18T09:12:33Z</time></trkpt><trkpt lat="45.753471840911594" lon="9.223303408674978"><ele>336.8333333333333</ele><time>2026-04-18T09:12:35Z</time></trkpt><trkpt lat="45.75353996025632" lon="9.223351689764664"><ele>336.66666666666663</ele><time>2026-04-18T09:12:37Z</time></trkpt><trkpt lat="45.75359405832749" lon="9.223427963635347"><ele>336.5</ele><time>2026-04-18T09:12:39Z</time></trkpt><trkpt lat="45.75366671214627" lon="9.223392524798449"><ele>336.3333333333333</ele><time>2026-04-18T09:12:41Z</time></trkpt><trkpt lat="45.753734241382695" lon="9.22341274070706"><ele>336.1666666666667</ele><time>2026-04-18T09:12:50Z</time></trkpt><trkpt lat="45.753813794769634" lon="9.223437537103287"><ele>336.0</ele><time>2026-04-18T09:12:51Z</time></trkpt><trkpt lat="45.75390497066314" lon="9.223451559425834"><ele>336.0</ele><time>2026-04-18T09:12:52Z</time></trkpt><trkpt lat="45.75399854763149" lon="9.22353850320789"><ele>336.0</ele><time>2026-04-18T09:12:53Z</time></trkpt><trkpt lat="45.75412402910503" lon="9.223592064680068"><ele>336.0</ele><time>2026-04-18T09:12:54Z</time></trkpt><trkpt lat="45.75425795737858" lon="9.223691859970508"><ele>336.0</ele><time>2026-04-18T09:12:55Z</time></trkpt><trkpt lat="45.75441173850414" lon="9.223791502296402"><ele>336.3333333333333</ele><time>2026-04-18T09:12:56Z</time></trkpt><trkpt lat="45.75457209973125" lon="9.223891050987145"><ele>336.66666666666663</ele><time>2026-04-18T09:12:57Z</time></trkpt><trkpt lat="45.75474244539565" lon="9.223994552413316"><ele>337.0</ele><time>2026-04-18T09:12:58Z</time></trkpt><trkpt lat="45.75492105575075" lon="9.224106376275365"><ele>337.0</ele><time>2026-04-18T09:12:59Z</time></trkpt><trkpt lat="45.75510686713378" lon="9.224225602428527"><ele>337.0</ele><time>2026-04-18T09:13:00Z</time></trkpt><trkpt lat="45.755289741810024" lon="9.224342375387442"><ele>337.0</ele><time>2026-04-18T09:13:01Z</time></trkpt><trkpt lat="45.75547053830703" lon="9.224455449429675"><ele>335.66666666666663</ele><time>2026-04-18T09:13:02Z</time></trkpt><trkpt lat="45.755633601325" lon="9.22456048557021"><ele>334.3333333333333</ele><time>2026-04-18T09:13:03Z</time></trkpt><trkpt lat="45.755788014298076" lon="9.224658417362376"><ele>333.0</ele><time>2026-04-18T09:13:04Z</time></trkpt><trkpt lat="45.755931880460835" lon="9.22474648122578"><ele>332.25</ele><time>2026-04-18T09:13:05Z</time></trkpt><trkpt lat="45.75607035965015" lon="9.224830734266341"><ele>331.5</ele><time>2026-04-18T09:13:06Z</time></trkpt><trkpt lat="45.756197360810724" lon="9.22490968714718"><ele>330.75</ele><time>2026-04-18T09:13:07Z</time></trkpt><trkpt lat="45.75632026151224" lon="9.224986469159376"><ele>330.0</ele><time>2026-04-18T09:13:08Z</time></trkpt><trkpt lat="45.7564379097785" lon="9.225055604513667"><ele>330.0</ele><time>2026-04-18T09:13:09Z</time></trkpt><trkpt lat="45.75653451999779" lon="9.225119409681103"><ele>330.0</ele><time>2026-04-18T09:13:10.001Z</time></trkpt><trkpt lat="45.75660846001525" lon="9.22517034087402"><ele>330.0</ele><time>2026-04-18T09:13:11.001Z</time></trkpt><trkpt lat="45.756676677329324" lon="9.225219810066042"><ele>330.0</ele><time>2026-04-18T09:13:12.001Z</time></trkpt><trkpt lat="45.75673460693898" lon="9.22528028386813"><ele>330.0</ele><time>2026-04-18T09:13:13.001Z</time></trkpt><trkpt lat="45.75680449418191" lon="9.225334628613696"><ele>330.0</ele><time>2026-04-18T09:13:14.001Z</time></trkpt><trkpt lat="45.756869513046134" lon="9.225375108229157"><ele>329.5</ele><time>2026-04-18T09:13:15.001Z</time></trkpt><trkpt lat="45.75695055913044" lon="9.225385544690596"><ele>329.0</ele><time>2026-04-18T09:13:16.001Z</time></trkpt><trkpt lat="45.75703181436361" lon="9.225391041766457"><ele>328.5</ele><time>2026-04-18T09:13:17.001Z</time></trkpt><trkpt lat="45.75710693261046" lon="9.225410728340131"><ele>328.0</ele><time>2026-04-18T09:13:18.001Z</time></trkpt><trkpt lat="45.75719228330254" lon="9.22544720488373"><ele>327.5</ele><time>2026-04-18T09:13:19.001Z</time></trkpt><trkpt lat="45.75729489352852" lon="9.225488698474539"><ele>327.0</ele><time>2026-04-18T09:13:20.001Z</time></trkpt><trkpt lat="45.757399718628335" lon="9.22552819726603"><ele>327.0</ele><time>2026-04-18T09:13:21.001Z</time></trkpt><trkpt lat="45.75748943223132" lon="9.225563265681998"><ele>327.0</ele><time>2026-04-18T09:13:22.001Z</time></trkpt><trkpt lat="45.75756894154816" lon="9.225634930902155"><ele>327.0</ele><time>2026-04-18T09:13:23.001Z</time></trkpt><trkpt lat="45.75763736720355" lon="9.225719169084739"><ele>327.0</ele><time>2026-04-18T09:13:24.001Z</time></trkpt><trkpt lat="45.75771720696493" lon="9.2257703333549"><ele>327.0</ele><time>2026-04-18T09:13:25.001Z</time></trkpt><trkpt lat="45.757792083652376" lon="9.225764458916586"><ele>327.0</ele><time>2026-04-18T09:13:26.001Z</time></trkpt><trkpt lat="45.75787193497334" lon="9.225734000703602"><ele>326.20000000000005</ele><time>2026-04-18T09:13:27.001Z</time></trkpt><trkpt lat="45.757957187253986" lon="9.225696466783024"><ele>325.4</ele><time>2026-04-18T09:13:28.001Z</time></trkpt><trkpt lat="45.75804640304196" lon="9.225664792117556"><ele>324.6</ele><time>2026-04-18T09:13:29.001Z</time></trkpt><trkpt lat="45.75813511825671" lon="9.225675188577142"><ele>323.79999999999995</ele><time>2026-04-18T09:13:30.001Z</time></trkpt><trkpt lat="45.758227068914564" lon="9.225724843557021"><ele>323.0</ele><time>2026-04-18T09:13:31.001Z</time></trkpt><trkpt lat="45.75833577155161" lon="9.225735743972866"><ele>323.0</ele><time>2026-04-18T09:13:32.001Z</time></trkpt><trkpt lat="45.758451298698795" lon="9.225770175937228"><ele>323.0</ele><time>2026-04-18T09:13:33.001Z</time></trkpt><trkpt lat="45.75857476675758" lon="9.225808342949268"><ele>323.0</ele><time>2026-04-18T09:13:34.001Z</time></trkpt><trkpt lat="45.758701293405124" lon="9.225846047638216"><ele>323.0</ele><time>2026-04-18T09:13:35.001Z</time></trkpt><trkpt lat="45.758827528012404" lon="9.225884390662413"><ele>323.0</ele><time>2026-04-18T09:13:36.001Z</time></trkpt><trkpt lat="45.75894821257036" lon="9.225922028024208"><ele>323.0</ele><time>2026-04-18T09:13:37.001Z</time></trkpt><trkpt lat="45.7590712714046" lon="9.225957271012085"><ele>323.0</ele><time>2026-04-18T09:13:38.001Z</time></trkpt><trkpt lat="45.759193678248195" lon="9.225992883104936"><ele>323.0</ele><time>2026-04-18T09:13:39.001Z</time></trkpt><trkpt lat="45.75931977471971" lon="9.22603137415279"><ele>324.25</ele><time>2026-04-18T09:13:40.001Z</time></trkpt><trkpt lat="45.75944793863429" lon="9.226070226543946"><ele>325.5</ele><time>2026-04-18T09:13:41.001Z</time></trkpt><trkpt lat="45.75957682245747" lon="9.226109543404663"><ele>326.75</ele><time>2026-04-18T09:13:42.001Z</time></trkpt><trkpt lat="45.75970905551197" lon="9.22614591236676"><ele>328.0</ele><time>2026-04-18T09:13:43.001Z</time></trkpt><trkpt lat="45.75984127794035" lon="9.226186835366422"><ele>328.0</ele><time>2026-04-18T09:13:44.001Z</time></trkpt><trkpt lat="45.75997865777347" lon="9.22622807516974"><ele>328.0</ele><time>2026-04-18T09:13:45.001Z</time></trkpt><trkpt lat="45.76011782635116" lon="9.226270809775912"><ele>328.0</ele><time>2026-04-18T09:13:46.001Z</time></trkpt><trkpt lat="45.76026076499791" lon="9.226312526607332"><ele>328.0</ele><time>2026-04-18T09:13:47.001Z</time></trkpt><trkpt lat="45.76040362560262" lon="9.226352624553655"><ele>326.0</ele><time>2026-04-18T09:13:48.001Z</time></trkpt><trkpt lat="45.76055322805149" lon="9.226403636592202"><ele>324.0</ele><time>2026-04-18T09:13:49.001Z</time></trkpt><trkpt lat="45.76069277635541" lon="9.22650712339184"><ele>322.0</ele><time>2026-04-18T09:13:50.001Z</time></trkpt><trkpt lat="45.76084129572003" lon="9.226611781700186"><ele>322.0</ele><time>2026-04-18T09:13:51.001Z</time></trkpt><trkpt lat="45.76102050568608" lon="9.226763518538387"><ele>322.0</ele><time>2026-04-18T09:13:52.001Z</time></trkpt><trkpt lat="45.761201646694" lon="9.226927861797302"><ele>322.0</ele><time>2026-04-18T09:13:53.001Z</time></trkpt><trkpt lat="45.76139920699746" lon="9.227109223787833"><ele>319.5</ele><time>2026-04-18T09:13:53.999Z</time></trkpt><trkpt lat="45.761608539110775" lon="9.22730362830547"><ele>317.0</ele><time>2026-04-18T09:13:54.999Z</time></trkpt><trkpt lat="45.76183348387291" lon="9.227490324160046"><ele>310.5</ele><time>2026-04-18T09:13:55.999Z</time></trkpt><trkpt lat="45.762041584967335" lon="9.227708531205366"><ele>304.0</ele><time>2026-04-18T09:13:56.999Z</time></trkpt><trkpt lat="45.76225574203521" lon="9.227906472636345"><ele>304.0</ele><time>2026-04-18T09:13:57.999Z</time></trkpt><trkpt lat="45.76245283240644" lon="9.228083843418176"><ele>304.0</ele><time>2026-04-18T09:13:58.999Z</time></trkpt><trkpt lat="45.76264334634082" lon="9.228231653345475"><ele>304.0</ele><time>2026-04-18T09:13:59.999Z</time></trkpt><trkpt lat="45.762838475841455" lon="9.22832026400889"><ele>304.0</ele><time>2026-04-18T09:14:00.999Z</time></trkpt><trkpt lat="45.763026328420935" lon="9.228408143075555"><ele>304.0</ele><time>2026-04-18T09:14:01.999Z</time></trkpt><trkpt lat="45.76321718961176" lon="9.228465610249362"><ele>304.0</ele><time>2026-04-18T09:14:02.999Z</time></trkpt><trkpt lat="45.76339789658754" lon="9.228501507024797"><ele>304.0</ele><time>2026-04-18T09:14:03.999Z</time></trkpt><trkpt lat="45.763564314561194" lon="9.228552587137155"><ele>304.0</ele><time>2026-04-18T09:14:04.999Z</time></trkpt><trkpt lat="45.76371803849054" lon="9.228585701167304"><ele>304.0</ele><time>2026-04-18T09:14:05.999Z</time></trkpt><trkpt lat="45.76388308025015" lon="9.228598756370154"><ele>304.0</ele><time>2026-04-18T09:14:06.999Z</time></trkpt><trkpt lat="45.76403253212813" lon="9.228651253464111"><ele>304.0</ele><time>2026-04-18T09:14:07.999Z</time></trkpt><trkpt lat="45.76420813673343" lon="9.228687980378744"><ele>304.0</ele><time>2026-04-18T09:14:08.999Z</time></trkpt><trkpt lat="45.76438636972431" lon="9.228725256987818"><ele>303.75</ele><time>2026-04-18T09:14:09.999Z</time></trkpt><trkpt lat="45.76454942568293" lon="9.228759358876038"><ele>303.5</ele><time>2026-04-18T09:14:10.999Z</time></trkpt><trkpt lat="45.76469320644037" lon="9.228787868638559"><ele>303.25</ele><time>2026-04-18T09:14:11.999Z</time></trkpt><trkpt lat="45.76482456334805" lon="9.228814247305646"><ele>303.0</ele><time>2026-04-18T09:14:12.999Z</time></trkpt><trkpt lat="45.76494817690453" lon="9.228838232743582"><ele>303.0</ele><time>2026-04-18T09:14:13.999Z</time></trkpt><trkpt lat="45.76506390625364" lon="9.228860217053166"><ele>303.0</ele><time>2026-04-18T09:14:14.999Z</time></trkpt><trkpt lat="45.765175139217924" lon="9.22888134722156"><ele>303.0</ele><time>2026-04-18T09:14:15.999Z</time></trkpt><trkpt lat="45.76527417930809" lon="9.228900161394156"><ele>303.0</ele><time>2026-04-18T09:14:16.999Z</time></trkpt><trkpt lat="45.76536729016003" lon="9.228917484120496"><ele>303.0</ele><time>2026-04-18T09:14:17.999Z</time></trkpt><trkpt lat="45.76544381186747" lon="9.228931826073486"><ele>303.0</ele><time>2026-04-18T09:14:18.999Z</time></trkpt><trkpt lat="45.76551287516035" lon="9.22893601003442"><ele>303.0</ele><time>2026-04-18T09:14:19.999Z</time></trkpt><trkpt lat="45.76557112551752" lon="9.22898803353393"><ele>303.0</ele><time>2026-04-18T09:14:20.999Z</time></trkpt><trkpt lat="45.765615505472056" lon="9.229054116430193"><ele>303.0</ele><time>2026-04-18T09:14:21.999Z</time></trkpt><trkpt lat="45.765669270186045" lon="9.229102288495195"><ele>303.0</ele><time>2026-04-18T09:14:22.999Z</time></trkpt><trkpt lat="45.765750722863494" lon="9.229119070899063"><ele>303.0</ele><time>2026-04-18T09:14:23.999Z</time></trkpt><trkpt lat="45.76585645850019" lon="9.22908675664125"><ele>303.0</ele><time>2026-04-18T09:14:25Z</time></trkpt><trkpt lat="45.76595605198452" lon="9.229040503296872"><ele>303.0</ele><time>2026-04-18T09:14:26Z</time></trkpt><trkpt lat="45.766054097245814" lon="9.229052819291406"><ele>303.0</ele><time>2026-04-18T09:14:27Z</time></trkpt><trkpt lat="45.766158762938815" lon="9.229074532649946"><ele>303.0</ele><time>2026-04-18T09:14:28Z</time></trkpt><trkpt lat="45.76627104263951" lon="9.229097810706525"><ele>303.0</ele><time>2026-04-18T09:14:29Z</time></trkpt><trkpt lat="45.766387992848635" lon="9.229100188953655"><ele>302.75</ele><time>2026-04-18T09:14:30Z</time></trkpt><trkpt lat="45.76651272176293" lon="9.22912786472218"><ele>302.5</ele><time>2026-04-18T09:14:31Z</time></trkpt><trkpt lat="45.76663797129401" lon="9.22915524625058"><ele>302.25</ele><time>2026-04-18T09:14:32Z</time></trkpt><trkpt lat="45.76674758535952" lon="9.22917892980144"><ele>302.0</ele><time>2026-04-18T09:14:33Z</time></trkpt><trkpt lat="45.76683736342373" lon="9.229194427925181"><ele>301.8</ele><time>2026-04-18T09:14:34Z</time></trkpt><trkpt lat="45.76692948853547" lon="9.22921531457495"><ele>301.6</ele><time>2026-04-18T09:14:35Z</time></trkpt><trkpt lat="45.76703137352097" lon="9.229233222727702"><ele>301.40000000000003</ele><time>2026-04-18T09:14:36Z</time></trkpt><trkpt lat="45.7671361678718" lon="9.229257261439383"><ele>301.2</ele><time>2026-04-18T09:14:37Z</time></trkpt><trkpt lat="45.76724998294217" lon="9.22927997435816"><ele>301.0</ele><time>2026-04-18T09:14:38Z</time></trkpt><trkpt lat="45.767367479489955" lon="9.229304625289043"><ele>301.0</ele><time>2026-04-18T09:14:39Z</time></trkpt><trkpt lat="45.76749997016207" lon="9.229330357364612"><ele>301.0</ele><time>2026-04-18T09:14:40Z</time></trkpt><trkpt lat="45.76763923342967" lon="9.229358677432035"><ele>301.0</ele><time>2026-04-18T09:14:41Z</time></trkpt><trkpt lat="45.76779150374618" lon="9.229387284041783"><ele>301.0</ele><time>2026-04-18T09:14:42Z</time></trkpt><trkpt lat="45.76793668283554" lon="9.229419003057762"><ele>301.25</ele><time>2026-04-18T09:14:43Z</time></trkpt><trkpt lat="45.76809019098769" lon="9.229450628965365"><ele>301.5</ele><time>2026-04-18T09:14:44Z</time></trkpt><trkpt lat="45.768233403974016" lon="9.229480339273344"><ele>301.75</ele><time>2026-04-18T09:14:45Z</time></trkpt><trkpt lat="45.76836524810612" lon="9.229506494292037"><ele>302.0</ele><time>2026-04-18T09:14:46Z</time></trkpt><trkpt lat="45.768474739211136" lon="9.229531502079308"><ele>302.0</ele><time>2026-04-18T09:14:47Z</time></trkpt><trkpt lat="45.768570232057634" lon="9.229550880018724"><ele>302.0</ele><time>2026-04-18T09:14:48Z</time></trkpt><trkpt lat="45.76865706884901" lon="9.22956917482807"><ele>302.0</ele><time>2026-04-18T09:14:49Z</time></trkpt><trkpt lat="45.76874901025016" lon="9.229585588220584"><ele>302.0</ele><time>2026-04-18T09:14:50Z</time></trkpt><trkpt lat="45.76884453384238" lon="9.229605421904619"><ele>302.0</ele><time>2026-04-18T09:14:51Z</time></trkpt><trkpt lat="45.7689482609024" lon="9.22962600256795"><ele>302.0</ele><time>2026-04-18T09:14:52Z</time></trkpt><trkpt lat="45.76905862217188" lon="9.229652680632123"><ele>302.0</ele><time>2026-04-18T09:14:53Z</time></trkpt><trkpt lat="45.769174052281635" lon="9.229673778610033"><ele>302.0</ele><time>2026-04-18T09:14:54Z</time></trkpt><trkpt lat="45.769292301729806" lon="9.229704457817688"><ele>302.0</ele><time>2026-04-18T09:14:55Z</time></trkpt><trkpt lat="45.769412674078616" lon="9.229729469811508"><ele>302.5</ele><time>2026-04-18T09:14:56Z</time></trkpt><trkpt lat="45.769541375552336" lon="9.22975812999248"><ele>303.0</ele><time>2026-04-18T09:14:57Z</time></trkpt><trkpt lat="45.76967377242681" lon="9.229785730876827"><ele>303.5</ele><time>2026-04-18T09:14:58Z</time></trkpt><trkpt lat="45.769808881572" lon="9.229815102022657"><ele>304.0</ele><time>2026-04-18T09:14:59Z</time></trkpt><trkpt lat="45.76995084319641" lon="9.22984715906292"><ele>304.0</ele><time>2026-04-18T09:15:00Z</time></trkpt><trkpt lat="45.7701109847199" lon="9.22988092755389"><ele>304.0</ele><time>2026-04-18T09:15:01Z</time></trkpt><trkpt lat="45.7702707828991" lon="9.229915805483362"><ele>304.0</ele><time>2026-04-18T09:15:02Z</time></trkpt><trkpt lat="45.77041863061676" lon="9.229946265467586"><ele>304.66666666666663</ele><time>2026-04-18T09:15:03Z</time></trkpt><trkpt lat="45.770568200842234" lon="9.229975404513429"><ele>305.3333333333333</ele><time>2026-04-18T09:15:04Z</time></trkpt><trkpt lat="45.77072748341301" lon="9.230004908221213"><ele>306.0</ele><time>2026-04-18T09:15:05Z</time></trkpt><trkpt lat="45.770889506417284" lon="9.230038581204717"><ele>307.6666666666667</ele><time>2026-04-18T09:15:06Z</time></trkpt><trkpt lat="45.77104516695027" lon="9.230070224791998"><ele>309.33333333333337</ele><time>2026-04-18T09:15:07Z</time></trkpt><trkpt lat="45.771207455650774" lon="9.230101557527874"><ele>311.0</ele><time>2026-04-18T09:15:08Z</time></trkpt><trkpt lat="45.771378766305716" lon="9.230128293199686"><ele>311.0</ele><time>2026-04-18T09:15:09Z</time></trkpt><trkpt lat="45.77154664945568" lon="9.230141274390027"><ele>311.0</ele><time>2026-04-18T09:15:10Z</time></trkpt><trkpt lat="45.771719987995844" lon="9.230149905394645"><ele>311.0</ele><time>2026-04-18T09:15:11Z</time></trkpt><trkpt lat="45.77189949552187" lon="9.230151391090656"><ele>310.6666666666667</ele><time>2026-04-18T09:15:12Z</time></trkpt><trkpt lat="45.77208345927548" lon="9.230156313503096"><ele>310.3333333333333</ele><time>2026-04-18T09:15:13.001Z</time></trkpt><trkpt lat="45.77226245428521" lon="9.230162530515111"><ele>310.0</ele><time>2026-04-18T09:15:14.001Z</time></trkpt><trkpt lat="45.77244318973151" lon="9.230162644888686"><ele>310.0</ele><time>2026-04-18T09:15:15.001Z</time></trkpt><trkpt lat="45.77262637649838" lon="9.230161344599104"><ele>310.0</ele><time>2026-04-18T09:15:16.001Z</time></trkpt><trkpt lat="45.772797538219564" lon="9.230156450618233"><ele>310.0</ele><time>2026-04-18T09:15:17.001Z</time></trkpt><trkpt lat="45.772969063857545" lon="9.230145090276714"><ele>309.3333333333333</ele><time>2026-04-18T09:15:18.001Z</time></trkpt><trkpt lat="45.77313819648643" lon="9.230136714694103"><ele>308.6666666666667</ele><time>2026-04-18T09:15:19.001Z</time></trkpt><trkpt lat="45.773306280759186" lon="9.23014182771463"><ele>308.0</ele><time>2026-04-18T09:15:20.001Z</time></trkpt><trkpt lat="45.77347146966958" lon="9.230142003806407"><ele>308.0</ele><time>2026-04-18T09:15:21.001Z</time></trkpt><trkpt lat="45.773631516238176" lon="9.230163517860309"><ele>308.0</ele><time>2026-04-18T09:15:22.001Z</time></trkpt><trkpt lat="45.77379169871233" lon="9.230166703102661"><ele>308.0</ele><time>2026-04-18T09:15:23.001Z</time></trkpt><trkpt lat="45.77394148601338" lon="9.230169544973577"><ele>308.0</ele><time>2026-04-18T09:15:24.001Z</time></trkpt><trkpt lat="45.774084931538916" lon="9.230171890228277"><ele>308.0</ele><time>2026-04-18T09:15:25.001Z</time></trkpt><trkpt lat="45.77421882829634" lon="9.230174079365362"><ele>308.0</ele><time>2026-04-18T09:15:26.001Z</time></trkpt><trkpt lat="45.7743472345401" lon="9.230176146060947"><ele>308.0</ele><time>2026-04-18T09:15:27.001Z</time></trkpt><trkpt lat="45.774464357321364" lon="9.230178026106053"><ele>308.0</ele><time>2026-04-18T09:15:28.001Z</time></trkpt><trkpt lat="45.774576819995715" lon="9.230179831347577"><ele>308.0</ele><time>2026-04-18T09:15:29.001Z</time></trkpt><trkpt lat="45.77469074117414" lon="9.230181660000358"><ele>308.0</ele><time>2026-04-18T09:15:30.001Z</time></trkpt><trkpt lat="45.774811889327204" lon="9.230183604660862"><ele>308.0</ele><time>2026-04-18T09:15:31.001Z</time></trkpt><trkpt lat="45.77494077699906" lon="9.230167029105717"><ele>308.0</ele><time>2026-04-18T09:15:32.001Z</time></trkpt><trkpt lat="45.77507019711645" lon="9.230176300070166"><ele>308.0</ele><time>2026-04-18T09:15:33.001Z</time></trkpt><trkpt lat="45.77520331700886" lon="9.230178796071513"><ele>308.0</ele><time>2026-04-18T09:15:34.001Z</time></trkpt><trkpt lat="45.775332991864474" lon="9.23017066245644"><ele>308.0</ele><time>2026-04-18T09:15:35.001Z</time></trkpt><trkpt lat="45.77546758851803" lon="9.23018451406865"><ele>307.75</ele><time>2026-04-18T09:15:36.001Z</time></trkpt><trkpt lat="45.775597107235015" lon="9.23018737781903"><ele>307.5</ele><time>2026-04-18T09:15:37.001Z</time></trkpt><trkpt lat="45.77572828432106" lon="9.230195478792794"><ele>307.25</ele><time>2026-04-18T09:15:38.001Z</time></trkpt><trkpt lat="45.77585838025022" lon="9.23020875795993"><ele>307.0</ele><time>2026-04-18T09:15:39.001Z</time></trkpt><trkpt lat="45.77598963480626" lon="9.230234624958689"><ele>309.0</ele><time>2026-04-18T09:15:40.001Z</time></trkpt><trkpt lat="45.77612007853683" lon="9.230272343652407"><ele>311.0</ele><time>2026-04-18T09:15:41.001Z</time></trkpt><trkpt lat="45.77625656375875" lon="9.230319752436829"><ele>313.0</ele><time>2026-04-18T09:15:42.001Z</time></trkpt><trkpt lat="45.77638992818453" lon="9.230384487021064"><ele>315.0</ele><time>2026-04-18T09:15:43.001Z</time></trkpt><trkpt lat="45.77652350128079" lon="9.230464006419654"><ele>315.0</ele><time>2026-04-18T09:15:44.001Z</time></trkpt><trkpt lat="45.77665445415556" lon="9.2305512983884"><ele>315.0</ele><time>2026-04-18T09:15:45.001Z</time></trkpt><trkpt lat="45.77678760863662" lon="9.230656883410035"><ele>315.0</ele><time>2026-04-18T09:15:46.001Z</time></trkpt><trkpt lat="45.77691792164588" lon="9.230771346677294"><ele>315.0</ele><time>2026-04-18T09:15:47.001Z</time></trkpt><trkpt lat="45.777044148924325" lon="9.230897340480357"><ele>313.0</ele><time>2026-04-18T09:15:48.001Z</time></trkpt><trkpt lat="45.7771673097783" lon="9.231037253811735"><ele>311.0</ele><time>2026-04-18T09:15:49.001Z</time></trkpt><trkpt lat="45.77728512735729" lon="9.231190745386835"><ele>309.0</ele><time>2026-04-18T09:15:50.001Z</time></trkpt><trkpt lat="45.77739754030131" lon="9.231359194513054"><ele>308.0</ele><time>2026-04-18T09:15:51.001Z</time></trkpt><trkpt lat="45.7774885108032" lon="9.231550748157963"><ele>307.0</ele><time>2026-04-18T09:15:52.001Z</time></trkpt><trkpt lat="45.77758800089518" lon="9.23174521365664"><ele>306.0</ele><time>2026-04-18T09:15:53.001Z</time></trkpt><trkpt lat="45.77769198465057" lon="9.231926817610205"><ele>306.0</ele><time>2026-04-18T09:15:54.001Z</time></trkpt><trkpt lat="45.77777500993136" lon="9.232128741418336"><ele>306.0</ele><time>2026-04-18T09:15:55.001Z</time></trkpt><trkpt lat="45.77784994271308" lon="9.23231760766385"><ele>306.0</ele><time>2026-04-18T09:15:56.001Z</time></trkpt><trkpt lat="45.777923158212566" lon="9.232514382794227"><ele>305.0</ele><time>2026-04-18T09:15:57.001Z</time></trkpt><trkpt lat="45.77799141192409" lon="9.232709444656251"><ele>304.0</ele><time>2026-04-18T09:15:58.001Z</time></trkpt><trkpt lat="45.77805434840804" lon="9.232904623996813"><ele>303.0</ele><time>2026-04-18T09:15:59.001Z</time></trkpt><trkpt lat="45.778109050905215" lon="9.233087556035246"><ele>302.0</ele><time>2026-04-18T09:15:59.999Z</time></trkpt><trkpt lat="45.778164675587654" lon="9.233256297977107"><ele>301.5</ele><time>2026-04-18T09:16:00.999Z</time></trkpt><trkpt lat="45.778227505870866" lon="9.233414115614403"><ele>301.0</ele><time>2026-04-18T09:16:01.999Z</time></trkpt><trkpt lat="45.778305771787466" lon="9.233574012541439"><ele>300.5</ele><time>2026-04-18T09:16:02.999Z</time></trkpt><trkpt lat="45.77839239033078" lon="9.233746899715513"><ele>300.0</ele><time>2026-04-18T09:16:03.999Z</time></trkpt><trkpt lat="45.7784817548589" lon="9.233927347465796"><ele>301.6666666666667</ele><time>2026-04-18T09:16:04.999Z</time></trkpt><trkpt lat="45.778570804908725" lon="9.234114792661135"><ele>303.33333333333337</ele><time>2026-04-18T09:16:05.999Z</time></trkpt><trkpt lat="45.77866141645856" lon="9.234309651445075"><ele>305.0</ele><time>2026-04-18T09:16:06.999Z</time></trkpt><trkpt lat="45.778756236759165" lon="9.234512188816614"><ele>305.0</ele><time>2026-04-18T09:16:07.999Z</time></trkpt><trkpt lat="45.778847476189426" lon="9.234701048994955"><ele>305.0</ele><time>2026-04-18T09:16:08.999Z</time></trkpt><trkpt lat="45.7789413708885" lon="9.234903825506482"><ele>305.0</ele><time>2026-04-18T09:16:09.999Z</time></trkpt><trkpt lat="45.77902975052972" lon="9.235105207555565"><ele>302.33333333333337</ele><time>2026-04-18T09:16:10.999Z</time></trkpt><trkpt lat="45.77911831866804" lon="9.235299789732746"><ele>299.6666666666667</ele><time>2026-04-18T09:16:11.999Z</time></trkpt><trkpt lat="45.77921650809254" lon="9.235500489213873"><ele>297.0</ele><time>2026-04-18T09:16:12.999Z</time></trkpt><trkpt lat="45.77931154748206" lon="9.235687328570524"><ele>292.6666666666667</ele><time>2026-04-18T09:16:13.999Z</time></trkpt><trkpt lat="45.77940501617483" lon="9.23587947209748"><ele>288.33333333333337</ele><time>2026-04-18T09:16:14.999Z</time></trkpt><trkpt lat="45.779509750682344" lon="9.236060982103949"><ele>284.0</ele><time>2026-04-18T09:16:15.999Z</time></trkpt><trkpt lat="45.779616944542965" lon="9.23622086640775"><ele>284.0</ele><time>2026-04-18T09:16:16.999Z</time></trkpt><trkpt lat="45.77973843919421" lon="9.236377301422367"><ele>284.0</ele><time>2026-04-18T09:16:17.999Z</time></trkpt><trkpt lat="45.77986162366431" lon="9.236517309269333"><ele>284.0</ele><time>2026-04-18T09:16:18.999Z</time></trkpt><trkpt lat="45.779993311289694" lon="9.236655873625681"><ele>283.6666666666667</ele><time>2026-04-18T09:16:19.999Z</time></trkpt><trkpt lat="45.78012656708572" lon="9.236788914432863"><ele>283.3333333333333</ele><time>2026-04-18T09:16:20.999Z</time></trkpt><trkpt lat="45.780267814356336" lon="9.23691079343103"><ele>283.0</ele><time>2026-04-18T09:16:21.999Z</time></trkpt><trkpt lat="45.78041436214354" lon="9.237021397157427"><ele>283.0</ele><time>2026-04-18T09:16:22.999Z</time></trkpt><trkpt lat="45.78056118850167" lon="9.237113968976535"><ele>283.0</ele><time>2026-04-18T09:16:23.999Z</time></trkpt><trkpt lat="45.780712116868976" lon="9.237206659871504"><ele>283.0</ele><time>2026-04-18T09:16:24.999Z</time></trkpt><trkpt lat="45.78085350747267" lon="9.237281627799979"><ele>282.3333333333333</ele><time>2026-04-18T09:16:25.999Z</time></trkpt><trkpt lat="45.78099751721804" lon="9.23735937732162"><ele>281.6666666666667</ele><time>2026-04-18T09:16:27Z</time></trkpt><trkpt lat="45.781141049853304" lon="9.237439755736785"><ele>281.0</ele><time>2026-04-18T09:16:28Z</time></trkpt><trkpt lat="45.78128411693558" lon="9.237520415827165"><ele>281.0</ele><time>2026-04-18T09:16:29Z</time></trkpt><trkpt lat="45.781426029123594" lon="9.237599326466762"><ele>281.0</ele><time>2026-04-18T09:16:30Z</time></trkpt><trkpt lat="45.78156397171688" lon="9.23767373619958"><ele>281.0</ele><time>2026-04-18T09:16:31Z</time></trkpt><trkpt lat="45.78169968628405" lon="9.237747618483027"><ele>281.0</ele><time>2026-04-18T09:16:32Z</time></trkpt><trkpt lat="45.781838651327774" lon="9.237823212345896"><ele>281.5</ele><time>2026-04-18T09:16:33Z</time></trkpt><trkpt lat="45.78197727753445" lon="9.23789589837159"><ele>282.0</ele><time>2026-04-18T09:16:34Z</time></trkpt><trkpt lat="45.782113927674644" lon="9.23796791737849"><ele>282.5</ele><time>2026-04-18T09:16:35Z</time></trkpt><trkpt lat="45.78224804182449" lon="9.238041834594464"><ele>283.0</ele><time>2026-04-18T09:16:36Z</time></trkpt><trkpt lat="45.78238514685029" lon="9.238115491847207"><ele>282.5</ele><time>2026-04-18T09:16:37Z</time></trkpt><trkpt lat="45.782518112122794" lon="9.238185694662489"><ele>282.0</ele><time>2026-04-18T09:16:38Z</time></trkpt><trkpt lat="45.78265130789156" lon="9.238261441015107"><ele>281.5</ele><time>2026-04-18T09:16:39Z</time></trkpt><trkpt lat="45.782783712182166" lon="9.23833556576818"><ele>281.0</ele><time>2026-04-18T09:16:40Z</time></trkpt><trkpt lat="45.782914827452295" lon="9.238407932840355"><ele>281.0</ele><time>2026-04-18T09:16:41Z</time></trkpt><trkpt lat="45.78304683826325" lon="9.238481867042008"><ele>281.0</ele><time>2026-04-18T09:16:42Z</time></trkpt><trkpt lat="45.78317551334485" lon="9.2385496528235"><ele>281.0</ele><time>2026-04-18T09:16:43Z</time></trkpt><trkpt lat="45.78330649122863" lon="9.238621767910056"><ele>281.0</ele><time>2026-04-18T09:16:44Z</time></trkpt><trkpt lat="45.78343721953299" lon="9.238691443132163"><ele>281.0</ele><time>2026-04-18T09:16:45Z</time></trkpt><trkpt lat="45.783569242346466" lon="9.238765480004524"><ele>281.0</ele><time>2026-04-18T09:16:46Z</time></trkpt><trkpt lat="45.783704308213586" lon="9.238851849005274"><ele>281.0</ele><time>2026-04-18T09:16:47Z</time></trkpt><trkpt lat="45.78384060272526" lon="9.238939426087613"><ele>281.0</ele><time>2026-04-18T09:16:48Z</time></trkpt><trkpt lat="45.7839754708341" lon="9.239033731346806"><ele>281.0</ele><time>2026-04-18T09:16:49Z</time></trkpt><trkpt lat="45.78410827998734" lon="9.239138796246015"><ele>281.0</ele><time>2026-04-18T09:16:50Z</time></trkpt><trkpt lat="45.784239573878445" lon="9.239262360463897"><ele>281.0</ele><time>2026-04-18T09:16:51Z</time></trkpt><trkpt lat="45.78437193496019" lon="9.239384303066133"><ele>279.33333333333337</ele><time>2026-04-18T09:16:52Z</time></trkpt><trkpt lat="45.78450024311816" lon="9.239513666898246"><ele>277.6666666666667</ele><time>2026-04-18T09:16:53Z</time></trkpt><trkpt lat="45.78462759406767" lon="9.239663025611277"><ele>276.0</ele><time>2026-04-18T09:16:54Z</time></trkpt><trkpt lat="45.78474621391657" lon="9.239814544784991"><ele>275.6666666666667</ele><time>2026-04-18T09:16:55Z</time></trkpt><trkpt lat="45.784864121405455" lon="9.239974531419232"><ele>275.33333333333337</ele><time>2026-04-18T09:16:56Z</time></trkpt><trkpt lat="45.784984851666614" lon="9.24013092242507"><ele>275.0</ele><time>2026-04-18T09:16:57Z</time></trkpt><trkpt lat="45.78510657780637" lon="9.240279403205518"><ele>272.6666666666667</ele><time>2026-04-18T09:16:58Z</time></trkpt><trkpt lat="45.78522938961811" lon="9.240442977785325"><ele>270.3333333333333</ele><time>2026-04-18T09:16:59Z</time></trkpt><trkpt lat="45.78535231140111" lon="9.240596559568724"><ele>268.0</ele><time>2026-04-18T09:17:00Z</time></trkpt><trkpt lat="45.78547227174869" lon="9.240766798864815"><ele>267.66666666666663</ele><time>2026-04-18T09:17:01Z</time></trkpt><trkpt lat="45.78559310812609" lon="9.240931918314311"><ele>267.3333333333333</ele><time>2026-04-18T09:17:02Z</time></trkpt><trkpt lat="45.785716082567745" lon="9.24109410554548"><ele>267.0</ele><time>2026-04-18T09:17:03Z</time></trkpt><trkpt lat="45.785837818093384" lon="9.241263478024027"><ele>267.0</ele><time>2026-04-18T09:17:04Z</time></trkpt><trkpt lat="45.785962412984425" lon="9.241433751752792"><ele>267.0</ele><time>2026-04-18T09:17:05.001Z</time></trkpt><trkpt lat="45.78609164652101" lon="9.24158927230607"><ele>267.0</ele><time>2026-04-18T09:17:06.001Z</time></trkpt><trkpt lat="45.78622516896486" lon="9.241739045172832"><ele>265.6666666666667</ele><time>2026-04-18T09:17:07.001Z</time></trkpt><trkpt lat="45.78636839348816" lon="9.241873170896179"><ele>264.33333333333337</ele><time>2026-04-18T09:17:08.001Z</time></trkpt><trkpt lat="45.78651553739833" lon="9.241985036056956"><ele>263.0</ele><time>2026-04-18T09:17:09.001Z</time></trkpt><trkpt lat="45.78667047380726" lon="9.2420907447866"><ele>263.0</ele><time>2026-04-18T09:17:10.001Z</time></trkpt><trkpt lat="45.78683293450332" lon="9.242185137112587"><ele>263.0</ele><time>2026-04-18T09:17:11.001Z</time></trkpt><trkpt lat="45.78699424403342" lon="9.242257326116725"><ele>263.0</ele><time>2026-04-18T09:17:12.001Z</time></trkpt><trkpt lat="45.78715998259326" lon="9.24232485900399"><ele>262.6666666666667</ele><time>2026-04-18T09:17:13.001Z</time></trkpt><trkpt lat="45.787323500171375" lon="9.24237491239537"><ele>262.3333333333333</ele><time>2026-04-18T09:17:14.001Z</time></trkpt><trkpt lat="45.787493572492885" lon="9.242438560518105"><ele>262.0</ele><time>2026-04-18T09:17:15.001Z</time></trkpt><trkpt lat="45.787660314313804" lon="9.242501468582095"><ele>262.0</ele><time>2026-04-18T09:17:16.001Z</time></trkpt><trkpt lat="45.78782651548929" lon="9.24256247827409"><ele>262.0</ele><time>2026-04-18T09:17:17.001Z</time></trkpt><trkpt lat="45.787994212595926" lon="9.242625060765992"><ele>262.0</ele><time>2026-04-18T09:17:18.001Z</time></trkpt><trkpt lat="45.78816183000251" lon="9.24268907700336"><ele>262.0</ele><time>2026-04-18T09:17:19.001Z</time></trkpt><trkpt lat="45.78833220580602" lon="9.24274877274529"><ele>262.0</ele><time>2026-04-18T09:17:20.001Z</time></trkpt><trkpt lat="45.788497787454084" lon="9.242809931311438"><ele>262.0</ele><time>2026-04-18T09:17:21.001Z</time></trkpt><trkpt lat="45.78866495708401" lon="9.242863859239721"><ele>262.0</ele><time>2026-04-18T09:17:22.001Z</time></trkpt><trkpt lat="45.78882988688932" lon="9.242920450274877"><ele>262.0</ele><time>2026-04-18T09:17:23.001Z</time></trkpt><trkpt lat="45.78899862662469" lon="9.242984493621924"><ele>262.0</ele><time>2026-04-18T09:17:24.001Z</time></trkpt><trkpt lat="45.78916772240531" lon="9.24304600056458"><ele>262.0</ele><time>2026-04-18T09:17:25.001Z</time></trkpt><trkpt lat="45.789338753376484" lon="9.24310629064054"><ele>262.0</ele><time>2026-04-18T09:17:26.001Z</time></trkpt><trkpt lat="45.78950933396226" lon="9.243167063916815"><ele>262.0</ele><time>2026-04-18T09:17:27.001Z</time></trkpt><trkpt lat="45.789681138755505" lon="9.243230025253757"><ele>261.3333333333333</ele><time>2026-04-18T09:17:28.001Z</time></trkpt><trkpt lat="45.78985471423778" lon="9.243301366596091"><ele>260.6666666666667</ele><time>2026-04-18T09:17:29.001Z</time></trkpt><trkpt lat="45.79002689431279" lon="9.243365103454023"><ele>260.0</ele><time>2026-04-18T09:17:30.001Z</time></trkpt><trkpt lat="45.79020058643831" lon="9.243429699133959"><ele>259.33333333333337</ele><time>2026-04-18T09:17:31.001Z</time></trkpt><trkpt lat="45.79037375482196" lon="9.243493838642381"><ele>258.6666666666667</ele><time>2026-04-18T09:17:32.001Z</time></trkpt><trkpt lat="45.79054990057771" lon="9.243562489410909"><ele>258.0</ele><time>2026-04-18T09:17:33.001Z</time></trkpt><trkpt lat="45.79072304904446" lon="9.243628210334858"><ele>258.0</ele><time>2026-04-18T09:17:34.001Z</time></trkpt><trkpt lat="45.79089183236375" lon="9.243687409824382"><ele>258.0</ele><time>2026-04-18T09:17:35.001Z</time></trkpt><trkpt lat="45.791058658264134" lon="9.243746369932389"><ele>258.0</ele><time>2026-04-18T09:17:36.001Z</time></trkpt><trkpt lat="45.79121806201263" lon="9.243793774130898"><ele>259.0</ele><time>2026-04-18T09:17:37.001Z</time></trkpt><trkpt lat="45.79137817911045" lon="9.24382285090017"><ele>260.0</ele><time>2026-04-18T09:17:38.001Z</time></trkpt><trkpt lat="45.79154086916234" lon="9.243834951012712"><ele>261.0</ele><time>2026-04-18T09:17:39.001Z</time></trkpt><trkpt lat="45.79170226303929" lon="9.24382460070372"><ele>262.0</ele><time>2026-04-18T09:17:40.001Z</time></trkpt><trkpt lat="45.79186753443105" lon="9.243790737961817"><ele>263.0</ele><time>2026-04-18T09:17:41.001Z</time></trkpt><trkpt lat="45.792025077869205" lon="9.243739969669083"><ele>264.0</ele><time>2026-04-18T09:17:42.001Z</time></trkpt><trkpt lat="45.79218967544499" lon="9.243677393741551"><ele>264.0</ele><time>2026-04-18T09:17:43.001Z</time></trkpt><trkpt lat="45.79234528530169" lon="9.243594180649813"><ele>264.0</ele><time>2026-04-18T09:17:44.001Z</time></trkpt><trkpt lat="45.79249777347715" lon="9.243493050904915"><ele>264.0</ele><time>2026-04-18T09:17:45.001Z</time></trkpt><trkpt lat="45.792646886885535" lon="9.243380527024577"><ele>263.6666666666667</ele><time>2026-04-18T09:17:46.001Z</time></trkpt><trkpt lat="45.79279266716239" lon="9.243274012468145"><ele>263.33333333333337</ele><time>2026-04-18T09:17:47.001Z</time></trkpt><trkpt lat="45.79294631475356" lon="9.243169873670567"><ele>263.0</ele><time>2026-04-18T09:17:48.001Z</time></trkpt><trkpt lat="45.79309864495176" lon="9.243066777885328"><ele>263.0</ele><time>2026-04-18T09:17:49.001Z</time></trkpt><trkpt lat="45.79324248731642" lon="9.242967426844428"><ele>263.0</ele><time>2026-04-18T09:17:50.001Z</time></trkpt><trkpt lat="45.79338297869716" lon="9.242870893781259"><ele>263.0</ele><time>2026-04-18T09:17:51.001Z</time></trkpt><trkpt lat="45.79351021739589" lon="9.242781662164703"><ele>262.75</ele><time>2026-04-18T09:17:52.001Z</time></trkpt><trkpt lat="45.793629400409834" lon="9.242704390923965"><ele>262.5</ele><time>2026-04-18T09:17:53.001Z</time></trkpt><trkpt lat="45.79374242556059" lon="9.242630830611699"><ele>262.25</ele><time>2026-04-18T09:17:54.001Z</time></trkpt><trkpt lat="45.793845574775375" lon="9.24256148282571"><ele>262.0</ele><time>2026-04-18T09:17:55.002Z</time></trkpt><trkpt lat="45.7939458886941" lon="9.24249331735241"><ele>262.0</ele><time>2026-04-18T09:17:56.002Z</time></trkpt><trkpt lat="45.79404169112323" lon="9.242426958655267"><ele>262.0</ele><time>2026-04-18T09:17:57.002Z</time></trkpt><trkpt lat="45.79414779119397" lon="9.242355134013314"><ele>262.0</ele><time>2026-04-18T09:17:58.002Z</time></trkpt><trkpt lat="45.79424925794748" lon="9.242286847401525"><ele>262.0</ele><time>2026-04-18T09:17:59.002Z</time></trkpt><trkpt lat="45.794344645456256" lon="9.242218271648076"><ele>262.0</ele><time>2026-04-18T09:18:00.002Z</time></trkpt><trkpt lat="45.79444348777018" lon="9.242151062062701"><ele>262.4</ele><time>2026-04-18T09:18:01.002Z</time></trkpt><trkpt lat="45.79454059684132" lon="9.24208692657022"><ele>262.79999999999995</ele><time>2026-04-18T09:18:02.002Z</time></trkpt><trkpt lat="45.79463614986534" lon="9.24202025375503"><ele>263.2</ele><time>2026-04-18T09:18:03.002Z</time></trkpt><trkpt lat="45.794720766787854" lon="9.241965057675918"><ele>263.59999999999997</ele><time>2026-04-18T09:18:04.002Z</time></trkpt><trkpt lat="45.79479546101932" lon="9.24191379774602"><ele>264.0</ele><time>2026-04-18T09:18:05.002Z</time></trkpt><trkpt lat="45.794890648732995" lon="9.241851919127086"><ele>264.0</ele><time>2026-04-18T09:18:06.999Z</time></trkpt><trkpt lat="45.79499307298306" lon="9.241794779225932"><ele>264.0</ele><time>2026-04-18T09:18:08.999Z</time></trkpt><trkpt lat="45.79510259953424" lon="9.241729825347564"><ele>264.0</ele><time>2026-04-18T09:18:10.999Z</time></trkpt><trkpt lat="45.79517594150456" lon="9.24168043478357"><ele>264.0</ele><time>2026-04-18T09:18:11.999Z</time></trkpt><trkpt lat="45.795249948259595" lon="9.24162370452453"><ele>264.0</ele><time>2026-04-18T09:18:12.999Z</time></trkpt><trkpt lat="45.79532239056414" lon="9.241559675373159"><ele>264.0</ele><time>2026-04-18T09:18:13.999Z</time></trkpt><trkpt lat="45.795389375480525" lon="9.24150007693051"><ele>264.0</ele><time>2026-04-18T09:18:14.999Z</time></trkpt><trkpt lat="45.79546498038928" lon="9.241448291021262"><ele>264.0</ele><time>2026-04-18T09:18:15.999Z</time></trkpt><trkpt lat="45.795542541753456" lon="9.241410835016163"><ele>264.0</ele><time>2026-04-18T09:18:16.999Z</time></trkpt><trkpt lat="45.795631593628" lon="9.241361850229195"><ele>264.0</ele><time>2026-04-18T09:18:17.999Z</time></trkpt><trkpt lat="45.795716784484085" lon="9.241301404964904"><ele>264.0</ele><time>2026-04-18T09:18:18.999Z</time></trkpt><trkpt lat="45.79581811773161" lon="9.241202817129818"><ele>264.25</ele><time>2026-04-18T09:18:19.999Z</time></trkpt><trkpt lat="45.795925923884546" lon="9.241093824577764"><ele>264.5</ele><time>2026-04-18T09:18:20.999Z</time></trkpt><trkpt lat="45.7960372189238" lon="9.240995829964419"><ele>264.75</ele><time>2026-04-18T09:18:21.999Z</time></trkpt><trkpt lat="45.79614555798528" lon="9.240935833653024"><ele>265.0</ele><time>2026-04-18T09:18:22.999Z</time></trkpt><trkpt lat="45.79624787708716" lon="9.240869510351557"><ele>265.25</ele><time>2026-04-18T09:18:23.999Z</time></trkpt><trkpt lat="45.796351642058355" lon="9.240798271173823"><ele>265.5</ele><time>2026-04-18T09:18:24.999Z</time></trkpt><trkpt lat="45.79645443146657" lon="9.24072585166078"><ele>265.75</ele><time>2026-04-18T09:18:25.999Z</time></trkpt><trkpt lat="45.796563183807606" lon="9.240650495081494"><ele>266.0</ele><time>2026-04-18T09:18:26.999Z</time></trkpt><trkpt lat="45.79668322082561" lon="9.240565846075073"><ele>266.0</ele><time>2026-04-18T09:18:27.999Z</time></trkpt><trkpt lat="45.79680219838306" lon="9.240479525095333"><ele>266.0</ele><time>2026-04-18T09:18:28.999Z</time></trkpt><trkpt lat="45.7969184931436" lon="9.240401121030848"><ele>266.0</ele><time>2026-04-18T09:18:30Z</time></trkpt><trkpt lat="45.79703093112438" lon="9.240323582363938"><ele>266.0</ele><time>2026-04-18T09:18:31Z</time></trkpt><trkpt lat="45.79714419951458" lon="9.24024429203349"><ele>266.25</ele><time>2026-04-18T09:18:32Z</time></trkpt><trkpt lat="45.79726014784693" lon="9.240168417969173"><ele>266.5</ele><time>2026-04-18T09:18:33Z</time></trkpt><trkpt lat="45.79738074978951" lon="9.240087281155263"><ele>266.75</ele><time>2026-04-18T09:18:34Z</time></trkpt><trkpt lat="45.79750292624908" lon="9.240002434241541"><ele>267.0</ele><time>2026-04-18T09:18:35Z</time></trkpt><trkpt lat="45.79762722808853" lon="9.239913706743387"><ele>267.0</ele><time>2026-04-18T09:18:36Z</time></trkpt><trkpt lat="45.797753097187545" lon="9.239823646752331"><ele>267.0</ele><time>2026-04-18T09:18:37Z</time></trkpt><trkpt lat="45.797880672741286" lon="9.239733270713316"><ele>267.0</ele><time>2026-04-18T09:18:38Z</time></trkpt><trkpt lat="45.79800627263079" lon="9.239644165464707"><ele>267.0</ele><time>2026-04-18T09:18:39Z</time></trkpt><trkpt lat="45.79813673434647" lon="9.239556471491076"><ele>267.0</ele><time>2026-04-18T09:18:40Z</time></trkpt><trkpt lat="45.79826077081051" lon="9.239472711396491"><ele>267.0</ele><time>2026-04-18T09:18:41Z</time></trkpt><trkpt lat="45.79838452414888" lon="9.239389292707962"><ele>267.0</ele><time>2026-04-18T09:18:42Z</time></trkpt><trkpt lat="45.79850651535053" lon="9.239306570251967"><ele>267.0</ele><time>2026-04-18T09:18:43Z</time></trkpt><trkpt lat="45.79862693611648" lon="9.239223219754189"><ele>267.5</ele><time>2026-04-18T09:18:44Z</time></trkpt><trkpt lat="45.79874662352244" lon="9.23913824824585"><ele>268.0</ele><time>2026-04-18T09:18:45Z</time></trkpt><trkpt lat="45.79886617186531" lon="9.239058252349142"><ele>268.5</ele><time>2026-04-18T09:18:46Z</time></trkpt><trkpt lat="45.798986487351094" lon="9.23897724524853"><ele>269.0</ele><time>2026-04-18T09:18:47Z</time></trkpt><trkpt lat="45.799110922463036" lon="9.238893769511954"><ele>269.0</ele><time>2026-04-18T09:18:48Z</time></trkpt><trkpt lat="45.79923620114647" lon="9.238806007121493"><ele>269.0</ele><time>2026-04-18T09:18:49Z</time></trkpt><trkpt lat="45.79936393143051" lon="9.238718471444455"><ele>269.0</ele><time>2026-04-18T09:18:50Z</time></trkpt><trkpt lat="45.79949099178276" lon="9.23863343560409"><ele>269.0</ele><time>2026-04-18T09:18:51Z</time></trkpt><trkpt lat="45.799622823111484" lon="9.23854491890611"><ele>269.25</ele><time>2026-04-18T09:18:52Z</time></trkpt><trkpt lat="45.79975370882041" lon="9.238454758582167"><ele>269.5</ele><time>2026-04-18T09:18:53Z</time></trkpt><trkpt lat="45.79988076854464" lon="9.238372063525524"><ele>269.75</ele><time>2026-04-18T09:18:54Z</time></trkpt><trkpt lat="45.80001112002103" lon="9.238281821415445"><ele>270.0</ele><time>2026-04-18T09:18:55Z</time></trkpt><trkpt lat="45.80014255568819" lon="9.238189806257253"><ele>270.25</ele><time>2026-04-18T09:18:56Z</time></trkpt><trkpt lat="45.800275514792794" lon="9.2380968182368"><ele>270.5</ele><time>2026-04-18T09:18:57Z</time></trkpt><trkpt lat="45.80040370460991" lon="9.238012439700661"><ele>270.75</ele><time>2026-04-18T09:18:58Z</time></trkpt><trkpt lat="45.800517222789495" lon="9.237933900497959"><ele>271.0</ele><time>2026-04-18T09:18:59Z</time></trkpt><trkpt lat="45.8006243163361" lon="9.237862957697777"><ele>271.0</ele><time>2026-04-18T09:19:00Z</time></trkpt><trkpt lat="45.800723024191896" lon="9.237796647342174"><ele>271.0</ele><time>2026-04-18T09:19:01Z</time></trkpt><trkpt lat="45.80081542779585" lon="9.23773378684004"><ele>271.0</ele><time>2026-04-18T09:19:02Z</time></trkpt><trkpt lat="45.80090674186551" lon="9.237670702955882"><ele>271.0</ele><time>2026-04-18T09:19:03.001Z</time></trkpt><trkpt lat="45.801004948938626" lon="9.23760556999373"><ele>271.0</ele><time>2026-04-18T09:19:04.001Z</time></trkpt><trkpt lat="45.801108996282615" lon="9.237536188864201"><ele>271.0</ele><time>2026-04-18T09:19:05.001Z</time></trkpt><trkpt lat="45.801216791306125" lon="9.237462657917199"><ele>271.0</ele><time>2026-04-18T09:19:06.001Z</time></trkpt><trkpt lat="45.80132314651704" lon="9.237389240051554"><ele>271.0</ele><time>2026-04-18T09:19:07.001Z</time></trkpt><trkpt lat="45.801432813915106" lon="9.237314303585084"><ele>271.0</ele><time>2026-04-18T09:19:08.001Z</time></trkpt><trkpt lat="45.8015327490882" lon="9.237246591276111"><ele>271.2</ele><time>2026-04-18T09:19:09.001Z</time></trkpt><trkpt lat="45.80162608196933" lon="9.23718607291839"><ele>271.40000000000003</ele><time>2026-04-18T09:19:10.001Z</time></trkpt><trkpt lat="45.80171458814442" lon="9.237132306765524"><ele>271.6</ele><time>2026-04-18T09:19:11.001Z</time></trkpt><trkpt lat="45.80180523051546" lon="9.237077542651807"><ele>271.8</ele><time>2026-04-18T09:19:12.001Z</time></trkpt><trkpt lat="45.80189563039952" lon="9.237028817807014"><ele>272.0</ele><time>2026-04-18T09:19:13.001Z</time></trkpt><trkpt lat="45.801991486137894" lon="9.236989861314647"><ele>272.0</ele><time>2026-04-18T09:19:14.001Z</time></trkpt><trkpt lat="45.8020938535402" lon="9.236962631312265"><ele>272.0</ele><time>2026-04-18T09:19:15.001Z</time></trkpt><trkpt lat="45.80219058225526" lon="9.236917461604822"><ele>272.0</ele><time>2026-04-18T09:19:16.001Z</time></trkpt><trkpt lat="45.80227964875052" lon="9.236839345030434"><ele>272.0</ele><time>2026-04-18T09:19:17.001Z</time></trkpt><trkpt lat="45.80236314585246" lon="9.23673646070957"><ele>272.0</ele><time>2026-04-18T09:19:18.001Z</time></trkpt><trkpt lat="45.80245390710247" lon="9.23662534298524"><ele>272.0</ele><time>2026-04-18T09:19:19.001Z</time></trkpt><trkpt lat="45.80256829053929" lon="9.23652112263493"><ele>272.0</ele><time>2026-04-18T09:19:20.001Z</time></trkpt><trkpt lat="45.802695511316465" lon="9.236435202563033"><ele>272.0</ele><time>2026-04-18T09:19:21.001Z</time></trkpt><trkpt lat="45.80282759685177" lon="9.236355361850592"><ele>272.0</ele><time>2026-04-18T09:19:22.001Z</time></trkpt><trkpt lat="45.80294410639859" lon="9.236281552271745"><ele>272.4</ele><time>2026-04-18T09:19:23.001Z</time></trkpt><trkpt lat="45.80304604090009" lon="9.236215504302"><ele>272.79999999999995</ele><time>2026-04-18T09:19:24.001Z</time></trkpt><trkpt lat="45.80313963731895" lon="9.236149151629606"><ele>273.2</ele><time>2026-04-18T09:19:25.001Z</time></trkpt><trkpt lat="45.803232487250504" lon="9.236079587902417"><ele>273.59999999999997</ele><time>2026-04-18T09:19:26.001Z</time></trkpt><trkpt lat="45.803329770518964" lon="9.236016842247466"><ele>274.0</ele><time>2026-04-18T09:19:27.001Z</time></trkpt><trkpt lat="45.80342869981242" lon="9.235952694623998"><ele>274.0</ele><time>2026-04-18T09:19:28.001Z</time></trkpt><trkpt lat="45.803525608508004" lon="9.235888245623496"><ele>274.0</ele><time>2026-04-18T09:19:29.001Z</time></trkpt><trkpt lat="45.8036223169693" lon="9.235826069649084"><ele>274.0</ele><time>2026-04-18T09:19:30.001Z</time></trkpt><trkpt lat="45.80371759035029" lon="9.235762122482774"><ele>274.0</ele><time>2026-04-18T09:19:31.001Z</time></trkpt><trkpt lat="45.80381073634755" lon="9.235698405665108"><ele>274.0</ele><time>2026-04-18T09:19:32.001Z</time></trkpt><trkpt lat="45.80390175959209" lon="9.235634718213879"><ele>274.16666666666663</ele><time>2026-04-18T09:19:33.001Z</time></trkpt><trkpt lat="45.80398658985775" lon="9.235569657833597"><ele>274.3333333333333</ele><time>2026-04-18T09:19:34.001Z</time></trkpt><trkpt lat="45.804064393290496" lon="9.23550807813297"><ele>274.5</ele><time>2026-04-18T09:19:35.001Z</time></trkpt><trkpt lat="45.80413460601522" lon="9.235455199407687"><ele>274.6666666666667</ele><time>2026-04-18T09:19:36.001Z</time></trkpt><trkpt lat="45.80419907558251" lon="9.23540561321773"><ele>274.83333333333337</ele><time>2026-04-18T09:19:37.001Z</time></trkpt><trkpt lat="45.80426128443397" lon="9.23535335040887"><ele>275.0</ele><time>2026-04-18T09:19:38.001Z</time></trkpt><trkpt lat="45.804350501236755" lon="9.235286300809852"><ele>275.2</ele><time>2026-04-18T09:19:40.001Z</time></trkpt><trkpt lat="45.80444612079835" lon="9.235222762726107"><ele>275.4</ele><time>2026-04-18T09:19:42.001Z</time></trkpt><trkpt lat="45.804538982428994" lon="9.235136291354914"><ele>275.6</ele><time>2026-04-18T09:19:44.001Z</time></trkpt><trkpt lat="45.804624485793695" lon="9.235045038378214"><ele>275.8</ele><time>2026-04-18T09:19:46.001Z</time></trkpt><trkpt lat="45.80471866531435" lon="9.234955435908944"><ele>276.0</ele><time>2026-04-18T09:19:48.002Z</time></trkpt><trkpt lat="45.80480975761784" lon="9.234857907335355"><ele>276.2</ele><time>2026-04-18T09:19:50.002Z</time></trkpt><trkpt lat="45.804909380888425" lon="9.234762818806464"><ele>276.40000000000003</ele><time>2026-04-18T09:19:52.002Z</time></trkpt><trkpt lat="45.8050093876899" lon="9.234667310873018"><ele>276.6</ele><time>2026-04-18T09:19:54.002Z</time></trkpt><trkpt lat="45.80509826275602" lon="9.234601255368258"><ele>276.8</ele><time>2026-04-18T09:19:56.002Z</time></trkpt><trkpt lat="45.805162617502596" lon="9.234580659613258"><ele>277.0</ele><time>2026-04-18T09:19:59.002Z</time></trkpt><trkpt lat="45.805253571246624" lon="9.23457733578698"><ele>277.75</ele><time>2026-04-18T09:20:07.002Z</time></trkpt><trkpt lat="45.80535103874049" lon="9.234573582724684"><ele>278.5</ele><time>2026-04-18T09:20:08.002Z</time></trkpt><trkpt lat="45.8054615906444" lon="9.234520152727761"><ele>279.25</ele><time>2026-04-18T09:20:09.002Z</time></trkpt><trkpt lat="45.805561793513355" lon="9.234444160276006"><ele>280.0</ele><time>2026-04-18T09:20:10.002Z</time></trkpt><trkpt lat="45.805702214534286" lon="9.234363590848835"><ele>280.0</ele><time>2026-04-18T09:20:11.002Z</time></trkpt><trkpt lat="45.80583628501376" lon="9.2342981794244"><ele>280.0</ele><time>2026-04-18T09:20:11.999Z</time></trkpt><trkpt lat="45.805905082232364" lon="9.234340952082155"><ele>280.0</ele><time>2026-04-18T09:20:12.999Z</time></trkpt><trkpt lat="45.806011012036336" lon="9.234316854746199"><ele>280.0</ele><time>2026-04-18T09:20:13.999Z</time></trkpt><trkpt lat="45.80609864918031" lon="9.234284533277487"><ele>280.0</ele><time>2026-04-18T09:20:14.999Z</time></trkpt><trkpt lat="45.806179780400385" lon="9.234264532723904"><ele>279.5</ele><time>2026-04-18T09:20:15.999Z</time></trkpt><trkpt lat="45.80626766325047" lon="9.23428359483277"><ele>279.0</ele><time>2026-04-18T09:20:16.999Z</time></trkpt><trkpt lat="45.806363841517225" lon="9.234271755964205"><ele>278.5</ele><time>2026-04-18T09:20:17.999Z</time></trkpt><trkpt lat="45.80649971876764" lon="9.234256839681931"><ele>278.0</ele><time>2026-04-18T09:20:18.999Z</time></trkpt><trkpt lat="45.80666073971661" lon="9.234238698661454"><ele>278.0</ele><time>2026-04-18T09:20:19.999Z</time></trkpt><trkpt lat="45.8067982799698" lon="9.234223176147594"><ele>278.0</ele><time>2026-04-18T09:20:20.999Z</time></trkpt><trkpt lat="45.80689525485027" lon="9.234212231764703"><ele>278.0</ele><time>2026-04-18T09:20:21.999Z</time></trkpt><trkpt lat="45.80697546256642" lon="9.234203179678534"><ele>278.0</ele><time>2026-04-18T09:20:22.999Z</time></trkpt><trkpt lat="45.80704671153695" lon="9.234195414359819"><ele>278.0</ele><time>2026-04-18T09:20:23.999Z</time></trkpt><trkpt lat="45.80714037053856" lon="9.23418519160815"><ele>278.1666666666667</ele><time>2026-04-18T09:20:24.999Z</time></trkpt><trkpt lat="45.807217454389104" lon="9.234176778005374"><ele>278.33333333333337</ele><time>2026-04-18T09:20:26Z</time></trkpt><trkpt lat="45.8072839715562" lon="9.234169517759744"><ele>278.5</ele><time>2026-04-18T09:20:27Z</time></trkpt><trkpt lat="45.807351487962336" lon="9.23416214842963"><ele>278.6666666666667</ele><time>2026-04-18T09:20:28Z</time></trkpt><trkpt lat="45.80743417195475" lon="9.234153123586655"><ele>278.8333333333333</ele><time>2026-04-18T09:20:29Z</time></trkpt><trkpt lat="45.807513753002596" lon="9.234144437340605"><ele>279.0</ele><time>2026-04-18T09:20:30Z</time></trkpt><trkpt lat="45.80759230579482" lon="9.234135779330522"><ele>279.1666666666667</ele><time>2026-04-18T09:20:31Z</time></trkpt><trkpt lat="45.807675390398195" lon="9.234126650480738"><ele>279.3333333333333</ele><time>2026-04-18T09:20:32Z</time></trkpt><trkpt lat="45.807750596921196" lon="9.234118387235025"><ele>279.5</ele><time>2026-04-18T09:20:33Z</time></trkpt><trkpt lat="45.80782071088388" lon="9.23411068352723"><ele>279.66666666666663</ele><time>2026-04-18T09:20:34Z</time></trkpt><trkpt lat="45.80789364795932" lon="9.234102669481594"><ele>279.8333333333333</ele><time>2026-04-18T09:20:35Z</time></trkpt><trkpt lat="45.807974594970126" lon="9.2340933960837"><ele>280.0</ele><time>2026-04-18T09:20:36Z</time></trkpt><trkpt lat="45.808056210447596" lon="9.234083787399335"><ele>280.0</ele><time>2026-04-18T09:20:37Z</time></trkpt><trkpt lat="45.808119905867336" lon="9.23407637010785"><ele>280.0</ele><time>2026-04-18T09:20:38Z</time></trkpt><trkpt lat="45.80819094998404" lon="9.234068097051653"><ele>280.0</ele><time>2026-04-18T09:20:39Z</time></trkpt><trkpt lat="45.80826259383945" lon="9.234059754157686"><ele>280.0</ele><time>2026-04-18T09:20:40Z</time></trkpt><trkpt lat="45.80832109349679" lon="9.234016206722885"><ele>280.0</ele><time>2026-04-18T09:20:41Z</time></trkpt><trkpt lat="45.808465674193876" lon="9.23398148438119"><ele>280.0</ele><time>2026-04-18T09:20:43Z</time></trkpt><trkpt lat="45.80859503562618" lon="9.233974483943307"><ele>280.3333333333333</ele><time>2026-04-18T09:20:44Z</time></trkpt><trkpt lat="45.80874293422749" lon="9.233974689527095"><ele>280.6666666666667</ele><time>2026-04-18T09:20:45Z</time></trkpt><trkpt lat="45.8088994088668" lon="9.233968468876459"><ele>281.0</ele><time>2026-04-18T09:20:46Z</time></trkpt><trkpt lat="45.80904394029403" lon="9.233940779379706"><ele>281.25</ele><time>2026-04-18T09:20:47Z</time></trkpt><trkpt lat="45.80915750723387" lon="9.233916268689413"><ele>281.5</ele><time>2026-04-18T09:20:48Z</time></trkpt><trkpt lat="45.80929627842245" lon="9.233860036789393"><ele>281.75</ele><time>2026-04-18T09:20:49Z</time></trkpt><trkpt lat="45.80941931026644" lon="9.23385142061553"><ele>282.0</ele><time>2026-04-18T09:20:50Z</time></trkpt><trkpt lat="45.809516273554806" lon="9.23379230831741"><ele>282.2</ele><time>2026-04-18T09:20:51Z</time></trkpt><trkpt lat="45.80960050730312" lon="9.233776476336157"><ele>282.4</ele><time>2026-04-18T09:20:52Z</time></trkpt><trkpt lat="45.809671729271415" lon="9.233759886933987"><ele>282.6</ele><time>2026-04-18T09:20:53Z</time></trkpt><trkpt lat="45.80973825117037" lon="9.233743298136917"><ele>282.8</ele><time>2026-04-18T09:20:54Z</time></trkpt><trkpt lat="45.80986190769113" lon="9.23378504194716"><ele>283.0</ele><time>2026-04-18T09:20:56Z</time></trkpt><trkpt lat="45.80993180205853" lon="9.233900815064496"><ele>282.8333333333333</ele><time>2026-04-18T09:20:57.001Z</time></trkpt><trkpt lat="45.80999249119891" lon="9.234015157070168"><ele>282.66666666666663</ele><time>2026-04-18T09:20:58.001Z</time></trkpt><trkpt lat="45.81010100407515" lon="9.234058940649374"><ele>282.5</ele><time>2026-04-18T09:21:00.001Z</time></trkpt><trkpt lat="45.81016398868733" lon="9.23405169860803"><ele>282.3333333333333</ele><time>2026-04-18T09:21:01.001Z</time></trkpt><trkpt lat="45.81022680433693" lon="9.234017760624312"><ele>282.1666666666667</ele><time>2026-04-18T09:21:02.001Z</time></trkpt><trkpt lat="45.81032342466792" lon="9.233968279605937"><ele>282.0</ele><time>2026-04-18T09:21:04.001Z</time></trkpt><trkpt lat="45.81040040645138" lon="9.233981147452763"><ele>282.0</ele><time>2026-04-18T09:21:06.001Z</time></trkpt><trkpt lat="45.81052987944254" lon="9.233989745141345"><ele>282.0</ele><time>2026-04-18T09:21:08.001Z</time></trkpt><trkpt lat="45.81059180486848" lon="9.233968265564219"><ele>282.0</ele><time>2026-04-18T09:21:09.001Z</time></trkpt><trkpt lat="45.810688803614234" lon="9.233929391241183"><ele>282.0</ele><time>2026-04-18T09:21:11.001Z</time></trkpt><trkpt lat="45.81077545516879" lon="9.233944680423267"><ele>282.0</ele><time>2026-04-18T09:21:13.001Z</time></trkpt><trkpt lat="45.810863262676136" lon="9.233944592910152"><ele>282.0</ele><time>2026-04-18T09:21:15.001Z</time></trkpt><trkpt lat="45.81094694248814" lon="9.233857727429097"><ele>282.0</ele><time>2026-04-18T09:21:17.001Z</time></trkpt><trkpt lat="45.81099939794116" lon="9.233788924069684"><ele>282.0</ele><time>2026-04-18T09:21:18.001Z</time></trkpt><trkpt lat="45.81107633056909" lon="9.23376743395126"><ele>282.0</ele><time>2026-04-18T09:21:19.001Z</time></trkpt><trkpt lat="45.81115990120195" lon="9.233707516698795"><ele>282.0</ele><time>2026-04-18T09:21:20.001Z</time></trkpt><trkpt lat="45.81125565199258" lon="9.233680251452107"><ele>282.0</ele><time>2026-04-18T09:21:21.001Z</time></trkpt><trkpt lat="45.811339318158986" lon="9.233643617894364"><ele>282.4</ele><time>2026-04-18T09:21:22.001Z</time></trkpt><trkpt lat="45.81142923906839" lon="9.2336039952856"><ele>282.79999999999995</ele><time>2026-04-18T09:21:23.001Z</time></trkpt><trkpt lat="45.811519528228835" lon="9.233567482436145"><ele>283.2</ele><time>2026-04-18T09:21:24.001Z</time></trkpt><trkpt lat="45.811608363842375" lon="9.23353015621805"><ele>283.59999999999997</ele><time>2026-04-18T09:21:25.001Z</time></trkpt><trkpt lat="45.81169399249817" lon="9.23349250592983"><ele>284.0</ele><time>2026-04-18T09:21:26.001Z</time></trkpt><trkpt lat="45.81178128763223" lon="9.233461027576872"><ele>284.0</ele><time>2026-04-18T09:21:27.001Z</time></trkpt><trkpt lat="45.81186809293097" lon="9.23342238924099"><ele>284.0</ele><time>2026-04-18T09:21:28.001Z</time></trkpt><trkpt lat="45.81196501052209" lon="9.233373761805023"><ele>284.0</ele><time>2026-04-18T09:21:29.001Z</time></trkpt><trkpt lat="45.8120699963421" lon="9.233332733451785"><ele>284.0</ele><time>2026-04-18T09:21:30.001Z</time></trkpt><trkpt lat="45.81217671802725" lon="9.233307583200679"><ele>284.0</ele><time>2026-04-18T09:21:31.001Z</time></trkpt><trkpt lat="45.812284665154166" lon="9.233296793340894"><ele>284.0</ele><time>2026-04-18T09:21:32.001Z</time></trkpt><trkpt lat="45.81239720918554" lon="9.233305972983272"><ele>284.0</ele><time>2026-04-18T09:21:33.001Z</time></trkpt><trkpt lat="45.812512439025774" lon="9.23331632924793"><ele>284.0</ele><time>2026-04-18T09:21:34.001Z</time></trkpt><trkpt lat="45.812614503167964" lon="9.233331733458462"><ele>284.0</ele><time>2026-04-18T09:21:35.001Z</time></trkpt><trkpt lat="45.81271277063421" lon="9.233344608684435"><ele>284.0</ele><time>2026-04-18T09:21:36.001Z</time></trkpt><trkpt lat="45.81280427448818" lon="9.233351411025424"><ele>283.8</ele><time>2026-04-18T09:21:37.001Z</time></trkpt><trkpt lat="45.812906003172735" lon="9.233358621253911"><ele>283.59999999999997</ele><time>2026-04-18T09:21:38.001Z</time></trkpt><trkpt lat="45.81301504847637" lon="9.233369108896307"><ele>283.4</ele><time>2026-04-18T09:21:39.002Z</time></trkpt><trkpt lat="45.8131258371661" lon="9.233378209017681"><ele>283.2</ele><time>2026-04-18T09:21:40.002Z</time></trkpt><trkpt lat="45.81322547511624" lon="9.233380424066459"><ele>283.0</ele><time>2026-04-18T09:21:41.002Z</time></trkpt><trkpt lat="45.81333380561436" lon="9.23338159417402"><ele>283.0</ele><time>2026-04-18T09:21:42.002Z</time></trkpt><trkpt lat="45.81343642427075" lon="9.233372919412703"><ele>283.0</ele><time>2026-04-18T09:21:43.002Z</time></trkpt><trkpt lat="45.813552215637294" lon="9.23334176316577"><ele>283.0</ele><time>2026-04-18T09:21:44.002Z</time></trkpt><trkpt lat="45.81366732066938" lon="9.233289705785005"><ele>283.0</ele><time>2026-04-18T09:21:45.002Z</time></trkpt><trkpt lat="45.813775189625545" lon="9.233223844755292"><ele>283.6</ele><time>2026-04-18T09:21:46.002Z</time></trkpt><trkpt lat="45.813866922921186" lon="9.233149556096345"><ele>284.20000000000005</ele><time>2026-04-18T09:21:47.002Z</time></trkpt><trkpt lat="45.81395052148397" lon="9.2330826199736"><ele>284.8</ele><time>2026-04-18T09:21:48.002Z</time></trkpt><trkpt lat="45.8140317743497" lon="9.232995683829895"><ele>285.40000000000003</ele><time>2026-04-18T09:21:49.002Z</time></trkpt><trkpt lat="45.814120033181894" lon="9.232909639447326"><ele>286.0</ele><time>2026-04-18T09:21:50.002Z</time></trkpt><trkpt lat="45.814211399906426" lon="9.232812996905036"><ele>286.25</ele><time>2026-04-18T09:21:51.002Z</time></trkpt><trkpt lat="45.81430386970417" lon="9.232715896806562"><ele>286.5</ele><time>2026-04-18T09:21:52.002Z</time></trkpt><trkpt lat="45.81440496101511" lon="9.232614596663593"><ele>286.75</ele><time>2026-04-18T09:21:53.002Z</time></trkpt><trkpt lat="45.814490321815555" lon="9.232504969310645"><ele>287.0</ele><time>2026-04-18T09:21:54.002Z</time></trkpt><trkpt lat="45.81454916860267" lon="9.232385097815161"><ele>286.83333333333337</ele><time>2026-04-18T09:21:55.002Z</time></trkpt><trkpt lat="45.81461875647836" lon="9.23227433794703"><ele>286.6666666666667</ele><time>2026-04-18T09:21:56.002Z</time></trkpt><trkpt lat="45.814680861823966" lon="9.232178129498996"><ele>286.5</ele><time>2026-04-18T09:21:57.002Z</time></trkpt><trkpt lat="45.81474235849868" lon="9.232090387278456"><ele>286.3333333333333</ele><time>2026-04-18T09:21:58.002Z</time></trkpt><trkpt lat="45.8148014790705" lon="9.232008961756517"><ele>286.16666666666663</ele><time>2026-04-18T09:21:59.002Z</time></trkpt><trkpt lat="45.814860271647504" lon="9.231923273812706"><ele>286.0</ele><time>2026-04-18T09:22:00.002Z</time></trkpt><trkpt lat="45.81491048073467" lon="9.231845176296861"><ele>286.0</ele><time>2026-04-18T09:22:01.002Z</time></trkpt><trkpt lat="45.81496026075437" lon="9.231764507063158"><ele>286.0</ele><time>2026-04-18T09:22:02.002Z</time></trkpt><trkpt lat="45.815011825378704" lon="9.231684372359267"><ele>286.0</ele><time>2026-04-18T09:22:03.002Z</time></trkpt><trkpt lat="45.81506057425002" lon="9.231607766966764"><ele>286.0</ele><time>2026-04-18T09:22:04.002Z</time></trkpt><trkpt lat="45.81514376086152" lon="9.23147085919781"><ele>286.0</ele><time>2026-04-18T09:22:06.002Z</time></trkpt><trkpt lat="45.81522793155379" lon="9.231360799500195"><ele>286.0</ele><time>2026-04-18T09:22:08.002Z</time></trkpt><trkpt lat="45.815349410518486" lon="9.231265132800342"><ele>286.0</ele><time>2026-04-18T09:22:10.002Z</time></trkpt><trkpt lat="45.815431724551175" lon="9.231240095515213"><ele>286.0</ele><time>2026-04-18T09:22:11.002Z</time></trkpt><trkpt lat="45.81551694195161" lon="9.231249364823038"><ele>286.0</ele><time>2026-04-18T09:22:12.002Z</time></trkpt><trkpt lat="45.81560247108912" lon="9.231303033074768"><ele>286.0</ele><time>2026-04-18T09:22:13.002Z</time></trkpt><trkpt lat="45.81567607463385" lon="9.231406613653764"><ele>286.2</ele><time>2026-04-18T09:22:14.002Z</time></trkpt><trkpt lat="45.815769338552506" lon="9.231474919807646"><ele>286.40000000000003</ele><time>2026-04-18T09:22:15.002Z</time></trkpt><trkpt lat="45.81585154611034" lon="9.231559543780405"><ele>286.6</ele><time>2026-04-18T09:22:16.002Z</time></trkpt><trkpt lat="45.81592939293737" lon="9.23163644061621"><ele>286.8</ele><time>2026-04-18T09:22:17.002Z</time></trkpt><trkpt lat="45.81599850748143" lon="9.231700430988004"><ele>287.0</ele><time>2026-04-18T09:22:18Z</time></trkpt><trkpt lat="45.816064693853804" lon="9.231763058820974"><ele>287.1666666666667</ele><time>2026-04-18T09:22:19Z</time></trkpt><trkpt lat="45.8161313809805" lon="9.231826233260806"><ele>287.33333333333337</ele><time>2026-04-18T09:22:20Z</time></trkpt><trkpt lat="45.816199454751676" lon="9.23189001375716"><ele>287.5</ele><time>2026-04-18T09:22:21Z</time></trkpt><trkpt lat="45.81626921403364" lon="9.231957520742213"><ele>287.6666666666667</ele><time>2026-04-18T09:22:22Z</time></trkpt><trkpt lat="45.81632566941643" lon="9.232014005452736"><ele>287.8333333333333</ele><time>2026-04-18T09:22:23Z</time></trkpt><trkpt lat="45.81640971677442" lon="9.232095032903446"><ele>288.0</ele><time>2026-04-18T09:22:25Z</time></trkpt><trkpt lat="45.816464199218075" lon="9.232155975143442"><ele>288.0</ele><time>2026-04-18T09:22:27Z</time></trkpt><trkpt lat="45.816551876665464" lon="9.232225816114777"><ele>288.0</ele><time>2026-04-18T09:22:30Z</time></trkpt><trkpt lat="45.81663831694357" lon="9.232308697258201"><ele>288.0</ele><time>2026-04-18T09:22:32Z</time></trkpt><trkpt lat="45.816706425223664" lon="9.232402309425707"><ele>288.0</ele><time>2026-04-18T09:22:34Z</time></trkpt><trkpt lat="45.816754034557945" lon="9.232520892033868"><ele>288.0</ele><time>2026-04-18T09:22:36Z</time></trkpt><trkpt lat="45.81680955348613" lon="9.232621463385858"><ele>288.1666666666667</ele><time>2026-04-18T09:22:38Z</time></trkpt><trkpt lat="45.81688622708488" lon="9.232601226096465"><ele>288.3333333333333</ele><time>2026-04-18T09:22:40Z</time></trkpt><trkpt lat="45.81693994239544" lon="9.232474215674339"><ele>288.5</ele><time>2026-04-18T09:22:42Z</time></trkpt><trkpt lat="45.81701034786662" lon="9.232324939436083"><ele>288.66666666666663</ele><time>2026-04-18T09:22:44Z</time></trkpt><trkpt lat="45.817072974439405" lon="9.232267973572347"><ele>288.8333333333333</ele><time>2026-04-18T09:22:45Z</time></trkpt><trkpt lat="45.817129660838326" lon="9.232216146518972"><ele>289.0</ele><time>2026-04-18T09:22:46Z</time></trkpt><trkpt lat="45.817185262977716" lon="9.232159394589832"><ele>289.0</ele><time>2026-04-18T09:22:47Z</time></trkpt><trkpt lat="45.817244687820455" lon="9.232106034849668"><ele>289.0</ele><time>2026-04-18T09:22:48Z</time></trkpt><trkpt lat="45.8173040001578" lon="9.232045433412225"><ele>289.0</ele><time>2026-04-18T09:22:49Z</time></trkpt><trkpt lat="45.81736469959136" lon="9.231985741696944"><ele>289.0</ele><time>2026-04-18T09:22:50Z</time></trkpt><trkpt lat="45.81742631359992" lon="9.231926664390576"><ele>289.0</ele><time>2026-04-18T09:22:51Z</time></trkpt><trkpt lat="45.817494149586416" lon="9.231842165641659"><ele>289.0</ele><time>2026-04-18T09:22:52Z</time></trkpt><trkpt lat="45.8175584295815" lon="9.231748451769366"><ele>289.0</ele><time>2026-04-18T09:22:53Z</time></trkpt><trkpt lat="45.81761557564284" lon="9.23163781936796"><ele>289.0</ele><time>2026-04-18T09:22:54Z</time></trkpt><trkpt lat="45.8176642106705" lon="9.231521944805918"><ele>289.0</ele><time>2026-04-18T09:22:55.001Z</time></trkpt><trkpt lat="45.81771369416511" lon="9.23139965550643"><ele>289.0</ele><time>2026-04-18T09:22:56.001Z</time></trkpt><trkpt lat="45.81776874294406" lon="9.231255047438324"><ele>289.0</ele><time>2026-04-18T09:22:57.001Z</time></trkpt><trkpt lat="45.8178237839419" lon="9.231103732103342"><ele>289.0</ele><time>2026-04-18T09:22:58.001Z</time></trkpt><trkpt lat="45.81789383114698" lon="9.230921816223214"><ele>289.0</ele><time>2026-04-18T09:22:59.001Z</time></trkpt><trkpt lat="45.817961579110786" lon="9.230700294162006"><ele>289.0</ele><time>2026-04-18T09:23:00.001Z</time></trkpt><trkpt lat="45.81803318810891" lon="9.230464455939993"><ele>289.3333333333333</ele><time>2026-04-18T09:23:01.001Z</time></trkpt><trkpt lat="45.818114733702316" lon="9.230204375949327"><ele>289.6666666666667</ele><time>2026-04-18T09:23:02.001Z</time></trkpt><trkpt lat="45.81819699826145" lon="9.229952067060589"><ele>290.0</ele><time>2026-04-18T09:23:03.001Z</time></trkpt><trkpt lat="45.818280914136196" lon="9.229675717449023"><ele>290.0</ele><time>2026-04-18T09:23:04.001Z</time></trkpt><trkpt lat="45.818407291321144" lon="9.229408074607774"><ele>290.0</ele><time>2026-04-18T09:23:05.001Z</time></trkpt><trkpt lat="45.81854843769531" lon="9.229152223380446"><ele>291.33333333333337</ele><time>2026-04-18T09:23:06.001Z</time></trkpt><trkpt lat="45.8186743877763" lon="9.228922387209513"><ele>292.6666666666667</ele><time>2026-04-18T09:23:07.001Z</time></trkpt><trkpt lat="45.81876834692446" lon="9.228721539524038"><ele>294.0</ele><time>2026-04-18T09:23:08.001Z</time></trkpt><trkpt lat="45.818840329288435" lon="9.228557932020781"><ele>294.0</ele><time>2026-04-18T09:23:09.001Z</time></trkpt><trkpt lat="45.81893062494042" lon="9.228448714678041"><ele>294.0</ele><time>2026-04-18T09:23:10.001Z</time></trkpt><trkpt lat="45.81902548491846" lon="9.228336983085592"><ele>294.0</ele><time>2026-04-18T09:23:11.001Z</time></trkpt><trkpt lat="45.81914785097029" lon="9.228278933327704"><ele>294.0</ele><time>2026-04-18T09:23:12.001Z</time></trkpt><trkpt lat="45.819261823202204" lon="9.228244139369423"><ele>296.0</ele><time>2026-04-18T09:23:13.001Z</time></trkpt><trkpt lat="45.8193599313952" lon="9.228301873231782"><ele>298.0</ele><time>2026-04-18T09:23:14.001Z</time></trkpt><trkpt lat="45.819444362751476" lon="9.228409649587286"><ele>300.0</ele><time>2026-04-18T09:23:15.001Z</time></trkpt><trkpt lat="45.819543560696886" lon="9.228547048103371"><ele>302.0</ele><time>2026-04-18T09:23:16.001Z</time></trkpt><trkpt lat="45.81965484134055" lon="9.228673716200788"><ele>302.0</ele><time>2026-04-18T09:23:17.001Z</time></trkpt><trkpt lat="45.8197722362995" lon="9.228788279232278"><ele>302.0</ele><time>2026-04-18T09:23:18.001Z</time></trkpt><trkpt lat="45.819905863781905" lon="9.228897661746391"><ele>302.0</ele><time>2026-04-18T09:23:19.001Z</time></trkpt><trkpt lat="45.82001309534552" lon="9.228993965623998"><ele>302.0</ele><time>2026-04-18T09:23:20.001Z</time></trkpt><trkpt lat="45.82009542711093" lon="9.2290391264451"><ele>302.83333333333337</ele><time>2026-04-18T09:23:21.001Z</time></trkpt><trkpt lat="45.820172990074056" lon="9.229082750700984"><ele>303.6666666666667</ele><time>2026-04-18T09:23:22.001Z</time></trkpt><trkpt lat="45.820244195261864" lon="9.229110503364184"><ele>304.5</ele><time>2026-04-18T09:23:23.001Z</time></trkpt><trkpt lat="45.820359110775755" lon="9.229139641889772"><ele>305.3333333333333</ele><time>2026-04-18T09:23:25.001Z</time></trkpt><trkpt lat="45.820425019063606" lon="9.229153877818721"><ele>306.16666666666663</ele><time>2026-04-18T09:23:26.001Z</time></trkpt><trkpt lat="45.820487179505456" lon="9.229171182504897"><ele>307.0</ele><time>2026-04-18T09:23:27.001Z</time></trkpt><trkpt lat="45.820557564940806" lon="9.229178458494038"><ele>307.0</ele><time>2026-04-18T09:23:28.001Z</time></trkpt><trkpt lat="45.82063435478917" lon="9.229166227555412"><ele>307.0</ele><time>2026-04-18T09:23:29.001Z</time></trkpt><trkpt lat="45.820701551053695" lon="9.229144527054988"><ele>307.0</ele><time>2026-04-18T09:23:30.001Z</time></trkpt><trkpt lat="45.820809540343035" lon="9.229063015379701"><ele>307.0</ele><time>2026-04-18T09:23:32.001Z</time></trkpt><trkpt lat="45.82089272621039" lon="9.22899917916533"><ele>307.0</ele><time>2026-04-18T09:23:34.001Z</time></trkpt><trkpt lat="45.820960361715834" lon="9.228933417220153"><ele>307.0</ele><time>2026-04-18T09:23:36.002Z</time></trkpt><trkpt lat="45.8210341928095" lon="9.228877543364971"><ele>306.0</ele><time>2026-04-18T09:23:38.002Z</time></trkpt><trkpt lat="45.821099748103755" lon="9.228828972634753"><ele>305.0</ele><time>2026-04-18T09:23:40.002Z</time></trkpt><trkpt lat="45.821178068312086" lon="9.228805077297483"><ele>304.0</ele><time>2026-04-18T09:23:41.002Z</time></trkpt><trkpt lat="45.821293043437564" lon="9.228794265636125"><ele>303.0</ele><time>2026-04-18T09:23:43.002Z</time></trkpt><trkpt lat="45.821419745913914" lon="9.228785937378408"><ele>302.0</ele><time>2026-04-18T09:23:45.002Z</time></trkpt><trkpt lat="45.82149723822392" lon="9.22876347736715"><ele>302.00000000000006</ele><time>2026-04-18T09:23:46.002Z</time></trkpt><trkpt lat="45.821568684974615" lon="9.22874639287545"><ele>302.0</ele><time>2026-04-18T09:23:47.002Z</time></trkpt><trkpt lat="45.82164403182158" lon="9.228729305544736"><ele>302.0</ele><time>2026-04-18T09:23:48.002Z</time></trkpt><trkpt lat="45.821712142576494" lon="9.228700646563022"><ele>302.0</ele><time>2026-04-18T09:23:49.002Z</time></trkpt><trkpt lat="45.8217763491132" lon="9.228692836456716"><ele>302.0</ele><time>2026-04-18T09:23:50.002Z</time></trkpt><trkpt lat="45.82184354259913" lon="9.228665533701673"><ele>302.00000000000006</ele><time>2026-04-18T09:23:51.002Z</time></trkpt><trkpt lat="45.82191630014868" lon="9.228651919466737"><ele>302.0</ele><time>2026-04-18T09:23:52.002Z</time></trkpt><trkpt lat="45.82198587546226" lon="9.228630492503466"><ele>302.4</ele><time>2026-04-18T09:23:53.002Z</time></trkpt><trkpt lat="45.82205668259117" lon="9.228592281782346"><ele>302.79999999999995</ele><time>2026-04-18T09:23:54.002Z</time></trkpt><trkpt lat="45.822132156225166" lon="9.228535021136755"><ele>303.2</ele><time>2026-04-18T09:23:55.002Z</time></trkpt><trkpt lat="45.822225098032064" lon="9.228480978088964"><ele>303.59999999999997</ele><time>2026-04-18T09:23:56.002Z</time></trkpt><trkpt lat="45.82231577943396" lon="9.228421193863584"><ele>304.0</ele><time>2026-04-18T09:23:57.002Z</time></trkpt><trkpt lat="45.82240542602005" lon="9.228393572248732"><ele>304.0</ele><time>2026-04-18T09:23:58.002Z</time></trkpt><trkpt lat="45.82247827736546" lon="9.228338654974145"><ele>304.0</ele><time>2026-04-18T09:23:59.002Z</time></trkpt><trkpt lat="45.82255208066594" lon="9.228306452521494"><ele>304.0</ele><time>2026-04-18T09:24:00.002Z</time></trkpt><trkpt lat="45.82262714811187" lon="9.228277760500522"><ele>304.0</ele><time>2026-04-18T09:24:01.002Z</time></trkpt><trkpt lat="45.822703993166094" lon="9.228250785202178"><ele>304.0</ele><time>2026-04-18T09:24:02.002Z</time></trkpt><trkpt lat="45.822781333755245" lon="9.22823747362056"><ele>304.0</ele><time>2026-04-18T09:24:03.002Z</time></trkpt><trkpt lat="45.82286426441005" lon="9.228238365465526"><ele>303.59999999999997</ele><time>2026-04-18T09:24:04.002Z</time></trkpt><trkpt lat="45.82294759314478" lon="9.22825229546887"><ele>303.2</ele><time>2026-04-18T09:24:05.002Z</time></trkpt><trkpt lat="45.82303475025555" lon="9.228271186021596"><ele>302.79999999999995</ele><time>2026-04-18T09:24:06.002Z</time></trkpt><trkpt lat="45.82312006340475" lon="9.22831095487872"><ele>302.4</ele><time>2026-04-18T09:24:07.002Z</time></trkpt><trkpt lat="45.82320119489182" lon="9.228376307034777"><ele>302.0</ele><time>2026-04-18T09:24:08.002Z</time></trkpt><trkpt lat="45.82327610613289" lon="9.228463294182497"><ele>302.0</ele><time>2026-04-18T09:24:09.002Z</time></trkpt><trkpt lat="45.82335438993763" lon="9.228555750775717"><ele>302.0</ele><time>2026-04-18T09:24:10.002Z</time></trkpt><trkpt lat="45.8234428695874" lon="9.228634080809035"><ele>302.0</ele><time>2026-04-18T09:24:11.002Z</time></trkpt><trkpt lat="45.8235566564464" lon="9.228691414694147"><ele>302.0</ele><time>2026-04-18T09:24:12.002Z</time></trkpt><trkpt lat="45.82368558894431" lon="9.228687891928994"><ele>302.0</ele><time>2026-04-18T09:24:13.002Z</time></trkpt><trkpt lat="45.82380130933931" lon="9.228693244825134"><ele>302.0</ele><time>2026-04-18T09:24:14.002Z</time></trkpt><trkpt lat="45.823887821548816" lon="9.228691552890632"><ele>302.0</ele><time>2026-04-18T09:24:15.002Z</time></trkpt><trkpt lat="45.82396949825356" lon="9.22871252247395"><ele>302.0</ele><time>2026-04-18T09:24:16.002Z</time></trkpt><trkpt lat="45.824054234771786" lon="9.228708410640637"><ele>302.0</ele><time>2026-04-18T09:24:17.002Z</time></trkpt><trkpt lat="45.82414340456576" lon="9.228708989525106"><ele>302.0</ele><time>2026-04-18T09:24:18.003Z</time></trkpt><trkpt lat="45.82423342486864" lon="9.228711931364328"><ele>302.0</ele><time>2026-04-18T09:24:19.003Z</time></trkpt><trkpt lat="45.82432108749377" lon="9.228715638348401"><ele>302.0</ele><time>2026-04-18T09:24:20.003Z</time></trkpt><trkpt lat="45.82441096229552" lon="9.228700686288605"><ele>302.0</ele><time>2026-04-18T09:24:21.003Z</time></trkpt><trkpt lat="45.82449667123355" lon="9.22870705919207"><ele>302.0</ele><time>2026-04-18T09:24:22.003Z</time></trkpt><trkpt lat="45.82458631725884" lon="9.228711155400555"><ele>302.0</ele><time>2026-04-18T09:24:23.003Z</time></trkpt><trkpt lat="45.82466449596417" lon="9.228719540000604"><ele>301.6</ele><time>2026-04-18T09:24:24Z</time></trkpt><trkpt lat="45.8247676949959" lon="9.228733759960557"><ele>301.2</ele><time>2026-04-18T09:24:25Z</time></trkpt><trkpt lat="45.82486282163993" lon="9.228739563090437"><ele>300.8</ele><time>2026-04-18T09:24:26Z</time></trkpt><trkpt lat="45.824953130664824" lon="9.228748269713769"><ele>300.4</ele><time>2026-04-18T09:24:27Z</time></trkpt><trkpt lat="45.82503914684114" lon="9.228755226340162"><ele>300.0</ele><time>2026-04-18T09:24:28Z</time></trkpt><trkpt lat="45.82512684057203" lon="9.228762336521852"><ele>300.1666666666667</ele><time>2026-04-18T09:24:29Z</time></trkpt><trkpt lat="45.82521814600451" lon="9.228760945469563"><ele>300.3333333333333</ele><time>2026-04-18T09:24:30Z</time></trkpt><trkpt lat="45.82530704347895" lon="9.228749436470787"><ele>300.5</ele><time>2026-04-18T09:24:31Z</time></trkpt><trkpt lat="45.82539633845489" lon="9.228715352566278"><ele>300.66666666666663</ele><time>2026-04-18T09:24:32Z</time></trkpt><trkpt lat="45.82547703544269" lon="9.228670735269962"><ele>300.8333333333333</ele><time>2026-04-18T09:24:33Z</time></trkpt><trkpt lat="45.825554189028516" lon="9.228605837305329"><ele>301.0</ele><time>2026-04-18T09:24:34Z</time></trkpt><trkpt lat="45.82562540253961" lon="9.228522876370977"><ele>301.0</ele><time>2026-04-18T09:24:35Z</time></trkpt><trkpt lat="45.8256933543716" lon="9.228443084588115"><ele>301.0</ele><time>2026-04-18T09:24:36Z</time></trkpt><trkpt lat="45.82575926836698" lon="9.228364599266085"><ele>301.0</ele><time>2026-04-18T09:24:37Z</time></trkpt><trkpt lat="45.82582108893576" lon="9.228289496016812"><ele>301.0</ele><time>2026-04-18T09:24:38Z</time></trkpt><trkpt lat="45.825885411697826" lon="9.228213628636286"><ele>301.0</ele><time>2026-04-18T09:24:39Z</time></trkpt><trkpt lat="45.825946905526465" lon="9.228128450709102"><ele>301.0</ele><time>2026-04-18T09:24:40Z</time></trkpt><trkpt lat="45.82600766574405" lon="9.228040188974333"><ele>301.0</ele><time>2026-04-18T09:24:41Z</time></trkpt><trkpt lat="45.826068034032886" lon="9.227968099332886"><ele>301.0</ele><time>2026-04-18T09:24:42Z</time></trkpt><trkpt lat="45.82613706835783" lon="9.22788595133926"><ele>301.0</ele><time>2026-04-18T09:24:44Z</time></trkpt><trkpt lat="45.82621196914402" lon="9.227800212203483"><ele>301.0</ele><time>2026-04-18T09:24:46Z</time></trkpt><trkpt lat="45.826310331191785" lon="9.227681256338599"><ele>301.0</ele><time>2026-04-18T09:24:48Z</time></trkpt><trkpt lat="45.82636415365569" lon="9.227613545029795"><ele>301.0</ele><time>2026-04-18T09:24:49Z</time></trkpt><trkpt lat="45.82641839475682" lon="9.227542830936786"><ele>301.0</ele><time>2026-04-18T09:24:50Z</time></trkpt><trkpt lat="45.826467844661266" lon="9.227478676125731"><ele>301.0</ele><time>2026-04-18T09:24:51Z</time></trkpt><trkpt lat="45.82655266127023" lon="9.22737549809178"><ele>301.0</ele><time>2026-04-18T09:24:53Z</time></trkpt><trkpt lat="45.826606907133524" lon="9.22731069132547"><ele>301.0</ele><time>2026-04-18T09:24:55.001Z</time></trkpt><trkpt lat="45.82668776626429" lon="9.227244905248497"><ele>301.0</ele><time>2026-04-18T09:25:01.001Z</time></trkpt><trkpt lat="45.826777594950464" lon="9.227160312378626"><ele>301.0</ele><time>2026-04-18T09:25:03.001Z</time></trkpt><trkpt lat="45.82688254564031" lon="9.227079115732591"><ele>301.0</ele><time>2026-04-18T09:25:05.001Z</time></trkpt><trkpt lat="45.82697671952254" lon="9.227010449790493"><ele>301.0</ele><time>2026-04-18T09:25:07.001Z</time></trkpt><trkpt lat="45.82704613920922" lon="9.226959833125598"><ele>301.0</ele><time>2026-04-18T09:25:09.001Z</time></trkpt><trkpt lat="45.82709534853271" lon="9.226898902157794"><ele>301.0</ele><time>2026-04-18T09:25:12.001Z</time></trkpt><trkpt lat="45.82718058713002" lon="9.226866697456586"><ele>301.0</ele><time>2026-04-18T09:25:28.001Z</time></trkpt><trkpt lat="45.82725310933691" lon="9.226823529793265"><ele>301.0</ele><time>2026-04-18T09:25:29.001Z</time></trkpt><trkpt lat="45.82735462177748" lon="9.226803795349962"><ele>301.0</ele><time>2026-04-18T09:25:30.001Z</time></trkpt><trkpt lat="45.827483208736176" lon="9.226822318367875"><ele>301.0</ele><time>2026-04-18T09:25:31.001Z</time></trkpt><trkpt lat="45.82761493221742" lon="9.226817878931127"><ele>301.0</ele><time>2026-04-18T09:25:32.001Z</time></trkpt><trkpt lat="45.82776159514415" lon="9.226832216642142"><ele>301.66666666666663</ele><time>2026-04-18T09:25:33.001Z</time></trkpt><trkpt lat="45.8279228119464" lon="9.226848983791397"><ele>302.3333333333333</ele><time>2026-04-18T09:25:34.001Z</time></trkpt><trkpt lat="45.828089770890784" lon="9.22690397386824"><ele>303.0</ele><time>2026-04-18T09:25:35.001Z</time></trkpt><trkpt lat="45.82825314037082" lon="9.226944445425936"><ele>303.0</ele><time>2026-04-18T09:25:36.001Z</time></trkpt><trkpt lat="45.82843120196782" lon="9.226975017814619"><ele>303.0</ele><time>2026-04-18T09:25:37.002Z</time></trkpt><trkpt lat="45.8286164005957" lon="9.227025178045968"><ele>303.0</ele><time>2026-04-18T09:25:38.002Z</time></trkpt><trkpt lat="45.82880847663198" lon="9.227057980653797"><ele>303.6666666666667</ele><time>2026-04-18T09:25:39.002Z</time></trkpt><trkpt lat="45.82900246588313" lon="9.227042691723737"><ele>304.33333333333337</ele><time>2026-04-18T09:25:40.002Z</time></trkpt><trkpt lat="45.829180456519985" lon="9.226992208888047"><ele>305.0</ele><time>2026-04-18T09:25:41.002Z</time></trkpt><trkpt lat="45.829332425310014" lon="9.226940811591504"><ele>308.0</ele><time>2026-04-18T09:25:42.002Z</time></trkpt><trkpt lat="45.8294728851636" lon="9.226849263022835"><ele>311.0</ele><time>2026-04-18T09:25:43.002Z</time></trkpt><trkpt lat="45.829596929282495" lon="9.226703899446093"><ele>314.0</ele><time>2026-04-18T09:25:44.002Z</time></trkpt><trkpt lat="45.82970572139103" lon="9.22655445136238"><ele>314.25</ele><time>2026-04-18T09:25:45.002Z</time></trkpt><trkpt lat="45.82979396791426" lon="9.226433177924934"><ele>314.5</ele><time>2026-04-18T09:25:46.002Z</time></trkpt><trkpt lat="45.82993010131947" lon="9.226419820699354"><ele>314.75</ele><time>2026-04-18T09:25:47.002Z</time></trkpt><trkpt lat="45.83006771212014" lon="9.22637625534124"><ele>315.0</ele><time>2026-04-18T09:25:48.002Z</time></trkpt><trkpt lat="45.830223801880095" lon="9.226420845203464"><ele>316.3333333333333</ele><time>2026-04-18T09:25:49.002Z</time></trkpt><trkpt lat="45.830387882377096" lon="9.226430777714933"><ele>317.66666666666663</ele><time>2026-04-18T09:25:50.002Z</time></trkpt><trkpt lat="45.83054282355478" lon="9.226427092570365"><ele>319.0</ele><time>2026-04-18T09:25:51.002Z</time></trkpt><trkpt lat="45.83067763815647" lon="9.226458295900242"><ele>319.0</ele><time>2026-04-18T09:25:52.002Z</time></trkpt><trkpt lat="45.83080168795323" lon="9.226440665502917"><ele>319.0</ele><time>2026-04-18T09:25:53.002Z</time></trkpt><trkpt lat="45.83092167352751" lon="9.2264738676346"><ele>319.0</ele><time>2026-04-18T09:25:54.002Z</time></trkpt><trkpt lat="45.83105305711098" lon="9.226458372440376"><ele>319.0</ele><time>2026-04-18T09:25:55.002Z</time></trkpt><trkpt lat="45.831192423573405" lon="9.226508526684807"><ele>320.3333333333333</ele><time>2026-04-18T09:25:56.002Z</time></trkpt><trkpt lat="45.8313218490864" lon="9.226604413933334"><ele>321.6666666666667</ele><time>2026-04-18T09:25:57.002Z</time></trkpt><trkpt lat="45.83146117390768" lon="9.226708983040648"><ele>323.0</ele><time>2026-04-18T09:25:58.002Z</time></trkpt><trkpt lat="45.83160243633475" lon="9.226833439285524"><ele>323.0</ele><time>2026-04-18T09:25:59.002Z</time></trkpt><trkpt lat="45.83173340196123" lon="9.22696232507707"><ele>323.0</ele><time>2026-04-18T09:26:00.002Z</time></trkpt><trkpt lat="45.83184347037809" lon="9.22707264626105"><ele>323.0</ele><time>2026-04-18T09:26:01.002Z</time></trkpt><trkpt lat="45.8319323935022" lon="9.2271607524978"><ele>323.0</ele><time>2026-04-18T09:26:02.002Z</time></trkpt><trkpt lat="45.83201154308792" lon="9.22723164220613"><ele>324.4</ele><time>2026-04-18T09:26:03.002Z</time></trkpt><trkpt lat="45.83208187198136" lon="9.227273126651914"><ele>325.79999999999995</ele><time>2026-04-18T09:26:04.002Z</time></trkpt><trkpt lat="45.8321668225629" lon="9.227359033144202"><ele>327.2</ele><time>2026-04-18T09:26:06.002Z</time></trkpt><trkpt lat="45.832239370587864" lon="9.227420441162563"><ele>328.6</ele><time>2026-04-18T09:26:09.002Z</time></trkpt><trkpt lat="45.83236567145674" lon="9.227339226059692"><ele>330.0</ele><time>2026-04-18T09:26:11.002Z</time></trkpt><trkpt lat="45.83242615094787" lon="9.227240648254876"><ele>330.0</ele><time>2026-04-18T09:26:12.002Z</time></trkpt><trkpt lat="45.83248892416367" lon="9.227110124848608"><ele>330.0</ele><time>2026-04-18T09:26:13.002Z</time></trkpt><trkpt lat="45.83256146271185" lon="9.226983347022614"><ele>330.0</ele><time>2026-04-18T09:26:14.002Z</time></trkpt><trkpt lat="45.832619524468775" lon="9.22685704569143"><ele>330.0</ele><time>2026-04-18T09:26:15.002Z</time></trkpt><trkpt lat="45.8326761217832" lon="9.226722320112351"><ele>330.0</ele><time>2026-04-18T09:26:16.002Z</time></trkpt><trkpt lat="45.83274667773714" lon="9.226603436592361"><ele>331.6</ele><time>2026-04-18T09:26:17.002Z</time></trkpt><trkpt lat="45.832817368607756" lon="9.226529949047666"><ele>333.2</ele><time>2026-04-18T09:26:18.003Z</time></trkpt><trkpt lat="45.83289491163604" lon="9.226488125242833"><ele>334.79999999999995</ele><time>2026-04-18T09:26:19.003Z</time></trkpt><trkpt lat="45.83297727091127" lon="9.226457065761075"><ele>336.4</ele><time>2026-04-18T09:26:20.003Z</time></trkpt><trkpt lat="45.83307509215752" lon="9.226441891211397"><ele>338.0</ele><time>2026-04-18T09:26:21.003Z</time></trkpt><trkpt lat="45.83317914275079" lon="9.226459102953648"><ele>337.59999999999997</ele><time>2026-04-18T09:26:22.003Z</time></trkpt><trkpt lat="45.83328335560151" lon="9.226498329721794"><ele>337.2</ele><time>2026-04-18T09:26:23.003Z</time></trkpt><trkpt lat="45.83338710418856" lon="9.226548916028653"><ele>336.8</ele><time>2026-04-18T09:26:24.003Z</time></trkpt><trkpt lat="45.83348898566561" lon="9.226600526370648"><ele>336.4</ele><time>2026-04-18T09:26:25.003Z</time></trkpt><trkpt lat="45.83358040638247" lon="9.226648868697987"><ele>336.0</ele><time>2026-04-18T09:26:26.003Z</time></trkpt><trkpt lat="45.83367030275166" lon="9.226693784536172"><ele>336.0</ele><time>2026-04-18T09:26:27.003Z</time></trkpt><trkpt lat="45.83375312826945" lon="9.22673679658796"><ele>336.0</ele><time>2026-04-18T09:26:28.003Z</time></trkpt><trkpt lat="45.83383151675076" lon="9.226773631791668"><ele>336.0</ele><time>2026-04-18T09:26:29.003Z</time></trkpt><trkpt lat="45.83390601745253" lon="9.226806596534555"><ele>336.0</ele><time>2026-04-18T09:26:30Z</time></trkpt><trkpt lat="45.83399853803111" lon="9.226850658246425"><ele>336.0</ele><time>2026-04-18T09:26:32Z</time></trkpt><trkpt lat="45.834066623766425" lon="9.226790954164407"><ele>336.0</ele><time>2026-04-18T09:26:44Z</time></trkpt><trkpt lat="45.83414762315385" lon="9.226989078992636"><ele>336.0</ele><time>2026-04-18T09:26:45Z</time></trkpt><trkpt lat="45.83420155559931" lon="9.22711176159148"><ele>336.0</ele><time>2026-04-18T09:26:46Z</time></trkpt><trkpt lat="45.834251610834826" lon="9.227245099994484"><ele>336.0</ele><time>2026-04-18T09:26:47Z</time></trkpt><trkpt lat="45.834305167884914" lon="9.227392333575278"><ele>336.0</ele><time>2026-04-18T09:26:48Z</time></trkpt><trkpt lat="45.83436337366796" lon="9.2275530134467"><ele>336.0</ele><time>2026-04-18T09:26:49Z</time></trkpt><trkpt lat="45.834423679087664" lon="9.227716653147569"><ele>334.0</ele><time>2026-04-18T09:26:50Z</time></trkpt><trkpt lat="45.83446527689536" lon="9.22791287379659"><ele>332.0</ele><time>2026-04-18T09:26:51Z</time></trkpt><trkpt lat="45.834507519918695" lon="9.22811729118907"><ele>330.0</ele><time>2026-04-18T09:26:52Z</time></trkpt><trkpt lat="45.83454509718399" lon="9.22833677209605"><ele>328.0</ele><time>2026-04-18T09:26:53Z</time></trkpt><trkpt lat="45.834579693891655" lon="9.228557920762011"><ele>328.0</ele><time>2026-04-18T09:26:54Z</time></trkpt><trkpt lat="45.83461361555097" lon="9.22875978366053"><ele>328.0</ele><time>2026-04-18T09:26:55Z</time></trkpt><trkpt lat="45.834647744062174" lon="9.228962062450691"><ele>328.0</ele><time>2026-04-18T09:26:56Z</time></trkpt><trkpt lat="45.83468378206905" lon="9.229170660193939"><ele>328.0</ele><time>2026-04-18T09:26:57.001Z</time></trkpt><trkpt lat="45.83471945680608" lon="9.229377154609109"><ele>328.25</ele><time>2026-04-18T09:26:58.001Z</time></trkpt><trkpt lat="45.834754862498535" lon="9.229580909770705"><ele>328.5</ele><time>2026-04-18T09:26:59.001Z</time></trkpt><trkpt lat="45.83479040485703" lon="9.229784971242946"><ele>328.75</ele><time>2026-04-18T09:27:00.001Z</time></trkpt><trkpt lat="45.83482489845888" lon="9.229982254517287"><ele>329.0</ele><time>2026-04-18T09:27:01.001Z</time></trkpt><trkpt lat="45.834858997849025" lon="9.230173369679957"><ele>331.0</ele><time>2026-04-18T09:27:02.001Z</time></trkpt><trkpt lat="45.83489273075364" lon="9.230362430852693"><ele>333.0</ele><time>2026-04-18T09:27:03.001Z</time></trkpt><trkpt lat="45.834926311089056" lon="9.230550636926093"><ele>335.0</ele><time>2026-04-18T09:27:04.001Z</time></trkpt><trkpt lat="45.83495896229196" lon="9.230733235211726"><ele>337.0</ele><time>2026-04-18T09:27:05.001Z</time></trkpt><trkpt lat="45.83498982758342" lon="9.23090505716796"><ele>338.40000000000003</ele><time>2026-04-18T09:27:06.001Z</time></trkpt><trkpt lat="45.835018415438704" lon="9.231064201005346"><ele>339.8</ele><time>2026-04-18T09:27:07.001Z</time></trkpt><trkpt lat="45.83504700805852" lon="9.231223371371819"><ele>341.2</ele><time>2026-04-18T09:27:08.001Z</time></trkpt><trkpt lat="45.83509024861548" lon="9.23137023688863"><ele>342.6</ele><time>2026-04-18T09:27:09.001Z</time></trkpt><trkpt lat="45.835108897947926" lon="9.231510589431938"><ele>344.0</ele><time>2026-04-18T09:27:10.001Z</time></trkpt><trkpt lat="45.835136580114295" lon="9.231641660559653"><ele>341.79999999999995</ele><time>2026-04-18T09:27:11.001Z</time></trkpt><trkpt lat="45.835160147815664" lon="9.231781065444043"><ele>339.59999999999997</ele><time>2026-04-18T09:27:12.001Z</time></trkpt><trkpt lat="45.835180113012406" lon="9.231907124509865"><ele>337.4</ele><time>2026-04-18T09:27:13.001Z</time></trkpt><trkpt lat="45.83520485137556" lon="9.232031621483484"><ele>335.2</ele><time>2026-04-18T09:27:14.001Z</time></trkpt><trkpt lat="45.835230602668815" lon="9.2321694792595"><ele>333.0</ele><time>2026-04-18T09:27:15.001Z</time></trkpt><trkpt lat="45.83524977412623" lon="9.232325256122218"><ele>333.0</ele><time>2026-04-18T09:27:16.001Z</time></trkpt><trkpt lat="45.83526845862713" lon="9.232496194778264"><ele>333.0</ele><time>2026-04-18T09:27:17.001Z</time></trkpt><trkpt lat="45.835285876559595" lon="9.232675585519145"><ele>333.0</ele><time>2026-04-18T09:27:18.001Z</time></trkpt><trkpt lat="45.83530504144295" lon="9.232876551039098"><ele>333.0</ele><time>2026-04-18T09:27:19.001Z</time></trkpt><trkpt lat="45.83532836314846" lon="9.233087798214891"><ele>334.6666666666667</ele><time>2026-04-18T09:27:20.001Z</time></trkpt><trkpt lat="45.83535330545413" lon="9.233309483786147"><ele>336.33333333333337</ele><time>2026-04-18T09:27:21.001Z</time></trkpt><trkpt lat="45.83537670030483" lon="9.233526922813278"><ele>338.0</ele><time>2026-04-18T09:27:22.001Z</time></trkpt><trkpt lat="45.83538465051319" lon="9.233732863304308"><ele>338.0</ele><time>2026-04-18T09:27:23.001Z</time></trkpt><trkpt lat="45.83541039948824" lon="9.23393482292292"><ele>338.0</ele><time>2026-04-18T09:27:24.001Z</time></trkpt><trkpt lat="45.83544069303522" lon="9.234138987677225"><ele>338.0</ele><time>2026-04-18T09:27:25.001Z</time></trkpt><trkpt lat="45.83547826154021" lon="9.234348956399893"><ele>338.0</ele><time>2026-04-18T09:27:26.001Z</time></trkpt><trkpt lat="45.835516762713645" lon="9.234553909088282"><ele>340.0</ele><time>2026-04-18T09:27:27.001Z</time></trkpt><trkpt lat="45.83555132739431" lon="9.234759886392855"><ele>342.0</ele><time>2026-04-18T09:27:28.001Z</time></trkpt><trkpt lat="45.83557989688192" lon="9.234964764540878"><ele>344.0</ele><time>2026-04-18T09:27:29.001Z</time></trkpt><trkpt lat="45.83562037388963" lon="9.235168043393166"><ele>346.0</ele><time>2026-04-18T09:27:30.001Z</time></trkpt><trkpt lat="45.83564401270336" lon="9.23537794096516"><ele>346.0</ele><time>2026-04-18T09:27:31.001Z</time></trkpt><trkpt lat="45.83566879132619" lon="9.235585836430174"><ele>346.0</ele><time>2026-04-18T09:27:32.001Z</time></trkpt><trkpt lat="45.83568928636222" lon="9.235791220950052"><ele>346.0</ele><time>2026-04-18T09:27:33.001Z</time></trkpt><trkpt lat="45.83570785866101" lon="9.235980445892395"><ele>346.0</ele><time>2026-04-18T09:27:34.001Z</time></trkpt><trkpt lat="45.83572547563541" lon="9.236162671639269"><ele>346.25</ele><time>2026-04-18T09:27:35.001Z</time></trkpt><trkpt lat="45.835753114863195" lon="9.236345864346692"><ele>346.5</ele><time>2026-04-18T09:27:36.001Z</time></trkpt><trkpt lat="45.8357902587423" lon="9.236526134970461"><ele>346.75</ele><time>2026-04-18T09:27:37.001Z</time></trkpt><trkpt lat="45.83583930096365" lon="9.236710423627777"><ele>347.0</ele><time>2026-04-18T09:27:38.001Z</time></trkpt><trkpt lat="45.8359029382992" lon="9.236892070406807"><ele>349.33333333333337</ele><time>2026-04-18T09:27:39.001Z</time></trkpt><trkpt lat="45.83597465687288" lon="9.237075716687642"><ele>351.6666666666667</ele><time>2026-04-18T09:27:40.001Z</time></trkpt><trkpt lat="45.836049108934674" lon="9.23726536011014"><ele>354.0</ele><time>2026-04-18T09:27:41.002Z</time></trkpt><trkpt lat="45.83612619779467" lon="9.237468605824189"><ele>354.0</ele><time>2026-04-18T09:27:42.002Z</time></trkpt><trkpt lat="45.83620296647111" lon="9.237676189159705"><ele>354.0</ele><time>2026-04-18T09:27:43.002Z</time></trkpt><trkpt lat="45.83628229162015" lon="9.237892938426578"><ele>354.0</ele><time>2026-04-18T09:27:44.002Z</time></trkpt><trkpt lat="45.83636207934475" lon="9.238117856156027"><ele>353.0</ele><time>2026-04-18T09:27:45.002Z</time></trkpt><trkpt lat="45.83643943724372" lon="9.238333138254191"><ele>352.0</ele><time>2026-04-18T09:27:46.002Z</time></trkpt><trkpt lat="45.83651291414313" lon="9.238529247953958"><ele>351.0</ele><time>2026-04-18T09:27:47.002Z</time></trkpt><trkpt lat="45.83658439728603" lon="9.23872215227276"><ele>351.0</ele><time>2026-04-18T09:27:48.002Z</time></trkpt><trkpt lat="45.836651344528526" lon="9.23891048786222"><ele>351.0</ele><time>2026-04-18T09:27:49.002Z</time></trkpt><trkpt lat="45.83671281168" lon="9.23909394970393"><ele>351.0</ele><time>2026-04-18T09:27:50.002Z</time></trkpt><trkpt lat="45.83677219793469" lon="9.239281898580648"><ele>351.0</ele><time>2026-04-18T09:27:51.002Z</time></trkpt><trkpt lat="45.83683074650303" lon="9.239472600676878"><ele>349.6666666666667</ele><time>2026-04-18T09:27:52.002Z</time></trkpt><trkpt lat="45.83686856295624" lon="9.239681038253769"><ele>348.33333333333337</ele><time>2026-04-18T09:27:53.002Z</time></trkpt><trkpt lat="45.83693136850071" lon="9.239875367724702"><ele>347.0</ele><time>2026-04-18T09:27:54.002Z</time></trkpt><trkpt lat="45.836979328850745" lon="9.240086948714636"><ele>347.0</ele><time>2026-04-18T09:27:55.002Z</time></trkpt><trkpt lat="45.83701108393576" lon="9.240304276407203"><ele>347.0</ele><time>2026-04-18T09:27:56.002Z</time></trkpt><trkpt lat="45.8370571650559" lon="9.240519938090124"><ele>347.0</ele><time>2026-04-18T09:27:57.002Z</time></trkpt><trkpt lat="45.83710481406879" lon="9.240728413110853"><ele>344.6666666666667</ele><time>2026-04-18T09:27:58.002Z</time></trkpt><trkpt lat="45.837156457595626" lon="9.240934559941177"><ele>342.3333333333333</ele><time>2026-04-18T09:27:59.002Z</time></trkpt><trkpt lat="45.83722909238981" lon="9.241122262939564"><ele>340.0</ele><time>2026-04-18T09:28:00.002Z</time></trkpt><trkpt lat="45.83729608950214" lon="9.241319639887458"><ele>340.3333333333333</ele><time>2026-04-18T09:28:01.002Z</time></trkpt><trkpt lat="45.83737266059557" lon="9.241509247544391"><ele>340.6666666666667</ele><time>2026-04-18T09:28:02.002Z</time></trkpt><trkpt lat="45.83744360545363" lon="9.241713938021448"><ele>341.0</ele><time>2026-04-18T09:28:03.002Z</time></trkpt><trkpt lat="45.83755032883105" lon="9.241894073491057"><ele>341.25</ele><time>2026-04-18T09:28:04.002Z</time></trkpt><trkpt lat="45.837635526981344" lon="9.242065753953355"><ele>341.5</ele><time>2026-04-18T09:28:05.002Z</time></trkpt><trkpt lat="45.837717223549035" lon="9.24222374596436"><ele>341.75</ele><time>2026-04-18T09:28:06.002Z</time></trkpt><trkpt lat="45.83778784030328" lon="9.242377954125983"><ele>342.0</ele><time>2026-04-18T09:28:07.002Z</time></trkpt><trkpt lat="45.837882097027645" lon="9.242474255419591"><ele>342.0</ele><time>2026-04-18T09:28:08.002Z</time></trkpt><trkpt lat="45.837964253781244" lon="9.242576713312696"><ele>342.0</ele><time>2026-04-18T09:28:09.002Z</time></trkpt><trkpt lat="45.83804477516955" lon="9.242670360754598"><ele>342.0</ele><time>2026-04-18T09:28:10.002Z</time></trkpt><trkpt lat="45.83812426140279" lon="9.242774450151671"><ele>342.0</ele><time>2026-04-18T09:28:11.002Z</time></trkpt><trkpt lat="45.838204241237214" lon="9.242887962711913"><ele>342.0</ele><time>2026-04-18T09:28:12.002Z</time></trkpt><trkpt lat="45.83828318055596" lon="9.243001112241073"><ele>342.0</ele><time>2026-04-18T09:28:13.002Z</time></trkpt><trkpt lat="45.83835595197047" lon="9.24311561527077"><ele>342.0</ele><time>2026-04-18T09:28:14.002Z</time></trkpt><trkpt lat="45.83842606620924" lon="9.243241511828403"><ele>342.0</ele><time>2026-04-18T09:28:15.002Z</time></trkpt><trkpt lat="45.838489354983196" lon="9.243390311028818"><ele>342.0</ele><time>2026-04-18T09:28:16.002Z</time></trkpt><trkpt lat="45.838527429050515" lon="9.243593351494727"><ele>342.3333333333333</ele><time>2026-04-18T09:28:17.002Z</time></trkpt><trkpt lat="45.83855472618524" lon="9.243834492578914"><ele>342.66666666666663</ele><time>2026-04-18T09:28:18.002Z</time></trkpt><trkpt lat="45.83858781388087" lon="9.24410496177699"><ele>343.0</ele><time>2026-04-18T09:28:19.002Z</time></trkpt><trkpt lat="45.8386289077494" lon="9.244367015627516"><ele>343.0</ele><time>2026-04-18T09:28:20.002Z</time></trkpt><trkpt lat="45.83868248250076" lon="9.244640437582742"><ele>343.0</ele><time>2026-04-18T09:28:21.002Z</time></trkpt><trkpt lat="45.838740385487206" lon="9.244929422508301"><ele>343.0</ele><time>2026-04-18T09:28:22.002Z</time></trkpt><trkpt lat="45.838791222319934" lon="9.245186464345794"><ele>343.5</ele><time>2026-04-18T09:28:23.003Z</time></trkpt><trkpt lat="45.8388312056296" lon="9.245411021538866"><ele>344.0</ele><time>2026-04-18T09:28:24.003Z</time></trkpt><trkpt lat="45.83887155575819" lon="9.24560771453583"><ele>344.5</ele><time>2026-04-18T09:28:25.003Z</time></trkpt><trkpt lat="45.83891637530276" lon="9.245790543143677"><ele>345.0</ele><time>2026-04-18T09:28:26.003Z</time></trkpt><trkpt lat="45.83897107243371" lon="9.245963694485258"><ele>345.75</ele><time>2026-04-18T09:28:27.003Z</time></trkpt><trkpt lat="45.83903394505584" lon="9.246131040193625"><ele>346.5</ele><time>2026-04-18T09:28:28.003Z</time></trkpt><trkpt lat="45.83909419252767" lon="9.246296936883072"><ele>347.25</ele><time>2026-04-18T09:28:29.003Z</time></trkpt><trkpt lat="45.83915428622188" lon="9.246446955915223"><ele>348.0</ele><time>2026-04-18T09:28:30.003Z</time></trkpt><trkpt lat="45.83921090828085" lon="9.246583051342725"><ele>348.1666666666667</ele><time>2026-04-18T09:28:31.003Z</time></trkpt><trkpt lat="45.8392618857724" lon="9.246706003180039"><ele>348.3333333333333</ele><time>2026-04-18T09:28:32.003Z</time></trkpt><trkpt lat="45.83930845310181" lon="9.246809728506285"><ele>348.5</ele><time>2026-04-18T09:28:33.003Z</time></trkpt><trkpt lat="45.83935005589642" lon="9.24691799403273"><ele>348.66666666666663</ele><time>2026-04-18T09:28:34.003Z</time></trkpt><trkpt lat="45.83939517836703" lon="9.24701909274918"><ele>348.8333333333333</ele><time>2026-04-18T09:28:35.003Z</time></trkpt><trkpt lat="45.83942867525449" lon="9.247109371696672"><ele>349.0</ele><time>2026-04-18T09:28:36Z</time></trkpt><trkpt lat="45.83946243650548" lon="9.247187325867998"><ele>349.79999999999995</ele><time>2026-04-18T09:28:37Z</time></trkpt><trkpt lat="45.839525700943724" lon="9.247342269824486"><ele>350.59999999999997</ele><time>2026-04-18T09:28:39Z</time></trkpt><trkpt lat="45.83956146953543" lon="9.247427605984534"><ele>351.4</ele><time>2026-04-18T09:28:40Z</time></trkpt><trkpt lat="45.83962582502422" lon="9.247584173801249"><ele>352.2</ele><time>2026-04-18T09:28:42Z</time></trkpt><trkpt lat="45.839640522393594" lon="9.24769082702505"><ele>353.0</ele><time>2026-04-18T09:28:43Z</time></trkpt><trkpt lat="45.839691148808676" lon="9.247787516719972"><ele>353.0</ele><time>2026-04-18T09:28:44Z</time></trkpt><trkpt lat="45.83972992373699" lon="9.247901855890527"><ele>353.0</ele><time>2026-04-18T09:28:45Z</time></trkpt><trkpt lat="45.8397702985367" lon="9.248022890351015"><ele>353.0</ele><time>2026-04-18T09:28:46Z</time></trkpt><trkpt lat="45.839807871924826" lon="9.248152625674834"><ele>353.0</ele><time>2026-04-18T09:28:47Z</time></trkpt><trkpt lat="45.839847983641725" lon="9.248290424800993"><ele>353.0</ele><time>2026-04-18T09:28:48Z</time></trkpt><trkpt lat="45.8399059643643" lon="9.24841893633754"><ele>353.0</ele><time>2026-04-18T09:28:49Z</time></trkpt><trkpt lat="45.83996973490288" lon="9.248558698132209"><ele>353.0</ele><time>2026-04-18T09:28:50Z</time></trkpt><trkpt lat="45.84003823381288" lon="9.248701496133755"><ele>353.0</ele><time>2026-04-18T09:28:51Z</time></trkpt><trkpt lat="45.840106735319324" lon="9.248848639984594"><ele>353.0</ele><time>2026-04-18T09:28:52Z</time></trkpt><trkpt lat="45.8401759378844" lon="9.248998395573581"><ele>352.59999999999997</ele><time>2026-04-18T09:28:53Z</time></trkpt><trkpt lat="45.84023652403538" lon="9.249136627632517"><ele>352.2</ele><time>2026-04-18T09:28:54Z</time></trkpt><trkpt lat="45.8402872067042" lon="9.249258226704763"><ele>351.8</ele><time>2026-04-18T09:28:55Z</time></trkpt><trkpt lat="45.84033264146593" lon="9.249366812283174"><ele>351.4</ele><time>2026-04-18T09:28:56Z</time></trkpt><trkpt lat="45.84037315678373" lon="9.249463658480328"><ele>351.0</ele><time>2026-04-18T09:28:57Z</time></trkpt><trkpt lat="45.840414001399694" lon="9.249559258857971"><ele>351.0</ele><time>2026-04-18T09:28:58.001Z</time></trkpt><trkpt lat="45.840456331221645" lon="9.249660050847716"><ele>351.0</ele><time>2026-04-18T09:28:59.001Z</time></trkpt><trkpt lat="45.840504716502195" lon="9.249769522255614"><ele>351.0</ele><time>2026-04-18T09:29:00.001Z</time></trkpt><trkpt lat="45.84055426469834" lon="9.24988836369754"><ele>351.0</ele><time>2026-04-18T09:29:01.001Z</time></trkpt><trkpt lat="45.840608849825756" lon="9.250010578679152"><ele>351.0</ele><time>2026-04-18T09:29:02.001Z</time></trkpt><trkpt lat="45.84066134370452" lon="9.250139373600199"><ele>351.20000000000005</ele><time>2026-04-18T09:29:03.001Z</time></trkpt><trkpt lat="45.84071704353628" lon="9.25026651190984"><ele>351.40000000000003</ele><time>2026-04-18T09:29:04.001Z</time></trkpt><trkpt lat="45.84075948888249" lon="9.250408444548805"><ele>351.6</ele><time>2026-04-18T09:29:05.001Z</time></trkpt><trkpt lat="45.84081724202486" lon="9.250544748688885"><ele>351.8</ele><time>2026-04-18T09:29:06.001Z</time></trkpt><trkpt lat="45.84087867217935" lon="9.250680424565743"><ele>352.0</ele><time>2026-04-18T09:29:07.001Z</time></trkpt><trkpt lat="45.84094263775246" lon="9.250814226363492"><ele>351.8</ele><time>2026-04-18T09:29:08.001Z</time></trkpt><trkpt lat="45.841011841090086" lon="9.250946793628481"><ele>351.6</ele><time>2026-04-18T09:29:09.001Z</time></trkpt><trkpt lat="45.84108243353242" lon="9.251068908398858"><ele>351.40000000000003</ele><time>2026-04-18T09:29:10.001Z</time></trkpt><trkpt lat="45.84115371093369" lon="9.251184318282268"><ele>351.20000000000005</ele><time>2026-04-18T09:29:11.001Z</time></trkpt><trkpt lat="45.84122333383795" lon="9.251285275356892"><ele>351.0</ele><time>2026-04-18T09:29:12.001Z</time></trkpt><trkpt lat="45.8412945054209" lon="9.25138609829861"><ele>351.6</ele><time>2026-04-18T09:29:13.001Z</time></trkpt><trkpt lat="45.841362143869574" lon="9.251477599414383"><ele>352.20000000000005</ele><time>2026-04-18T09:29:14.001Z</time></trkpt><trkpt lat="45.84143026151017" lon="9.251566119716712"><ele>352.79999999999995</ele><time>2026-04-18T09:29:15.001Z</time></trkpt><trkpt lat="45.841499302809034" lon="9.251653406433746"><ele>353.4</ele><time>2026-04-18T09:29:16.001Z</time></trkpt><trkpt lat="45.84156630373557" lon="9.251737653038814"><ele>354.0</ele><time>2026-04-18T09:29:17.001Z</time></trkpt><trkpt lat="45.84162965299822" lon="9.25181730805342"><ele>354.0</ele><time>2026-04-18T09:29:18.001Z</time></trkpt><trkpt lat="45.84169392875529" lon="9.2518971685911"><ele>354.0</ele><time>2026-04-18T09:29:19.001Z</time></trkpt><trkpt lat="45.84175925679479" lon="9.25197844684454"><ele>354.0</ele><time>2026-04-18T09:29:20.001Z</time></trkpt><trkpt lat="45.84182616556986" lon="9.252061211412643"><ele>354.0</ele><time>2026-04-18T09:29:21.001Z</time></trkpt><trkpt lat="45.84189480115456" lon="9.252147124991371"><ele>354.0</ele><time>2026-04-18T09:29:22.001Z</time></trkpt><trkpt lat="45.841966365812674" lon="9.252236334282646"><ele>354.0</ele><time>2026-04-18T09:29:23.001Z</time></trkpt><trkpt lat="45.84204473942828" lon="9.252334031324294"><ele>353.79999999999995</ele><time>2026-04-18T09:29:24.001Z</time></trkpt><trkpt lat="45.84212596052782" lon="9.252435277914813"><ele>353.59999999999997</ele><time>2026-04-18T09:29:25.001Z</time></trkpt><trkpt lat="45.842209451598585" lon="9.252539354154337"><ele>353.4</ele><time>2026-04-18T09:29:26.001Z</time></trkpt><trkpt lat="45.84229542374891" lon="9.252646547122254"><ele>353.2</ele><time>2026-04-18T09:29:27.001Z</time></trkpt><trkpt lat="45.842379730184895" lon="9.25275424474775"><ele>353.0</ele><time>2026-04-18T09:29:28.001Z</time></trkpt><trkpt lat="45.842469531030645" lon="9.252876769645704"><ele>353.0</ele><time>2026-04-18T09:29:29.001Z</time></trkpt><trkpt lat="45.842549413303544" lon="9.253002646324221"><ele>353.0</ele><time>2026-04-18T09:29:30.001Z</time></trkpt><trkpt lat="45.842615017450015" lon="9.253131927193644"><ele>353.0</ele><time>2026-04-18T09:29:31.001Z</time></trkpt><trkpt lat="45.84267712757234" lon="9.253254322689688"><ele>353.0</ele><time>2026-04-18T09:29:32.001Z</time></trkpt><trkpt lat="45.8427542568655" lon="9.25340398207022"><ele>354.0</ele><time>2026-04-18T09:29:33.001Z</time></trkpt><trkpt lat="45.842838232613346" lon="9.253524338597062"><ele>355.0</ele><time>2026-04-18T09:29:34.001Z</time></trkpt><trkpt lat="45.8429475768978" lon="9.253680785939864"><ele>356.0</ele><time>2026-04-18T09:29:35.001Z</time></trkpt><trkpt lat="45.843069164632006" lon="9.253763352886383"><ele>357.0</ele><time>2026-04-18T09:29:36.001Z</time></trkpt><trkpt lat="45.84316637939374" lon="9.253841535558358"><ele>357.0</ele><time>2026-04-18T09:29:37.001Z</time></trkpt><trkpt lat="45.843266373130476" lon="9.253920764880313"><ele>357.0</ele><time>2026-04-18T09:29:38.001Z</time></trkpt><trkpt lat="45.84336000640373" lon="9.253991000662358"><ele>357.0</ele><time>2026-04-18T09:29:39.001Z</time></trkpt><trkpt lat="45.843456605243595" lon="9.254082704863038"><ele>357.0</ele><time>2026-04-18T09:29:40.001Z</time></trkpt><trkpt lat="45.843555725522585" lon="9.254180012964342"><ele>356.75</ele><time>2026-04-18T09:29:41.001Z</time></trkpt><trkpt lat="45.8436607360873" lon="9.254287000053647"><ele>356.5</ele><time>2026-04-18T09:29:42.001Z</time></trkpt><trkpt lat="45.84377954338893" lon="9.254384209824732"><ele>356.25</ele><time>2026-04-18T09:29:43.001Z</time></trkpt><trkpt lat="45.84389064980618" lon="9.254504935008352"><ele>356.0</ele><time>2026-04-18T09:29:44.001Z</time></trkpt><trkpt lat="45.84400374485443" lon="9.254633573931418"><ele>356.0</ele><time>2026-04-18T09:29:45.002Z</time></trkpt><trkpt lat="45.84411769065626" lon="9.254763254549275"><ele>356.0</ele><time>2026-04-18T09:29:46.002Z</time></trkpt><trkpt lat="45.844232909506246" lon="9.254887073849876"><ele>356.0</ele><time>2026-04-18T09:29:47.002Z</time></trkpt><trkpt lat="45.84433588453042" lon="9.25499836793721"><ele>356.0</ele><time>2026-04-18T09:29:48.002Z</time></trkpt><trkpt lat="45.84443613324165" lon="9.25510823484335"><ele>357.0</ele><time>2026-04-18T09:29:49.002Z</time></trkpt><trkpt lat="45.84453395383518" lon="9.255222861079794"><ele>358.0</ele><time>2026-04-18T09:29:50.002Z</time></trkpt><trkpt lat="45.84463319158977" lon="9.255322534232187"><ele>359.0</ele><time>2026-04-18T09:29:51.002Z</time></trkpt><trkpt lat="45.84472831168222" lon="9.255432927197706"><ele>360.0</ele><time>2026-04-18T09:29:52.002Z</time></trkpt><trkpt lat="45.84482442172787" lon="9.25553679436834"><ele>360.0</ele><time>2026-04-18T09:29:53.002Z</time></trkpt><trkpt lat="45.84491889639072" lon="9.25563314064889"><ele>360.0</ele><time>2026-04-18T09:29:54.002Z</time></trkpt><trkpt lat="45.845013208944586" lon="9.255739354003355"><ele>360.0</ele><time>2026-04-18T09:29:55.002Z</time></trkpt><trkpt lat="45.84509683520258" lon="9.25583610546094"><ele>360.0</ele><time>2026-04-18T09:29:56.002Z</time></trkpt><trkpt lat="45.84517757932802" lon="9.255922134846779"><ele>360.0</ele><time>2026-04-18T09:29:57.002Z</time></trkpt><trkpt lat="45.845249085093606" lon="9.255999546272928"><ele>360.0</ele><time>2026-04-18T09:29:58.002Z</time></trkpt><trkpt lat="45.84530947588097" lon="9.256066039397467"><ele>360.0</ele><time>2026-04-18T09:29:59.002Z</time></trkpt><trkpt lat="45.84536223518806" lon="9.25611996975648"><ele>360.0</ele><time>2026-04-18T09:30:00.002Z</time></trkpt><trkpt lat="45.84544730334419" lon="9.256219619831294"><ele>360.0</ele><time>2026-04-18T09:30:02.002Z</time></trkpt><trkpt lat="45.84553211484956" lon="9.256311541573028"><ele>360.0</ele><time>2026-04-18T09:30:04.002Z</time></trkpt><trkpt lat="45.84560071084988" lon="9.256420817256865"><ele>360.1666666666667</ele><time>2026-04-18T09:30:06.002Z</time></trkpt><trkpt lat="45.845640435933745" lon="9.256492990508084"><ele>360.3333333333333</ele><time>2026-04-18T09:30:07.002Z</time></trkpt><trkpt lat="45.8456965467117" lon="9.256549521114092"><ele>360.5</ele><time>2026-04-18T09:30:08.002Z</time></trkpt><trkpt lat="45.845766958267234" lon="9.256601387503407"><ele>360.66666666666663</ele><time>2026-04-18T09:30:09.002Z</time></trkpt><trkpt lat="45.84584454401879" lon="9.256655344713813"><ele>360.8333333333333</ele><time>2026-04-18T09:30:10.002Z</time></trkpt><trkpt lat="45.84591753978626" lon="9.25672206114275"><ele>361.0</ele><time>2026-04-18T09:30:11.002Z</time></trkpt><trkpt lat="45.84597875807384" lon="9.256823841783332"><ele>361.4</ele><time>2026-04-18T09:30:12.002Z</time></trkpt><trkpt lat="45.846053239432734" lon="9.256904215876927"><ele>361.8</ele><time>2026-04-18T09:30:13.002Z</time></trkpt><trkpt lat="45.84612666979815" lon="9.256983085528306"><ele>362.2</ele><time>2026-04-18T09:30:14.002Z</time></trkpt><trkpt lat="45.84620430114548" lon="9.257066467320206"><ele>362.59999999999997</ele><time>2026-04-18T09:30:15.002Z</time></trkpt><trkpt lat="45.846296649312706" lon="9.257136239693954"><ele>363.0</ele><time>2026-04-18T09:30:16.002Z</time></trkpt><trkpt lat="45.84637759071092" lon="9.257231349334688"><ele>363.5</ele><time>2026-04-18T09:30:17.002Z</time></trkpt><trkpt lat="45.84646702790062" lon="9.257326430472682"><ele>364.0</ele><time>2026-04-18T09:30:18.002Z</time></trkpt><trkpt lat="45.846556998421626" lon="9.257426426911588"><ele>364.5</ele><time>2026-04-18T09:30:19.002Z</time></trkpt><trkpt lat="45.84664953661937" lon="9.257534484318985"><ele>365.0</ele><time>2026-04-18T09:30:20.002Z</time></trkpt><trkpt lat="45.84674044880036" lon="9.257648785453382"><ele>365.0</ele><time>2026-04-18T09:30:21.002Z</time></trkpt><trkpt lat="45.8468310219105" lon="9.257775473122978"><ele>365.0</ele><time>2026-04-18T09:30:22.002Z</time></trkpt><trkpt lat="45.84691918126398" lon="9.257907072816302"><ele>365.0</ele><time>2026-04-18T09:30:23.002Z</time></trkpt><trkpt lat="45.847005204494295" lon="9.258047437360023"><ele>365.0</ele><time>2026-04-18T09:30:24.002Z</time></trkpt><trkpt lat="45.84708444629745" lon="9.258182903433292"><ele>366.0</ele><time>2026-04-18T09:30:25.002Z</time></trkpt><trkpt lat="45.847161206168835" lon="9.25833125919581"><ele>367.0</ele><time>2026-04-18T09:30:26.002Z</time></trkpt><trkpt lat="45.847238220120225" lon="9.258484972042872"><ele>368.0</ele><time>2026-04-18T09:30:27.002Z</time></trkpt><trkpt lat="45.84731408078722" lon="9.258642364378925"><ele>369.0</ele><time>2026-04-18T09:30:28.003Z</time></trkpt><trkpt lat="45.84738966178054" lon="9.258805812133774"><ele>368.5</ele><time>2026-04-18T09:30:29.003Z</time></trkpt><trkpt lat="45.847467300019986" lon="9.25897458037557"><ele>368.0</ele><time>2026-04-18T09:30:30.003Z</time></trkpt><trkpt lat="45.8475478191484" lon="9.259143719178413"><ele>367.5</ele><time>2026-04-18T09:30:31.003Z</time></trkpt><trkpt lat="45.84762821499126" lon="9.259309749739199"><ele>367.0</ele><time>2026-04-18T09:30:32.003Z</time></trkpt><trkpt lat="45.84770837362991" lon="9.259472846718836"><ele>367.0</ele><time>2026-04-18T09:30:33.003Z</time></trkpt><trkpt lat="45.84778471223044" lon="9.259636742433049"><ele>367.0</ele><time>2026-04-18T09:30:34.003Z</time></trkpt><trkpt lat="45.84786102828483" lon="9.259795149836883"><ele>367.0</ele><time>2026-04-18T09:30:35.003Z</time></trkpt><trkpt lat="45.84793534128167" lon="9.259950722435502"><ele>367.0</ele><time>2026-04-18T09:30:36.003Z</time></trkpt><trkpt lat="45.84801047149453" lon="9.260107662566497"><ele>366.5</ele><time>2026-04-18T09:30:37.003Z</time></trkpt><trkpt lat="45.848084425805304" lon="9.260262785078558"><ele>366.0</ele><time>2026-04-18T09:30:38.003Z</time></trkpt><trkpt lat="45.8481552426977" lon="9.260421041153512"><ele>365.5</ele><time>2026-04-18T09:30:39.003Z</time></trkpt><trkpt lat="45.84822874146289" lon="9.260574372629952"><ele>365.0</ele><time>2026-04-18T09:30:40.003Z</time></trkpt><trkpt lat="45.848300768772624" lon="9.260728240389353"><ele>366.5</ele><time>2026-04-18T09:30:41.003Z</time></trkpt><trkpt lat="45.848374929419215" lon="9.260878488066194"><ele>368.0</ele><time>2026-04-18T09:30:42Z</time></trkpt><trkpt lat="45.84844895216974" lon="9.261030160098336"><ele>369.5</ele><time>2026-04-18T09:30:43Z</time></trkpt><trkpt lat="45.848524204429886" lon="9.261188972401214"><ele>371.0</ele><time>2026-04-18T09:30:44.001Z</time></trkpt><trkpt lat="45.84860126450275" lon="9.261349710590292"><ele>371.0</ele><time>2026-04-18T09:30:45Z</time></trkpt><trkpt lat="45.848681472897916" lon="9.261511631655248"><ele>371.0</ele><time>2026-04-18T09:30:46Z</time></trkpt><trkpt lat="45.84875563657545" lon="9.261682172934426"><ele>371.0</ele><time>2026-04-18T09:30:47Z</time></trkpt><trkpt lat="45.84883882659253" lon="9.26184921319169"><ele>371.0</ele><time>2026-04-18T09:30:48Z</time></trkpt><trkpt lat="45.84892623795962" lon="9.262013560028734"><ele>371.0</ele><time>2026-04-18T09:30:49Z</time></trkpt><trkpt lat="45.84901875602541" lon="9.262176692558178"><ele>371.0</ele><time>2026-04-18T09:30:50Z</time></trkpt><trkpt lat="45.849119526161665" lon="9.262331206986916"><ele>371.0</ele><time>2026-04-18T09:30:51Z</time></trkpt><trkpt lat="45.849219923288096" lon="9.262477757606531"><ele>371.0</ele><time>2026-04-18T09:30:52Z</time></trkpt><trkpt lat="45.84932064304525" lon="9.262616056012993"><ele>371.25</ele><time>2026-04-18T09:30:53Z</time></trkpt><trkpt lat="45.849414946752944" lon="9.262741955708055"><ele>371.5</ele><time>2026-04-18T09:30:54Z</time></trkpt><trkpt lat="45.84950618127681" lon="9.262858058467955"><ele>371.75</ele><time>2026-04-18T09:30:55Z</time></trkpt><trkpt lat="45.849598790159895" lon="9.262970036665568"><ele>372.0</ele><time>2026-04-18T09:30:56Z</time></trkpt><trkpt lat="45.84968532284959" lon="9.263094676000664"><ele>374.0</ele><time>2026-04-18T09:30:57Z</time></trkpt><trkpt lat="45.849778820690716" lon="9.263218351350117"><ele>376.0</ele><time>2026-04-18T09:30:58Z</time></trkpt><trkpt lat="45.84987588993404" lon="9.263349945900902"><ele>378.0</ele><time>2026-04-18T09:30:59Z</time></trkpt><trkpt lat="45.849973343175215" lon="9.263489940570967"><ele>380.0</ele><time>2026-04-18T09:31:00Z</time></trkpt><trkpt lat="45.85007115458629" lon="9.263636798863313"><ele>379.25</ele><time>2026-04-18T09:31:01Z</time></trkpt><trkpt lat="45.8501677540963" lon="9.263787976159563"><ele>378.5</ele><time>2026-04-18T09:31:02.001Z</time></trkpt><trkpt lat="45.850261062264615" lon="9.263936520974699"><ele>377.75</ele><time>2026-04-18T09:31:03.001Z</time></trkpt><trkpt lat="45.85035316541688" lon="9.264084619414874"><ele>377.0</ele><time>2026-04-18T09:31:04.001Z</time></trkpt><trkpt lat="45.85044694048358" lon="9.264236957984014"><ele>377.0</ele><time>2026-04-18T09:31:05.001Z</time></trkpt><trkpt lat="45.85054288765244" lon="9.264395114076079"><ele>377.0</ele><time>2026-04-18T09:31:06.001Z</time></trkpt><trkpt lat="45.85063584287664" lon="9.264551028278628"><ele>377.0</ele><time>2026-04-18T09:31:07.001Z</time></trkpt><trkpt lat="45.85072946459287" lon="9.264704968439103"><ele>377.0</ele><time>2026-04-18T09:31:08.001Z</time></trkpt><trkpt lat="45.850820314541124" lon="9.264853881608664"><ele>377.0</ele><time>2026-04-18T09:31:09.001Z</time></trkpt><trkpt lat="45.85091076245833" lon="9.265001890243052"><ele>377.0</ele><time>2026-04-18T09:31:10.001Z</time></trkpt><trkpt lat="45.850998442692706" lon="9.265145929553318"><ele>377.0</ele><time>2026-04-18T09:31:11.001Z</time></trkpt><trkpt lat="45.8510853146577" lon="9.265291201014701"><ele>377.0</ele><time>2026-04-18T09:31:12.001Z</time></trkpt><trkpt lat="45.85117341470381" lon="9.265434846466947"><ele>377.0</ele><time>2026-04-18T09:31:13.001Z</time></trkpt><trkpt lat="45.851260121171286" lon="9.265579443714358"><ele>377.0</ele><time>2026-04-18T09:31:14.001Z</time></trkpt><trkpt lat="45.85134603769302" lon="9.265719367813926"><ele>377.0</ele><time>2026-04-18T09:31:15.001Z</time></trkpt><trkpt lat="45.85143034087653" lon="9.265856940711217"><ele>377.0</ele><time>2026-04-18T09:31:16.001Z</time></trkpt><trkpt lat="45.85151436115153" lon="9.265992494813993"><ele>377.75</ele><time>2026-04-18T09:31:17.001Z</time></trkpt><trkpt lat="45.851595139349385" lon="9.266127212381342"><ele>378.5</ele><time>2026-04-18T09:31:18.001Z</time></trkpt><trkpt lat="45.85168080312757" lon="9.266271788510698"><ele>379.25</ele><time>2026-04-18T09:31:19.001Z</time></trkpt><trkpt lat="45.85177039405548" lon="9.266418718329538"><ele>380.0</ele><time>2026-04-18T09:31:20.001Z</time></trkpt><trkpt lat="45.85186168949666" lon="9.266563494194827"><ele>380.0</ele><time>2026-04-18T09:31:21.001Z</time></trkpt><trkpt lat="45.85194776090439" lon="9.266707223030698"><ele>380.0</ele><time>2026-04-18T09:31:22.001Z</time></trkpt><trkpt lat="45.85203188144606" lon="9.266857175192504"><ele>380.0</ele><time>2026-04-18T09:31:23.001Z</time></trkpt><trkpt lat="45.8521136138081" lon="9.267009082312816"><ele>380.0</ele><time>2026-04-18T09:31:24.001Z</time></trkpt><trkpt lat="45.85219574564278" lon="9.267162877531351"><ele>381.25</ele><time>2026-04-18T09:31:25.001Z</time></trkpt><trkpt lat="45.8522747655636" lon="9.267312387003685"><ele>382.5</ele><time>2026-04-18T09:31:26.001Z</time></trkpt><trkpt lat="45.852345821717975" lon="9.267449331277577"><ele>383.75</ele><time>2026-04-18T09:31:27.001Z</time></trkpt><trkpt lat="45.85241547755038" lon="9.26758257571206"><ele>385.0</ele><time>2026-04-18T09:31:28.001Z</time></trkpt><trkpt lat="45.85248749224132" lon="9.267720900724107"><ele>385.0</ele><time>2026-04-18T09:31:29.001Z</time></trkpt><trkpt lat="45.85256316802158" lon="9.2678677890337"><ele>385.0</ele><time>2026-04-18T09:31:30.001Z</time></trkpt><trkpt lat="45.85263488862719" lon="9.268018814415749"><ele>385.0</ele><time>2026-04-18T09:31:31.001Z</time></trkpt><trkpt lat="45.85270969857017" lon="9.268165371236933"><ele>385.0</ele><time>2026-04-18T09:31:32.001Z</time></trkpt><trkpt lat="45.85278080204489" lon="9.268305032508694"><ele>384.75</ele><time>2026-04-18T09:31:33.001Z</time></trkpt><trkpt lat="45.852851070957826" lon="9.268442626339498"><ele>384.5</ele><time>2026-04-18T09:31:34.001Z</time></trkpt><trkpt lat="45.85291722575824" lon="9.268578447353038"><ele>384.25</ele><time>2026-04-18T09:31:35.001Z</time></trkpt><trkpt lat="45.85297920769154" lon="9.268714691798039"><ele>384.0</ele><time>2026-04-18T09:31:36.001Z</time></trkpt><trkpt lat="45.85303889911088" lon="9.268857741309185"><ele>384.5</ele><time>2026-04-18T09:31:37.001Z</time></trkpt><trkpt lat="45.853099034351175" lon="9.269019919149654"><ele>385.0</ele><time>2026-04-18T09:31:38.001Z</time></trkpt><trkpt lat="45.85315585413231" lon="9.269188598953091"><ele>385.5</ele><time>2026-04-18T09:31:39.001Z</time></trkpt><trkpt lat="45.85317132916606" lon="9.269322730870451"><ele>386.0</ele><time>2026-04-18T09:31:40.001Z</time></trkpt><trkpt lat="45.85319857725221" lon="9.26949002589928"><ele>386.0</ele><time>2026-04-18T09:31:41.001Z</time></trkpt><trkpt lat="45.853215548442975" lon="9.269656278649094"><ele>386.0</ele><time>2026-04-18T09:31:42.001Z</time></trkpt><trkpt lat="45.85322435794562" lon="9.26981894535057"><ele>386.0</ele><time>2026-04-18T09:31:43.001Z</time></trkpt><trkpt lat="45.85322545659113" lon="9.269966462083282"><ele>386.0</ele><time>2026-04-18T09:31:44.001Z</time></trkpt><trkpt lat="45.85321647393335" lon="9.270109579487539"><ele>386.0</ele><time>2026-04-18T09:31:45.001Z</time></trkpt><trkpt lat="45.85320136417479" lon="9.270257792760246"><ele>387.0</ele><time>2026-04-18T09:31:46.001Z</time></trkpt><trkpt lat="45.85319955828617" lon="9.270399003387011"><ele>388.0</ele><time>2026-04-18T09:31:47.001Z</time></trkpt><trkpt lat="45.85317140892301" lon="9.270505965045988"><ele>389.0</ele><time>2026-04-18T09:31:48.001Z</time></trkpt><trkpt lat="45.85313743394989" lon="9.270656244716617"><ele>390.0</ele><time>2026-04-18T09:31:50.001Z</time></trkpt><trkpt lat="45.85312525475646" lon="9.270774693582942"><ele>391.0</ele><time>2026-04-18T09:31:52.002Z</time></trkpt><trkpt lat="45.85307452868307" lon="9.270940166313892"><ele>391.1666666666667</ele><time>2026-04-18T09:31:54.002Z</time></trkpt><trkpt lat="45.8530562457018" lon="9.271053680604947"><ele>391.33333333333337</ele><time>2026-04-18T09:31:55.002Z</time></trkpt><trkpt lat="45.85303837483083" lon="9.271188987926779"><ele>391.5</ele><time>2026-04-18T09:31:56.002Z</time></trkpt><trkpt lat="45.85302527493334" lon="9.271333629032787"><ele>391.66666666666663</ele><time>2026-04-18T09:31:57.002Z</time></trkpt><trkpt lat="45.85302275660379" lon="9.271470279904978"><ele>391.8333333333333</ele><time>2026-04-18T09:31:58.002Z</time></trkpt><trkpt lat="45.85302429675705" lon="9.271577751016624"><ele>392.0</ele><time>2026-04-18T09:31:59.002Z</time></trkpt><trkpt lat="45.85302854664384" lon="9.271679975480698"><ele>391.66666666666663</ele><time>2026-04-18T09:32:00.002Z</time></trkpt><trkpt lat="45.85305883409777" lon="9.271821490096151"><ele>391.3333333333333</ele><time>2026-04-18T09:32:02.002Z</time></trkpt><trkpt lat="45.85306455523279" lon="9.271915747026428"><ele>391.0</ele><time>2026-04-18T09:32:04.002Z</time></trkpt><trkpt lat="45.853079113481" lon="9.272005284217792"><ele>390.66666666666663</ele><time>2026-04-18T09:32:06.002Z</time></trkpt><trkpt lat="45.853100756553225" lon="9.272127646039207"><ele>390.3333333333333</ele><time>2026-04-18T09:32:08.002Z</time></trkpt><trkpt lat="45.85312508571124" lon="9.272222180958787"><ele>390.0</ele><time>2026-04-18T09:32:10.002Z</time></trkpt><trkpt lat="45.853193825104164" lon="9.272253461115637"><ele>390.0</ele><time>2026-04-18T09:32:12.002Z</time></trkpt><trkpt lat="45.853267592657986" lon="9.272220955175323"><ele>390.0</ele><time>2026-04-18T09:32:13.002Z</time></trkpt><trkpt lat="45.853336344229355" lon="9.27213168485859"><ele>390.0</ele><time>2026-04-18T09:32:14.002Z</time></trkpt><trkpt lat="45.85341896352329" lon="9.272115203945269"><ele>390.0</ele><time>2026-04-18T09:32:15.002Z</time></trkpt><trkpt lat="45.853508542949605" lon="9.272067079393238"><ele>390.0</ele><time>2026-04-18T09:32:16.002Z</time></trkpt><trkpt lat="45.85360088082318" lon="9.271995756925708"><ele>389.4</ele><time>2026-04-18T09:32:17.002Z</time></trkpt><trkpt lat="45.85369147599924" lon="9.271930097662366"><ele>388.8</ele><time>2026-04-18T09:32:18.002Z</time></trkpt><trkpt lat="45.853778004974586" lon="9.271869282918177"><ele>388.20000000000005</ele><time>2026-04-18T09:32:19.002Z</time></trkpt><trkpt lat="45.85387564852018" lon="9.271800606770864"><ele>387.6</ele><time>2026-04-18T09:32:20.002Z</time></trkpt><trkpt lat="45.85397413875107" lon="9.27173121710792"><ele>387.0</ele><time>2026-04-18T09:32:21.002Z</time></trkpt><trkpt lat="45.854053878399796" lon="9.271672821028574"><ele>387.0</ele><time>2026-04-18T09:32:22.002Z</time></trkpt><trkpt lat="45.854104067928155" lon="9.271609711376483"><ele>387.0</ele><time>2026-04-18T09:32:23.002Z</time></trkpt><trkpt lat="45.85420964604676" lon="9.271532513430445"><ele>387.0</ele><time>2026-04-18T09:32:25.002Z</time></trkpt><trkpt lat="45.85426777892926" lon="9.271462923657696"><ele>387.0</ele><time>2026-04-18T09:32:26.002Z</time></trkpt><trkpt lat="45.85432659823427" lon="9.271389231922145"><ele>387.0</ele><time>2026-04-18T09:32:27.002Z</time></trkpt><trkpt lat="45.85437555559762" lon="9.271283611387782"><ele>387.0</ele><time>2026-04-18T09:32:28.002Z</time></trkpt><trkpt lat="45.85443215485957" lon="9.271208372545768"><ele>387.20000000000005</ele><time>2026-04-18T09:32:29.002Z</time></trkpt><trkpt lat="45.85450283939513" lon="9.271078554720345"><ele>387.4</ele><time>2026-04-18T09:32:31.002Z</time></trkpt><trkpt lat="45.854556997331535" lon="9.270996239982985"><ele>387.6</ele><time>2026-04-18T09:32:32.002Z</time></trkpt><trkpt lat="45.85460397326444" lon="9.270885965447473"><ele>387.79999999999995</ele><time>2026-04-18T09:32:33.002Z</time></trkpt><trkpt lat="45.85465741369339" lon="9.270749118137351"><ele>388.0</ele><time>2026-04-18T09:32:34.002Z</time></trkpt><trkpt lat="45.85472051543935" lon="9.270581072661544"><ele>388.0</ele><time>2026-04-18T09:32:35.002Z</time></trkpt><trkpt lat="45.85476966100458" lon="9.270447806664754"><ele>388.0</ele><time>2026-04-18T09:32:36.002Z</time></trkpt><trkpt lat="45.854813140133494" lon="9.270329906111273"><ele>388.0</ele><time>2026-04-18T09:32:37.003Z</time></trkpt><trkpt lat="45.85487546073734" lon="9.270161767063138"><ele>388.0</ele><time>2026-04-18T09:32:38.003Z</time></trkpt><trkpt lat="45.854952094603064" lon="9.269955765661251"><ele>387.75</ele><time>2026-04-18T09:32:39.003Z</time></trkpt><trkpt lat="45.85501158207022" lon="9.26976740222996"><ele>387.5</ele><time>2026-04-18T09:32:40.003Z</time></trkpt><trkpt lat="45.8550741881248" lon="9.269620673802361"><ele>387.25</ele><time>2026-04-18T09:32:41.003Z</time></trkpt><trkpt lat="45.85515401384831" lon="9.269518921687617"><ele>387.0</ele><time>2026-04-18T09:32:42.003Z</time></trkpt><trkpt lat="45.855235715826865" lon="9.269445029383764"><ele>387.0</ele><time>2026-04-18T09:32:43.003Z</time></trkpt><trkpt lat="45.85532533871121" lon="9.269400761287534"><ele>387.0</ele><time>2026-04-18T09:32:44.003Z</time></trkpt><trkpt lat="45.85542271158952" lon="9.269387896023925"><ele>387.0</ele><time>2026-04-18T09:32:45.003Z</time></trkpt><trkpt lat="45.8555257829141" lon="9.26935508501751"><ele>387.0</ele><time>2026-04-18T09:32:46.003Z</time></trkpt><trkpt lat="45.85561998565651" lon="9.269414024115394"><ele>387.0</ele><time>2026-04-18T09:32:47.003Z</time></trkpt><trkpt lat="45.855704163973144" lon="9.269427886955237"><ele>387.0</ele><time>2026-04-18T09:32:48Z</time></trkpt><trkpt lat="45.85577348077073" lon="9.269439302188296"><ele>387.0</ele><time>2026-04-18T09:32:49Z</time></trkpt><trkpt lat="45.85583869704483" lon="9.269448890501065"><ele>387.0</ele><time>2026-04-18T09:32:50Z</time></trkpt><trkpt lat="45.855907150215785" lon="9.269459324194"><ele>387.0</ele><time>2026-04-18T09:32:51Z</time></trkpt><trkpt lat="45.855982109426144" lon="9.269473913915236"><ele>387.0</ele><time>2026-04-18T09:32:52Z</time></trkpt><trkpt lat="45.85606112679539" lon="9.269493268385151"><ele>387.0</ele><time>2026-04-18T09:32:53Z</time></trkpt><trkpt lat="45.856151434784216" lon="9.269526604649402"><ele>387.5</ele><time>2026-04-18T09:32:54Z</time></trkpt><trkpt lat="45.85626119661527" lon="9.269573648033465"><ele>388.0</ele><time>2026-04-18T09:32:55Z</time></trkpt><trkpt lat="45.85635760038746" lon="9.269615242650119"><ele>388.5</ele><time>2026-04-18T09:32:56Z</time></trkpt><trkpt lat="45.856441127645766" lon="9.269616948925831"><ele>389.0</ele><time>2026-04-18T09:32:57Z</time></trkpt><trkpt lat="45.856512926603735" lon="9.26963147312454"><ele>389.5</ele><time>2026-04-18T09:32:58Z</time></trkpt><trkpt lat="45.85657914516279" lon="9.269653645361654"><ele>390.0</ele><time>2026-04-18T09:32:59Z</time></trkpt><trkpt lat="45.85664680951242" lon="9.269679334009036"><ele>390.0</ele><time>2026-04-18T09:33:00Z</time></trkpt><trkpt lat="45.85671762068922" lon="9.26971057579758"><ele>390.0</ele><time>2026-04-18T09:33:01Z</time></trkpt><trkpt lat="45.85679244958014" lon="9.26974552056372"><ele>390.0</ele><time>2026-04-18T09:33:02Z</time></trkpt><trkpt lat="45.85687736258265" lon="9.26976852634697"><ele>390.0</ele><time>2026-04-18T09:33:03Z</time></trkpt><trkpt lat="45.85700696936631" lon="9.269823849500886"><ele>390.0</ele><time>2026-04-18T09:33:04Z</time></trkpt><trkpt lat="45.85715902184716" lon="9.26980789015725"><ele>390.75</ele><time>2026-04-18T09:33:05Z</time></trkpt><trkpt lat="45.8573133969639" lon="9.26978424461309"><ele>391.5</ele><time>2026-04-18T09:33:06Z</time></trkpt><trkpt lat="45.85746940609105" lon="9.269754760562064"><ele>392.25</ele><time>2026-04-18T09:33:07Z</time></trkpt><trkpt lat="45.85758997806953" lon="9.269699048887206"><ele>393.0</ele><time>2026-04-18T09:33:08Z</time></trkpt><trkpt lat="45.857701200748856" lon="9.269690330035615"><ele>393.4</ele><time>2026-04-18T09:33:09Z</time></trkpt><trkpt lat="45.857810521379854" lon="9.269671121556158"><ele>393.79999999999995</ele><time>2026-04-18T09:33:10Z</time></trkpt><trkpt lat="45.85791901789726" lon="9.26965741297271"><ele>394.2</ele><time>2026-04-18T09:33:11Z</time></trkpt><trkpt lat="45.85802968061738" lon="9.269646690425265"><ele>394.6</ele><time>2026-04-18T09:33:12Z</time></trkpt><trkpt lat="45.858143969243706" lon="9.269643508065553"><ele>395.0</ele><time>2026-04-18T09:33:13Z</time></trkpt><trkpt lat="45.85826161764267" lon="9.269681029327023"><ele>395.0</ele><time>2026-04-18T09:33:14Z</time></trkpt><trkpt lat="45.85839543610746" lon="9.269712539815968"><ele>395.0</ele><time>2026-04-18T09:33:15Z</time></trkpt><trkpt lat="45.85853323694878" lon="9.26975226630622"><ele>395.0</ele><time>2026-04-18T09:33:16Z</time></trkpt><trkpt lat="45.858657028843915" lon="9.26977727354768"><ele>395.0</ele><time>2026-04-18T09:33:17Z</time></trkpt><trkpt lat="45.85877118039436" lon="9.269770306002217"><ele>396.2</ele><time>2026-04-18T09:33:18Z</time></trkpt><trkpt lat="45.85888011804254" lon="9.269754333246276"><ele>397.4</ele><time>2026-04-18T09:33:19Z</time></trkpt><trkpt lat="45.8589908779004" lon="9.269723662725138"><ele>398.6</ele><time>2026-04-18T09:33:20.001Z</time></trkpt><trkpt lat="45.859098396439805" lon="9.269673574920297"><ele>399.8</ele><time>2026-04-18T09:33:21.001Z</time></trkpt><trkpt lat="45.85920059079379" lon="9.269608309450913"><ele>401.0</ele><time>2026-04-18T09:33:22.001Z</time></trkpt><trkpt lat="45.85928526724529" lon="9.269516692736957"><ele>402.8</ele><time>2026-04-18T09:33:23.001Z</time></trkpt><trkpt lat="45.85937013736955" lon="9.26945046514285"><ele>404.6</ele><time>2026-04-18T09:33:24.001Z</time></trkpt><trkpt lat="45.859454909699984" lon="9.269393344074713"><ele>406.4</ele><time>2026-04-18T09:33:25.001Z</time></trkpt><trkpt lat="45.8595503837078" lon="9.269321287228099"><ele>408.2</ele><time>2026-04-18T09:33:26.001Z</time></trkpt><trkpt lat="45.85964951559109" lon="9.26922824391022"><ele>410.0</ele><time>2026-04-18T09:33:27.001Z</time></trkpt><trkpt lat="45.85974152457898" lon="9.26914382163734"><ele>409.99999999999994</ele><time>2026-04-18T09:33:28.001Z</time></trkpt><trkpt lat="45.85980927285643" lon="9.26904498995938"><ele>410.0</ele><time>2026-04-18T09:33:29.001Z</time></trkpt><trkpt lat="45.85985364013021" lon="9.2689472357435"><ele>410.0</ele><time>2026-04-18T09:33:30.001Z</time></trkpt><trkpt lat="45.85989898228543" lon="9.26887081788739"><ele>410.0</ele><time>2026-04-18T09:33:31.001Z</time></trkpt><trkpt lat="45.85994595268697" lon="9.26879661768044"><ele>409.99999999999994</ele><time>2026-04-18T09:33:32.001Z</time></trkpt><trkpt lat="45.86001508922106" lon="9.268743429079638"><ele>410.0</ele><time>2026-04-18T09:33:33.001Z</time></trkpt><trkpt lat="45.86009048447728" lon="9.26872614812941"><ele>410.16666666666663</ele><time>2026-04-18T09:33:34.001Z</time></trkpt><trkpt lat="45.86015548833644" lon="9.268763478888207"><ele>410.3333333333333</ele><time>2026-04-18T09:33:35.001Z</time></trkpt><trkpt lat="45.86020589454112" lon="9.268825789253128"><ele>410.5</ele><time>2026-04-18T09:33:36.001Z</time></trkpt><trkpt lat="45.860248294492926" lon="9.268898908128529"><ele>410.66666666666663</ele><time>2026-04-18T09:33:37.001Z</time></trkpt><trkpt lat="45.86024992796171" lon="9.26902431984821"><ele>410.8333333333333</ele><time>2026-04-18T09:33:38.001Z</time></trkpt><trkpt lat="45.86028040119782" lon="9.269125926914866"><ele>411.0</ele><time>2026-04-18T09:33:39.001Z</time></trkpt><trkpt lat="45.86033196193293" lon="9.269263971836637"><ele>411.0</ele><time>2026-04-18T09:33:41.001Z</time></trkpt><trkpt lat="45.86037827347728" lon="9.269356251594008"><ele>411.0</ele><time>2026-04-18T09:33:42.001Z</time></trkpt><trkpt lat="45.860484127209496" lon="9.269376900008005"><ele>411.0</ele><time>2026-04-18T09:33:43.001Z</time></trkpt><trkpt lat="45.86057535707662" lon="9.26937740640632"><ele>411.0</ele><time>2026-04-18T09:33:44.001Z</time></trkpt><trkpt lat="45.860662330612755" lon="9.269364331685107"><ele>411.0</ele><time>2026-04-18T09:33:45.001Z</time></trkpt><trkpt lat="45.8607442936034" lon="9.269388264501751"><ele>411.0</ele><time>2026-04-18T09:33:46.001Z</time></trkpt><trkpt lat="45.86083192911567" lon="9.269408392320877"><ele>411.0</ele><time>2026-04-18T09:33:47.001Z</time></trkpt><trkpt lat="45.86091835122145" lon="9.269442653785003"><ele>411.0</ele><time>2026-04-18T09:33:48.001Z</time></trkpt><trkpt lat="45.86099558954365" lon="9.26945807414338"><ele>411.0</ele><time>2026-04-18T09:33:49.001Z</time></trkpt><trkpt lat="45.861063498188955" lon="9.269503254743972"><ele>411.0</ele><time>2026-04-18T09:33:50.001Z</time></trkpt><trkpt lat="45.86114524694078" lon="9.269532747890235"><ele>411.0</ele><time>2026-04-18T09:33:51.001Z</time></trkpt><trkpt lat="45.86123104502129" lon="9.269558151631704"><ele>411.0</ele><time>2026-04-18T09:33:52.001Z</time></trkpt><trkpt lat="45.861346060049115" lon="9.269584210405936"><ele>411.75</ele><time>2026-04-18T09:33:54.001Z</time></trkpt><trkpt lat="45.86144252815413" lon="9.269622317515996"><ele>412.5</ele><time>2026-04-18T09:33:56.001Z</time></trkpt><trkpt lat="45.861553240775315" lon="9.269773052124634"><ele>413.25</ele><time>2026-04-18T09:33:58.001Z</time></trkpt><trkpt lat="45.86160037372387" lon="9.269919518177538"><ele>414.0</ele><time>2026-04-18T09:33:59.001Z</time></trkpt><trkpt lat="45.861631112811764" lon="9.270068194561217"><ele>415.0</ele><time>2026-04-18T09:34:00.001Z</time></trkpt><trkpt lat="45.86163850421579" lon="9.270188338438142"><ele>416.0</ele><time>2026-04-18T09:34:01.001Z</time></trkpt><trkpt lat="45.86163633199056" lon="9.270280127868228"><ele>417.0</ele><time>2026-04-18T09:34:02.001Z</time></trkpt><trkpt lat="45.86164517624575" lon="9.270416711715667"><ele>418.0</ele><time>2026-04-18T09:34:04.001Z</time></trkpt><trkpt lat="45.8616526671391" lon="9.270511555527925"><ele>419.0</ele><time>2026-04-18T09:34:05.001Z</time></trkpt><trkpt lat="45.861665018290076" lon="9.27061676026944"><ele>420.0</ele><time>2026-04-18T09:34:06.001Z</time></trkpt><trkpt lat="45.86167982168083" lon="9.270733152113298"><ele>420.5</ele><time>2026-04-18T09:34:07.002Z</time></trkpt><trkpt lat="45.861708507803016" lon="9.270878475941933"><ele>421.0</ele><time>2026-04-18T09:34:08.002Z</time></trkpt><trkpt lat="45.86172264004593" lon="9.271069972997852"><ele>421.5</ele><time>2026-04-18T09:34:09.002Z</time></trkpt><trkpt lat="45.861755962699846" lon="9.271286147327201"><ele>422.0</ele><time>2026-04-18T09:34:10.002Z</time></trkpt><trkpt lat="45.86178582966956" lon="9.271488765796267"><ele>423.0</ele><time>2026-04-18T09:34:11.002Z</time></trkpt><trkpt lat="45.8618111764317" lon="9.271686260370874"><ele>424.0</ele><time>2026-04-18T09:34:12.002Z</time></trkpt><trkpt lat="45.86183268267291" lon="9.27189891625042"><ele>425.0</ele><time>2026-04-18T09:34:13.002Z</time></trkpt><trkpt lat="45.86186073610804" lon="9.272085073823401"><ele>426.0</ele><time>2026-04-18T09:34:14.002Z</time></trkpt><trkpt lat="45.86186507109531" lon="9.272259353543165"><ele>424.0</ele><time>2026-04-18T09:34:15.002Z</time></trkpt><trkpt lat="45.86185672797439" lon="9.272459715262633"><ele>422.0</ele><time>2026-04-18T09:34:16.002Z</time></trkpt><trkpt lat="45.86187234157836" lon="9.272688797569348"><ele>420.0</ele><time>2026-04-18T09:34:17.002Z</time></trkpt><trkpt lat="45.861874376278436" lon="9.272938812200561"><ele>421.33333333333337</ele><time>2026-04-18T09:34:18.002Z</time></trkpt><trkpt lat="45.86187697440649" lon="9.273172955723092"><ele>422.6666666666667</ele><time>2026-04-18T09:34:19.002Z</time></trkpt><trkpt lat="45.861876399256055" lon="9.273370033409915"><ele>424.0</ele><time>2026-04-18T09:34:20.002Z</time></trkpt><trkpt lat="45.86188048124404" lon="9.273587837777521"><ele>424.0</ele><time>2026-04-18T09:34:21.002Z</time></trkpt><trkpt lat="45.8618925849016" lon="9.273831134517193"><ele>424.0</ele><time>2026-04-18T09:34:22.002Z</time></trkpt><trkpt lat="45.86188681242282" lon="9.274056445816614"><ele>424.0</ele><time>2026-04-18T09:34:23.002Z</time></trkpt><trkpt lat="45.861883300472996" lon="9.274230254251584"><ele>424.0</ele><time>2026-04-18T09:34:24.002Z</time></trkpt><trkpt lat="45.86188981049863" lon="9.274381947213618"><ele>424.83333333333337</ele><time>2026-04-18T09:34:25.002Z</time></trkpt><trkpt lat="45.8618951952514" lon="9.274502215845947"><ele>425.6666666666667</ele><time>2026-04-18T09:34:26.002Z</time></trkpt><trkpt lat="45.86190343977802" lon="9.274626618252846"><ele>426.5</ele><time>2026-04-18T09:34:27.002Z</time></trkpt><trkpt lat="45.861920970605645" lon="9.274764748698574"><ele>427.33333333333337</ele><time>2026-04-18T09:34:28.002Z</time></trkpt><trkpt lat="45.861944297973785" lon="9.27486842377022"><ele>428.1666666666667</ele><time>2026-04-18T09:34:29.002Z</time></trkpt><trkpt lat="45.86197326951367" lon="9.274978885912343"><ele>429.0</ele><time>2026-04-18T09:34:30.002Z</time></trkpt><trkpt lat="45.86201008964345" lon="9.27509658018281"><ele>429.75</ele><time>2026-04-18T09:34:31.002Z</time></trkpt><trkpt lat="45.86206495369281" lon="9.27522171365186"><ele>430.5</ele><time>2026-04-18T09:34:32.002Z</time></trkpt><trkpt lat="45.86213098440505" lon="9.27538535570019"><ele>431.25</ele><time>2026-04-18T09:34:33.002Z</time></trkpt><trkpt lat="45.862222948720635" lon="9.275534589437877"><ele>432.0</ele><time>2026-04-18T09:34:34.002Z</time></trkpt><trkpt lat="45.86232239124219" lon="9.2756660979252"><ele>434.0</ele><time>2026-04-18T09:34:35.002Z</time></trkpt><trkpt lat="45.86245339270658" lon="9.275763120045156"><ele>436.0</ele><time>2026-04-18T09:34:36.002Z</time></trkpt><trkpt lat="45.86257204969468" lon="9.275848889781534"><ele>438.0</ele><time>2026-04-18T09:34:37.002Z</time></trkpt><trkpt lat="45.86271386261661" lon="9.275907915167842"><ele>440.0</ele><time>2026-04-18T09:34:38.002Z</time></trkpt><trkpt lat="45.86286909241448" lon="9.275968424810138"><ele>442.66666666666663</ele><time>2026-04-18T09:34:39.002Z</time></trkpt><trkpt lat="45.86303334162544" lon="9.275960212658171"><ele>445.33333333333337</ele><time>2026-04-18T09:34:40.002Z</time></trkpt><trkpt lat="45.86320913780079" lon="9.275935036213388"><ele>448.0</ele><time>2026-04-18T09:34:41.002Z</time></trkpt><trkpt lat="45.863387015020564" lon="9.27585782434475"><ele>456.6666666666667</ele><time>2026-04-18T09:34:42.002Z</time></trkpt><trkpt lat="45.863539427377134" lon="9.275745695466226"><ele>465.33333333333337</ele><time>2026-04-18T09:34:43.002Z</time></trkpt><trkpt lat="45.863677815597306" lon="9.275610735365984"><ele>474.0</ele><time>2026-04-18T09:34:44.002Z</time></trkpt><trkpt lat="45.86379860613732" lon="9.27545864181244"><ele>474.0</ele><time>2026-04-18T09:34:45.002Z</time></trkpt><trkpt lat="45.863914744861546" lon="9.275282043641251"><ele>474.0</ele><time>2026-04-18T09:34:46.002Z</time></trkpt><trkpt lat="45.864002025662224" lon="9.275060434947681"><ele>474.0</ele><time>2026-04-18T09:34:47.002Z</time></trkpt><trkpt lat="45.86405097625319" lon="9.274797669078808"><ele>471.33333333333337</ele><time>2026-04-18T09:34:48.002Z</time></trkpt><trkpt lat="45.86410230353779" lon="9.274514754107289"><ele>468.6666666666667</ele><time>2026-04-18T09:34:49.002Z</time></trkpt><trkpt lat="45.86414245057581" lon="9.274244891916899"><ele>466.0</ele><time>2026-04-18T09:34:50.002Z</time></trkpt><trkpt lat="45.86418384163869" lon="9.273957098402734"><ele>465.6666666666667</ele><time>2026-04-18T09:34:51.002Z</time></trkpt><trkpt lat="45.8642308439676" lon="9.273655013453967"><ele>465.33333333333337</ele><time>2026-04-18T09:34:52.003Z</time></trkpt><trkpt lat="45.86428484777083" lon="9.273347725426284"><ele>465.0</ele><time>2026-04-18T09:34:53.003Z</time></trkpt><trkpt lat="45.86434668763809" lon="9.273054523541905"><ele>475.33333333333337</ele><time>2026-04-18T09:34:54Z</time></trkpt><trkpt lat="45.864447747875225" lon="9.272774845223076"><ele>485.6666666666667</ele><time>2026-04-18T09:34:55Z</time></trkpt><trkpt lat="45.86452605180334" lon="9.272468801149637"><ele>496.0</ele><time>2026-04-18T09:34:56Z</time></trkpt><trkpt lat="45.86462878674129" lon="9.27217286169283"><ele>496.0</ele><time>2026-04-18T09:34:57Z</time></trkpt><trkpt lat="45.86472205274727" lon="9.271866089036976"><ele>496.0</ele><time>2026-04-18T09:34:58Z</time></trkpt><trkpt lat="45.864814334567875" lon="9.271565352053178"><ele>492.33333333333337</ele><time>2026-04-18T09:34:59Z</time></trkpt><trkpt lat="45.864903283041414" lon="9.271279305557734"><ele>488.66666666666663</ele><time>2026-04-18T09:35:00Z</time></trkpt><trkpt lat="45.86499173803848" lon="9.271003740638186"><ele>485.0</ele><time>2026-04-18T09:35:01Z</time></trkpt><trkpt lat="45.86507804342626" lon="9.270738848590652"><ele>493.66666666666663</ele><time>2026-04-18T09:35:02Z</time></trkpt><trkpt lat="45.865170275207994" lon="9.270474735838102"><ele>502.33333333333337</ele><time>2026-04-18T09:35:03Z</time></trkpt><trkpt lat="45.86527024622029" lon="9.27020609677323"><ele>511.0</ele><time>2026-04-18T09:35:04Z</time></trkpt><trkpt lat="45.865394059385345" lon="9.26999645115131"><ele>505.0</ele><time>2026-04-18T09:35:05Z</time></trkpt><trkpt lat="45.86543046211902" lon="9.269733122570177"><ele>499.0</ele><time>2026-04-18T09:35:06Z</time></trkpt><trkpt lat="45.86549662683569" lon="9.269470135874707"><ele>493.0</ele><time>2026-04-18T09:35:07Z</time></trkpt><trkpt lat="45.8655671357524" lon="9.269234615279867"><ele>493.0</ele><time>2026-04-18T09:35:08Z</time></trkpt><trkpt lat="45.865634088930705" lon="9.269002758659298"><ele>493.0</ele><time>2026-04-18T09:35:09Z</time></trkpt><trkpt lat="45.86570855365889" lon="9.268773946473987"><ele>493.0</ele><time>2026-04-18T09:35:10Z</time></trkpt><trkpt lat="45.865779014816226" lon="9.26852817439179"><ele>493.0</ele><time>2026-04-18T09:35:11Z</time></trkpt><trkpt lat="45.8658528065551" lon="9.268284387152326"><ele>493.0</ele><time>2026-04-18T09:35:12Z</time></trkpt><trkpt lat="45.86592759115801" lon="9.26805705300092"><ele>493.0</ele><time>2026-04-18T09:35:13Z</time></trkpt><trkpt lat="45.866014722263316" lon="9.26784827140453"><ele>493.0</ele><time>2026-04-18T09:35:14Z</time></trkpt><trkpt lat="45.86612562405968" lon="9.267638613972299"><ele>493.0</ele><time>2026-04-18T09:35:15Z</time></trkpt><trkpt lat="45.866243861897566" lon="9.267431804377798"><ele>493.0</ele><time>2026-04-18T09:35:16Z</time></trkpt><trkpt lat="45.86636681661278" lon="9.26722132842908"><ele>490.6666666666667</ele><time>2026-04-18T09:35:17Z</time></trkpt><trkpt lat="45.86648553276216" lon="9.267001453748545"><ele>488.33333333333337</ele><time>2026-04-18T09:35:18Z</time></trkpt><trkpt lat="45.8666024646679" lon="9.26678542077753"><ele>486.0</ele><time>2026-04-18T09:35:19Z</time></trkpt><trkpt lat="45.86671158074634" lon="9.266581065593966"><ele>486.66666666666663</ele><time>2026-04-18T09:35:20Z</time></trkpt><trkpt lat="45.86680772966604" lon="9.266390610528147"><ele>487.3333333333333</ele><time>2026-04-18T09:35:21Z</time></trkpt><trkpt lat="45.86689260292133" lon="9.266219122777038"><ele>488.0</ele><time>2026-04-18T09:35:22Z</time></trkpt><trkpt lat="45.86698745473142" lon="9.266048448879351"><ele>488.0</ele><time>2026-04-18T09:35:23Z</time></trkpt><trkpt lat="45.867111429433024" lon="9.265917156478046"><ele>488.0</ele><time>2026-04-18T09:35:24Z</time></trkpt><trkpt lat="45.867231746065286" lon="9.265796945269505"><ele>488.0</ele><time>2026-04-18T09:35:25Z</time></trkpt><trkpt lat="45.86735923469403" lon="9.265700183522238"><ele>488.0</ele><time>2026-04-18T09:35:26Z</time></trkpt><trkpt lat="45.867476283400016" lon="9.26560770193308"><ele>486.5</ele><time>2026-04-18T09:35:27Z</time></trkpt><trkpt lat="45.86759429649379" lon="9.26555832646014"><ele>485.0</ele><time>2026-04-18T09:35:28Z</time></trkpt><trkpt lat="45.86769993201266" lon="9.265532097880268"><ele>483.5</ele><time>2026-04-18T09:35:29Z</time></trkpt><trkpt lat="45.86780439628624" lon="9.265506523642419"><ele>482.0</ele><time>2026-04-18T09:35:30Z</time></trkpt><trkpt lat="45.86791941502249" lon="9.26545607458778"><ele>482.0</ele><time>2026-04-18T09:35:31Z</time></trkpt><trkpt lat="45.86804386098266" lon="9.265412284910404"><ele>482.0</ele><time>2026-04-18T09:35:32.001Z</time></trkpt><trkpt lat="45.86817685537012" lon="9.265370947350686"><ele>482.0</ele><time>2026-04-18T09:35:33.001Z</time></trkpt><trkpt lat="45.86831315641614" lon="9.265318469363786"><ele>482.0</ele><time>2026-04-18T09:35:34.001Z</time></trkpt><trkpt lat="45.86844985015441" lon="9.265265517546538"><ele>486.25</ele><time>2026-04-18T09:35:35.001Z</time></trkpt><trkpt lat="45.86859037570037" lon="9.265217420767005"><ele>490.5</ele><time>2026-04-18T09:35:36.001Z</time></trkpt><trkpt lat="45.868715505007096" lon="9.265136257082908"><ele>494.75</ele><time>2026-04-18T09:35:37.001Z</time></trkpt><trkpt lat="45.86882283426667" lon="9.265012184021641"><ele>499.0</ele><time>2026-04-18T09:35:38.001Z</time></trkpt><trkpt lat="45.868911402152996" lon="9.264823836885297"><ele>495.33333333333337</ele><time>2026-04-18T09:35:39.001Z</time></trkpt><trkpt lat="45.86902400930482" lon="9.26462936553887"><ele>491.66666666666663</ele><time>2026-04-18T09:35:40.001Z</time></trkpt><trkpt lat="45.86913259890715" lon="9.264411648601223"><ele>488.0</ele><time>2026-04-18T09:35:41.001Z</time></trkpt><trkpt lat="45.86924912322261" lon="9.264232596446382"><ele>491.75</ele><time>2026-04-18T09:35:42.001Z</time></trkpt><trkpt lat="45.869345569395705" lon="9.26407908686651"><ele>495.5</ele><time>2026-04-18T09:35:43.001Z</time></trkpt><trkpt lat="45.86943822168861" lon="9.26394342696354"><ele>499.25</ele><time>2026-04-18T09:35:44.001Z</time></trkpt><trkpt lat="45.86947326385193" lon="9.263722743162662"><ele>503.0</ele><time>2026-04-18T09:35:45.001Z</time></trkpt><trkpt lat="45.869502507068916" lon="9.263488959702931"><ele>503.0</ele><time>2026-04-18T09:35:46.001Z</time></trkpt><trkpt lat="45.86952370643769" lon="9.263272264048485"><ele>503.0</ele><time>2026-04-18T09:35:47.001Z</time></trkpt><trkpt lat="45.86955326338117" lon="9.263099765866318"><ele>503.0</ele><time>2026-04-18T09:35:48.001Z</time></trkpt><trkpt lat="45.86960889317062" lon="9.262955704421499"><ele>503.0</ele><time>2026-04-18T09:35:49.001Z</time></trkpt><trkpt lat="45.869687758044805" lon="9.262838221269426"><ele>499.75</ele><time>2026-04-18T09:35:50.001Z</time></trkpt><trkpt lat="45.86979662536787" lon="9.262748892608355"><ele>496.5</ele><time>2026-04-18T09:35:51.001Z</time></trkpt><trkpt lat="45.8699260202695" lon="9.262702463609644"><ele>493.25</ele><time>2026-04-18T09:35:52.001Z</time></trkpt><trkpt lat="45.87006943049131" lon="9.262696823839331"><ele>490.0</ele><time>2026-04-18T09:35:53.001Z</time></trkpt><trkpt lat="45.87022703007193" lon="9.262728783383952"><ele>490.0</ele><time>2026-04-18T09:35:54.001Z</time></trkpt><trkpt lat="45.870396597036766" lon="9.262776884572189"><ele>490.0</ele><time>2026-04-18T09:35:55.001Z</time></trkpt><trkpt lat="45.87055118182554" lon="9.262802855626875"><ele>490.0</ele><time>2026-04-18T09:35:56.001Z</time></trkpt><trkpt lat="45.8706968825361" lon="9.262824184869745"><ele>490.0</ele><time>2026-04-18T09:35:57.001Z</time></trkpt><trkpt lat="45.87082834355819" lon="9.262821886714226"><ele>490.0</ele><time>2026-04-18T09:35:58.001Z</time></trkpt><trkpt lat="45.87094921226243" lon="9.262774245035558"><ele>490.0</ele><time>2026-04-18T09:35:59.001Z</time></trkpt><trkpt lat="45.871068204483" lon="9.262682357309242"><ele>490.0</ele><time>2026-04-18T09:36:00.001Z</time></trkpt><trkpt lat="45.87118793626485" lon="9.262569836743689"><ele>490.0</ele><time>2026-04-18T09:36:01.001Z</time></trkpt><trkpt lat="45.87130688739346" lon="9.262461205580498"><ele>490.0</ele><time>2026-04-18T09:36:02.001Z</time></trkpt><trkpt lat="45.87143103081677" lon="9.262380944965713"><ele>490.0</ele><time>2026-04-18T09:36:03.001Z</time></trkpt><trkpt lat="45.87152958529718" lon="9.262262275816596"><ele>490.0</ele><time>2026-04-18T09:36:04.001Z</time></trkpt><trkpt lat="45.8716320185714" lon="9.262163601506913"><ele>490.0</ele><time>2026-04-18T09:36:05.001Z</time></trkpt><trkpt lat="45.87172766305297" lon="9.262065419596885"><ele>490.0</ele><time>2026-04-18T09:36:06.001Z</time></trkpt><trkpt lat="45.871821455643975" lon="9.261976210746873"><ele>490.0</ele><time>2026-04-18T09:36:07.001Z</time></trkpt><trkpt lat="45.87191195963319" lon="9.261887768401786"><ele>490.0</ele><time>2026-04-18T09:36:08.001Z</time></trkpt><trkpt lat="45.87199895498657" lon="9.261799158678611"><ele>490.0</ele><time>2026-04-18T09:36:09.001Z</time></trkpt><trkpt lat="45.872086197909425" lon="9.261712949845899"><ele>490.4</ele><time>2026-04-18T09:36:10.001Z</time></trkpt><trkpt lat="45.8721697720358" lon="9.261630570721227"><ele>490.8</ele><time>2026-04-18T09:36:11.001Z</time></trkpt><trkpt lat="45.8722505495409" lon="9.261549526008025"><ele>491.20000000000005</ele><time>2026-04-18T09:36:12.001Z</time></trkpt><trkpt lat="45.87232969379543" lon="9.261468171672659"><ele>491.6</ele><time>2026-04-18T09:36:13.001Z</time></trkpt><trkpt lat="45.87240873509826" lon="9.261387629702533"><ele>492.0</ele><time>2026-04-18T09:36:14.001Z</time></trkpt><trkpt lat="45.872499375548564" lon="9.261315113411248"><ele>492.0</ele><time>2026-04-18T09:36:15.001Z</time></trkpt><trkpt lat="45.872602373312105" lon="9.261248473650587"><ele>492.0</ele><time>2026-04-18T09:36:16.002Z</time></trkpt><trkpt lat="45.87270422246028" lon="9.261175793586283"><ele>492.0</ele><time>2026-04-18T09:36:17.002Z</time></trkpt><trkpt lat="45.87281108643698" lon="9.261095152421108"><ele>492.0</ele><time>2026-04-18T09:36:18.002Z</time></trkpt><trkpt lat="45.87292915094858" lon="9.261003397520582"><ele>494.5</ele><time>2026-04-18T09:36:19.002Z</time></trkpt><trkpt lat="45.873061417276595" lon="9.260942927564837"><ele>497.0</ele><time>2026-04-18T09:36:20.002Z</time></trkpt><trkpt lat="45.873214900592394" lon="9.260952985041886"><ele>499.5</ele><time>2026-04-18T09:36:21.002Z</time></trkpt><trkpt lat="45.8733560015907" lon="9.261003560646664"><ele>502.0</ele><time>2026-04-18T09:36:22.002Z</time></trkpt><trkpt lat="45.87348162389298" lon="9.261079233062949"><ele>505.0</ele><time>2026-04-18T09:36:23.002Z</time></trkpt><trkpt lat="45.87359091489505" lon="9.261146710218124"><ele>508.0</ele><time>2026-04-18T09:36:24.002Z</time></trkpt><trkpt lat="45.87370580432881" lon="9.2611894106765"><ele>511.0</ele><time>2026-04-18T09:36:25.002Z</time></trkpt><trkpt lat="45.873810243011874" lon="9.261246459895279"><ele>514.0</ele><time>2026-04-18T09:36:26.002Z</time></trkpt><trkpt lat="45.873930895259214" lon="9.261260836590065"><ele>514.0</ele><time>2026-04-18T09:36:27.002Z</time></trkpt><trkpt lat="45.87406599644246" lon="9.261229982946006"><ele>514.0</ele><time>2026-04-18T09:36:28.002Z</time></trkpt><trkpt lat="45.87420371064463" lon="9.261175504213641"><ele>514.0</ele><time>2026-04-18T09:36:29.002Z</time></trkpt><trkpt lat="45.87433668252942" lon="9.261118122650315"><ele>514.0</ele><time>2026-04-18T09:36:30.002Z</time></trkpt><trkpt lat="45.87444845147232" lon="9.261059864887955"><ele>513.5</ele><time>2026-04-18T09:36:31.002Z</time></trkpt><trkpt lat="45.87454905795013" lon="9.260973857822648"><ele>513.0</ele><time>2026-04-18T09:36:32.002Z</time></trkpt><trkpt lat="45.874660820148534" lon="9.260908442794598"><ele>512.5</ele><time>2026-04-18T09:36:33.002Z</time></trkpt><trkpt lat="45.874766901263065" lon="9.260844835214895"><ele>512.0</ele><time>2026-04-18T09:36:34.002Z</time></trkpt><trkpt lat="45.87486932163798" lon="9.260813238083175"><ele>512.0</ele><time>2026-04-18T09:36:35.002Z</time></trkpt><trkpt lat="45.8749634673274" lon="9.260838625320513"><ele>512.0</ele><time>2026-04-18T09:36:36.002Z</time></trkpt><trkpt lat="45.87506310783359" lon="9.260895076248614"><ele>512.0</ele><time>2026-04-18T09:36:37.002Z</time></trkpt><trkpt lat="45.87517726721692" lon="9.260969204028568"><ele>512.0</ele><time>2026-04-18T09:36:38.002Z</time></trkpt><trkpt lat="45.875294575652305" lon="9.261041913125748"><ele>515.5</ele><time>2026-04-18T09:36:39.002Z</time></trkpt><trkpt lat="45.87541436278335" lon="9.261117047885715"><ele>519.0</ele><time>2026-04-18T09:36:40.002Z</time></trkpt><trkpt lat="45.87553718605888" lon="9.261194778327297"><ele>522.5</ele><time>2026-04-18T09:36:41.002Z</time></trkpt><trkpt lat="45.87565781348718" lon="9.261271119073163"><ele>526.0</ele><time>2026-04-18T09:36:42.002Z</time></trkpt><trkpt lat="45.87577473958793" lon="9.26134511738993"><ele>526.0</ele><time>2026-04-18T09:36:43.002Z</time></trkpt><trkpt lat="45.87588203954521" lon="9.261413023627181"><ele>526.0</ele><time>2026-04-18T09:36:44.002Z</time></trkpt><trkpt lat="45.87598022323658" lon="9.26147516058197"><ele>526.0</ele><time>2026-04-18T09:36:45.002Z</time></trkpt><trkpt lat="45.87608198024615" lon="9.261539905650036"><ele>526.0</ele><time>2026-04-18T09:36:46.002Z</time></trkpt><trkpt lat="45.87618513214176" lon="9.261605710924218"><ele>526.0</ele><time>2026-04-18T09:36:47.002Z</time></trkpt><trkpt lat="45.87628757112819" lon="9.26167106129717"><ele>524.5</ele><time>2026-04-18T09:36:48.002Z</time></trkpt><trkpt lat="45.87639157608886" lon="9.261737223219686"><ele>523.0</ele><time>2026-04-18T09:36:49.002Z</time></trkpt><trkpt lat="45.876494022920795" lon="9.261800631090972"><ele>521.5</ele><time>2026-04-18T09:36:50.002Z</time></trkpt><trkpt lat="45.87660274323351" lon="9.261867597681727"><ele>520.0</ele><time>2026-04-18T09:36:51.002Z</time></trkpt><trkpt lat="45.87672226272662" lon="9.261933742423338"><ele>523.75</ele><time>2026-04-18T09:36:52.002Z</time></trkpt><trkpt lat="45.87684907304376" lon="9.261992023286686"><ele>527.5</ele><time>2026-04-18T09:36:53.002Z</time></trkpt><trkpt lat="45.87698428567382" lon="9.26203737876084"><ele>531.25</ele><time>2026-04-18T09:36:54.002Z</time></trkpt><trkpt lat="45.87712486962536" lon="9.262070002717206"><ele>535.0</ele><time>2026-04-18T09:36:55.002Z</time></trkpt><trkpt lat="45.87726789459884" lon="9.26209117177113"><ele>535.0</ele><time>2026-04-18T09:36:56.002Z</time></trkpt><trkpt lat="45.87741468932882" lon="9.262110815075651"><ele>535.0</ele><time>2026-04-18T09:36:57.002Z</time></trkpt><trkpt lat="45.877562157841155" lon="9.262130548562913"><ele>535.0</ele><time>2026-04-18T09:36:58.002Z</time></trkpt><trkpt lat="45.877703962053275" lon="9.262126666296961"><ele>535.0</ele><time>2026-04-18T09:36:59.002Z</time></trkpt><trkpt lat="45.87783019823183" lon="9.262166418407983"><ele>537.5</ele><time>2026-04-18T09:37:00Z</time></trkpt><trkpt lat="45.87794955852417" lon="9.26218239059671"><ele>540.0</ele><time>2026-04-18T09:37:01Z</time></trkpt><trkpt lat="45.878063045068146" lon="9.262197491504576"><ele>542.5</ele><time>2026-04-18T09:37:02Z</time></trkpt><trkpt lat="45.87817328256177" lon="9.262211522696525"><ele>545.0</ele><time>2026-04-18T09:37:03Z</time></trkpt><trkpt lat="45.87827923291297" lon="9.262225008229699"><ele>545.0</ele><time>2026-04-18T09:37:04Z</time></trkpt><trkpt lat="45.878387949305655" lon="9.26221590856246"><ele>545.0</ele><time>2026-04-18T09:37:05Z</time></trkpt><trkpt lat="45.8784917280982" lon="9.262253363203387"><ele>545.0</ele><time>2026-04-18T09:37:06Z</time></trkpt><trkpt lat="45.87859994738301" lon="9.262250785634265"><ele>545.0</ele><time>2026-04-18T09:37:07Z</time></trkpt><trkpt lat="45.87870285007888" lon="9.26228585666533"><ele>545.0</ele><time>2026-04-18T09:37:08Z</time></trkpt><trkpt lat="45.878799753802674" lon="9.262327352714527"><ele>544.8</ele><time>2026-04-18T09:37:09Z</time></trkpt><trkpt lat="45.87888814900997" lon="9.262365265162805"><ele>544.6</ele><time>2026-04-18T09:37:10Z</time></trkpt><trkpt lat="45.878977627962875" lon="9.262404023124823"><ele>544.4</ele><time>2026-04-18T09:37:11Z</time></trkpt><trkpt lat="45.879069784689435" lon="9.262445855833777"><ele>544.2</ele><time>2026-04-18T09:37:12Z</time></trkpt><trkpt lat="45.879166759546735" lon="9.262510030212749"><ele>544.0</ele><time>2026-04-18T09:37:13Z</time></trkpt><trkpt lat="45.879270404236806" lon="9.262553596951335"><ele>544.0</ele><time>2026-04-18T09:37:14Z</time></trkpt><trkpt lat="45.87938129570235" lon="9.262592156564603"><ele>544.0</ele><time>2026-04-18T09:37:15Z</time></trkpt><trkpt lat="45.87950117302662" lon="9.262623366240161"><ele>544.0</ele><time>2026-04-18T09:37:16Z</time></trkpt><trkpt lat="45.87962026850556" lon="9.262648434942282"><ele>544.0</ele><time>2026-04-18T09:37:17Z</time></trkpt><trkpt lat="45.87974410372197" lon="9.262649071369875"><ele>544.0</ele><time>2026-04-18T09:37:18Z</time></trkpt><trkpt lat="45.879865955950606" lon="9.262675585042548"><ele>544.0</ele><time>2026-04-18T09:37:19Z</time></trkpt><trkpt lat="45.879989543991854" lon="9.262695303856813"><ele>544.0</ele><time>2026-04-18T09:37:20Z</time></trkpt><trkpt lat="45.88011069973043" lon="9.262715174269742"><ele>544.0</ele><time>2026-04-18T09:37:21Z</time></trkpt><trkpt lat="45.880235244677884" lon="9.262736061323922"><ele>544.75</ele><time>2026-04-18T09:37:22Z</time></trkpt><trkpt lat="45.880357505308375" lon="9.262781543550535"><ele>545.5</ele><time>2026-04-18T09:37:23Z</time></trkpt><trkpt lat="45.88048200147721" lon="9.262807162997113"><ele>546.25</ele><time>2026-04-18T09:37:24Z</time></trkpt><trkpt lat="45.880604646528546" lon="9.262835446242091"><ele>547.0</ele><time>2026-04-18T09:37:25Z</time></trkpt><trkpt lat="45.88072790705171" lon="9.26286801198107"><ele>547.0</ele><time>2026-04-18T09:37:26Z</time></trkpt><trkpt lat="45.88085333601487" lon="9.26290579679065"><ele>547.0</ele><time>2026-04-18T09:37:27Z</time></trkpt><trkpt lat="45.88098356629829" lon="9.262946056711883"><ele>547.0</ele><time>2026-04-18T09:37:28Z</time></trkpt><trkpt lat="45.8811124835669" lon="9.262984008431191"><ele>547.0</ele><time>2026-04-18T09:37:29Z</time></trkpt><trkpt lat="45.88124099408975" lon="9.263021840427534"><ele>547.0</ele><time>2026-04-18T09:37:30Z</time></trkpt><trkpt lat="45.88137030220046" lon="9.263059907222155"><ele>547.0</ele><time>2026-04-18T09:37:31Z</time></trkpt><trkpt lat="45.88148477837117" lon="9.263093607737131"><ele>547.0</ele><time>2026-04-18T09:37:32Z</time></trkpt><trkpt lat="45.88158235330475" lon="9.263122331801672"><ele>547.0</ele><time>2026-04-18T09:37:33Z</time></trkpt><trkpt lat="45.88165610048504" lon="9.263143291280416"><ele>547.0</ele><time>2026-04-18T09:37:34Z</time></trkpt><trkpt lat="45.88174868212123" lon="9.263170005605211"><ele>543.8000000000001</ele><time>2026-04-18T09:37:36Z</time></trkpt><trkpt lat="45.881851090558044" lon="9.263199555456874"><ele>540.6</ele><time>2026-04-18T09:37:42Z</time></trkpt><trkpt lat="45.8819399218388" lon="9.26320105667299"><ele>537.4000000000001</ele><time>2026-04-18T09:37:43Z</time></trkpt><trkpt lat="45.88204020592884" lon="9.263241195724412"><ele>534.2</ele><time>2026-04-18T09:37:44Z</time></trkpt><trkpt lat="45.88215865538396" lon="9.263293855198869"><ele>531.0</ele><time>2026-04-18T09:37:45Z</time></trkpt><trkpt lat="45.882299556728476" lon="9.263344382958612"><ele>531.0</ele><time>2026-04-18T09:37:46Z</time></trkpt><trkpt lat="45.882440799755706" lon="9.263379632112107"><ele>531.0</ele><time>2026-04-18T09:37:47Z</time></trkpt><trkpt lat="45.88259986995176" lon="9.263432483617"><ele>531.0</ele><time>2026-04-18T09:37:48Z</time></trkpt><trkpt lat="45.88277919636057" lon="9.263496720066252"><ele>533.3333333333334</ele><time>2026-04-18T09:37:49Z</time></trkpt><trkpt lat="45.88296743626284" lon="9.263553598115356"><ele>535.6666666666667</ele><time>2026-04-18T09:37:50Z</time></trkpt><trkpt lat="45.88315550063954" lon="9.263605935661401"><ele>538.0</ele><time>2026-04-18T09:37:51Z</time></trkpt><trkpt lat="45.88335129684773" lon="9.263666453834938"><ele>540.0</ele><time>2026-04-18T09:37:52Z</time></trkpt><trkpt lat="45.88352534944901" lon="9.263695785484137"><ele>542.0</ele><time>2026-04-18T09:37:53Z</time></trkpt><trkpt lat="45.883754843710044" lon="9.263761157904082"><ele>544.0</ele><time>2026-04-18T09:37:54Z</time></trkpt><trkpt lat="45.88396827654399" lon="9.263819000544455"><ele>544.0</ele><time>2026-04-18T09:37:55Z</time></trkpt><trkpt lat="45.88417374902895" lon="9.263868512264603"><ele>544.0</ele><time>2026-04-18T09:37:56Z</time></trkpt><trkpt lat="45.88435413851644" lon="9.263907986698191"><ele>544.0</ele><time>2026-04-18T09:37:57Z</time></trkpt><trkpt lat="45.88452016392535" lon="9.263926192632397"><ele>544.25</ele><time>2026-04-18T09:37:58Z</time></trkpt><trkpt lat="45.88465818242424" lon="9.263901407199459"><ele>544.5</ele><time>2026-04-18T09:37:59Z</time></trkpt><trkpt lat="45.884768348035955" lon="9.263870424897203"><ele>544.75</ele><time>2026-04-18T09:38:00Z</time></trkpt><trkpt lat="45.88486621123327" lon="9.26379395944732"><ele>545.0</ele><time>2026-04-18T09:38:01Z</time></trkpt><trkpt lat="45.884953450257505" lon="9.263651397059759"><ele>545.0</ele><time>2026-04-18T09:38:02Z</time></trkpt><trkpt lat="45.88502066319629" lon="9.263458568142633"><ele>545.0</ele><time>2026-04-18T09:38:03Z</time></trkpt><trkpt lat="45.885093788587405" lon="9.263255929874887"><ele>545.0</ele><time>2026-04-18T09:38:04Z</time></trkpt><trkpt lat="45.88518611045118" lon="9.263043022406078"><ele>545.6666666666666</ele><time>2026-04-18T09:38:05Z</time></trkpt><trkpt lat="45.88527519924715" lon="9.262853470614969"><ele>546.3333333333334</ele><time>2026-04-18T09:38:06.001Z</time></trkpt><trkpt lat="45.88539787948249" lon="9.262669702601064"><ele>547.0</ele><time>2026-04-18T09:38:07.001Z</time></trkpt><trkpt lat="45.885540804213136" lon="9.262576747540173"><ele>547.0</ele><time>2026-04-18T09:38:08.001Z</time></trkpt><trkpt lat="45.88570708199089" lon="9.262475531807542"><ele>547.0</ele><time>2026-04-18T09:38:09.001Z</time></trkpt><trkpt lat="45.885894990123354" lon="9.262371087897836"><ele>547.0</ele><time>2026-04-18T09:38:10.001Z</time></trkpt><trkpt lat="45.88608870206309" lon="9.262263179706524"><ele>546.6666666666667</ele><time>2026-04-18T09:38:11.001Z</time></trkpt><trkpt lat="45.88631690528504" lon="9.262134500208814"><ele>546.3333333333334</ele><time>2026-04-18T09:38:12.001Z</time></trkpt><trkpt lat="45.886504380898145" lon="9.26202878594388"><ele>546.0</ele><time>2026-04-18T09:38:13.001Z</time></trkpt><trkpt lat="45.88669765826983" lon="9.261894047080219"><ele>549.5</ele><time>2026-04-18T09:38:14.001Z</time></trkpt><trkpt lat="45.88690796550552" lon="9.261780901075714"><ele>553.0</ele><time>2026-04-18T09:38:15.001Z</time></trkpt><trkpt lat="45.887123088997704" lon="9.261665733993764"><ele>553.0</ele><time>2026-04-18T09:38:16.001Z</time></trkpt><trkpt lat="45.88734926895826" lon="9.261535199586856"><ele>553.0</ele><time>2026-04-18T09:38:17.001Z</time></trkpt><trkpt lat="45.88758187725071" lon="9.261403296587584"><ele>555.5</ele><time>2026-04-18T09:38:18.001Z</time></trkpt><trkpt lat="45.88781080485372" lon="9.261268395401236"><ele>558.0</ele><time>2026-04-18T09:38:19.001Z</time></trkpt><trkpt lat="45.88801550622093" lon="9.261152279131837"><ele>558.0</ele><time>2026-04-18T09:38:20.001Z</time></trkpt><trkpt lat="45.88820509495126" lon="9.26104592971041"><ele>558.0</ele><time>2026-04-18T09:38:21.001Z</time></trkpt><trkpt lat="45.88838319873484" lon="9.26094739566565"><ele>558.0</ele><time>2026-04-18T09:38:22.001Z</time></trkpt><trkpt lat="45.88857318267836" lon="9.26088973085089"><ele>558.3333333333334</ele><time>2026-04-18T09:38:23.001Z</time></trkpt><trkpt lat="45.88876818755816" lon="9.260776831507139"><ele>558.6666666666667</ele><time>2026-04-18T09:38:24.001Z</time></trkpt><trkpt lat="45.88898107274037" lon="9.260744655899762"><ele>559.0</ele><time>2026-04-18T09:38:25.001Z</time></trkpt><trkpt lat="45.88918023572067" lon="9.260699889522641"><ele>559.0</ele><time>2026-04-18T09:38:26.001Z</time></trkpt><trkpt lat="45.889368133104085" lon="9.260643426534783"><ele>559.0</ele><time>2026-04-18T09:38:27.001Z</time></trkpt><trkpt lat="45.889543947007944" lon="9.26058915339007"><ele>559.0</ele><time>2026-04-18T09:38:28.001Z</time></trkpt><trkpt lat="45.8897200897607" lon="9.260550607563605"><ele>561.3333333333334</ele><time>2026-04-18T09:38:29.001Z</time></trkpt><trkpt lat="45.889891226821774" lon="9.260534368031227"><ele>563.6666666666666</ele><time>2026-04-18T09:38:30.001Z</time></trkpt><trkpt lat="45.89006733588523" lon="9.260544870619972"><ele>566.0</ele><time>2026-04-18T09:38:31.001Z</time></trkpt><trkpt lat="45.89022655428778" lon="9.26055833502031"><ele>567.3333333333333</ele><time>2026-04-18T09:38:32.001Z</time></trkpt><trkpt lat="45.890381726723696" lon="9.260563162917634"><ele>568.6666666666666</ele><time>2026-04-18T09:38:33.001Z</time></trkpt><trkpt lat="45.89052987490556" lon="9.260589384143621"><ele>570.0</ele><time>2026-04-18T09:38:34.001Z</time></trkpt><trkpt lat="45.890676059327575" lon="9.260592960776755"><ele>570.0</ele><time>2026-04-18T09:38:35.001Z</time></trkpt><trkpt lat="45.890818976188186" lon="9.26059510909343"><ele>570.0</ele><time>2026-04-18T09:38:36.001Z</time></trkpt><trkpt lat="45.8909602690432" lon="9.260599327193274"><ele>570.0</ele><time>2026-04-18T09:38:37.001Z</time></trkpt><trkpt lat="45.89109501338321" lon="9.260593517474552"><ele>570.0</ele><time>2026-04-18T09:38:38.001Z</time></trkpt><trkpt lat="45.8912353183094" lon="9.260599444466473"><ele>567.6666666666666</ele><time>2026-04-18T09:38:39.001Z</time></trkpt><trkpt lat="45.891384860362486" lon="9.2606390890113"><ele>565.3333333333333</ele><time>2026-04-18T09:38:40.001Z</time></trkpt><trkpt lat="45.89153699680256" lon="9.260698155083187"><ele>563.0</ele><time>2026-04-18T09:38:41.001Z</time></trkpt><trkpt lat="45.8916965271001" lon="9.260764326677815"><ele>567.0</ele><time>2026-04-18T09:38:42.001Z</time></trkpt><trkpt lat="45.8918517931228" lon="9.26082872970825"><ele>571.0</ele><time>2026-04-18T09:38:43.001Z</time></trkpt><trkpt lat="45.892017293110634" lon="9.260892193253046"><ele>575.0</ele><time>2026-04-18T09:38:44.001Z</time></trkpt><trkpt lat="45.89217468684205" lon="9.260954498440247"><ele>575.0</ele><time>2026-04-18T09:38:45.001Z</time></trkpt><trkpt lat="45.89233830777777" lon="9.261020591047032"><ele>575.0</ele><time>2026-04-18T09:38:46.001Z</time></trkpt><trkpt lat="45.89250562297551" lon="9.261088173777539"><ele>575.0</ele><time>2026-04-18T09:38:47.001Z</time></trkpt><trkpt lat="45.89266815214718" lon="9.261153823344562"><ele>578.3333333333333</ele><time>2026-04-18T09:38:48.001Z</time></trkpt><trkpt lat="45.89282489059665" lon="9.261217015442357"><ele>581.6666666666666</ele><time>2026-04-18T09:38:49.001Z</time></trkpt><trkpt lat="45.8929784838295" lon="9.261255769086587"><ele>585.0</ele><time>2026-04-18T09:38:50.001Z</time></trkpt><trkpt lat="45.893128352890486" lon="9.261313367339888"><ele>585.0</ele><time>2026-04-18T09:38:51.001Z</time></trkpt><trkpt lat="45.893264730702256" lon="9.261388774817739"><ele>585.0</ele><time>2026-04-18T09:38:52.002Z</time></trkpt><trkpt lat="45.89339153440924" lon="9.261430847719003"><ele>585.0</ele><time>2026-04-18T09:38:53.002Z</time></trkpt><trkpt lat="45.893520216650586" lon="9.261431168018248"><ele>585.0</ele><time>2026-04-18T09:38:54.002Z</time></trkpt><trkpt lat="45.89366013175468" lon="9.261457021021398"><ele>582.3333333333334</ele><time>2026-04-18T09:38:55.002Z</time></trkpt><trkpt lat="45.89381317955799" lon="9.261469729316246"><ele>579.6666666666667</ele><time>2026-04-18T09:38:56.002Z</time></trkpt><trkpt lat="45.89397514693901" lon="9.261483038422421"><ele>577.0</ele><time>2026-04-18T09:38:57.002Z</time></trkpt><trkpt lat="45.894141088095594" lon="9.261496650981577"><ele>580.6666666666667</ele><time>2026-04-18T09:38:58.002Z</time></trkpt><trkpt lat="45.89430846653927" lon="9.261509233892427"><ele>584.3333333333334</ele><time>2026-04-18T09:38:59.002Z</time></trkpt><trkpt lat="45.89447036462805" lon="9.261521242916995"><ele>588.0</ele><time>2026-04-18T09:39:00.002Z</time></trkpt><trkpt lat="45.89463227154528" lon="9.26153505537049"><ele>588.0</ele><time>2026-04-18T09:39:01.002Z</time></trkpt><trkpt lat="45.894785583623516" lon="9.261565175057612"><ele>588.0</ele><time>2026-04-18T09:39:02.002Z</time></trkpt><trkpt lat="45.89494714765511" lon="9.261629848009143"><ele>588.0</ele><time>2026-04-18T09:39:03.002Z</time></trkpt><trkpt lat="45.89509766459526" lon="9.261693920842555"><ele>592.0</ele><time>2026-04-18T09:39:04.002Z</time></trkpt><trkpt lat="45.895234146415476" lon="9.261748890538763"><ele>596.0</ele><time>2026-04-18T09:39:05.002Z</time></trkpt><trkpt lat="45.895349798696955" lon="9.261793900665367"><ele>600.0</ele><time>2026-04-18T09:39:05.999Z</time></trkpt><trkpt lat="45.89545537057259" lon="9.261834600448843"><ele>604.0</ele><time>2026-04-18T09:39:06.999Z</time></trkpt><trkpt lat="45.895570932352754" lon="9.26187915148982"><ele>604.0</ele><time>2026-04-18T09:39:07.999Z</time></trkpt><trkpt lat="45.895697953307746" lon="9.26192812028403"><ele>604.0</ele><time>2026-04-18T09:39:08.999Z</time></trkpt><trkpt lat="45.89581975898963" lon="9.261990009746436"><ele>604.0</ele><time>2026-04-18T09:39:09.999Z</time></trkpt><trkpt lat="45.8959199552883" lon="9.26208247804309"><ele>604.0</ele><time>2026-04-18T09:39:10.999Z</time></trkpt><trkpt lat="45.89601040925784" lon="9.262183952882099"><ele>603.4</ele><time>2026-04-18T09:39:11.999Z</time></trkpt><trkpt lat="45.896099529557645" lon="9.262287215447724"><ele>602.8</ele><time>2026-04-18T09:39:12.999Z</time></trkpt><trkpt lat="45.896184234072706" lon="9.26237584418546"><ele>602.2</ele><time>2026-04-18T09:39:13.999Z</time></trkpt><trkpt lat="45.896275866720714" lon="9.262458262641738"><ele>601.6</ele><time>2026-04-18T09:39:14.999Z</time></trkpt><trkpt lat="45.89637742602995" lon="9.26252868605649"><ele>601.0</ele><time>2026-04-18T09:39:15.999Z</time></trkpt><trkpt lat="45.89648933472222" lon="9.262562383612233"><ele>601.0</ele><time>2026-04-18T09:39:16.999Z</time></trkpt><trkpt lat="45.896604402345375" lon="9.262607640096158"><ele>601.0</ele><time>2026-04-18T09:39:17.999Z</time></trkpt><trkpt lat="45.89671471780028" lon="9.262671034221983"><ele>601.0</ele><time>2026-04-18T09:39:18.999Z</time></trkpt><trkpt lat="45.89683136518541" lon="9.262719291812317"><ele>601.0</ele><time>2026-04-18T09:39:19.999Z</time></trkpt><trkpt lat="45.89694141495639" lon="9.262779863690039"><ele>605.75</ele><time>2026-04-18T09:39:20.999Z</time></trkpt><trkpt lat="45.897052538211355" lon="9.26284582104104"><ele>610.5</ele><time>2026-04-18T09:39:21.999Z</time></trkpt><trkpt lat="45.897166720030086" lon="9.262914564789913"><ele>615.25</ele><time>2026-04-18T09:39:23Z</time></trkpt><trkpt lat="45.89729170904464" lon="9.262989812932773"><ele>620.0</ele><time>2026-04-18T09:39:24Z</time></trkpt><trkpt lat="45.89743067914354" lon="9.263067817896298"><ele>614.6666666666666</ele><time>2026-04-18T09:39:25Z</time></trkpt><trkpt lat="45.89757652823023" lon="9.263132659193428"><ele>609.3333333333334</ele><time>2026-04-18T09:39:26Z</time></trkpt><trkpt lat="45.897734098243916" lon="9.263163279301825"><ele>604.0</ele><time>2026-04-18T09:39:27Z</time></trkpt><trkpt lat="45.89788361308882" lon="9.263244089867126"><ele>604.0</ele><time>2026-04-18T09:39:28Z</time></trkpt><trkpt lat="45.89802985056882" lon="9.263327554129171"><ele>604.0</ele><time>2026-04-18T09:39:29Z</time></trkpt><trkpt lat="45.898170859210815" lon="9.26342811050429"><ele>604.0</ele><time>2026-04-18T09:39:30Z</time></trkpt><trkpt lat="45.89834096253423" lon="9.263507922313556"><ele>608.0</ele><time>2026-04-18T09:39:31Z</time></trkpt><trkpt lat="45.8984880486611" lon="9.263652579157686"><ele>612.0</ele><time>2026-04-18T09:39:32Z</time></trkpt><trkpt lat="45.89862270629456" lon="9.263793216747523"><ele>616.0</ele><time>2026-04-18T09:39:33Z</time></trkpt><trkpt lat="45.898739053685496" lon="9.263928932420937"><ele>613.25</ele><time>2026-04-18T09:39:34Z</time></trkpt><trkpt lat="45.898856650853894" lon="9.264042086421082"><ele>610.5</ele><time>2026-04-18T09:39:35Z</time></trkpt><trkpt lat="45.89899241524319" lon="9.264123900391441"><ele>607.75</ele><time>2026-04-18T09:39:36Z</time></trkpt><trkpt lat="45.899136485301604" lon="9.264176152474167"><ele>605.0</ele><time>2026-04-18T09:39:37Z</time></trkpt><trkpt lat="45.89927463829808" lon="9.264199635748257"><ele>605.0</ele><time>2026-04-18T09:39:38Z</time></trkpt><trkpt lat="45.899419925550525" lon="9.264182215891994"><ele>605.0</ele><time>2026-04-18T09:39:39Z</time></trkpt><trkpt lat="45.89957723951347" lon="9.264177863446204"><ele>605.0</ele><time>2026-04-18T09:39:40Z</time></trkpt><trkpt lat="45.89973900620839" lon="9.264162126243228"><ele>605.0</ele><time>2026-04-18T09:39:41Z</time></trkpt><trkpt lat="45.89991260990625" lon="9.264145237502646"><ele>605.0</ele><time>2026-04-18T09:39:42Z</time></trkpt><trkpt lat="45.90009275102013" lon="9.264130697703635"><ele>605.0</ele><time>2026-04-18T09:39:43Z</time></trkpt><trkpt lat="45.9002711958012" lon="9.26411464899265"><ele>605.0</ele><time>2026-04-18T09:39:44Z</time></trkpt><trkpt lat="45.900437507195605" lon="9.264097949157556"><ele>605.0</ele><time>2026-04-18T09:39:45Z</time></trkpt><trkpt lat="45.90058229684818" lon="9.26408350800446"><ele>605.0</ele><time>2026-04-18T09:39:46Z</time></trkpt><trkpt lat="45.90071999958148" lon="9.2640710677711"><ele>605.0</ele><time>2026-04-18T09:39:47Z</time></trkpt><trkpt lat="45.90084946867262" lon="9.264062360956586"><ele>605.0</ele><time>2026-04-18T09:39:48Z</time></trkpt><trkpt lat="45.900964006086035" lon="9.264065948592778"><ele>605.0</ele><time>2026-04-18T09:39:49Z</time></trkpt><trkpt lat="45.90107457610188" lon="9.26409979349358"><ele>605.0</ele><time>2026-04-18T09:39:50Z</time></trkpt><trkpt lat="45.90118471466796" lon="9.264175111226548"><ele>607.75</ele><time>2026-04-18T09:39:51Z</time></trkpt><trkpt lat="45.90130661327506" lon="9.264258747015543"><ele>610.5</ele><time>2026-04-18T09:39:52Z</time></trkpt><trkpt lat="45.90142973603907" lon="9.26434765797433"><ele>613.25</ele><time>2026-04-18T09:39:53Z</time></trkpt><trkpt lat="45.90154779448332" lon="9.264438271290583"><ele>616.0</ele><time>2026-04-18T09:39:54.001Z</time></trkpt><trkpt lat="45.90166175350322" lon="9.264538736274261"><ele>616.25</ele><time>2026-04-18T09:39:55.001Z</time></trkpt><trkpt lat="45.901766228875296" lon="9.264655906762393"><ele>616.5</ele><time>2026-04-18T09:39:56.001Z</time></trkpt><trkpt lat="45.90186410237507" lon="9.264783373883457"><ele>616.75</ele><time>2026-04-18T09:39:57.001Z</time></trkpt><trkpt lat="45.90196203311958" lon="9.264921216730874"><ele>617.0</ele><time>2026-04-18T09:39:58.001Z</time></trkpt><trkpt lat="45.90206094856449" lon="9.265057725673357"><ele>617.0</ele><time>2026-04-18T09:39:59.001Z</time></trkpt><trkpt lat="45.90216163731501" lon="9.265191907771676"><ele>617.0</ele><time>2026-04-18T09:40:00.001Z</time></trkpt><trkpt lat="45.90226701073055" lon="9.26530889271599"><ele>617.0</ele><time>2026-04-18T09:40:01.001Z</time></trkpt><trkpt lat="45.90238756616279" lon="9.265388437007408"><ele>617.0</ele><time>2026-04-18T09:40:02.001Z</time></trkpt><trkpt lat="45.902511890375415" lon="9.265454236279746"><ele>616.75</ele><time>2026-04-18T09:40:03.001Z</time></trkpt><trkpt lat="45.90264779381824" lon="9.26552356857771"><ele>616.5</ele><time>2026-04-18T09:40:04.001Z</time></trkpt><trkpt lat="45.90280052913744" lon="9.265551228893969"><ele>616.25</ele><time>2026-04-18T09:40:05.001Z</time></trkpt><trkpt lat="45.90294153377732" lon="9.26559089557708"><ele>616.0</ele><time>2026-04-18T09:40:06.001Z</time></trkpt><trkpt lat="45.9030783619163" lon="9.265660397167059"><ele>616.0</ele><time>2026-04-18T09:40:07.001Z</time></trkpt><trkpt lat="45.90321979384594" lon="9.265758620698774"><ele>616.0</ele><time>2026-04-18T09:40:08.001Z</time></trkpt><trkpt lat="45.90335739169333" lon="9.265835671057742"><ele>616.0</ele><time>2026-04-18T09:40:09.001Z</time></trkpt><trkpt lat="45.903495174823085" lon="9.265895031950498"><ele>616.0</ele><time>2026-04-18T09:40:10.001Z</time></trkpt><trkpt lat="45.90362317263255" lon="9.265965195341863"><ele>616.25</ele><time>2026-04-18T09:40:11.001Z</time></trkpt><trkpt lat="45.903749310755316" lon="9.266057321676206"><ele>616.5</ele><time>2026-04-18T09:40:12.001Z</time></trkpt><trkpt lat="45.90384180043741" lon="9.266184897050115"><ele>616.75</ele><time>2026-04-18T09:40:13.001Z</time></trkpt><trkpt lat="45.90394612135063" lon="9.266292929160741"><ele>617.0</ele><time>2026-04-18T09:40:14.001Z</time></trkpt><trkpt lat="45.90403985931635" lon="9.266390563003505"><ele>616.25</ele><time>2026-04-18T09:40:15.001Z</time></trkpt><trkpt lat="45.904137332555685" lon="9.266487349017591"><ele>615.5</ele><time>2026-04-18T09:40:16.001Z</time></trkpt><trkpt lat="45.904245795758506" lon="9.266568299551304"><ele>614.75</ele><time>2026-04-18T09:40:17.001Z</time></trkpt><trkpt lat="45.904369030249086" lon="9.266595049314391"><ele>614.0</ele><time>2026-04-18T09:40:18.001Z</time></trkpt><trkpt lat="45.904496190972935" lon="9.266605222476592"><ele>613.25</ele><time>2026-04-18T09:40:19.001Z</time></trkpt><trkpt lat="45.90462721113315" lon="9.266613378641196"><ele>612.5</ele><time>2026-04-18T09:40:20.001Z</time></trkpt><trkpt lat="45.90475106917783" lon="9.266490406497626"><ele>611.75</ele><time>2026-04-18T09:40:21.001Z</time></trkpt><trkpt lat="45.90487516623824" lon="9.26638403708297"><ele>611.0</ele><time>2026-04-18T09:40:22.001Z</time></trkpt><trkpt lat="45.905005517791125" lon="9.266272526871388"><ele>611.75</ele><time>2026-04-18T09:40:23.001Z</time></trkpt><trkpt lat="45.90513785697632" lon="9.266186397129417"><ele>612.5</ele><time>2026-04-18T09:40:24.001Z</time></trkpt><trkpt lat="45.90527379573045" lon="9.266087690477995"><ele>613.25</ele><time>2026-04-18T09:40:25.001Z</time></trkpt><trkpt lat="45.90540433919482" lon="9.265992752344877"><ele>614.0</ele><time>2026-04-18T09:40:26.001Z</time></trkpt><trkpt lat="45.9055372641303" lon="9.265902684688141"><ele>614.0</ele><time>2026-04-18T09:40:27.001Z</time></trkpt><trkpt lat="45.90567429080405" lon="9.26580973656069"><ele>614.0</ele><time>2026-04-18T09:40:28.001Z</time></trkpt><trkpt lat="45.90580973057665" lon="9.265713684796053"><ele>614.0</ele><time>2026-04-18T09:40:29.001Z</time></trkpt><trkpt lat="45.90593961446808" lon="9.265613740523728"><ele>615.6666666666666</ele><time>2026-04-18T09:40:30.001Z</time></trkpt><trkpt lat="45.90606624795503" lon="9.265497657562925"><ele>617.3333333333334</ele><time>2026-04-18T09:40:31.001Z</time></trkpt><trkpt lat="45.90618932221805" lon="9.265372260705703"><ele>619.0</ele><time>2026-04-18T09:40:32.001Z</time></trkpt><trkpt lat="45.90631045636547" lon="9.265242588765862"><ele>619.0</ele><time>2026-04-18T09:40:33.001Z</time></trkpt><trkpt lat="45.90643498636731" lon="9.265108264220068"><ele>619.0</ele><time>2026-04-18T09:40:34.001Z</time></trkpt><trkpt lat="45.906566712943416" lon="9.264970127254458"><ele>619.0</ele><time>2026-04-18T09:40:35.001Z</time></trkpt><trkpt lat="45.9067003363526" lon="9.264828670097819"><ele>622.0</ele><time>2026-04-18T09:40:36.002Z</time></trkpt><trkpt lat="45.90683257315358" lon="9.264690643323304"><ele>625.0</ele><time>2026-04-18T09:40:37.002Z</time></trkpt><trkpt lat="45.906969179111044" lon="9.26454398316129"><ele>628.0</ele><time>2026-04-18T09:40:38.002Z</time></trkpt><trkpt lat="45.90710030561705" lon="9.264406292857588"><ele>628.0</ele><time>2026-04-18T09:40:39.002Z</time></trkpt><trkpt lat="45.90722661290243" lon="9.26427227894732"><ele>628.0</ele><time>2026-04-18T09:40:40.002Z</time></trkpt><trkpt lat="45.90735171274412" lon="9.264138374458835"><ele>628.0</ele><time>2026-04-18T09:40:41.002Z</time></trkpt><trkpt lat="45.907481673134605" lon="9.264007529097979"><ele>637.6666666666667</ele><time>2026-04-18T09:40:42.002Z</time></trkpt><trkpt lat="45.90761312225522" lon="9.263889796717597"><ele>647.3333333333334</ele><time>2026-04-18T09:40:43.002Z</time></trkpt><trkpt lat="45.90774481706354" lon="9.263789199626265"><ele>657.0</ele><time>2026-04-18T09:40:44.002Z</time></trkpt><trkpt lat="45.90788694403775" lon="9.263724019614259"><ele>657.0</ele><time>2026-04-18T09:40:45.002Z</time></trkpt><trkpt lat="45.90802688390839" lon="9.26364559138405"><ele>657.0</ele><time>2026-04-18T09:40:46.002Z</time></trkpt><trkpt lat="45.90816746029694" lon="9.26356961987608"><ele>657.0</ele><time>2026-04-18T09:40:47.002Z</time></trkpt><trkpt lat="45.90830887762951" lon="9.26347700860128"><ele>651.0</ele><time>2026-04-18T09:40:48.002Z</time></trkpt><trkpt lat="45.90845785094155" lon="9.263405141581618"><ele>645.0</ele><time>2026-04-18T09:40:49.002Z</time></trkpt><trkpt lat="45.90860880675139" lon="9.263323524727948"><ele>639.0</ele><time>2026-04-18T09:40:50.002Z</time></trkpt><trkpt lat="45.90875681580691" lon="9.263239825354848"><ele>639.0</ele><time>2026-04-18T09:40:51.002Z</time></trkpt><trkpt lat="45.908903323293515" lon="9.263153883550771"><ele>639.0</ele><time>2026-04-18T09:40:52.002Z</time></trkpt><trkpt lat="45.90905739327044" lon="9.263068030930945"><ele>639.0</ele><time>2026-04-18T09:40:53.002Z</time></trkpt><trkpt lat="45.90921469274883" lon="9.263006521320234"><ele>651.0</ele><time>2026-04-18T09:40:54.002Z</time></trkpt><trkpt lat="45.909367087115925" lon="9.262925515986913"><ele>663.0</ele><time>2026-04-18T09:40:55.002Z</time></trkpt><trkpt lat="45.90951945211029" lon="9.262844526289275"><ele>675.0</ele><time>2026-04-18T09:40:56.002Z</time></trkpt><trkpt lat="45.90966169321189" lon="9.262771675635076"><ele>675.0</ele><time>2026-04-18T09:40:57.002Z</time></trkpt><trkpt lat="45.90979290455335" lon="9.262707690150071"><ele>675.0</ele><time>2026-04-18T09:40:58.002Z</time></trkpt><trkpt lat="45.90991497954646" lon="9.262652308777158"><ele>675.0</ele><time>2026-04-18T09:40:59.002Z</time></trkpt><trkpt lat="45.91004959876552" lon="9.262612083450232"><ele>675.0</ele><time>2026-04-18T09:41:00.002Z</time></trkpt><trkpt lat="45.91018919225773" lon="9.262591516918079"><ele>676.0</ele><time>2026-04-18T09:41:01.002Z</time></trkpt><trkpt lat="45.91033382795886" lon="9.262594641922751"><ele>677.0</ele><time>2026-04-18T09:41:02.002Z</time></trkpt><trkpt lat="45.910474590298996" lon="9.262603529312885"><ele>678.0</ele><time>2026-04-18T09:41:03.002Z</time></trkpt><trkpt lat="45.91061886781637" lon="9.262619622367653"><ele>679.0</ele><time>2026-04-18T09:41:04.002Z</time></trkpt><trkpt lat="45.910763857471935" lon="9.262635098951508"><ele>678.75</ele><time>2026-04-18T09:41:05.002Z</time></trkpt><trkpt lat="45.910908764287576" lon="9.262650566693049"><ele>678.5</ele><time>2026-04-18T09:41:06.002Z</time></trkpt><trkpt lat="45.91104245671057" lon="9.262664837381267"><ele>678.25</ele><time>2026-04-18T09:41:07.002Z</time></trkpt><trkpt lat="45.91117313458089" lon="9.262676340507287"><ele>678.0</ele><time>2026-04-18T09:41:08.002Z</time></trkpt><trkpt lat="45.91131113547783" lon="9.262666741860272"><ele>678.0</ele><time>2026-04-18T09:41:09.002Z</time></trkpt><trkpt lat="45.91144951469155" lon="9.262600686053267"><ele>678.0</ele><time>2026-04-18T09:41:10.002Z</time></trkpt><trkpt lat="45.91157951212855" lon="9.262526218380927"><ele>678.0</ele><time>2026-04-18T09:41:11.002Z</time></trkpt><trkpt lat="45.911699640315824" lon="9.262421002690207"><ele>678.0</ele><time>2026-04-18T09:41:12Z</time></trkpt><trkpt lat="45.91180699332905" lon="9.262292332160182"><ele>679.25</ele><time>2026-04-18T09:41:13Z</time></trkpt><trkpt lat="45.9118967882891" lon="9.262134569748751"><ele>680.5</ele><time>2026-04-18T09:41:14Z</time></trkpt><trkpt lat="45.91197004364984" lon="9.261950690211924"><ele>681.75</ele><time>2026-04-18T09:41:15Z</time></trkpt><trkpt lat="45.91203263036579" lon="9.261757744748573"><ele>683.0</ele><time>2026-04-18T09:41:16Z</time></trkpt><trkpt lat="45.9121005633175" lon="9.261555546636997"><ele>687.25</ele><time>2026-04-18T09:41:17Z</time></trkpt><trkpt lat="45.912166918872664" lon="9.261360434052973"><ele>691.5</ele><time>2026-04-18T09:41:18Z</time></trkpt><trkpt lat="45.912243386943175" lon="9.261182315331794"><ele>695.75</ele><time>2026-04-18T09:41:19Z</time></trkpt><trkpt lat="45.91233335430566" lon="9.261012388714798"><ele>700.0</ele><time>2026-04-18T09:41:20Z</time></trkpt><trkpt lat="45.912438619652484" lon="9.260862475260133"><ele>700.0</ele><time>2026-04-18T09:41:21Z</time></trkpt><trkpt lat="45.91256213765031" lon="9.26074880972938"><ele>700.0</ele><time>2026-04-18T09:41:22Z</time></trkpt><trkpt lat="45.91266476480973" lon="9.26060868652272"><ele>700.0</ele><time>2026-04-18T09:41:23Z</time></trkpt><trkpt lat="45.91277484371876" lon="9.26049323929775"><ele>700.0</ele><time>2026-04-18T09:41:24Z</time></trkpt><trkpt lat="45.91287377088567" lon="9.260384511517023"><ele>699.0</ele><time>2026-04-18T09:41:25Z</time></trkpt><trkpt lat="45.91297650610033" lon="9.260283563837422"><ele>698.0</ele><time>2026-04-18T09:41:26Z</time></trkpt><trkpt lat="45.91307713354867" lon="9.260175480298214"><ele>697.0</ele><time>2026-04-18T09:41:27Z</time></trkpt><trkpt lat="45.91317559841389" lon="9.260071299971539"><ele>696.0</ele><time>2026-04-18T09:41:28Z</time></trkpt><trkpt lat="45.913277251947626" lon="9.259967781342251"><ele>696.0</ele><time>2026-04-18T09:41:29Z</time></trkpt><trkpt lat="45.913401164329265" lon="9.259921650133142"><ele>696.0</ele><time>2026-04-18T09:41:30Z</time></trkpt><trkpt lat="45.91352769799611" lon="9.259876628221178"><ele>696.0</ele><time>2026-04-18T09:41:31Z</time></trkpt><trkpt lat="45.913659915437464" lon="9.259864983801119"><ele>696.0</ele><time>2026-04-18T09:41:32Z</time></trkpt><trkpt lat="45.913793327376204" lon="9.25988653633374"><ele>698.0</ele><time>2026-04-18T09:41:33Z</time></trkpt><trkpt lat="45.91392258989598" lon="9.259943624327349"><ele>700.0</ele><time>2026-04-18T09:41:34Z</time></trkpt><trkpt lat="45.91405360503716" lon="9.26001207969465"><ele>702.0</ele><time>2026-04-18T09:41:35Z</time></trkpt><trkpt lat="45.9141890858411" lon="9.260080058552443"><ele>704.0</ele><time>2026-04-18T09:41:36Z</time></trkpt><trkpt lat="45.91431482701098" lon="9.26016551082866"><ele>707.75</ele><time>2026-04-18T09:41:37Z</time></trkpt><trkpt lat="45.91444187324039" lon="9.260219377838174"><ele>711.5</ele><time>2026-04-18T09:41:38Z</time></trkpt><trkpt lat="45.91458848010341" lon="9.260245085255718"><ele>715.25</ele><time>2026-04-18T09:41:39Z</time></trkpt><trkpt lat="45.91473307221275" lon="9.260261649732657"><ele>719.0</ele><time>2026-04-18T09:41:40Z</time></trkpt><trkpt lat="45.91488759712905" lon="9.260281916297753"><ele>719.0</ele><time>2026-04-18T09:41:41Z</time></trkpt><trkpt lat="45.915038198217" lon="9.260301985151928"><ele>719.0</ele><time>2026-04-18T09:41:42Z</time></trkpt><trkpt lat="45.915194716433795" lon="9.260319064493615"><ele>719.0</ele><time>2026-04-18T09:41:43Z</time></trkpt><trkpt lat="45.9153531603448" lon="9.260337855018037"><ele>723.0</ele><time>2026-04-18T09:41:44Z</time></trkpt><trkpt lat="45.915513592516355" lon="9.260360138677122"><ele>727.0</ele><time>2026-04-18T09:41:45Z</time></trkpt><trkpt lat="45.91568302433113" lon="9.260375456280846"><ele>731.0</ele><time>2026-04-18T09:41:46Z</time></trkpt><trkpt lat="45.91583481841864" lon="9.260396225366602"><ele>730.75</ele><time>2026-04-18T09:41:47Z</time></trkpt><trkpt lat="45.915978409245355" lon="9.260441611454532"><ele>730.5</ele><time>2026-04-18T09:41:48Z</time></trkpt><trkpt lat="45.91611877592661" lon="9.260480114358936"><ele>730.25</ele><time>2026-04-18T09:41:49Z</time></trkpt><trkpt lat="45.91624431539943" lon="9.260580446268238"><ele>730.0</ele><time>2026-04-18T09:41:50Z</time></trkpt><trkpt lat="45.916378849553595" lon="9.260668431596883"><ele>730.0</ele><time>2026-04-18T09:41:51Z</time></trkpt><trkpt lat="45.916514237980905" lon="9.260744881501504"><ele>730.0</ele><time>2026-04-18T09:41:52Z</time></trkpt><trkpt lat="45.916642310912835" lon="9.260837879570168"><ele>730.0</ele><time>2026-04-18T09:41:53Z</time></trkpt><trkpt lat="45.9167668896949" lon="9.260919100257155"><ele>730.0</ele><time>2026-04-18T09:41:54Z</time></trkpt><trkpt lat="45.91689499362728" lon="9.261000819816186"><ele>733.0</ele><time>2026-04-18T09:41:55.001Z</time></trkpt><trkpt lat="45.91702099721388" lon="9.261078322701596"><ele>736.0</ele><time>2026-04-18T09:41:56.001Z</time></trkpt><trkpt lat="45.91714987675808" lon="9.261148384736451"><ele>739.0</ele><time>2026-04-18T09:41:57.001Z</time></trkpt><trkpt lat="45.91728980837214" lon="9.261201960074631"><ele>742.0</ele><time>2026-04-18T09:41:58.001Z</time></trkpt><trkpt lat="45.91744069546476" lon="9.261232280091246"><ele>744.0</ele><time>2026-04-18T09:41:59.001Z</time></trkpt><trkpt lat="45.917596682240976" lon="9.261250581627223"><ele>746.0</ele><time>2026-04-18T09:42:00.001Z</time></trkpt><trkpt lat="45.91776189120437" lon="9.261276394169442"><ele>748.0</ele><time>2026-04-18T09:42:01.001Z</time></trkpt><trkpt lat="45.917915034744254" lon="9.261313420102463"><ele>748.0</ele><time>2026-04-18T09:42:02.001Z</time></trkpt><trkpt lat="45.918058928660095" lon="9.261343768321714"><ele>748.0</ele><time>2026-04-18T09:42:03.001Z</time></trkpt><trkpt lat="45.9181978056379" lon="9.26137289110355"><ele>748.0</ele><time>2026-04-18T09:42:04.001Z</time></trkpt><trkpt lat="45.918337154661515" lon="9.261406364396164"><ele>748.0</ele><time>2026-04-18T09:42:05.001Z</time></trkpt><trkpt lat="45.918480095683606" lon="9.261451056155957"><ele>746.25</ele><time>2026-04-18T09:42:06.001Z</time></trkpt><trkpt lat="45.91861516466518" lon="9.261458531503859"><ele>744.5</ele><time>2026-04-18T09:42:07.001Z</time></trkpt><trkpt lat="45.9187464594345" lon="9.261495428871912"><ele>742.75</ele><time>2026-04-18T09:42:08.001Z</time></trkpt><trkpt lat="45.91887842737861" lon="9.2615208368529"><ele>741.0</ele><time>2026-04-18T09:42:09.001Z</time></trkpt><trkpt lat="45.91900226808155" lon="9.261547620931477"><ele>741.0</ele><time>2026-04-18T09:42:10.001Z</time></trkpt><trkpt lat="45.91912467382081" lon="9.26156927617338"><ele>741.0</ele><time>2026-04-18T09:42:11.001Z</time></trkpt><trkpt lat="45.91923435406096" lon="9.261593083450947"><ele>741.0</ele><time>2026-04-18T09:42:12.001Z</time></trkpt><trkpt lat="45.91933206730124" lon="9.261607310291975"><ele>741.0</ele><time>2026-04-18T09:42:13.001Z</time></trkpt><trkpt lat="45.919426272716905" lon="9.26162544560897"><ele>741.0</ele><time>2026-04-18T09:42:14.001Z</time></trkpt><trkpt lat="45.91952631281015" lon="9.26164319832149"><ele>741.5999999999999</ele><time>2026-04-18T09:42:15.001Z</time></trkpt><trkpt lat="45.919626787545255" lon="9.261657538518696"><ele>742.2</ele><time>2026-04-18T09:42:16.001Z</time></trkpt><trkpt lat="45.91973181030259" lon="9.26165789231466"><ele>742.8</ele><time>2026-04-18T09:42:17.001Z</time></trkpt><trkpt lat="45.919841166299555" lon="9.261644972420369"><ele>743.4000000000001</ele><time>2026-04-18T09:42:18.001Z</time></trkpt><trkpt lat="45.9199393546114" lon="9.261626163873077"><ele>744.0</ele><time>2026-04-18T09:42:19.001Z</time></trkpt><trkpt lat="45.92002923074704" lon="9.261608373746448"><ele>745.5</ele><time>2026-04-18T09:42:20.001Z</time></trkpt><trkpt lat="45.920098985134864" lon="9.261597468102282"><ele>747.0</ele><time>2026-04-18T09:42:21.001Z</time></trkpt><trkpt lat="45.920174351918554" lon="9.261590012240845"><ele>748.5</ele><time>2026-04-18T09:42:22.001Z</time></trkpt><trkpt lat="45.92024192991653" lon="9.261577011222487"><ele>750.0</ele><time>2026-04-18T09:42:23.001Z</time></trkpt><trkpt lat="45.92031497047451" lon="9.261595424219195"><ele>751.5</ele><time>2026-04-18T09:42:24.001Z</time></trkpt><trkpt lat="45.92038683972655" lon="9.261620679878195"><ele>753.0</ele><time>2026-04-18T09:42:25.001Z</time></trkpt><trkpt lat="45.92046687609832" lon="9.261678452554513"><ele>753.0</ele><time>2026-04-18T09:42:26.001Z</time></trkpt><trkpt lat="45.920559621777265" lon="9.261728042085194"><ele>753.0</ele><time>2026-04-18T09:42:27.001Z</time></trkpt><trkpt lat="45.92064187533314" lon="9.261797272046227"><ele>753.0</ele><time>2026-04-18T09:42:28.001Z</time></trkpt><trkpt lat="45.920733017947505" lon="9.261855846347876"><ele>753.0</ele><time>2026-04-18T09:42:29.001Z</time></trkpt><trkpt lat="45.92081932132507" lon="9.261922199981038"><ele>753.0</ele><time>2026-04-18T09:42:30.001Z</time></trkpt><trkpt lat="45.920908779424" lon="9.261985239192942"><ele>754.75</ele><time>2026-04-18T09:42:31.001Z</time></trkpt><trkpt lat="45.921014235336926" lon="9.262049925341376"><ele>756.5</ele><time>2026-04-18T09:42:32.001Z</time></trkpt><trkpt lat="45.9211266321821" lon="9.262122172610301"><ele>758.25</ele><time>2026-04-18T09:42:33.001Z</time></trkpt><trkpt lat="45.92123678000231" lon="9.262180202274198"><ele>760.0</ele><time>2026-04-18T09:42:34.001Z</time></trkpt><trkpt lat="45.92135412526499" lon="9.262222275639148"><ele>760.0</ele><time>2026-04-18T09:42:35.001Z</time></trkpt><trkpt lat="45.92147697827566" lon="9.262258388729597"><ele>760.0</ele><time>2026-04-18T09:42:36.001Z</time></trkpt><trkpt lat="45.92159341555733" lon="9.262297719567224"><ele>760.0</ele><time>2026-04-18T09:42:37.001Z</time></trkpt><trkpt lat="45.92170547096446" lon="9.262337196094233"><ele>760.0</ele><time>2026-04-18T09:42:38.002Z</time></trkpt><trkpt lat="45.921816659290585" lon="9.26238289944969"><ele>759.0</ele><time>2026-04-18T09:42:39.002Z</time></trkpt><trkpt lat="45.921929412642214" lon="9.262434936891454"><ele>758.0</ele><time>2026-04-18T09:42:40.002Z</time></trkpt><trkpt lat="45.92204075960442" lon="9.262492072775915"><ele>757.0</ele><time>2026-04-18T09:42:41.002Z</time></trkpt><trkpt lat="45.92214737268229" lon="9.262560224175523"><ele>756.0</ele><time>2026-04-18T09:42:42.002Z</time></trkpt><trkpt lat="45.92224691216198" lon="9.262630520942768"><ele>756.0</ele><time>2026-04-18T09:42:43.002Z</time></trkpt><trkpt lat="45.92234182666866" lon="9.262711172590125"><ele>756.0</ele><time>2026-04-18T09:42:44.002Z</time></trkpt><trkpt lat="45.92242982560572" lon="9.262808731349102"><ele>756.0</ele><time>2026-04-18T09:42:45.002Z</time></trkpt><trkpt lat="45.92250803691659" lon="9.26291582226633"><ele>756.0</ele><time>2026-04-18T09:42:46.002Z</time></trkpt><trkpt lat="45.92257799834214" lon="9.263021541750597"><ele>756.0</ele><time>2026-04-18T09:42:47.002Z</time></trkpt><trkpt lat="45.922643995411086" lon="9.263136705747595"><ele>758.0</ele><time>2026-04-18T09:42:48.002Z</time></trkpt><trkpt lat="45.92269961072538" lon="9.2632586640373"><ele>760.0</ele><time>2026-04-18T09:42:49.002Z</time></trkpt><trkpt lat="45.92274467074576" lon="9.263381555286728"><ele>762.0</ele><time>2026-04-18T09:42:50.002Z</time></trkpt><trkpt lat="45.922790866951814" lon="9.263511454792136"><ele>764.0</ele><time>2026-04-18T09:42:51.002Z</time></trkpt><trkpt lat="45.922825834804904" lon="9.263659268297834"><ele>766.0</ele><time>2026-04-18T09:42:52.002Z</time></trkpt><trkpt lat="45.92285148878611" lon="9.263812952768207"><ele>764.75</ele><time>2026-04-18T09:42:53.002Z</time></trkpt><trkpt lat="45.92287826036286" lon="9.26399813744742"><ele>763.5</ele><time>2026-04-18T09:42:54.002Z</time></trkpt><trkpt lat="45.92290539728891" lon="9.2641860585489"><ele>762.25</ele><time>2026-04-18T09:42:55.002Z</time></trkpt><trkpt lat="45.92293291255135" lon="9.26437211735623"><ele>761.0</ele><time>2026-04-18T09:42:56.002Z</time></trkpt><trkpt lat="45.922958916522866" lon="9.264573833875364"><ele>762.25</ele><time>2026-04-18T09:42:57.002Z</time></trkpt><trkpt lat="45.922980856440795" lon="9.264782199643728"><ele>763.5</ele><time>2026-04-18T09:42:58.002Z</time></trkpt><trkpt lat="45.922996909649726" lon="9.264965776239977"><ele>764.75</ele><time>2026-04-18T09:42:59.002Z</time></trkpt><trkpt lat="45.923010897934425" lon="9.265145402858542"><ele>766.0</ele><time>2026-04-18T09:43:00.002Z</time></trkpt><trkpt lat="45.92302620478596" lon="9.265344851093065"><ele>766.0</ele><time>2026-04-18T09:43:01.002Z</time></trkpt><trkpt lat="45.92304249456154" lon="9.265557106795493"><ele>766.0</ele><time>2026-04-18T09:43:02.002Z</time></trkpt><trkpt lat="45.923074225052694" lon="9.265789615243794"><ele>766.0</ele><time>2026-04-18T09:43:03.002Z</time></trkpt><trkpt lat="45.92308570216899" lon="9.2660527216132"><ele>766.0</ele><time>2026-04-18T09:43:04.002Z</time></trkpt><trkpt lat="45.923108153246574" lon="9.266317605805916"><ele>766.0</ele><time>2026-04-18T09:43:05.002Z</time></trkpt><trkpt lat="45.92315333457577" lon="9.266532957253434"><ele>766.0</ele><time>2026-04-18T09:43:06.002Z</time></trkpt><trkpt lat="45.92321908172492" lon="9.266713959611979"><ele>766.0</ele><time>2026-04-18T09:43:07.002Z</time></trkpt><trkpt lat="45.92329837520116" lon="9.266867982329323"><ele>766.0</ele><time>2026-04-18T09:43:08.002Z</time></trkpt><trkpt lat="45.9233876933831" lon="9.266977491817734"><ele>766.0</ele><time>2026-04-18T09:43:09.002Z</time></trkpt><trkpt lat="45.923484375488876" lon="9.267052527525367"><ele>766.0</ele><time>2026-04-18T09:43:10.002Z</time></trkpt><trkpt lat="45.92355327964521" lon="9.267101917923858"><ele>766.0</ele><time>2026-04-18T09:43:11.002Z</time></trkpt><trkpt lat="45.923626939355934" lon="9.26714749265358"><ele>766.0</ele><time>2026-04-18T09:43:13.002Z</time></trkpt><trkpt lat="45.92370959934874" lon="9.267028961105973"><ele>766.0</ele><time>2026-04-18T09:43:15.002Z</time></trkpt><trkpt lat="45.923791602390075" lon="9.266916400897703"><ele>766.0</ele><time>2026-04-18T09:43:16.002Z</time></trkpt><trkpt lat="45.923866500326525" lon="9.266854801688499"><ele>766.0</ele><time>2026-04-18T09:43:17.002Z</time></trkpt><trkpt lat="45.92398107290995" lon="9.266958722228063"><ele>766.0</ele><time>2026-04-18T09:43:18Z</time></trkpt><trkpt lat="45.924055379716386" lon="9.267025437843216"><ele>766.0</ele><time>2026-04-18T09:43:19Z</time></trkpt><trkpt lat="45.924283992768856" lon="9.267159675769275"><ele>766.0</ele><time>2026-04-18T09:43:20Z</time></trkpt><trkpt lat="45.92442923016206" lon="9.26725626291652"><ele>765.5</ele><time>2026-04-18T09:43:21Z</time></trkpt><trkpt lat="45.92455521156548" lon="9.267318509933725"><ele>765.0</ele><time>2026-04-18T09:43:22Z</time></trkpt><trkpt lat="45.9246570540974" lon="9.267296702946407"><ele>764.5</ele><time>2026-04-18T09:43:23Z</time></trkpt><trkpt lat="45.92477264059272" lon="9.267241376996616"><ele>764.0</ele><time>2026-04-18T09:43:24Z</time></trkpt><trkpt lat="45.92495573875008" lon="9.26719530851875"><ele>777.3333333333333</ele><time>2026-04-18T09:43:25Z</time></trkpt><trkpt lat="45.92514768360365" lon="9.267213823353446"><ele>790.6666666666666</ele><time>2026-04-18T09:43:26Z</time></trkpt><trkpt lat="45.92532047522141" lon="9.267247557298344"><ele>804.0</ele><time>2026-04-18T09:43:27Z</time></trkpt><trkpt lat="45.925470792295286" lon="9.267272476371659"><ele>804.0</ele><time>2026-04-18T09:43:28Z</time></trkpt><trkpt lat="45.92558517419108" lon="9.267250634893967"><ele>804.0</ele><time>2026-04-18T09:43:29Z</time></trkpt><trkpt lat="45.92567671097782" lon="9.267141501287707"><ele>804.0</ele><time>2026-04-18T09:43:30Z</time></trkpt><trkpt lat="45.92582739793927" lon="9.267061168212068"><ele>804.0</ele><time>2026-04-18T09:43:31Z</time></trkpt><trkpt lat="45.92597192966211" lon="9.266998175626513"><ele>797.75</ele><time>2026-04-18T09:43:32Z</time></trkpt><trkpt lat="45.926121975062415" lon="9.266961669238086"><ele>791.5</ele><time>2026-04-18T09:43:33Z</time></trkpt><trkpt lat="45.926269776365324" lon="9.266940957712551"><ele>785.25</ele><time>2026-04-18T09:43:34Z</time></trkpt><trkpt lat="45.92638234061275" lon="9.26692968812579"><ele>779.0</ele><time>2026-04-18T09:43:35Z</time></trkpt><trkpt lat="45.926489193981816" lon="9.266889372822707"><ele>779.0</ele><time>2026-04-18T09:43:36Z</time></trkpt><trkpt lat="45.926544820575" lon="9.266788995059136"><ele>779.0</ele><time>2026-04-18T09:43:37Z</time></trkpt><trkpt lat="45.926622499930026" lon="9.266693592092912"><ele>779.0</ele><time>2026-04-18T09:43:38Z</time></trkpt><trkpt lat="45.926701188825554" lon="9.266549934686996"><ele>779.0</ele><time>2026-04-18T09:43:39Z</time></trkpt><trkpt lat="45.92680773181148" lon="9.266485659074224"><ele>779.0</ele><time>2026-04-18T09:43:40Z</time></trkpt><trkpt lat="45.926887507577845" lon="9.266426453533445"><ele>777.6</ele><time>2026-04-18T09:43:41Z</time></trkpt><trkpt lat="45.92695569597089" lon="9.26634334979284"><ele>776.2</ele><time>2026-04-18T09:43:42Z</time></trkpt><trkpt lat="45.927012260327764" lon="9.26626491458314"><ele>774.8000000000001</ele><time>2026-04-18T09:43:43Z</time></trkpt><trkpt lat="45.92701938033408" lon="9.266119558311805"><ele>773.4000000000001</ele><time>2026-04-18T09:43:44Z</time></trkpt><trkpt lat="45.927009780506005" lon="9.265949230464145"><ele>772.0</ele><time>2026-04-18T09:43:45Z</time></trkpt><trkpt lat="45.92701574446821" lon="9.265772489679811"><ele>775.0</ele><time>2026-04-18T09:43:46Z</time></trkpt><trkpt lat="45.92702092890002" lon="9.265577524571471"><ele>778.0</ele><time>2026-04-18T09:43:47Z</time></trkpt><trkpt lat="45.927031804518066" lon="9.265382815801903"><ele>781.0</ele><time>2026-04-18T09:43:48Z</time></trkpt><trkpt lat="45.92704370084331" lon="9.26518774608687"><ele>784.0</ele><time>2026-04-18T09:43:49Z</time></trkpt><trkpt lat="45.92706484369668" lon="9.26498436249348"><ele>788.2</ele><time>2026-04-18T09:43:50Z</time></trkpt><trkpt lat="45.92707990392168" lon="9.264777448752916"><ele>792.4000000000001</ele><time>2026-04-18T09:43:51Z</time></trkpt><trkpt lat="45.92709087528924" lon="9.264597473807074"><ele>796.6</ele><time>2026-04-18T09:43:52Z</time></trkpt><trkpt lat="45.92711670236155" lon="9.264468882850919"><ele>800.8</ele><time>2026-04-18T09:43:53Z</time></trkpt><trkpt lat="45.927159297208945" lon="9.26437590188395"><ele>805.0</ele><time>2026-04-18T09:43:54Z</time></trkpt><trkpt lat="45.92724665232761" lon="9.264340692488357"><ele>805.0</ele><time>2026-04-18T09:43:55Z</time></trkpt><trkpt lat="45.92739458665838" lon="9.26430414988342"><ele>805.0</ele><time>2026-04-18T09:43:56Z</time></trkpt><trkpt lat="45.92750761109865" lon="9.264206941364094"><ele>805.0</ele><time>2026-04-18T09:43:57Z</time></trkpt><trkpt lat="45.92762224249674" lon="9.264099427589043"><ele>805.0</ele><time>2026-04-18T09:43:58Z</time></trkpt><trkpt lat="45.927749496745385" lon="9.263982017576547"><ele>807.75</ele><time>2026-04-18T09:43:59Z</time></trkpt><trkpt lat="45.92787666671724" lon="9.263864708783325"><ele>810.5</ele><time>2026-04-18T09:44:00Z</time></trkpt><trkpt lat="45.92800343022608" lon="9.263747774918722"><ele>813.25</ele><time>2026-04-18T09:44:01.001Z</time></trkpt><trkpt lat="45.92811550399585" lon="9.263646255056601"><ele>816.0</ele><time>2026-04-18T09:44:02.001Z</time></trkpt><trkpt lat="45.928210010954885" lon="9.263561585427665"><ele>816.0</ele><time>2026-04-18T09:44:03.001Z</time></trkpt><trkpt lat="45.928292917027306" lon="9.263474839528548"><ele>816.0</ele><time>2026-04-18T09:44:04.001Z</time></trkpt><trkpt lat="45.92834915693361" lon="9.263338367791617"><ele>816.0</ele><time>2026-04-18T09:44:05.001Z</time></trkpt><trkpt lat="45.92842706939867" lon="9.26321358342778"><ele>816.0</ele><time>2026-04-18T09:44:06.001Z</time></trkpt><trkpt lat="45.92850573920508" lon="9.263114630604441"><ele>816.0</ele><time>2026-04-18T09:44:07.001Z</time></trkpt><trkpt lat="45.9285772057452" lon="9.263004342950312"><ele>814.4</ele><time>2026-04-18T09:44:08.001Z</time></trkpt><trkpt lat="45.928626457544034" lon="9.262852341080825"><ele>812.8</ele><time>2026-04-18T09:44:09.001Z</time></trkpt><trkpt lat="45.92867317185007" lon="9.26270970106374"><ele>811.1999999999999</ele><time>2026-04-18T09:44:10.001Z</time></trkpt><trkpt lat="45.9287142963017" lon="9.26259608103728"><ele>809.5999999999999</ele><time>2026-04-18T09:44:11.001Z</time></trkpt><trkpt lat="45.92873876443018" lon="9.26250053352916"><ele>808.0</ele><time>2026-04-18T09:44:12.001Z</time></trkpt><trkpt lat="45.928765583916466" lon="9.26240365534368"><ele>807.9999999999999</ele><time>2026-04-18T09:44:13.001Z</time></trkpt><trkpt lat="45.92878303079773" lon="9.262287391031895"><ele>808.0</ele><time>2026-04-18T09:44:14.001Z</time></trkpt><trkpt lat="45.92878481829789" lon="9.262160208718434"><ele>808.0</ele><time>2026-04-18T09:44:15.001Z</time></trkpt><trkpt lat="45.92877882780212" lon="9.26203419054399"><ele>808.0</ele><time>2026-04-18T09:44:16.001Z</time></trkpt><trkpt lat="45.928774610910565" lon="9.261923842541254"><ele>807.9999999999999</ele><time>2026-04-18T09:44:17.001Z</time></trkpt><trkpt lat="45.92876643704212" lon="9.261832174652485"><ele>808.0</ele><time>2026-04-18T09:44:18.001Z</time></trkpt><trkpt lat="45.92876921724056" lon="9.261659481564195"><ele>809.5999999999999</ele><time>2026-04-18T09:44:20.001Z</time></trkpt><trkpt lat="45.928786596231184" lon="9.261476861236853"><ele>811.1999999999999</ele><time>2026-04-18T09:44:22.001Z</time></trkpt><trkpt lat="45.92880184489636" lon="9.261385360369557"><ele>812.8</ele><time>2026-04-18T09:44:23.001Z</time></trkpt><trkpt lat="45.92882254789408" lon="9.26121213528625"><ele>814.4</ele><time>2026-04-18T09:44:25.001Z</time></trkpt><trkpt lat="45.92883873303428" lon="9.261107876413169"><ele>816.0</ele><time>2026-04-18T09:44:26.001Z</time></trkpt><trkpt lat="45.92885560470916" lon="9.260998258586408"><ele>818.5</ele><time>2026-04-18T09:44:27.001Z</time></trkpt><trkpt lat="45.92888725778701" lon="9.26090425274922"><ele>821.0</ele><time>2026-04-18T09:44:28.001Z</time></trkpt><trkpt lat="45.92894576350193" lon="9.260852797824707"><ele>823.5</ele><time>2026-04-18T09:44:29.001Z</time></trkpt><trkpt lat="45.928999752164366" lon="9.260758738591397"><ele>826.0</ele><time>2026-04-18T09:44:30.001Z</time></trkpt><trkpt lat="45.929069230777564" lon="9.260687086441147"><ele>828.5</ele><time>2026-04-18T09:44:31.001Z</time></trkpt><trkpt lat="45.92913546474947" lon="9.260601570618574"><ele>831.0</ele><time>2026-04-18T09:44:32.001Z</time></trkpt><trkpt lat="45.92919597833097" lon="9.260517676338182"><ele>830.75</ele><time>2026-04-18T09:44:33.001Z</time></trkpt><trkpt lat="45.92926071152704" lon="9.260398066889707"><ele>830.5</ele><time>2026-04-18T09:44:34.001Z</time></trkpt><trkpt lat="45.92931926295937" lon="9.26027438428175"><ele>830.25</ele><time>2026-04-18T09:44:35.001Z</time></trkpt><trkpt lat="45.92938230419376" lon="9.260136866864316"><ele>830.0</ele><time>2026-04-18T09:44:36.001Z</time></trkpt><trkpt lat="45.92945373211977" lon="9.259987244208896"><ele>830.0</ele><time>2026-04-18T09:44:37.001Z</time></trkpt><trkpt lat="45.92952162396109" lon="9.25984135507255"><ele>830.0</ele><time>2026-04-18T09:44:38.001Z</time></trkpt><trkpt lat="45.929581901517786" lon="9.259710763284518"><ele>830.0</ele><time>2026-04-18T09:44:39.001Z</time></trkpt><trkpt lat="45.92963276536183" lon="9.25959099121286"><ele>830.0</ele><time>2026-04-18T09:44:40.001Z</time></trkpt><trkpt lat="45.92969305010877" lon="9.259496905444333"><ele>830.0</ele><time>2026-04-18T09:44:41.001Z</time></trkpt><trkpt lat="45.92974062952297" lon="9.259395541680398"><ele>832.1666666666667</ele><time>2026-04-18T09:44:42.001Z</time></trkpt><trkpt lat="45.92977716612288" lon="9.259291232328492"><ele>834.3333333333334</ele><time>2026-04-18T09:44:43.001Z</time></trkpt><trkpt lat="45.92982864126123" lon="9.259189188972123"><ele>836.5</ele><time>2026-04-18T09:44:44.002Z</time></trkpt><trkpt lat="45.929869588584474" lon="9.259080617073753"><ele>838.6666666666667</ele><time>2026-04-18T09:44:45.002Z</time></trkpt><trkpt lat="45.929921859917464" lon="9.258988009663064"><ele>840.8333333333334</ele><time>2026-04-18T09:44:46.002Z</time></trkpt><trkpt lat="45.929966917376106" lon="9.258883131756752"><ele>843.0</ele><time>2026-04-18T09:44:47.002Z</time></trkpt><trkpt lat="45.930020911770434" lon="9.258783507165825"><ele>842.2</ele><time>2026-04-18T09:44:48.002Z</time></trkpt><trkpt lat="45.93007477824789" lon="9.258667936124441"><ele>841.4</ele><time>2026-04-18T09:44:49.002Z</time></trkpt><trkpt lat="45.93011405293334" lon="9.258536618047366"><ele>840.6</ele><time>2026-04-18T09:44:50.002Z</time></trkpt><trkpt lat="45.930124500094" lon="9.258374039097466"><ele>839.8000000000001</ele><time>2026-04-18T09:44:51.002Z</time></trkpt><trkpt lat="45.9301106052408" lon="9.258199470556585"><ele>839.0</ele><time>2026-04-18T09:44:52.002Z</time></trkpt><trkpt lat="45.93007843484308" lon="9.25803407512906"><ele>842.4000000000001</ele><time>2026-04-18T09:44:53.002Z</time></trkpt><trkpt lat="45.930033872170895" lon="9.257896083709074"><ele>845.8</ele><time>2026-04-18T09:44:54.002Z</time></trkpt><trkpt lat="45.92999468002732" lon="9.257763548968486"><ele>849.1999999999999</ele><time>2026-04-18T09:44:55.002Z</time></trkpt><trkpt lat="45.92996058629764" lon="9.25763327312806"><ele>852.5999999999999</ele><time>2026-04-18T09:44:56.002Z</time></trkpt><trkpt lat="45.92992849822445" lon="9.257506072602379"><ele>856.0</ele><time>2026-04-18T09:44:57.002Z</time></trkpt><trkpt lat="45.929902388979606" lon="9.257390033690305"><ele>855.9999999999999</ele><time>2026-04-18T09:44:58.002Z</time></trkpt><trkpt lat="45.92987470944357" lon="9.257300860994317"><ele>856.0</ele><time>2026-04-18T09:44:59.002Z</time></trkpt><trkpt lat="45.9298520507402" lon="9.2571906988859"><ele>856.0</ele><time>2026-04-18T09:45:00.002Z</time></trkpt><trkpt lat="45.92983655142283" lon="9.257098320310597"><ele>856.0</ele><time>2026-04-18T09:45:01.002Z</time></trkpt><trkpt lat="45.929809144180496" lon="9.25695252830775"><ele>855.9999999999999</ele><time>2026-04-18T09:45:03.002Z</time></trkpt><trkpt lat="45.92977134478828" lon="9.256790183035525"><ele>856.0</ele><time>2026-04-18T09:45:05.002Z</time></trkpt><trkpt lat="45.9296866201485" lon="9.256741466906263"><ele>856.0</ele><time>2026-04-18T09:45:07.002Z</time></trkpt><trkpt lat="45.929632695748786" lon="9.2569105343243"><ele>855.9999999999999</ele><time>2026-04-18T09:45:09.002Z</time></trkpt><trkpt lat="45.92965520102958" lon="9.257018876674818"><ele>855.9999999999999</ele><time>2026-04-18T09:45:10.002Z</time></trkpt><trkpt lat="45.92965431698177" lon="9.257125575057106"><ele>856.0</ele><time>2026-04-18T09:45:11.002Z</time></trkpt><trkpt lat="45.929664835198444" lon="9.257311602780488"><ele>856.0</ele><time>2026-04-18T09:45:13.002Z</time></trkpt><trkpt lat="45.929620746041564" lon="9.257396946071342"><ele>855.9999999999999</ele><time>2026-04-18T09:45:14.002Z</time></trkpt><trkpt lat="45.929586402156446" lon="9.257485853020912"><ele>856.0</ele><time>2026-04-18T09:45:15.002Z</time></trkpt><trkpt lat="45.929559333737764" lon="9.257593660115573"><ele>856.0</ele><time>2026-04-18T09:45:16.002Z</time></trkpt><trkpt lat="45.92952029490312" lon="9.257691175826508"><ele>856.0</ele><time>2026-04-18T09:45:17.002Z</time></trkpt><trkpt lat="45.92948649005771" lon="9.257783432635385"><ele>855.9999999999999</ele><time>2026-04-18T09:45:18.002Z</time></trkpt><trkpt lat="45.92944285586636" lon="9.25786427597066"><ele>856.0</ele><time>2026-04-18T09:45:19.002Z</time></trkpt><trkpt lat="45.92941234866267" lon="9.257967614667647"><ele>856.0000000000001</ele><time>2026-04-18T09:45:20.002Z</time></trkpt><trkpt lat="45.92937891566515" lon="9.258062483378623"><ele>856.0</ele><time>2026-04-18T09:45:21.002Z</time></trkpt><trkpt lat="45.92933990357252" lon="9.258152691159061"><ele>856.0</ele><time>2026-04-18T09:45:22.002Z</time></trkpt><trkpt lat="45.92933267640224" lon="9.2582464989454"><ele>856.0</ele><time>2026-04-18T09:45:23.002Z</time></trkpt><trkpt lat="45.92933390229662" lon="9.258337010108535"><ele>856.0</ele><time>2026-04-18T09:45:24Z</time></trkpt><trkpt lat="45.92932067145139" lon="9.258426357030528"><ele>856.0000000000001</ele><time>2026-04-18T09:45:25Z</time></trkpt><trkpt lat="45.92929629948734" lon="9.25856788351319"><ele>856.0</ele><time>2026-04-18T09:45:27Z</time></trkpt><trkpt lat="45.9291998942325" lon="9.258578914892677"><ele>858.8333333333333</ele><time>2026-04-18T09:45:29Z</time></trkpt><trkpt lat="45.929177765673636" lon="9.258494017370905"><ele>861.6666666666666</ele><time>2026-04-18T09:45:30Z</time></trkpt><trkpt lat="45.92920523560523" lon="9.258401865637042"><ele>864.5</ele><time>2026-04-18T09:45:31Z</time></trkpt><trkpt lat="45.92919966474378" lon="9.258219151566811"><ele>867.3333333333333</ele><time>2026-04-18T09:45:33Z</time></trkpt><trkpt lat="45.92919692630712" lon="9.258121742645605"><ele>870.1666666666666</ele><time>2026-04-18T09:45:34Z</time></trkpt><trkpt lat="45.92918945844284" lon="9.258019668774455"><ele>873.0</ele><time>2026-04-18T09:45:35Z</time></trkpt><trkpt lat="45.92918722220149" lon="9.257914118219997"><ele>874.0</ele><time>2026-04-18T09:45:36Z</time></trkpt><trkpt lat="45.929179855268174" lon="9.257811844033368"><ele>875.0</ele><time>2026-04-18T09:45:37Z</time></trkpt><trkpt lat="45.929177501452" lon="9.25770321583543"><ele>876.0</ele><time>2026-04-18T09:45:38Z</time></trkpt><trkpt lat="45.929174683065895" lon="9.257588482994228"><ele>877.0</ele><time>2026-04-18T09:45:39Z</time></trkpt><trkpt lat="45.92915584962283" lon="9.257439789575054"><ele>878.0</ele><time>2026-04-18T09:45:40Z</time></trkpt><trkpt lat="45.92914460977463" lon="9.257281880656688"><ele>879.0</ele><time>2026-04-18T09:45:41Z</time></trkpt><trkpt lat="45.929137949768354" lon="9.2571591774845"><ele>879.0</ele><time>2026-04-18T09:45:42Z</time></trkpt><trkpt lat="45.929129806181166" lon="9.257058993150759"><ele>879.0000000000001</ele><time>2026-04-18T09:45:43Z</time></trkpt><trkpt lat="45.92911684537014" lon="9.256918208411568"><ele>879.0000000000001</ele><time>2026-04-18T09:45:45Z</time></trkpt><trkpt lat="45.9290610754026" lon="9.256808771534399"><ele>879.0</ele><time>2026-04-18T09:45:47Z</time></trkpt><trkpt lat="45.9289592981778" lon="9.256861245355765"><ele>879.0</ele><time>2026-04-18T09:45:49Z</time></trkpt><trkpt lat="45.92894193270791" lon="9.257000249310353"><ele>879.0</ele><time>2026-04-18T09:45:50Z</time></trkpt><trkpt lat="45.928922462539546" lon="9.257135331723976"><ele>879.0000000000001</ele><time>2026-04-18T09:45:51Z</time></trkpt><trkpt lat="45.928894673273206" lon="9.257294528701282"><ele>879.0000000000001</ele><time>2026-04-18T09:45:52Z</time></trkpt><trkpt lat="45.92882596381107" lon="9.257425205013007"><ele>879.0</ele><time>2026-04-18T09:45:53Z</time></trkpt><trkpt lat="45.928759546240215" lon="9.257561993943712"><ele>879.0</ele><time>2026-04-18T09:45:54Z</time></trkpt><trkpt lat="45.92867779100895" lon="9.257738604370495"><ele>879.0</ele><time>2026-04-18T09:45:55Z</time></trkpt><trkpt lat="45.92858134541385" lon="9.257953217093558"><ele>879.0</ele><time>2026-04-18T09:45:56Z</time></trkpt><trkpt lat="45.92848143046299" lon="9.258176471359805"><ele>879.0</ele><time>2026-04-18T09:45:57Z</time></trkpt><trkpt lat="45.928382011477986" lon="9.258399813866793"><ele>881.5</ele><time>2026-04-18T09:45:58Z</time></trkpt><trkpt lat="45.92830004692886" lon="9.258593958040745"><ele>884.0</ele><time>2026-04-18T09:45:59Z</time></trkpt><trkpt lat="45.928241912099416" lon="9.258764325984604"><ele>886.5</ele><time>2026-04-18T09:46:00Z</time></trkpt><trkpt lat="45.92821049483429" lon="9.258885981803619"><ele>889.0</ele><time>2026-04-18T09:46:01Z</time></trkpt><trkpt lat="45.928144602928036" lon="9.259025190005415"><ele>892.0</ele><time>2026-04-18T09:46:03Z</time></trkpt><trkpt lat="45.92812149562787" lon="9.25878174138874"><ele>895.0</ele><time>2026-04-18T09:46:05.001Z</time></trkpt><trkpt lat="45.92815320328469" lon="9.258633169310803"><ele>898.0</ele><time>2026-04-18T09:46:06.001Z</time></trkpt><trkpt lat="45.92818438520108" lon="9.258489707828113"><ele>901.0</ele><time>2026-04-18T09:46:07.001Z</time></trkpt><trkpt lat="45.92819819345883" lon="9.258263298336272"><ele>903.0</ele><time>2026-04-18T09:46:08.001Z</time></trkpt><trkpt lat="45.92819324257404" lon="9.258035983628403"><ele>905.0</ele><time>2026-04-18T09:46:09.001Z</time></trkpt><trkpt lat="45.928175437799204" lon="9.257799131589053"><ele>907.0</ele><time>2026-04-18T09:46:10.001Z</time></trkpt><trkpt lat="45.92816427360746" lon="9.257565944421648"><ele>907.0</ele><time>2026-04-18T09:46:11.001Z</time></trkpt><trkpt lat="45.928157675069556" lon="9.257326902614528"><ele>907.0</ele><time>2026-04-18T09:46:12.001Z</time></trkpt><trkpt lat="45.92815438857677" lon="9.257043035059587"><ele>907.0</ele><time>2026-04-18T09:46:13.001Z</time></trkpt><trkpt lat="45.92814725681895" lon="9.256779943134337"><ele>909.0</ele><time>2026-04-18T09:46:14.001Z</time></trkpt><trkpt lat="45.928145111426524" lon="9.256509970141085"><ele>911.0</ele><time>2026-04-18T09:46:15.001Z</time></trkpt><trkpt lat="45.928138994089196" lon="9.256257171682334"><ele>913.0</ele><time>2026-04-18T09:46:16.001Z</time></trkpt><trkpt lat="45.928138768501896" lon="9.256048373313138"><ele>916.0</ele><time>2026-04-18T09:46:17.001Z</time></trkpt><trkpt lat="45.92814742235977" lon="9.25586134279482"><ele>919.0</ele><time>2026-04-18T09:46:18.001Z</time></trkpt><trkpt lat="45.92820819522521" lon="9.255687792477918"><ele>922.0</ele><time>2026-04-18T09:46:19.001Z</time></trkpt><trkpt lat="45.92827395541725" lon="9.255499078780781"><ele>925.0</ele><time>2026-04-18T09:46:20.001Z</time></trkpt><trkpt lat="45.92832980268925" lon="9.255292595174447"><ele>919.3333333333333</ele><time>2026-04-18T09:46:21.001Z</time></trkpt><trkpt lat="45.92839755577688" lon="9.255094174765054"><ele>913.6666666666667</ele><time>2026-04-18T09:46:22.001Z</time></trkpt><trkpt lat="45.928483830838644" lon="9.254900036546044"><ele>908.0</ele><time>2026-04-18T09:46:23.001Z</time></trkpt><trkpt lat="45.92854932538619" lon="9.25469456340786"><ele>908.0</ele><time>2026-04-18T09:46:24.001Z</time></trkpt><trkpt lat="45.92859577518547" lon="9.254515755602748"><ele>908.0</ele><time>2026-04-18T09:46:25.001Z</time></trkpt><trkpt lat="45.928598852086424" lon="9.25434956120267"><ele>908.0</ele><time>2026-04-18T09:46:26.001Z</time></trkpt><trkpt lat="45.92859347157123" lon="9.254180774520174"><ele>908.0</ele><time>2026-04-18T09:46:27.001Z</time></trkpt><trkpt lat="45.92856739022874" lon="9.253989339573536"><ele>909.75</ele><time>2026-04-18T09:46:28.001Z</time></trkpt><trkpt lat="45.92852787077478" lon="9.253793608134247"><ele>911.5</ele><time>2026-04-18T09:46:29.001Z</time></trkpt><trkpt lat="45.9284946428682" lon="9.253587359980578"><ele>913.25</ele><time>2026-04-18T09:46:30.001Z</time></trkpt><trkpt lat="45.92846521436194" lon="9.253371885215852"><ele>915.0</ele><time>2026-04-18T09:46:31.001Z</time></trkpt><trkpt lat="45.92843178313309" lon="9.253147421534004"><ele>917.0</ele><time>2026-04-18T09:46:32.001Z</time></trkpt><trkpt lat="45.928400959427364" lon="9.2529196468588"><ele>919.0</ele><time>2026-04-18T09:46:33.001Z</time></trkpt><trkpt lat="45.92836976421393" lon="9.25268679224877"><ele>921.0</ele><time>2026-04-18T09:46:34.001Z</time></trkpt><trkpt lat="45.928369972271476" lon="9.252453209719299"><ele>923.5</ele><time>2026-04-18T09:46:35.001Z</time></trkpt><trkpt lat="45.92836844019117" lon="9.252240170490952"><ele>926.0</ele><time>2026-04-18T09:46:36.001Z</time></trkpt><trkpt lat="45.92837609656626" lon="9.252042330419107"><ele>928.5</ele><time>2026-04-18T09:46:37.001Z</time></trkpt><trkpt lat="45.92839816641322" lon="9.251865633346029"><ele>931.0</ele><time>2026-04-18T09:46:38.001Z</time></trkpt><trkpt lat="45.92838856965468" lon="9.251691707596086"><ele>937.25</ele><time>2026-04-18T09:46:39.001Z</time></trkpt><trkpt lat="45.928335740216426" lon="9.251515139499515"><ele>943.5</ele><time>2026-04-18T09:46:40.001Z</time></trkpt><trkpt lat="45.92825893907942" lon="9.251345214347339"><ele>949.75</ele><time>2026-04-18T09:46:41.001Z</time></trkpt><trkpt lat="45.92818489801338" lon="9.251176839979115"><ele>956.0</ele><time>2026-04-18T09:46:42.001Z</time></trkpt><trkpt lat="45.9281198123687" lon="9.250991996879819"><ele>956.25</ele><time>2026-04-18T09:46:43.001Z</time></trkpt><trkpt lat="45.9280648711594" lon="9.250798345352536"><ele>956.5</ele><time>2026-04-18T09:46:44.001Z</time></trkpt><trkpt lat="45.92802915730165" lon="9.250594094155002"><ele>956.75</ele><time>2026-04-18T09:46:45.001Z</time></trkpt><trkpt lat="45.92799618495926" lon="9.250387204097214"><ele>957.0</ele><time>2026-04-18T09:46:46.001Z</time></trkpt><trkpt lat="45.92796826070285" lon="9.2501720718366"><ele>959.6666666666667</ele><time>2026-04-18T09:46:47.001Z</time></trkpt><trkpt lat="45.927935670944784" lon="9.249956474826167"><ele>962.3333333333334</ele><time>2026-04-18T09:46:48.002Z</time></trkpt><trkpt lat="45.92789415521281" lon="9.249754017230737"><ele>965.0</ele><time>2026-04-18T09:46:49.002Z</time></trkpt><trkpt lat="45.92785215405992" lon="9.249544280857892"><ele>966.3333333333334</ele><time>2026-04-18T09:46:50.002Z</time></trkpt><trkpt lat="45.92782419657398" lon="9.249309200423196"><ele>967.6666666666667</ele><time>2026-04-18T09:46:51.002Z</time></trkpt><trkpt lat="45.92779265799682" lon="9.24909303323369"><ele>969.0</ele><time>2026-04-18T09:46:52.002Z</time></trkpt><trkpt lat="45.92776910757125" lon="9.248888435591542"><ele>969.0</ele><time>2026-04-18T09:46:53.002Z</time></trkpt><trkpt lat="45.92775717995134" lon="9.248703924136178"><ele>969.0</ele><time>2026-04-18T09:46:54.002Z</time></trkpt><trkpt lat="45.92775841716231" lon="9.248535036438202"><ele>969.0</ele><time>2026-04-18T09:46:55.002Z</time></trkpt><trkpt lat="45.92777730660382" lon="9.248367601557538"><ele>969.0</ele><time>2026-04-18T09:46:56.002Z</time></trkpt><trkpt lat="45.92781554035231" lon="9.248186998361025"><ele>969.25</ele><time>2026-04-18T09:46:57.002Z</time></trkpt><trkpt lat="45.92786025885113" lon="9.248007580269453"><ele>969.5</ele><time>2026-04-18T09:46:58.002Z</time></trkpt><trkpt lat="45.927900809140006" lon="9.247828638355927"><ele>969.75</ele><time>2026-04-18T09:46:59.002Z</time></trkpt><trkpt lat="45.92794029333986" lon="9.247659888752391"><ele>970.0</ele><time>2026-04-18T09:47:00.002Z</time></trkpt><trkpt lat="45.92798076635354" lon="9.247485389250533"><ele>970.0</ele><time>2026-04-18T09:47:01.002Z</time></trkpt><trkpt lat="45.92802647893831" lon="9.247321871764187"><ele>970.0</ele><time>2026-04-18T09:47:02.002Z</time></trkpt><trkpt lat="45.92808256831474" lon="9.247138077278414"><ele>970.0</ele><time>2026-04-18T09:47:03.002Z</time></trkpt><trkpt lat="45.92814421370407" lon="9.246953697812351"><ele>970.0</ele><time>2026-04-18T09:47:04.002Z</time></trkpt><trkpt lat="45.92820349106703" lon="9.246769243064515"><ele>970.0</ele><time>2026-04-18T09:47:05.002Z</time></trkpt><trkpt lat="45.92825942489759" lon="9.246580960620033"><ele>970.0</ele><time>2026-04-18T09:47:06.002Z</time></trkpt><trkpt lat="45.92831134756486" lon="9.24638348561343"><ele>970.0</ele><time>2026-04-18T09:47:07.002Z</time></trkpt><trkpt lat="45.928359598373774" lon="9.246177875296075"><ele>970.0</ele><time>2026-04-18T09:47:08.002Z</time></trkpt><trkpt lat="45.928406100436746" lon="9.245971814904344"><ele>970.0</ele><time>2026-04-18T09:47:09.002Z</time></trkpt><trkpt lat="45.928462751655715" lon="9.24576113314597"><ele>970.0</ele><time>2026-04-18T09:47:10.002Z</time></trkpt><trkpt lat="45.9285256268816" lon="9.245535052867698"><ele>970.0</ele><time>2026-04-18T09:47:11.002Z</time></trkpt><trkpt lat="45.92858044762897" lon="9.245289635279777"><ele>970.0</ele><time>2026-04-18T09:47:12.002Z</time></trkpt><trkpt lat="45.928628080020886" lon="9.2450286611282"><ele>970.0</ele><time>2026-04-18T09:47:13.002Z</time></trkpt><trkpt lat="45.92867979979669" lon="9.244750039867315"><ele>970.0</ele><time>2026-04-18T09:47:14.002Z</time></trkpt><trkpt lat="45.92872672519679" lon="9.244490353314896"><ele>971.5</ele><time>2026-04-18T09:47:15.002Z</time></trkpt><trkpt lat="45.928767902150874" lon="9.244259596492785"><ele>973.0</ele><time>2026-04-18T09:47:16.002Z</time></trkpt><trkpt lat="45.9288045177131" lon="9.244057111766333"><ele>974.5</ele><time>2026-04-18T09:47:17.002Z</time></trkpt><trkpt lat="45.92883699382762" lon="9.243878037106974"><ele>976.0</ele><time>2026-04-18T09:47:18.002Z</time></trkpt><trkpt lat="45.92886273720305" lon="9.243717981629217"><ele>976.1666666666666</ele><time>2026-04-18T09:47:19.002Z</time></trkpt><trkpt lat="45.92888917725292" lon="9.243576592492737"><ele>976.3333333333333</ele><time>2026-04-18T09:47:20.002Z</time></trkpt><trkpt lat="45.92891427391107" lon="9.243447962060268"><ele>976.5</ele><time>2026-04-18T09:47:21.002Z</time></trkpt><trkpt lat="45.928951231956475" lon="9.243356321281505"><ele>976.6666666666667</ele><time>2026-04-18T09:47:22.002Z</time></trkpt><trkpt lat="45.929008543714836" lon="9.243288813861403"><ele>976.8333333333334</ele><time>2026-04-18T09:47:23.002Z</time></trkpt><trkpt lat="45.92907745810556" lon="9.24324471708872"><ele>977.0</ele><time>2026-04-18T09:47:24.002Z</time></trkpt><trkpt lat="45.929150867689046" lon="9.243139213860912"><ele>977.6</ele><time>2026-04-18T09:47:26.002Z</time></trkpt><trkpt lat="45.929093816192456" lon="9.242966129145486"><ele>978.2</ele><time>2026-04-18T09:47:27.002Z</time></trkpt><trkpt lat="45.92905035022742" lon="9.242828701771804"><ele>978.8</ele><time>2026-04-18T09:47:28.002Z</time></trkpt><trkpt lat="45.9290301337861" lon="9.242687594877475"><ele>979.4</ele><time>2026-04-18T09:47:29.002Z</time></trkpt><trkpt lat="45.92901912729381" lon="9.24255821801408"><ele>980.0</ele><time>2026-04-18T09:47:30Z</time></trkpt><trkpt lat="45.92900798568602" lon="9.242421580551227"><ele>980.3333333333334</ele><time>2026-04-18T09:47:31Z</time></trkpt><trkpt lat="45.92899567061585" lon="9.242288717212407"><ele>980.6666666666667</ele><time>2026-04-18T09:47:32Z</time></trkpt><trkpt lat="45.928983448765976" lon="9.242164253124773"><ele>981.0</ele><time>2026-04-18T09:47:33Z</time></trkpt><trkpt lat="45.92897593713443" lon="9.242039674119711"><ele>981.3333333333333</ele><time>2026-04-18T09:47:34Z</time></trkpt><trkpt lat="45.92897102812901" lon="9.241922326013643"><ele>981.6666666666666</ele><time>2026-04-18T09:47:35Z</time></trkpt><trkpt lat="45.92896494994942" lon="9.241811989704091"><ele>982.0</ele><time>2026-04-18T09:47:36Z</time></trkpt><trkpt lat="45.928960834345105" lon="9.241696419381011"><ele>981.9999999999999</ele><time>2026-04-18T09:47:37Z</time></trkpt><trkpt lat="45.928961091132564" lon="9.241577183796288"><ele>982.0</ele><time>2026-04-18T09:47:38Z</time></trkpt><trkpt lat="45.928967428617085" lon="9.241469925321788"><ele>982.0</ele><time>2026-04-18T09:47:39Z</time></trkpt><trkpt lat="45.928973690607265" lon="9.2413641124388"><ele>982.0</ele><time>2026-04-18T09:47:40Z</time></trkpt><trkpt lat="45.928981493427585" lon="9.241254083682247"><ele>981.9999999999999</ele><time>2026-04-18T09:47:41Z</time></trkpt><trkpt lat="45.928982574466886" lon="9.241136637727053"><ele>982.0</ele><time>2026-04-18T09:47:42Z</time></trkpt><trkpt lat="45.92897763903499" lon="9.241006813092518"><ele>982.2</ele><time>2026-04-18T09:47:43Z</time></trkpt><trkpt lat="45.92896374813827" lon="9.240854262860104"><ele>982.4000000000001</ele><time>2026-04-18T09:47:44Z</time></trkpt><trkpt lat="45.92892976983827" lon="9.24069755283161"><ele>982.5999999999999</ele><time>2026-04-18T09:47:45Z</time></trkpt><trkpt lat="45.92886976693415" lon="9.240551512248562"><ele>982.8</ele><time>2026-04-18T09:47:46Z</time></trkpt><trkpt lat="45.92882758065411" lon="9.240425348455826"><ele>983.0</ele><time>2026-04-18T09:47:47Z</time></trkpt><trkpt lat="45.92879518585591" lon="9.240309570385486"><ele>986.25</ele><time>2026-04-18T09:47:48Z</time></trkpt><trkpt lat="45.928844648971534" lon="9.24015981641431"><ele>989.5</ele><time>2026-04-18T09:47:49Z</time></trkpt><trkpt lat="45.92891843262698" lon="9.240008032491065"><ele>992.75</ele><time>2026-04-18T09:47:50Z</time></trkpt><trkpt lat="45.92899914637365" lon="9.239838537463266"><ele>996.0</ele><time>2026-04-18T09:47:51Z</time></trkpt><trkpt lat="45.92909045877011" lon="9.239653545010588"><ele>996.3333333333333</ele><time>2026-04-18T09:47:52Z</time></trkpt><trkpt lat="45.92919023231661" lon="9.239449598886075"><ele>996.6666666666666</ele><time>2026-04-18T09:47:53Z</time></trkpt><trkpt lat="45.929301050622676" lon="9.239268895887424"><ele>997.0</ele><time>2026-04-18T09:47:54Z</time></trkpt><trkpt lat="45.92947086292613" lon="9.239144576291947"><ele>997.0</ele><time>2026-04-18T09:47:55Z</time></trkpt><trkpt lat="45.92964043997004" lon="9.238989071059889"><ele>997.0</ele><time>2026-04-18T09:47:56Z</time></trkpt><trkpt lat="45.929817758319594" lon="9.238804158510316"><ele>997.0</ele><time>2026-04-18T09:47:57Z</time></trkpt><trkpt lat="45.929974195282064" lon="9.238661608599612"><ele>995.6666666666666</ele><time>2026-04-18T09:47:58Z</time></trkpt><trkpt lat="45.93011534294977" lon="9.238523830033824"><ele>994.3333333333333</ele><time>2026-04-18T09:47:59Z</time></trkpt><trkpt lat="45.930232320101474" lon="9.238386628481372"><ele>993.0</ele><time>2026-04-18T09:48:00Z</time></trkpt><trkpt lat="45.93033243550454" lon="9.238237433173701"><ele>995.75</ele><time>2026-04-18T09:48:01Z</time></trkpt><trkpt lat="45.930406931441475" lon="9.238091037234755"><ele>998.5</ele><time>2026-04-18T09:48:02Z</time></trkpt><trkpt lat="45.93046305613705" lon="9.237933837138817"><ele>1001.25</ele><time>2026-04-18T09:48:03Z</time></trkpt><trkpt lat="45.930471200472056" lon="9.237726036552417"><ele>1004.0</ele><time>2026-04-18T09:48:04.001Z</time></trkpt><trkpt lat="45.9304981163405" lon="9.23747439046985"><ele>1003.6666666666667</ele><time>2026-04-18T09:48:05.001Z</time></trkpt><trkpt lat="45.93053418633546" lon="9.237217521330972"><ele>1003.3333333333333</ele><time>2026-04-18T09:48:06.001Z</time></trkpt><trkpt lat="45.930589070236415" lon="9.236969909683303"><ele>1003.0</ele><time>2026-04-18T09:48:07.001Z</time></trkpt><trkpt lat="45.930607299220235" lon="9.236744063748837"><ele>1003.0</ele><time>2026-04-18T09:48:08.001Z</time></trkpt><trkpt lat="45.93061720896931" lon="9.23652648782709"><ele>1003.0</ele><time>2026-04-18T09:48:09.001Z</time></trkpt><trkpt lat="45.930579589253234" lon="9.236310418362876"><ele>1003.0</ele><time>2026-04-18T09:48:10.001Z</time></trkpt><trkpt lat="45.930547979817064" lon="9.236112546885206"><ele>1003.0</ele><time>2026-04-18T09:48:11.001Z</time></trkpt><trkpt lat="45.930497404615515" lon="9.235947157496817"><ele>1001.25</ele><time>2026-04-18T09:48:12.001Z</time></trkpt><trkpt lat="45.93039479941021" lon="9.235802732730543"><ele>999.5</ele><time>2026-04-18T09:48:13.001Z</time></trkpt><trkpt lat="45.93028876853694" lon="9.235674547052023"><ele>997.75</ele><time>2026-04-18T09:48:14.001Z</time></trkpt><trkpt lat="45.930241487609536" lon="9.235491429239806"><ele>996.0</ele><time>2026-04-18T09:48:15.001Z</time></trkpt><trkpt lat="45.930226950102366" lon="9.235265861526987"><ele>991.6666666666667</ele><time>2026-04-18T09:48:16.001Z</time></trkpt><trkpt lat="45.93020066148516" lon="9.234984831664187"><ele>987.3333333333334</ele><time>2026-04-18T09:48:17.001Z</time></trkpt><trkpt lat="45.930159640750674" lon="9.234714297375815"><ele>983.0</ele><time>2026-04-18T09:48:18.001Z</time></trkpt><trkpt lat="45.93017609162135" lon="9.234476745941965"><ele>982.25</ele><time>2026-04-18T09:48:19.001Z</time></trkpt><trkpt lat="45.93016682051401" lon="9.234274840452672"><ele>981.5</ele><time>2026-04-18T09:48:20.001Z</time></trkpt><trkpt lat="45.9301557608155" lon="9.234098071617698"><ele>980.75</ele><time>2026-04-18T09:48:21.001Z</time></trkpt><trkpt lat="45.93011378355246" lon="9.23394118052425"><ele>980.0</ele><time>2026-04-18T09:48:22.001Z</time></trkpt><trkpt lat="45.93003377126005" lon="9.233796141406089"><ele>991.3333333333334</ele><time>2026-04-18T09:48:23.001Z</time></trkpt><trkpt lat="45.92993102008687" lon="9.23364094528684"><ele>1002.6666666666667</ele><time>2026-04-18T09:48:24.001Z</time></trkpt><trkpt lat="45.92980589690152" lon="9.233487866763051"><ele>1014.0</ele><time>2026-04-18T09:48:25.001Z</time></trkpt><trkpt lat="45.9296685330736" lon="9.233302128536142"><ele>1010.3333333333333</ele><time>2026-04-18T09:48:26.001Z</time></trkpt><trkpt lat="45.92954839673031" lon="9.233087861642732"><ele>1006.6666666666666</ele><time>2026-04-18T09:48:27.001Z</time></trkpt><trkpt lat="45.92944174914051" lon="9.232865991106959"><ele>1003.0</ele><time>2026-04-18T09:48:28.001Z</time></trkpt><trkpt lat="45.929330245059504" lon="9.232659798892472"><ele>1003.0</ele><time>2026-04-18T09:48:29.001Z</time></trkpt><trkpt lat="45.929235578467086" lon="9.232488427311724"><ele>1003.0</ele><time>2026-04-18T09:48:30.001Z</time></trkpt><trkpt lat="45.929165239085435" lon="9.232338730645376"><ele>1003.0</ele><time>2026-04-18T09:48:31.001Z</time></trkpt><trkpt lat="45.929109224677575" lon="9.232219867553312"><ele>1003.0</ele><time>2026-04-18T09:48:32.001Z</time></trkpt><trkpt lat="45.92904076409398" lon="9.23214130402029"><ele>1008.0</ele><time>2026-04-18T09:48:33.001Z</time></trkpt><trkpt lat="45.928950785653036" lon="9.23211728467595"><ele>1013.0</ele><time>2026-04-18T09:48:34.001Z</time></trkpt><trkpt lat="45.928817754935594" lon="9.232113186464264"><ele>1018.0</ele><time>2026-04-18T09:48:35.001Z</time></trkpt><trkpt lat="45.92867133456539" lon="9.232063634141252"><ele>1023.0</ele><time>2026-04-18T09:48:36.001Z</time></trkpt><trkpt lat="45.928506197856045" lon="9.231950522493474"><ele>1030.6666666666667</ele><time>2026-04-18T09:48:37.001Z</time></trkpt><trkpt lat="45.92836281853917" lon="9.231846405006836"><ele>1038.3333333333335</ele><time>2026-04-18T09:48:38.001Z</time></trkpt><trkpt lat="45.92820444570503" lon="9.231754635527135"><ele>1046.0</ele><time>2026-04-18T09:48:39.001Z</time></trkpt><trkpt lat="45.928037071860984" lon="9.231675917032588"><ele>1046.0</ele><time>2026-04-18T09:48:40.001Z</time></trkpt><trkpt lat="45.92789755835695" lon="9.231562555467951"><ele>1046.0</ele><time>2026-04-18T09:48:41.001Z</time></trkpt><trkpt lat="45.9277775436904" lon="9.23141133969757"><ele>1046.0</ele><time>2026-04-18T09:48:42.001Z</time></trkpt><trkpt lat="45.927589036190014" lon="9.231180515976627"><ele>1023.0</ele><time>2026-04-18T09:48:43.001Z</time></trkpt><trkpt lat="45.92742635770263" lon="9.231037764646485"><ele>1054.0</ele><time>2026-04-18T09:48:44.001Z</time></trkpt><trkpt lat="45.92727897179293" lon="9.230944462416238"><ele>1054.0</ele><time>2026-04-18T09:48:45.001Z</time></trkpt></trkseg></trk></gpx>